<?xml version="1.0" encoding="UTF-8" standalone="no" ?>
<gpx xmlns="http://www.topografix.com/GPX/1/1" xmlns:xsi="http://www.w3.org/2001/XMLSchema-instance" xsi:schemaLocation="http://www.topografix.com/GPX/1/1 http://www.topografix.com/GPX/1/1/gpx.xsd" version="1.1" creator="VisuGPX - https://www.visugpx.com">
  <metadata>
    <name>Reco Maumont</name>
    <desc><![CDATA[Trace basée sur traces de Strava, à tester]]></desc>
  </metadata>
  <trk>
    <name><![CDATA[Reco Maumont_1]]></name>
    <trkseg>
      <trkpt lat="45.22474" lon="1.55092">
        <ele>323.8</ele>
        <time>1970-01-01T01:14:31.000Z</time>
      </trkpt>
      <trkpt lat="45.22471" lon="1.55084">
        <ele>323.4</ele>
        <time>1970-01-01T01:14:33.000Z</time>
      </trkpt>
      <trkpt lat="45.22465" lon="1.55072">
        <ele>323</ele>
        <time>1970-01-01T01:14:35.000Z</time>
      </trkpt>
      <trkpt lat="45.22461" lon="1.55065">
        <ele>322.6</ele>
        <time>1970-01-01T01:14:36.000Z</time>
      </trkpt>
      <trkpt lat="45.22453" lon="1.55051">
        <ele>320.8</ele>
        <time>1970-01-01T01:14:38.000Z</time>
      </trkpt>
      <trkpt lat="45.22449" lon="1.55043">
        <ele>319.6</ele>
        <time>1970-01-01T01:14:39.000Z</time>
      </trkpt>
      <trkpt lat="45.22446" lon="1.55034">
        <ele>318.2</ele>
        <time>1970-01-01T01:14:40.000Z</time>
      </trkpt>
      <trkpt lat="45.22443" lon="1.55025">
        <ele>317</ele>
        <time>1970-01-01T01:14:41.000Z</time>
      </trkpt>
      <trkpt lat="45.22439" lon="1.55015">
        <ele>315.6</ele>
        <time>1970-01-01T01:14:42.000Z</time>
      </trkpt>
      <trkpt lat="45.2243" lon="1.54993">
        <ele>314.6</ele>
        <time>1970-01-01T01:14:44.000Z</time>
      </trkpt>
      <trkpt lat="45.22423" lon="1.54975">
        <ele>313.2</ele>
        <time>1970-01-01T01:14:46.000Z</time>
      </trkpt>
      <trkpt lat="45.22422" lon="1.54968">
        <ele>311.8</ele>
        <time>1970-01-01T01:14:47.000Z</time>
      </trkpt>
      <trkpt lat="45.22424" lon="1.54964">
        <ele>309.8</ele>
        <time>1970-01-01T01:14:48.000Z</time>
      </trkpt>
      <trkpt lat="45.22427" lon="1.54962">
        <ele>308.2</ele>
        <time>1970-01-01T01:14:49.000Z</time>
      </trkpt>
      <trkpt lat="45.22428" lon="1.5496">
        <ele>307</ele>
        <time>1970-01-01T01:14:50.000Z</time>
      </trkpt>
      <trkpt lat="45.22427" lon="1.54955">
        <ele>305.8</ele>
        <time>1970-01-01T01:14:53.000Z</time>
      </trkpt>
      <trkpt lat="45.22427" lon="1.54954">
        <ele>305.6</ele>
        <time>1970-01-01T01:14:54.000Z</time>
      </trkpt>
      <trkpt lat="45.2238" lon="1.54928">
        <ele>306.2</ele>
        <time>1970-01-01T01:15:16.000Z</time>
      </trkpt>
      <trkpt lat="45.22369" lon="1.54927">
        <ele>306.8</ele>
        <time>1970-01-01T01:15:21.000Z</time>
      </trkpt>
      <trkpt lat="45.22358" lon="1.54928">
        <ele>307.8</ele>
        <time>1970-01-01T01:15:25.000Z</time>
      </trkpt>
      <trkpt lat="45.22351" lon="1.54929">
        <ele>309.2</ele>
        <time>1970-01-01T01:15:28.000Z</time>
      </trkpt>
      <trkpt lat="45.22341" lon="1.5493">
        <ele>310.4</ele>
        <time>1970-01-01T01:15:33.000Z</time>
      </trkpt>
      <trkpt lat="45.22331" lon="1.54929">
        <ele>311.6</ele>
        <time>1970-01-01T01:15:37.000Z</time>
      </trkpt>
      <trkpt lat="45.22313" lon="1.54924">
        <ele>312.6</ele>
        <time>1970-01-01T01:15:43.000Z</time>
      </trkpt>
      <trkpt lat="45.22301" lon="1.54927">
        <ele>313.6</ele>
        <time>1970-01-01T01:15:48.000Z</time>
      </trkpt>
      <trkpt lat="45.22282" lon="1.5493">
        <ele>312.4</ele>
        <time>1970-01-01T01:15:59.000Z</time>
      </trkpt>
      <trkpt lat="45.22281" lon="1.5493">
        <ele>312.4</ele>
        <time>1970-01-01T01:16:00.000Z</time>
      </trkpt>
      <trkpt lat="45.22279" lon="1.54922">
        <ele>312</ele>
        <time>1970-01-01T01:16:07.000Z</time>
      </trkpt>
      <trkpt lat="45.22278" lon="1.54924">
        <ele>312.6</ele>
        <time>1970-01-01T01:16:51.000Z</time>
      </trkpt>
      <trkpt lat="45.22275" lon="1.54924">
        <ele>312.8</ele>
        <time>1970-01-01T01:16:54.000Z</time>
      </trkpt>
      <trkpt lat="45.22268" lon="1.5493">
        <ele>312.2</ele>
        <time>1970-01-01T01:17:00.000Z</time>
      </trkpt>
      <trkpt lat="45.22269" lon="1.54929">
        <ele>312</ele>
        <time>1970-01-01T01:17:07.000Z</time>
      </trkpt>
      <trkpt lat="45.22278" lon="1.5493">
        <ele>312.6</ele>
        <time>1970-01-01T01:17:19.000Z</time>
      </trkpt>
      <trkpt lat="45.22278" lon="1.5493">
        <ele>314.6</ele>
        <time>1970-01-01T01:22:38.000Z</time>
      </trkpt>
      <trkpt lat="45.22267" lon="1.54936">
        <ele>313.6</ele>
        <time>1970-01-01T01:22:42.000Z</time>
      </trkpt>
      <trkpt lat="45.22254" lon="1.54939">
        <ele>311.8</ele>
        <time>1970-01-01T01:22:44.000Z</time>
      </trkpt>
      <trkpt lat="45.22249" lon="1.54942">
        <ele>312.8</ele>
        <time>1970-01-01T01:22:45.000Z</time>
      </trkpt>
      <trkpt lat="45.22235" lon="1.54956">
        <ele>310.8</ele>
        <time>1970-01-01T01:22:48.000Z</time>
      </trkpt>
      <trkpt lat="45.2223" lon="1.5497">
        <ele>309</ele>
        <time>1970-01-01T01:22:50.000Z</time>
      </trkpt>
      <trkpt lat="45.22228" lon="1.54979">
        <ele>307.8</ele>
        <time>1970-01-01T01:22:51.000Z</time>
      </trkpt>
      <trkpt lat="45.22225" lon="1.55">
        <ele>306.2</ele>
        <time>1970-01-01T01:22:53.000Z</time>
      </trkpt>
      <trkpt lat="45.22225" lon="1.55011">
        <ele>305.2</ele>
        <time>1970-01-01T01:22:54.000Z</time>
      </trkpt>
      <trkpt lat="45.22225" lon="1.55023">
        <ele>304.2</ele>
        <time>1970-01-01T01:22:55.000Z</time>
      </trkpt>
      <trkpt lat="45.22225" lon="1.55035">
        <ele>303</ele>
        <time>1970-01-01T01:22:56.000Z</time>
      </trkpt>
      <trkpt lat="45.22225" lon="1.55046">
        <ele>302.4</ele>
        <time>1970-01-01T01:22:57.000Z</time>
      </trkpt>
      <trkpt lat="45.22224" lon="1.55057">
        <ele>301.6</ele>
        <time>1970-01-01T01:22:58.000Z</time>
      </trkpt>
      <trkpt lat="45.22223" lon="1.55069">
        <ele>301</ele>
        <time>1970-01-01T01:22:59.000Z</time>
      </trkpt>
      <trkpt lat="45.2222" lon="1.5508">
        <ele>300</ele>
        <time>1970-01-01T01:23:00.000Z</time>
      </trkpt>
      <trkpt lat="45.22217" lon="1.55091">
        <ele>298.6</ele>
        <time>1970-01-01T01:23:01.000Z</time>
      </trkpt>
      <trkpt lat="45.22213" lon="1.55104">
        <ele>297</ele>
        <time>1970-01-01T01:23:02.000Z</time>
      </trkpt>
      <trkpt lat="45.22211" lon="1.55116">
        <ele>295.4</ele>
        <time>1970-01-01T01:23:03.000Z</time>
      </trkpt>
      <trkpt lat="45.22209" lon="1.55128">
        <ele>294.4</ele>
        <time>1970-01-01T01:23:04.000Z</time>
      </trkpt>
      <trkpt lat="45.2221" lon="1.55141">
        <ele>293.2</ele>
        <time>1970-01-01T01:23:05.000Z</time>
      </trkpt>
      <trkpt lat="45.22211" lon="1.5515">
        <ele>292</ele>
        <time>1970-01-01T01:23:06.000Z</time>
      </trkpt>
      <trkpt lat="45.2221" lon="1.55155">
        <ele>290.2</ele>
        <time>1970-01-01T01:23:07.000Z</time>
      </trkpt>
      <trkpt lat="45.2221" lon="1.55159">
        <ele>288.4</ele>
        <time>1970-01-01T01:23:08.000Z</time>
      </trkpt>
      <trkpt lat="45.22209" lon="1.55162">
        <ele>286.4</ele>
        <time>1970-01-01T01:23:09.000Z</time>
      </trkpt>
      <trkpt lat="45.22209" lon="1.55165">
        <ele>285</ele>
        <time>1970-01-01T01:23:10.000Z</time>
      </trkpt>
      <trkpt lat="45.22209" lon="1.55172">
        <ele>283.2</ele>
        <time>1970-01-01T01:23:12.000Z</time>
      </trkpt>
      <trkpt lat="45.22206" lon="1.55181">
        <ele>281.6</ele>
        <time>1970-01-01T01:23:14.000Z</time>
      </trkpt>
      <trkpt lat="45.22203" lon="1.55186">
        <ele>280.8</ele>
        <time>1970-01-01T01:23:15.000Z</time>
      </trkpt>
      <trkpt lat="45.222" lon="1.55192">
        <ele>280</ele>
        <time>1970-01-01T01:23:16.000Z</time>
      </trkpt>
      <trkpt lat="45.22195" lon="1.55204">
        <ele>278</ele>
        <time>1970-01-01T01:23:18.000Z</time>
      </trkpt>
      <trkpt lat="45.22189" lon="1.55213">
        <ele>276.4</ele>
        <time>1970-01-01T01:23:20.000Z</time>
      </trkpt>
      <trkpt lat="45.22184" lon="1.55217">
        <ele>275.6</ele>
        <time>1970-01-01T01:23:22.000Z</time>
      </trkpt>
      <trkpt lat="45.22181" lon="1.55217">
        <ele>274.8</ele>
        <time>1970-01-01T01:23:23.000Z</time>
      </trkpt>
      <trkpt lat="45.22177" lon="1.55219">
        <ele>273.4</ele>
        <time>1970-01-01T01:23:24.000Z</time>
      </trkpt>
      <trkpt lat="45.22173" lon="1.5522">
        <ele>271.8</ele>
        <time>1970-01-01T01:23:25.000Z</time>
      </trkpt>
      <trkpt lat="45.22171" lon="1.55222">
        <ele>270.6</ele>
        <time>1970-01-01T01:23:26.000Z</time>
      </trkpt>
      <trkpt lat="45.22168" lon="1.55223">
        <ele>269.6</ele>
        <time>1970-01-01T01:23:27.000Z</time>
      </trkpt>
      <trkpt lat="45.2216" lon="1.55226">
        <ele>268.6</ele>
        <time>1970-01-01T01:23:29.000Z</time>
      </trkpt>
      <trkpt lat="45.22151" lon="1.55231">
        <ele>267.4</ele>
        <time>1970-01-01T01:23:31.000Z</time>
      </trkpt>
      <trkpt lat="45.22146" lon="1.55233">
        <ele>266</ele>
        <time>1970-01-01T01:23:32.000Z</time>
      </trkpt>
      <trkpt lat="45.22142" lon="1.55236">
        <ele>264.2</ele>
        <time>1970-01-01T01:23:33.000Z</time>
      </trkpt>
      <trkpt lat="45.22139" lon="1.55238">
        <ele>262.2</ele>
        <time>1970-01-01T01:23:34.000Z</time>
      </trkpt>
      <trkpt lat="45.22136" lon="1.5524">
        <ele>260.6</ele>
        <time>1970-01-01T01:23:35.000Z</time>
      </trkpt>
      <trkpt lat="45.22135" lon="1.55241">
        <ele>259.6</ele>
        <time>1970-01-01T01:23:36.000Z</time>
      </trkpt>
      <trkpt lat="45.22125" lon="1.55257">
        <ele>258.2</ele>
        <time>1970-01-01T01:23:41.000Z</time>
      </trkpt>
      <trkpt lat="45.2212" lon="1.55264">
        <ele>257</ele>
        <time>1970-01-01T01:23:45.000Z</time>
      </trkpt>
      <trkpt lat="45.22118" lon="1.55267">
        <ele>258.4</ele>
        <time>1970-01-01T01:25:23.000Z</time>
      </trkpt>
      <trkpt lat="45.22121" lon="1.55271">
        <ele>258.4</ele>
        <time>1970-01-01T01:25:26.000Z</time>
      </trkpt>
      <trkpt lat="45.22124" lon="1.55281">
        <ele>259.8</ele>
        <time>1970-01-01T01:25:31.000Z</time>
      </trkpt>
      <trkpt lat="45.22126" lon="1.55287">
        <ele>261</ele>
        <time>1970-01-01T01:25:34.000Z</time>
      </trkpt>
      <trkpt lat="45.22129" lon="1.55294">
        <ele>262.2</ele>
        <time>1970-01-01T01:25:38.000Z</time>
      </trkpt>
      <trkpt lat="45.22133" lon="1.55305">
        <ele>263.2</ele>
        <time>1970-01-01T01:25:43.000Z</time>
      </trkpt>
      <trkpt lat="45.22139" lon="1.55313">
        <ele>264.4</ele>
        <time>1970-01-01T01:25:48.000Z</time>
      </trkpt>
      <trkpt lat="45.22143" lon="1.55319">
        <ele>265.4</ele>
        <time>1970-01-01T01:25:52.000Z</time>
      </trkpt>
      <trkpt lat="45.22147" lon="1.55326">
        <ele>266.4</ele>
        <time>1970-01-01T01:25:56.000Z</time>
      </trkpt>
      <trkpt lat="45.22152" lon="1.55333">
        <ele>267.8</ele>
        <time>1970-01-01T01:26:01.000Z</time>
      </trkpt>
      <trkpt lat="45.22157" lon="1.5534">
        <ele>269</ele>
        <time>1970-01-01T01:26:05.000Z</time>
      </trkpt>
      <trkpt lat="45.22161" lon="1.5535">
        <ele>270.2</ele>
        <time>1970-01-01T01:26:10.000Z</time>
      </trkpt>
      <trkpt lat="45.22166" lon="1.55359">
        <ele>271.2</ele>
        <time>1970-01-01T01:26:14.000Z</time>
      </trkpt>
      <trkpt lat="45.2217" lon="1.55372">
        <ele>272.4</ele>
        <time>1970-01-01T01:26:20.000Z</time>
      </trkpt>
      <trkpt lat="45.22171" lon="1.55382">
        <ele>273.6</ele>
        <time>1970-01-01T01:26:25.000Z</time>
      </trkpt>
      <trkpt lat="45.22175" lon="1.55395">
        <ele>274.8</ele>
        <time>1970-01-01T01:26:31.000Z</time>
      </trkpt>
      <trkpt lat="45.22175" lon="1.554">
        <ele>275.4</ele>
        <time>1970-01-01T01:26:34.000Z</time>
      </trkpt>
      <trkpt lat="45.22175" lon="1.55404">
        <ele>275.6</ele>
        <time>1970-01-01T01:26:36.000Z</time>
      </trkpt>
      <trkpt lat="45.22175" lon="1.55405">
        <ele>275.8</ele>
        <time>1970-01-01T01:26:37.000Z</time>
      </trkpt>
      <trkpt lat="45.22175" lon="1.55412">
        <ele>276.4</ele>
        <time>1970-01-01T01:26:40.000Z</time>
      </trkpt>
      <trkpt lat="45.22176" lon="1.55418">
        <ele>277</ele>
        <time>1970-01-01T01:26:42.000Z</time>
      </trkpt>
      <trkpt lat="45.22177" lon="1.55424">
        <ele>278.2</ele>
        <time>1970-01-01T01:26:45.000Z</time>
      </trkpt>
      <trkpt lat="45.22179" lon="1.5543">
        <ele>279.2</ele>
        <time>1970-01-01T01:26:49.000Z</time>
      </trkpt>
      <trkpt lat="45.22186" lon="1.55444">
        <ele>280.4</ele>
        <time>1970-01-01T01:26:56.000Z</time>
      </trkpt>
      <trkpt lat="45.22195" lon="1.55457">
        <ele>281.4</ele>
        <time>1970-01-01T01:27:05.000Z</time>
      </trkpt>
      <trkpt lat="45.22198" lon="1.55465">
        <ele>282.4</ele>
        <time>1970-01-01T01:27:09.000Z</time>
      </trkpt>
      <trkpt lat="45.22198" lon="1.55466">
        <ele>282.8</ele>
        <time>1970-01-01T01:27:10.000Z</time>
      </trkpt>
      <trkpt lat="45.22199" lon="1.55475">
        <ele>283.6</ele>
        <time>1970-01-01T01:27:14.000Z</time>
      </trkpt>
      <trkpt lat="45.222" lon="1.55476">
        <ele>283.8</ele>
        <time>1970-01-01T01:27:15.000Z</time>
      </trkpt>
      <trkpt lat="45.222" lon="1.55487">
        <ele>284.8</ele>
        <time>1970-01-01T01:27:20.000Z</time>
      </trkpt>
      <trkpt lat="45.22198" lon="1.55494">
        <ele>286</ele>
        <time>1970-01-01T01:27:23.000Z</time>
      </trkpt>
      <trkpt lat="45.22197" lon="1.555">
        <ele>287</ele>
        <time>1970-01-01T01:27:26.000Z</time>
      </trkpt>
      <trkpt lat="45.22197" lon="1.55503">
        <ele>287.4</ele>
        <time>1970-01-01T01:27:27.000Z</time>
      </trkpt>
      <trkpt lat="45.22197" lon="1.55505">
        <ele>288</ele>
        <time>1970-01-01T01:27:28.000Z</time>
      </trkpt>
      <trkpt lat="45.22198" lon="1.55509">
        <ele>289</ele>
        <time>1970-01-01T01:27:30.000Z</time>
      </trkpt>
      <trkpt lat="45.22199" lon="1.55512">
        <ele>289.8</ele>
        <time>1970-01-01T01:27:32.000Z</time>
      </trkpt>
      <trkpt lat="45.222" lon="1.55513">
        <ele>290</ele>
        <time>1970-01-01T01:27:33.000Z</time>
      </trkpt>
      <trkpt lat="45.22208" lon="1.55523">
        <ele>290.4</ele>
        <time>1970-01-01T01:27:38.000Z</time>
      </trkpt>
      <trkpt lat="45.2221" lon="1.55533">
        <ele>289.6</ele>
        <time>1970-01-01T01:27:43.000Z</time>
      </trkpt>
      <trkpt lat="45.22207" lon="1.55548">
        <ele>291.2</ele>
        <time>1970-01-01T01:27:51.000Z</time>
      </trkpt>
      <trkpt lat="45.22207" lon="1.55554">
        <ele>292.4</ele>
        <time>1970-01-01T01:27:54.000Z</time>
      </trkpt>
      <trkpt lat="45.22205" lon="1.55561">
        <ele>293.4</ele>
        <time>1970-01-01T01:27:58.000Z</time>
      </trkpt>
      <trkpt lat="45.22204" lon="1.55564">
        <ele>294.2</ele>
        <time>1970-01-01T01:28:00.000Z</time>
      </trkpt>
      <trkpt lat="45.22203" lon="1.55565">
        <ele>294.4</ele>
        <time>1970-01-01T01:28:01.000Z</time>
      </trkpt>
      <trkpt lat="45.22199" lon="1.55571">
        <ele>295.6</ele>
        <time>1970-01-01T01:28:06.000Z</time>
      </trkpt>
      <trkpt lat="45.22194" lon="1.55582">
        <ele>296.6</ele>
        <time>1970-01-01T01:28:13.000Z</time>
      </trkpt>
      <trkpt lat="45.22194" lon="1.55586">
        <ele>296.6</ele>
        <time>1970-01-01T01:28:15.000Z</time>
      </trkpt>
      <trkpt lat="45.22194" lon="1.55587">
        <ele>296.8</ele>
        <time>1970-01-01T01:28:16.000Z</time>
      </trkpt>
      <trkpt lat="45.22189" lon="1.55608">
        <ele>297.8</ele>
        <time>1970-01-01T01:28:27.000Z</time>
      </trkpt>
      <trkpt lat="45.22178" lon="1.5563">
        <ele>298.8</ele>
        <time>1970-01-01T01:28:40.000Z</time>
      </trkpt>
      <trkpt lat="45.22172" lon="1.55643">
        <ele>300</ele>
        <time>1970-01-01T01:28:47.000Z</time>
      </trkpt>
      <trkpt lat="45.22166" lon="1.55658">
        <ele>301</ele>
        <time>1970-01-01T01:28:55.000Z</time>
      </trkpt>
      <trkpt lat="45.22161" lon="1.55669">
        <ele>302</ele>
        <time>1970-01-01T01:29:01.000Z</time>
      </trkpt>
      <trkpt lat="45.22155" lon="1.55683">
        <ele>303.2</ele>
        <time>1970-01-01T01:29:08.000Z</time>
      </trkpt>
      <trkpt lat="45.22148" lon="1.55697">
        <ele>304.4</ele>
        <time>1970-01-01T01:29:16.000Z</time>
      </trkpt>
      <trkpt lat="45.22143" lon="1.55701">
        <ele>305.4</ele>
        <time>1970-01-01T01:29:20.000Z</time>
      </trkpt>
      <trkpt lat="45.22142" lon="1.55703">
        <ele>306.4</ele>
        <time>1970-01-01T01:29:22.000Z</time>
      </trkpt>
      <trkpt lat="45.22136" lon="1.55724">
        <ele>305.4</ele>
        <time>1970-01-01T01:29:32.000Z</time>
      </trkpt>
      <trkpt lat="45.2214" lon="1.55751">
        <ele>305</ele>
        <time>1970-01-01T01:29:41.000Z</time>
      </trkpt>
      <trkpt lat="45.22141" lon="1.55754">
        <ele>305.2</ele>
        <time>1970-01-01T01:29:43.000Z</time>
      </trkpt>
      <trkpt lat="45.22156" lon="1.55774">
        <ele>306.4</ele>
        <time>1970-01-01T01:29:56.000Z</time>
      </trkpt>
      <trkpt lat="45.22159" lon="1.55776">
        <ele>306.6</ele>
        <time>1970-01-01T01:29:58.000Z</time>
      </trkpt>
      <trkpt lat="45.22163" lon="1.55783">
        <ele>307</ele>
        <time>1970-01-01T01:30:02.000Z</time>
      </trkpt>
      <trkpt lat="45.22166" lon="1.55786">
        <ele>307.2</ele>
        <time>1970-01-01T01:30:04.000Z</time>
      </trkpt>
      <trkpt lat="45.22169" lon="1.55791">
        <ele>307.4</ele>
        <time>1970-01-01T01:30:06.000Z</time>
      </trkpt>
      <trkpt lat="45.22172" lon="1.55798">
        <ele>307.8</ele>
        <time>1970-01-01T01:30:09.000Z</time>
      </trkpt>
      <trkpt lat="45.22173" lon="1.55801">
        <ele>308</ele>
        <time>1970-01-01T01:30:11.000Z</time>
      </trkpt>
      <trkpt lat="45.22175" lon="1.55805">
        <ele>308.6</ele>
        <time>1970-01-01T01:30:13.000Z</time>
      </trkpt>
      <trkpt lat="45.22178" lon="1.5581">
        <ele>309</ele>
        <time>1970-01-01T01:30:16.000Z</time>
      </trkpt>
      <trkpt lat="45.22179" lon="1.55813">
        <ele>309.4</ele>
        <time>1970-01-01T01:30:18.000Z</time>
      </trkpt>
      <trkpt lat="45.2218" lon="1.55815">
        <ele>309.6</ele>
        <time>1970-01-01T01:30:19.000Z</time>
      </trkpt>
      <trkpt lat="45.22182" lon="1.55817">
        <ele>309.8</ele>
        <time>1970-01-01T01:30:20.000Z</time>
      </trkpt>
      <trkpt lat="45.2219" lon="1.55826">
        <ele>310.8</ele>
        <time>1970-01-01T01:30:24.000Z</time>
      </trkpt>
      <trkpt lat="45.22192" lon="1.55831">
        <ele>311.4</ele>
        <time>1970-01-01T01:30:27.000Z</time>
      </trkpt>
      <trkpt lat="45.22193" lon="1.55832">
        <ele>311.6</ele>
        <time>1970-01-01T01:30:30.000Z</time>
      </trkpt>
      <trkpt lat="45.22196" lon="1.55838">
        <ele>311.8</ele>
        <time>1970-01-01T01:30:33.000Z</time>
      </trkpt>
      <trkpt lat="45.22197" lon="1.55841">
        <ele>312</ele>
        <time>1970-01-01T01:30:34.000Z</time>
      </trkpt>
      <trkpt lat="45.22199" lon="1.55845">
        <ele>312.4</ele>
        <time>1970-01-01T01:30:36.000Z</time>
      </trkpt>
      <trkpt lat="45.22203" lon="1.55851">
        <ele>313</ele>
        <time>1970-01-01T01:30:39.000Z</time>
      </trkpt>
      <trkpt lat="45.22206" lon="1.55858">
        <ele>313.6</ele>
        <time>1970-01-01T01:30:42.000Z</time>
      </trkpt>
      <trkpt lat="45.22208" lon="1.55866">
        <ele>314</ele>
        <time>1970-01-01T01:30:45.000Z</time>
      </trkpt>
      <trkpt lat="45.2222" lon="1.55888">
        <ele>314.6</ele>
        <time>1970-01-01T01:30:55.000Z</time>
      </trkpt>
      <trkpt lat="45.22221" lon="1.55891">
        <ele>314.8</ele>
        <time>1970-01-01T01:30:57.000Z</time>
      </trkpt>
      <trkpt lat="45.22223" lon="1.55894">
        <ele>315</ele>
        <time>1970-01-01T01:30:59.000Z</time>
      </trkpt>
      <trkpt lat="45.22231" lon="1.55904">
        <ele>316</ele>
        <time>1970-01-01T01:31:06.000Z</time>
      </trkpt>
      <trkpt lat="45.22231" lon="1.55907">
        <ele>316.2</ele>
        <time>1970-01-01T01:31:08.000Z</time>
      </trkpt>
      <trkpt lat="45.22238" lon="1.55919">
        <ele>317</ele>
        <time>1970-01-01T01:31:14.000Z</time>
      </trkpt>
      <trkpt lat="45.22242" lon="1.55928">
        <ele>318.2</ele>
        <time>1970-01-01T01:31:18.000Z</time>
      </trkpt>
      <trkpt lat="45.22248" lon="1.55945">
        <ele>319.4</ele>
        <time>1970-01-01T01:31:25.000Z</time>
      </trkpt>
      <trkpt lat="45.2225" lon="1.5595">
        <ele>320.4</ele>
        <time>1970-01-01T01:31:28.000Z</time>
      </trkpt>
      <trkpt lat="45.22252" lon="1.55957">
        <ele>321.8</ele>
        <time>1970-01-01T01:31:31.000Z</time>
      </trkpt>
      <trkpt lat="45.22254" lon="1.55966">
        <ele>323</ele>
        <time>1970-01-01T01:31:35.000Z</time>
      </trkpt>
      <trkpt lat="45.22253" lon="1.55972">
        <ele>323.6</ele>
        <time>1970-01-01T01:31:40.000Z</time>
      </trkpt>
      <trkpt lat="45.22249" lon="1.55973">
        <ele>324</ele>
        <time>1970-01-01T01:31:42.000Z</time>
      </trkpt>
      <trkpt lat="45.22248" lon="1.55974">
        <ele>324.4</ele>
        <time>1970-01-01T01:31:43.000Z</time>
      </trkpt>
      <trkpt lat="45.22244" lon="1.55973">
        <ele>325.2</ele>
        <time>1970-01-01T01:31:46.000Z</time>
      </trkpt>
      <trkpt lat="45.22238" lon="1.55973">
        <ele>326.4</ele>
        <time>1970-01-01T01:31:51.000Z</time>
      </trkpt>
      <trkpt lat="45.22234" lon="1.55976">
        <ele>327.4</ele>
        <time>1970-01-01T01:31:55.000Z</time>
      </trkpt>
      <trkpt lat="45.22232" lon="1.55985">
        <ele>328.2</ele>
        <time>1970-01-01T01:31:59.000Z</time>
      </trkpt>
      <trkpt lat="45.22231" lon="1.55989">
        <ele>328.4</ele>
        <time>1970-01-01T01:32:01.000Z</time>
      </trkpt>
      <trkpt lat="45.22231" lon="1.5599">
        <ele>328.6</ele>
        <time>1970-01-01T01:32:02.000Z</time>
      </trkpt>
      <trkpt lat="45.22231" lon="1.55992">
        <ele>328.8</ele>
        <time>1970-01-01T01:32:03.000Z</time>
      </trkpt>
      <trkpt lat="45.22229" lon="1.55998">
        <ele>330</ele>
        <time>1970-01-01T01:32:07.000Z</time>
      </trkpt>
      <trkpt lat="45.22229" lon="1.56005">
        <ele>331</ele>
        <time>1970-01-01T01:32:11.000Z</time>
      </trkpt>
      <trkpt lat="45.22229" lon="1.56013">
        <ele>332.2</ele>
        <time>1970-01-01T01:32:16.000Z</time>
      </trkpt>
      <trkpt lat="45.22228" lon="1.56016">
        <ele>332.8</ele>
        <time>1970-01-01T01:32:18.000Z</time>
      </trkpt>
      <trkpt lat="45.22227" lon="1.5602">
        <ele>333.2</ele>
        <time>1970-01-01T01:32:20.000Z</time>
      </trkpt>
      <trkpt lat="45.22227" lon="1.56025">
        <ele>333.8</ele>
        <time>1970-01-01T01:32:22.000Z</time>
      </trkpt>
      <trkpt lat="45.22226" lon="1.56033">
        <ele>334.2</ele>
        <time>1970-01-01T01:32:26.000Z</time>
      </trkpt>
      <trkpt lat="45.22225" lon="1.56044">
        <ele>335.2</ele>
        <time>1970-01-01T01:32:31.000Z</time>
      </trkpt>
      <trkpt lat="45.2222" lon="1.56056">
        <ele>336.4</ele>
        <time>1970-01-01T01:32:38.000Z</time>
      </trkpt>
      <trkpt lat="45.22219" lon="1.56062">
        <ele>336.8</ele>
        <time>1970-01-01T01:32:41.000Z</time>
      </trkpt>
      <trkpt lat="45.22217" lon="1.56065">
        <ele>337</ele>
        <time>1970-01-01T01:32:43.000Z</time>
      </trkpt>
      <trkpt lat="45.22205" lon="1.56073">
        <ele>337.4</ele>
        <time>1970-01-01T01:32:52.000Z</time>
      </trkpt>
      <trkpt lat="45.22196" lon="1.56082">
        <ele>338.4</ele>
        <time>1970-01-01T01:33:02.000Z</time>
      </trkpt>
      <trkpt lat="45.22274" lon="1.56228">
        <ele>334.6</ele>
        <time>1970-01-01T01:39:37.000Z</time>
      </trkpt>
      <trkpt lat="45.22277" lon="1.5623">
        <ele>334.8</ele>
        <time>1970-01-01T01:39:39.000Z</time>
      </trkpt>
      <trkpt lat="45.22284" lon="1.56236">
        <ele>335.6</ele>
        <time>1970-01-01T01:39:43.000Z</time>
      </trkpt>
      <trkpt lat="45.2229" lon="1.56241">
        <ele>336.2</ele>
        <time>1970-01-01T01:39:47.000Z</time>
      </trkpt>
      <trkpt lat="45.22293" lon="1.56242">
        <ele>336.8</ele>
        <time>1970-01-01T01:39:49.000Z</time>
      </trkpt>
      <trkpt lat="45.22301" lon="1.56245">
        <ele>337.8</ele>
        <time>1970-01-01T01:39:53.000Z</time>
      </trkpt>
      <trkpt lat="45.22303" lon="1.56246">
        <ele>338</ele>
        <time>1970-01-01T01:39:54.000Z</time>
      </trkpt>
      <trkpt lat="45.22312" lon="1.56252">
        <ele>339</ele>
        <time>1970-01-01T01:39:59.000Z</time>
      </trkpt>
      <trkpt lat="45.22319" lon="1.56258">
        <ele>340</ele>
        <time>1970-01-01T01:40:02.000Z</time>
      </trkpt>
      <trkpt lat="45.22329" lon="1.56268">
        <ele>341</ele>
        <time>1970-01-01T01:40:07.000Z</time>
      </trkpt>
      <trkpt lat="45.22333" lon="1.5627">
        <ele>341.8</ele>
        <time>1970-01-01T01:40:09.000Z</time>
      </trkpt>
      <trkpt lat="45.22337" lon="1.56276">
        <ele>342.6</ele>
        <time>1970-01-01T01:40:13.000Z</time>
      </trkpt>
      <trkpt lat="45.22339" lon="1.5628">
        <ele>343.4</ele>
        <time>1970-01-01T01:40:15.000Z</time>
      </trkpt>
      <trkpt lat="45.22341" lon="1.56282">
        <ele>343.4</ele>
        <time>1970-01-01T01:40:17.000Z</time>
      </trkpt>
      <trkpt lat="45.22341" lon="1.56283">
        <ele>344.2</ele>
        <time>1970-01-01T01:40:19.000Z</time>
      </trkpt>
      <trkpt lat="45.22343" lon="1.56285">
        <ele>344.4</ele>
        <time>1970-01-01T01:40:20.000Z</time>
      </trkpt>
      <trkpt lat="45.22347" lon="1.5629">
        <ele>345.8</ele>
        <time>1970-01-01T01:40:24.000Z</time>
      </trkpt>
      <trkpt lat="45.2235" lon="1.56293">
        <ele>346.4</ele>
        <time>1970-01-01T01:40:26.000Z</time>
      </trkpt>
      <trkpt lat="45.22355" lon="1.56297">
        <ele>346.8</ele>
        <time>1970-01-01T01:40:29.000Z</time>
      </trkpt>
      <trkpt lat="45.22361" lon="1.56304">
        <ele>348.2</ele>
        <time>1970-01-01T01:40:33.000Z</time>
      </trkpt>
      <trkpt lat="45.22362" lon="1.56304">
        <ele>348.4</ele>
        <time>1970-01-01T01:40:34.000Z</time>
      </trkpt>
      <trkpt lat="45.22363" lon="1.56305">
        <ele>348.6</ele>
        <time>1970-01-01T01:40:36.000Z</time>
      </trkpt>
      <trkpt lat="45.22367" lon="1.56309">
        <ele>349.4</ele>
        <time>1970-01-01T01:40:40.000Z</time>
      </trkpt>
      <trkpt lat="45.22374" lon="1.56314">
        <ele>350.4</ele>
        <time>1970-01-01T01:40:44.000Z</time>
      </trkpt>
      <trkpt lat="45.22377" lon="1.56317">
        <ele>351</ele>
        <time>1970-01-01T01:40:47.000Z</time>
      </trkpt>
      <trkpt lat="45.22378" lon="1.56319">
        <ele>351.6</ele>
        <time>1970-01-01T01:40:50.000Z</time>
      </trkpt>
      <trkpt lat="45.22381" lon="1.5632">
        <ele>352</ele>
        <time>1970-01-01T01:40:54.000Z</time>
      </trkpt>
      <trkpt lat="45.22382" lon="1.56321">
        <ele>352.6</ele>
        <time>1970-01-01T01:40:55.000Z</time>
      </trkpt>
      <trkpt lat="45.22383" lon="1.56323">
        <ele>353</ele>
        <time>1970-01-01T01:40:58.000Z</time>
      </trkpt>
      <trkpt lat="45.22385" lon="1.56326">
        <ele>353.8</ele>
        <time>1970-01-01T01:41:01.000Z</time>
      </trkpt>
      <trkpt lat="45.22386" lon="1.56328">
        <ele>354.4</ele>
        <time>1970-01-01T01:41:03.000Z</time>
      </trkpt>
      <trkpt lat="45.22387" lon="1.56329">
        <ele>354.6</ele>
        <time>1970-01-01T01:41:05.000Z</time>
      </trkpt>
      <trkpt lat="45.22389" lon="1.56329">
        <ele>354.8</ele>
        <time>1970-01-01T01:41:07.000Z</time>
      </trkpt>
      <trkpt lat="45.2239" lon="1.56329">
        <ele>354.8</ele>
        <time>1970-01-01T01:41:08.000Z</time>
      </trkpt>
      <trkpt lat="45.2239" lon="1.56329">
        <ele>355</ele>
        <time>1970-01-01T01:41:09.000Z</time>
      </trkpt>
      <trkpt lat="45.22395" lon="1.56333">
        <ele>355.6</ele>
        <time>1970-01-01T01:41:14.000Z</time>
      </trkpt>
      <trkpt lat="45.22396" lon="1.56334">
        <ele>356</ele>
        <time>1970-01-01T01:41:15.000Z</time>
      </trkpt>
      <trkpt lat="45.22397" lon="1.56335">
        <ele>356.4</ele>
        <time>1970-01-01T01:41:16.000Z</time>
      </trkpt>
      <trkpt lat="45.22399" lon="1.56336">
        <ele>356.6</ele>
        <time>1970-01-01T01:41:18.000Z</time>
      </trkpt>
      <trkpt lat="45.224" lon="1.56337">
        <ele>357.2</ele>
        <time>1970-01-01T01:41:19.000Z</time>
      </trkpt>
      <trkpt lat="45.22402" lon="1.56337">
        <ele>357.2</ele>
        <time>1970-01-01T01:41:22.000Z</time>
      </trkpt>
      <trkpt lat="45.22403" lon="1.56337">
        <ele>357.2</ele>
        <time>1970-01-01T01:41:23.000Z</time>
      </trkpt>
      <trkpt lat="45.22404" lon="1.56337">
        <ele>357.2</ele>
        <time>1970-01-01T01:41:24.000Z</time>
      </trkpt>
      <trkpt lat="45.22408" lon="1.56335">
        <ele>357.4</ele>
        <time>1970-01-01T01:41:28.000Z</time>
      </trkpt>
      <trkpt lat="45.2241" lon="1.56335">
        <ele>357.8</ele>
        <time>1970-01-01T01:41:31.000Z</time>
      </trkpt>
      <trkpt lat="45.22412" lon="1.56335">
        <ele>358.2</ele>
        <time>1970-01-01T01:41:33.000Z</time>
      </trkpt>
      <trkpt lat="45.22421" lon="1.5633">
        <ele>358.8</ele>
        <time>1970-01-01T01:41:42.000Z</time>
      </trkpt>
      <trkpt lat="45.22434" lon="1.56329">
        <ele>359</ele>
        <time>1970-01-01T01:41:48.000Z</time>
      </trkpt>
      <trkpt lat="45.22439" lon="1.56329">
        <ele>359.2</ele>
        <time>1970-01-01T01:41:50.000Z</time>
      </trkpt>
      <trkpt lat="45.22452" lon="1.56331">
        <ele>359.4</ele>
        <time>1970-01-01T01:41:55.000Z</time>
      </trkpt>
      <trkpt lat="45.22469" lon="1.56333">
        <ele>360.2</ele>
        <time>1970-01-01T01:42:02.000Z</time>
      </trkpt>
      <trkpt lat="45.22471" lon="1.56332">
        <ele>360.2</ele>
        <time>1970-01-01T01:42:03.000Z</time>
      </trkpt>
      <trkpt lat="45.22474" lon="1.5633">
        <ele>360.4</ele>
        <time>1970-01-01T01:42:04.000Z</time>
      </trkpt>
      <trkpt lat="45.22489" lon="1.56323">
        <ele>360.6</ele>
        <time>1970-01-01T01:42:10.000Z</time>
      </trkpt>
      <trkpt lat="45.22506" lon="1.56314">
        <ele>361.4</ele>
        <time>1970-01-01T01:42:17.000Z</time>
      </trkpt>
      <trkpt lat="45.2251" lon="1.56312">
        <ele>362</ele>
        <time>1970-01-01T01:42:19.000Z</time>
      </trkpt>
      <trkpt lat="45.22515" lon="1.56311">
        <ele>362.2</ele>
        <time>1970-01-01T01:42:21.000Z</time>
      </trkpt>
      <trkpt lat="45.22523" lon="1.56307">
        <ele>362.6</ele>
        <time>1970-01-01T01:42:24.000Z</time>
      </trkpt>
      <trkpt lat="45.2253" lon="1.56304">
        <ele>362.8</ele>
        <time>1970-01-01T01:42:27.000Z</time>
      </trkpt>
      <trkpt lat="45.22548" lon="1.56296">
        <ele>362.8</ele>
        <time>1970-01-01T01:42:34.000Z</time>
      </trkpt>
      <trkpt lat="45.22567" lon="1.56287">
        <ele>362.2</ele>
        <time>1970-01-01T01:42:41.000Z</time>
      </trkpt>
      <trkpt lat="45.22569" lon="1.56286">
        <ele>362.2</ele>
        <time>1970-01-01T01:42:42.000Z</time>
      </trkpt>
      <trkpt lat="45.22585" lon="1.56278">
        <ele>361.4</ele>
        <time>1970-01-01T01:42:48.000Z</time>
      </trkpt>
      <trkpt lat="45.22595" lon="1.56271">
        <ele>360.4</ele>
        <time>1970-01-01T01:42:52.000Z</time>
      </trkpt>
      <trkpt lat="45.22605" lon="1.56266">
        <ele>359.8</ele>
        <time>1970-01-01T01:42:56.000Z</time>
      </trkpt>
      <trkpt lat="45.22623" lon="1.56266">
        <ele>359.8</ele>
        <time>1970-01-01T01:43:02.000Z</time>
      </trkpt>
      <trkpt lat="45.22638" lon="1.56281">
        <ele>359.8</ele>
        <time>1970-01-01T01:43:08.000Z</time>
      </trkpt>
      <trkpt lat="45.22641" lon="1.56284">
        <ele>359.6</ele>
        <time>1970-01-01T01:43:09.000Z</time>
      </trkpt>
      <trkpt lat="45.22656" lon="1.56299">
        <ele>360</ele>
        <time>1970-01-01T01:43:15.000Z</time>
      </trkpt>
      <trkpt lat="45.2266" lon="1.56304">
        <ele>360.2</ele>
        <time>1970-01-01T01:43:17.000Z</time>
      </trkpt>
      <trkpt lat="45.22676" lon="1.56318">
        <ele>360</ele>
        <time>1970-01-01T01:43:23.000Z</time>
      </trkpt>
      <trkpt lat="45.22683" lon="1.5632">
        <ele>360</ele>
        <time>1970-01-01T01:43:26.000Z</time>
      </trkpt>
      <trkpt lat="45.22692" lon="1.56311">
        <ele>359.4</ele>
        <time>1970-01-01T01:43:30.000Z</time>
      </trkpt>
      <trkpt lat="45.22693" lon="1.56307">
        <ele>358.8</ele>
        <time>1970-01-01T01:43:31.000Z</time>
      </trkpt>
      <trkpt lat="45.22695" lon="1.56295">
        <ele>357.2</ele>
        <time>1970-01-01T01:43:34.000Z</time>
      </trkpt>
      <trkpt lat="45.22696" lon="1.56282">
        <ele>356.4</ele>
        <time>1970-01-01T01:43:37.000Z</time>
      </trkpt>
      <trkpt lat="45.22697" lon="1.56277">
        <ele>355.2</ele>
        <time>1970-01-01T01:43:38.000Z</time>
      </trkpt>
      <trkpt lat="45.22704" lon="1.56263">
        <ele>354.2</ele>
        <time>1970-01-01T01:43:42.000Z</time>
      </trkpt>
      <trkpt lat="45.22708" lon="1.56256">
        <ele>353.8</ele>
        <time>1970-01-01T01:43:44.000Z</time>
      </trkpt>
      <trkpt lat="45.22717" lon="1.56246">
        <ele>353</ele>
        <time>1970-01-01T01:43:48.000Z</time>
      </trkpt>
      <trkpt lat="45.22728" lon="1.56234">
        <ele>352.6</ele>
        <time>1970-01-01T01:43:53.000Z</time>
      </trkpt>
      <trkpt lat="45.22734" lon="1.56226">
        <ele>352.6</ele>
        <time>1970-01-01T01:43:56.000Z</time>
      </trkpt>
      <trkpt lat="45.22742" lon="1.56209">
        <ele>353.2</ele>
        <time>1970-01-01T01:44:01.000Z</time>
      </trkpt>
      <trkpt lat="45.22746" lon="1.56199">
        <ele>353.6</ele>
        <time>1970-01-01T01:44:04.000Z</time>
      </trkpt>
      <trkpt lat="45.22748" lon="1.56188">
        <ele>354</ele>
        <time>1970-01-01T01:44:07.000Z</time>
      </trkpt>
      <trkpt lat="45.22751" lon="1.56177">
        <ele>355.2</ele>
        <time>1970-01-01T01:44:10.000Z</time>
      </trkpt>
      <trkpt lat="45.22759" lon="1.56153">
        <ele>356.6</ele>
        <time>1970-01-01T01:44:18.000Z</time>
      </trkpt>
      <trkpt lat="45.2277" lon="1.56141">
        <ele>358.2</ele>
        <time>1970-01-01T01:44:23.000Z</time>
      </trkpt>
      <trkpt lat="45.22772" lon="1.56138">
        <ele>358.2</ele>
        <time>1970-01-01T01:44:24.000Z</time>
      </trkpt>
      <trkpt lat="45.22775" lon="1.5613">
        <ele>358.6</ele>
        <time>1970-01-01T01:44:27.000Z</time>
      </trkpt>
      <trkpt lat="45.22777" lon="1.56128">
        <ele>359.2</ele>
        <time>1970-01-01T01:44:28.000Z</time>
      </trkpt>
      <trkpt lat="45.22776" lon="1.56123">
        <ele>359.2</ele>
        <time>1970-01-01T01:44:29.000Z</time>
      </trkpt>
      <trkpt lat="45.22776" lon="1.5612">
        <ele>359.2</ele>
        <time>1970-01-01T01:44:30.000Z</time>
      </trkpt>
      <trkpt lat="45.22777" lon="1.56113">
        <ele>360</ele>
        <time>1970-01-01T01:44:32.000Z</time>
      </trkpt>
      <trkpt lat="45.22777" lon="1.56109">
        <ele>360.2</ele>
        <time>1970-01-01T01:44:33.000Z</time>
      </trkpt>
      <trkpt lat="45.22779" lon="1.56095">
        <ele>361</ele>
        <time>1970-01-01T01:44:37.000Z</time>
      </trkpt>
      <trkpt lat="45.22782" lon="1.56084">
        <ele>361.2</ele>
        <time>1970-01-01T01:44:40.000Z</time>
      </trkpt>
      <trkpt lat="45.22788" lon="1.56072">
        <ele>362</ele>
        <time>1970-01-01T01:44:44.000Z</time>
      </trkpt>
      <trkpt lat="45.22791" lon="1.56066">
        <ele>362.4</ele>
        <time>1970-01-01T01:44:46.000Z</time>
      </trkpt>
      <trkpt lat="45.22797" lon="1.56055">
        <ele>363</ele>
        <time>1970-01-01T01:44:50.000Z</time>
      </trkpt>
      <trkpt lat="45.228" lon="1.56049">
        <ele>363.6</ele>
        <time>1970-01-01T01:44:52.000Z</time>
      </trkpt>
      <trkpt lat="45.22801" lon="1.56046">
        <ele>363.6</ele>
        <time>1970-01-01T01:44:53.000Z</time>
      </trkpt>
      <trkpt lat="45.22802" lon="1.56038">
        <ele>364.2</ele>
        <time>1970-01-01T01:44:56.000Z</time>
      </trkpt>
      <trkpt lat="45.22801" lon="1.5603">
        <ele>364.2</ele>
        <time>1970-01-01T01:44:59.000Z</time>
      </trkpt>
      <trkpt lat="45.228" lon="1.56006">
        <ele>363</ele>
        <time>1970-01-01T01:45:06.000Z</time>
      </trkpt>
      <trkpt lat="45.228" lon="1.55995">
        <ele>362.8</ele>
        <time>1970-01-01T01:45:09.000Z</time>
      </trkpt>
      <trkpt lat="45.22804" lon="1.55991">
        <ele>363.2</ele>
        <time>1970-01-01T01:45:11.000Z</time>
      </trkpt>
      <trkpt lat="45.22816" lon="1.55978">
        <ele>364.6</ele>
        <time>1970-01-01T01:45:17.000Z</time>
      </trkpt>
      <trkpt lat="45.22818" lon="1.55976">
        <ele>364.8</ele>
        <time>1970-01-01T01:45:18.000Z</time>
      </trkpt>
      <trkpt lat="45.22829" lon="1.55967">
        <ele>365.2</ele>
        <time>1970-01-01T01:45:23.000Z</time>
      </trkpt>
      <trkpt lat="45.22834" lon="1.55964">
        <ele>364.8</ele>
        <time>1970-01-01T01:45:25.000Z</time>
      </trkpt>
      <trkpt lat="45.22841" lon="1.5596">
        <ele>364.6</ele>
        <time>1970-01-01T01:45:28.000Z</time>
      </trkpt>
      <trkpt lat="45.22849" lon="1.55954">
        <ele>364.4</ele>
        <time>1970-01-01T01:45:31.000Z</time>
      </trkpt>
      <trkpt lat="45.22854" lon="1.55949">
        <ele>364.4</ele>
        <time>1970-01-01T01:45:33.000Z</time>
      </trkpt>
      <trkpt lat="45.22865" lon="1.55931">
        <ele>364.2</ele>
        <time>1970-01-01T01:45:39.000Z</time>
      </trkpt>
      <trkpt lat="45.22876" lon="1.5592">
        <ele>363.4</ele>
        <time>1970-01-01T01:45:44.000Z</time>
      </trkpt>
      <trkpt lat="45.2288" lon="1.55915">
        <ele>363.2</ele>
        <time>1970-01-01T01:45:46.000Z</time>
      </trkpt>
      <trkpt lat="45.22886" lon="1.55906">
        <ele>362</ele>
        <time>1970-01-01T01:45:49.000Z</time>
      </trkpt>
      <trkpt lat="45.22891" lon="1.55902">
        <ele>360.8</ele>
        <time>1970-01-01T01:45:51.000Z</time>
      </trkpt>
      <trkpt lat="45.22897" lon="1.55894">
        <ele>359.8</ele>
        <time>1970-01-01T01:45:54.000Z</time>
      </trkpt>
      <trkpt lat="45.22909" lon="1.55883">
        <ele>358.2</ele>
        <time>1970-01-01T01:45:59.000Z</time>
      </trkpt>
      <trkpt lat="45.22912" lon="1.55881">
        <ele>356.8</ele>
        <time>1970-01-01T01:46:00.000Z</time>
      </trkpt>
      <trkpt lat="45.22914" lon="1.55879">
        <ele>356.6</ele>
        <time>1970-01-01T01:46:01.000Z</time>
      </trkpt>
      <trkpt lat="45.22921" lon="1.55874">
        <ele>355</ele>
        <time>1970-01-01T01:46:04.000Z</time>
      </trkpt>
      <trkpt lat="45.22928" lon="1.55869">
        <ele>353.8</ele>
        <time>1970-01-01T01:46:07.000Z</time>
      </trkpt>
      <trkpt lat="45.22933" lon="1.55866">
        <ele>352.8</ele>
        <time>1970-01-01T01:46:09.000Z</time>
      </trkpt>
      <trkpt lat="45.22935" lon="1.55865">
        <ele>352.6</ele>
        <time>1970-01-01T01:46:10.000Z</time>
      </trkpt>
      <trkpt lat="45.22939" lon="1.55865">
        <ele>352</ele>
        <time>1970-01-01T01:46:12.000Z</time>
      </trkpt>
      <trkpt lat="45.22942" lon="1.55866">
        <ele>351</ele>
        <time>1970-01-01T01:46:13.000Z</time>
      </trkpt>
      <trkpt lat="45.22946" lon="1.55869">
        <ele>349.4</ele>
        <time>1970-01-01T01:46:15.000Z</time>
      </trkpt>
      <trkpt lat="45.22954" lon="1.55875">
        <ele>348.2</ele>
        <time>1970-01-01T01:46:18.000Z</time>
      </trkpt>
      <trkpt lat="45.22961" lon="1.55881">
        <ele>346.6</ele>
        <time>1970-01-01T01:46:21.000Z</time>
      </trkpt>
      <trkpt lat="45.22963" lon="1.55882">
        <ele>345.6</ele>
        <time>1970-01-01T01:46:22.000Z</time>
      </trkpt>
      <trkpt lat="45.22965" lon="1.55884">
        <ele>344.6</ele>
        <time>1970-01-01T01:46:23.000Z</time>
      </trkpt>
      <trkpt lat="45.22969" lon="1.55889">
        <ele>343</ele>
        <time>1970-01-01T01:46:26.000Z</time>
      </trkpt>
      <trkpt lat="45.22973" lon="1.55892">
        <ele>343</ele>
        <time>1970-01-01T01:46:28.000Z</time>
      </trkpt>
      <trkpt lat="45.22975" lon="1.55893">
        <ele>342.2</ele>
        <time>1970-01-01T01:46:29.000Z</time>
      </trkpt>
      <trkpt lat="45.22977" lon="1.55895">
        <ele>342</ele>
        <time>1970-01-01T01:46:30.000Z</time>
      </trkpt>
      <trkpt lat="45.22984" lon="1.559">
        <ele>340.4</ele>
        <time>1970-01-01T01:46:33.000Z</time>
      </trkpt>
      <trkpt lat="45.22989" lon="1.55904">
        <ele>339.2</ele>
        <time>1970-01-01T01:46:36.000Z</time>
      </trkpt>
      <trkpt lat="45.22992" lon="1.55905">
        <ele>339</ele>
        <time>1970-01-01T01:46:37.000Z</time>
      </trkpt>
      <trkpt lat="45.22998" lon="1.55911">
        <ele>337.8</ele>
        <time>1970-01-01T01:46:40.000Z</time>
      </trkpt>
      <trkpt lat="45.23002" lon="1.55916">
        <ele>336</ele>
        <time>1970-01-01T01:46:42.000Z</time>
      </trkpt>
      <trkpt lat="45.2301" lon="1.55922">
        <ele>334.8</ele>
        <time>1970-01-01T01:46:45.000Z</time>
      </trkpt>
      <trkpt lat="45.23013" lon="1.55922">
        <ele>333.6</ele>
        <time>1970-01-01T01:46:47.000Z</time>
      </trkpt>
      <trkpt lat="45.23018" lon="1.55921">
        <ele>333</ele>
        <time>1970-01-01T01:46:50.000Z</time>
      </trkpt>
      <trkpt lat="45.23022" lon="1.55926">
        <ele>332.6</ele>
        <time>1970-01-01T01:46:52.000Z</time>
      </trkpt>
      <trkpt lat="45.23026" lon="1.55932">
        <ele>331.6</ele>
        <time>1970-01-01T01:46:54.000Z</time>
      </trkpt>
      <trkpt lat="45.23031" lon="1.55937">
        <ele>330.2</ele>
        <time>1970-01-01T01:46:57.000Z</time>
      </trkpt>
      <trkpt lat="45.23037" lon="1.55948">
        <ele>329.2</ele>
        <time>1970-01-01T01:47:01.000Z</time>
      </trkpt>
      <trkpt lat="45.2304" lon="1.55951">
        <ele>328</ele>
        <time>1970-01-01T01:47:02.000Z</time>
      </trkpt>
      <trkpt lat="45.23045" lon="1.55957">
        <ele>327.4</ele>
        <time>1970-01-01T01:47:04.000Z</time>
      </trkpt>
      <trkpt lat="45.23048" lon="1.55961">
        <ele>326.8</ele>
        <time>1970-01-01T01:47:05.000Z</time>
      </trkpt>
      <trkpt lat="45.23052" lon="1.55968">
        <ele>325.6</ele>
        <time>1970-01-01T01:47:07.000Z</time>
      </trkpt>
      <trkpt lat="45.23054" lon="1.55971">
        <ele>325.6</ele>
        <time>1970-01-01T01:47:08.000Z</time>
      </trkpt>
      <trkpt lat="45.23061" lon="1.5598">
        <ele>324.4</ele>
        <time>1970-01-01T01:47:11.000Z</time>
      </trkpt>
      <trkpt lat="45.23066" lon="1.55988">
        <ele>323.4</ele>
        <time>1970-01-01T01:47:14.000Z</time>
      </trkpt>
      <trkpt lat="45.23067" lon="1.5599">
        <ele>322.8</ele>
        <time>1970-01-01T01:47:15.000Z</time>
      </trkpt>
      <trkpt lat="45.23069" lon="1.55994">
        <ele>322.6</ele>
        <time>1970-01-01T01:47:16.000Z</time>
      </trkpt>
      <trkpt lat="45.2307" lon="1.55999">
        <ele>321.8</ele>
        <time>1970-01-01T01:47:17.000Z</time>
      </trkpt>
      <trkpt lat="45.23072" lon="1.56005">
        <ele>320.6</ele>
        <time>1970-01-01T01:47:19.000Z</time>
      </trkpt>
      <trkpt lat="45.23074" lon="1.56009">
        <ele>319.6</ele>
        <time>1970-01-01T01:47:21.000Z</time>
      </trkpt>
      <trkpt lat="45.23077" lon="1.56015">
        <ele>318.4</ele>
        <time>1970-01-01T01:47:24.000Z</time>
      </trkpt>
      <trkpt lat="45.2308" lon="1.56019">
        <ele>317</ele>
        <time>1970-01-01T01:47:26.000Z</time>
      </trkpt>
      <trkpt lat="45.23084" lon="1.56027">
        <ele>315.8</ele>
        <time>1970-01-01T01:47:28.000Z</time>
      </trkpt>
      <trkpt lat="45.23085" lon="1.56032">
        <ele>315.6</ele>
        <time>1970-01-01T01:47:29.000Z</time>
      </trkpt>
      <trkpt lat="45.23086" lon="1.56036">
        <ele>315.4</ele>
        <time>1970-01-01T01:47:30.000Z</time>
      </trkpt>
      <trkpt lat="45.23087" lon="1.56039">
        <ele>315</ele>
        <time>1970-01-01T01:47:31.000Z</time>
      </trkpt>
      <trkpt lat="45.23088" lon="1.56042">
        <ele>314.6</ele>
        <time>1970-01-01T01:47:32.000Z</time>
      </trkpt>
      <trkpt lat="45.2309" lon="1.56046">
        <ele>313.4</ele>
        <time>1970-01-01T01:47:34.000Z</time>
      </trkpt>
      <trkpt lat="45.23091" lon="1.56049">
        <ele>312.6</ele>
        <time>1970-01-01T01:47:36.000Z</time>
      </trkpt>
      <trkpt lat="45.23093" lon="1.56051">
        <ele>311.6</ele>
        <time>1970-01-01T01:47:37.000Z</time>
      </trkpt>
      <trkpt lat="45.23102" lon="1.56057">
        <ele>310.8</ele>
        <time>1970-01-01T01:47:41.000Z</time>
      </trkpt>
      <trkpt lat="45.23104" lon="1.56058">
        <ele>310.4</ele>
        <time>1970-01-01T01:47:42.000Z</time>
      </trkpt>
      <trkpt lat="45.23112" lon="1.56062">
        <ele>310</ele>
        <time>1970-01-01T01:47:46.000Z</time>
      </trkpt>
      <trkpt lat="45.23115" lon="1.5606">
        <ele>309.4</ele>
        <time>1970-01-01T01:47:47.000Z</time>
      </trkpt>
      <trkpt lat="45.23127" lon="1.56053">
        <ele>309.2</ele>
        <time>1970-01-01T01:47:50.000Z</time>
      </trkpt>
      <trkpt lat="45.23141" lon="1.56046">
        <ele>308</ele>
        <time>1970-01-01T01:47:54.000Z</time>
      </trkpt>
      <trkpt lat="45.23149" lon="1.56041">
        <ele>307.4</ele>
        <time>1970-01-01T01:47:57.000Z</time>
      </trkpt>
      <trkpt lat="45.23157" lon="1.56036">
        <ele>306.4</ele>
        <time>1970-01-01T01:47:59.000Z</time>
      </trkpt>
      <trkpt lat="45.23163" lon="1.56031">
        <ele>305.4</ele>
        <time>1970-01-01T01:48:01.000Z</time>
      </trkpt>
      <trkpt lat="45.23165" lon="1.56029">
        <ele>305.4</ele>
        <time>1970-01-01T01:48:02.000Z</time>
      </trkpt>
      <trkpt lat="45.23173" lon="1.56023">
        <ele>304.4</ele>
        <time>1970-01-01T01:48:06.000Z</time>
      </trkpt>
      <trkpt lat="45.23175" lon="1.56022">
        <ele>304.2</ele>
        <time>1970-01-01T01:48:07.000Z</time>
      </trkpt>
      <trkpt lat="45.23183" lon="1.5602">
        <ele>303.2</ele>
        <time>1970-01-01T01:48:10.000Z</time>
      </trkpt>
      <trkpt lat="45.23192" lon="1.56018">
        <ele>301</ele>
        <time>1970-01-01T01:48:13.000Z</time>
      </trkpt>
      <trkpt lat="45.232" lon="1.56016">
        <ele>299.8</ele>
        <time>1970-01-01T01:48:16.000Z</time>
      </trkpt>
      <trkpt lat="45.23205" lon="1.56014">
        <ele>298.8</ele>
        <time>1970-01-01T01:48:18.000Z</time>
      </trkpt>
      <trkpt lat="45.23207" lon="1.56013">
        <ele>298.6</ele>
        <time>1970-01-01T01:48:19.000Z</time>
      </trkpt>
      <trkpt lat="45.23212" lon="1.56011">
        <ele>297.6</ele>
        <time>1970-01-01T01:48:21.000Z</time>
      </trkpt>
      <trkpt lat="45.23215" lon="1.5601">
        <ele>297.2</ele>
        <time>1970-01-01T01:48:22.000Z</time>
      </trkpt>
      <trkpt lat="45.23226" lon="1.56008">
        <ele>295.8</ele>
        <time>1970-01-01T01:48:27.000Z</time>
      </trkpt>
      <trkpt lat="45.23238" lon="1.56007">
        <ele>294.4</ele>
        <time>1970-01-01T01:48:31.000Z</time>
      </trkpt>
      <trkpt lat="45.23243" lon="1.56009">
        <ele>293</ele>
        <time>1970-01-01T01:48:33.000Z</time>
      </trkpt>
      <trkpt lat="45.23245" lon="1.56009">
        <ele>292.8</ele>
        <time>1970-01-01T01:48:34.000Z</time>
      </trkpt>
      <trkpt lat="45.23248" lon="1.56009">
        <ele>292</ele>
        <time>1970-01-01T01:48:35.000Z</time>
      </trkpt>
      <trkpt lat="45.23259" lon="1.5601">
        <ele>290.2</ele>
        <time>1970-01-01T01:48:39.000Z</time>
      </trkpt>
      <trkpt lat="45.23263" lon="1.5601">
        <ele>289.6</ele>
        <time>1970-01-01T01:48:41.000Z</time>
      </trkpt>
      <trkpt lat="45.23266" lon="1.5601">
        <ele>289.2</ele>
        <time>1970-01-01T01:48:42.000Z</time>
      </trkpt>
      <trkpt lat="45.23279" lon="1.56007">
        <ele>288.4</ele>
        <time>1970-01-01T01:48:47.000Z</time>
      </trkpt>
      <trkpt lat="45.23282" lon="1.56007">
        <ele>287.8</ele>
        <time>1970-01-01T01:48:48.000Z</time>
      </trkpt>
      <trkpt lat="45.23284" lon="1.56007">
        <ele>287.4</ele>
        <time>1970-01-01T01:48:49.000Z</time>
      </trkpt>
      <trkpt lat="45.23292" lon="1.56006">
        <ele>286.2</ele>
        <time>1970-01-01T01:48:52.000Z</time>
      </trkpt>
      <trkpt lat="45.23304" lon="1.56003">
        <ele>285.8</ele>
        <time>1970-01-01T01:48:56.000Z</time>
      </trkpt>
      <trkpt lat="45.23306" lon="1.56003">
        <ele>285.4</ele>
        <time>1970-01-01T01:48:57.000Z</time>
      </trkpt>
      <trkpt lat="45.23309" lon="1.56003">
        <ele>284.6</ele>
        <time>1970-01-01T01:48:58.000Z</time>
      </trkpt>
      <trkpt lat="45.23319" lon="1.56006">
        <ele>283.2</ele>
        <time>1970-01-01T01:49:02.000Z</time>
      </trkpt>
      <trkpt lat="45.23322" lon="1.56006">
        <ele>282</ele>
        <time>1970-01-01T01:49:03.000Z</time>
      </trkpt>
      <trkpt lat="45.23328" lon="1.56013">
        <ele>281.4</ele>
        <time>1970-01-01T01:49:07.000Z</time>
      </trkpt>
      <trkpt lat="45.2333" lon="1.56024">
        <ele>279.6</ele>
        <time>1970-01-01T01:49:10.000Z</time>
      </trkpt>
      <trkpt lat="45.23331" lon="1.5604">
        <ele>278.6</ele>
        <time>1970-01-01T01:49:13.000Z</time>
      </trkpt>
      <trkpt lat="45.2333" lon="1.56053">
        <ele>277.4</ele>
        <time>1970-01-01T01:49:16.000Z</time>
      </trkpt>
      <trkpt lat="45.2333" lon="1.56067">
        <ele>276.2</ele>
        <time>1970-01-01T01:49:20.000Z</time>
      </trkpt>
      <trkpt lat="45.23329" lon="1.56077">
        <ele>275.2</ele>
        <time>1970-01-01T01:49:23.000Z</time>
      </trkpt>
      <trkpt lat="45.23328" lon="1.56092">
        <ele>274.8</ele>
        <time>1970-01-01T01:49:27.000Z</time>
      </trkpt>
      <trkpt lat="45.23329" lon="1.56107">
        <ele>274.2</ele>
        <time>1970-01-01T01:49:31.000Z</time>
      </trkpt>
      <trkpt lat="45.2333" lon="1.56114">
        <ele>274.2</ele>
        <time>1970-01-01T01:49:33.000Z</time>
      </trkpt>
      <trkpt lat="45.23332" lon="1.56118">
        <ele>274</ele>
        <time>1970-01-01T01:49:36.000Z</time>
      </trkpt>
      <trkpt lat="45.23334" lon="1.56118">
        <ele>274</ele>
        <time>1970-01-01T01:49:37.000Z</time>
      </trkpt>
      <trkpt lat="45.2334" lon="1.56119">
        <ele>273.4</ele>
        <time>1970-01-01T01:49:41.000Z</time>
      </trkpt>
      <trkpt lat="45.23342" lon="1.5612">
        <ele>273</ele>
        <time>1970-01-01T01:49:42.000Z</time>
      </trkpt>
      <trkpt lat="45.23346" lon="1.56121">
        <ele>272</ele>
        <time>1970-01-01T01:49:44.000Z</time>
      </trkpt>
      <trkpt lat="45.23349" lon="1.56122">
        <ele>272</ele>
        <time>1970-01-01T01:49:45.000Z</time>
      </trkpt>
      <trkpt lat="45.23357" lon="1.56126">
        <ele>271</ele>
        <time>1970-01-01T01:49:49.000Z</time>
      </trkpt>
      <trkpt lat="45.23359" lon="1.56127">
        <ele>270.6</ele>
        <time>1970-01-01T01:49:50.000Z</time>
      </trkpt>
      <trkpt lat="45.23364" lon="1.56131">
        <ele>269.6</ele>
        <time>1970-01-01T01:49:52.000Z</time>
      </trkpt>
      <trkpt lat="45.23369" lon="1.56137">
        <ele>268.6</ele>
        <time>1970-01-01T01:49:54.000Z</time>
      </trkpt>
      <trkpt lat="45.23371" lon="1.56139">
        <ele>268.2</ele>
        <time>1970-01-01T01:49:55.000Z</time>
      </trkpt>
      <trkpt lat="45.23377" lon="1.56145">
        <ele>266.8</ele>
        <time>1970-01-01T01:49:58.000Z</time>
      </trkpt>
      <trkpt lat="45.23378" lon="1.56147">
        <ele>266.4</ele>
        <time>1970-01-01T01:49:59.000Z</time>
      </trkpt>
      <trkpt lat="45.23383" lon="1.56153">
        <ele>265</ele>
        <time>1970-01-01T01:50:02.000Z</time>
      </trkpt>
      <trkpt lat="45.2339" lon="1.56159">
        <ele>264</ele>
        <time>1970-01-01T01:50:05.000Z</time>
      </trkpt>
      <trkpt lat="45.23399" lon="1.56167">
        <ele>263</ele>
        <time>1970-01-01T01:50:08.000Z</time>
      </trkpt>
      <trkpt lat="45.23403" lon="1.56172">
        <ele>261.6</ele>
        <time>1970-01-01T01:50:10.000Z</time>
      </trkpt>
      <trkpt lat="45.23409" lon="1.56179">
        <ele>260.6</ele>
        <time>1970-01-01T01:50:13.000Z</time>
      </trkpt>
      <trkpt lat="45.23411" lon="1.56183">
        <ele>260.6</ele>
        <time>1970-01-01T01:50:14.000Z</time>
      </trkpt>
      <trkpt lat="45.23415" lon="1.56192">
        <ele>259.4</ele>
        <time>1970-01-01T01:50:17.000Z</time>
      </trkpt>
      <trkpt lat="45.23418" lon="1.56198">
        <ele>258.8</ele>
        <time>1970-01-01T01:50:19.000Z</time>
      </trkpt>
      <trkpt lat="45.2342" lon="1.56203">
        <ele>257.8</ele>
        <time>1970-01-01T01:50:21.000Z</time>
      </trkpt>
      <trkpt lat="45.23421" lon="1.56206">
        <ele>257.6</ele>
        <time>1970-01-01T01:50:22.000Z</time>
      </trkpt>
      <trkpt lat="45.23423" lon="1.56214">
        <ele>257.2</ele>
        <time>1970-01-01T01:50:25.000Z</time>
      </trkpt>
      <trkpt lat="45.23424" lon="1.56216">
        <ele>256.4</ele>
        <time>1970-01-01T01:50:26.000Z</time>
      </trkpt>
      <trkpt lat="45.23427" lon="1.56224">
        <ele>254.6</ele>
        <time>1970-01-01T01:50:30.000Z</time>
      </trkpt>
      <trkpt lat="45.23429" lon="1.56227">
        <ele>254.2</ele>
        <time>1970-01-01T01:50:31.000Z</time>
      </trkpt>
      <trkpt lat="45.23433" lon="1.56233">
        <ele>253.4</ele>
        <time>1970-01-01T01:50:34.000Z</time>
      </trkpt>
      <trkpt lat="45.23438" lon="1.56235">
        <ele>252.4</ele>
        <time>1970-01-01T01:50:37.000Z</time>
      </trkpt>
      <trkpt lat="45.2344" lon="1.56236">
        <ele>252</ele>
        <time>1970-01-01T01:50:38.000Z</time>
      </trkpt>
      <trkpt lat="45.23447" lon="1.5624">
        <ele>251.4</ele>
        <time>1970-01-01T01:50:41.000Z</time>
      </trkpt>
      <trkpt lat="45.2345" lon="1.56242">
        <ele>250.4</ele>
        <time>1970-01-01T01:50:43.000Z</time>
      </trkpt>
      <trkpt lat="45.23453" lon="1.56243">
        <ele>249.8</ele>
        <time>1970-01-01T01:50:45.000Z</time>
      </trkpt>
      <trkpt lat="45.23464" lon="1.56243">
        <ele>248.4</ele>
        <time>1970-01-01T01:50:51.000Z</time>
      </trkpt>
      <trkpt lat="45.23465" lon="1.56243">
        <ele>248.2</ele>
        <time>1970-01-01T01:50:52.000Z</time>
      </trkpt>
      <trkpt lat="45.2347" lon="1.56243">
        <ele>248.2</ele>
        <time>1970-01-01T01:50:54.000Z</time>
      </trkpt>
      <trkpt lat="45.23475" lon="1.56245">
        <ele>247.2</ele>
        <time>1970-01-01T01:50:56.000Z</time>
      </trkpt>
      <trkpt lat="45.23479" lon="1.56246">
        <ele>245.8</ele>
        <time>1970-01-01T01:50:58.000Z</time>
      </trkpt>
      <trkpt lat="45.23488" lon="1.56251">
        <ele>244.6</ele>
        <time>1970-01-01T01:51:03.000Z</time>
      </trkpt>
      <trkpt lat="45.23495" lon="1.56254">
        <ele>244</ele>
        <time>1970-01-01T01:51:06.000Z</time>
      </trkpt>
      <trkpt lat="45.23499" lon="1.56256">
        <ele>243.4</ele>
        <time>1970-01-01T01:51:08.000Z</time>
      </trkpt>
      <trkpt lat="45.23505" lon="1.56263">
        <ele>242.2</ele>
        <time>1970-01-01T01:51:12.000Z</time>
      </trkpt>
      <trkpt lat="45.23517" lon="1.56271">
        <ele>241</ele>
        <time>1970-01-01T01:51:17.000Z</time>
      </trkpt>
      <trkpt lat="45.23524" lon="1.56277">
        <ele>240</ele>
        <time>1970-01-01T01:51:20.000Z</time>
      </trkpt>
      <trkpt lat="45.23527" lon="1.56279">
        <ele>239.2</ele>
        <time>1970-01-01T01:51:21.000Z</time>
      </trkpt>
      <trkpt lat="45.2354" lon="1.56293">
        <ele>238.4</ele>
        <time>1970-01-01T01:51:27.000Z</time>
      </trkpt>
      <trkpt lat="45.23541" lon="1.56295">
        <ele>237.8</ele>
        <time>1970-01-01T01:51:28.000Z</time>
      </trkpt>
      <trkpt lat="45.23543" lon="1.56296">
        <ele>237.6</ele>
        <time>1970-01-01T01:51:29.000Z</time>
      </trkpt>
      <trkpt lat="45.23545" lon="1.56298">
        <ele>236.6</ele>
        <time>1970-01-01T01:51:30.000Z</time>
      </trkpt>
      <trkpt lat="45.23548" lon="1.56303">
        <ele>236.2</ele>
        <time>1970-01-01T01:51:32.000Z</time>
      </trkpt>
      <trkpt lat="45.2355" lon="1.56308">
        <ele>235.6</ele>
        <time>1970-01-01T01:51:34.000Z</time>
      </trkpt>
      <trkpt lat="45.23551" lon="1.5631">
        <ele>235.6</ele>
        <time>1970-01-01T01:51:35.000Z</time>
      </trkpt>
      <trkpt lat="45.23552" lon="1.56312">
        <ele>235.4</ele>
        <time>1970-01-01T01:51:36.000Z</time>
      </trkpt>
      <trkpt lat="45.23555" lon="1.56316">
        <ele>234.2</ele>
        <time>1970-01-01T01:51:39.000Z</time>
      </trkpt>
      <trkpt lat="45.23558" lon="1.56323">
        <ele>233.2</ele>
        <time>1970-01-01T01:51:42.000Z</time>
      </trkpt>
      <trkpt lat="45.23559" lon="1.56326">
        <ele>232.4</ele>
        <time>1970-01-01T01:51:43.000Z</time>
      </trkpt>
      <trkpt lat="45.23561" lon="1.56333">
        <ele>231.4</ele>
        <time>1970-01-01T01:51:45.000Z</time>
      </trkpt>
      <trkpt lat="45.23561" lon="1.56336">
        <ele>231.2</ele>
        <time>1970-01-01T01:51:46.000Z</time>
      </trkpt>
      <trkpt lat="45.23566" lon="1.56346">
        <ele>229.4</ele>
        <time>1970-01-01T01:51:49.000Z</time>
      </trkpt>
      <trkpt lat="45.23568" lon="1.56352">
        <ele>228.2</ele>
        <time>1970-01-01T01:51:51.000Z</time>
      </trkpt>
      <trkpt lat="45.2357" lon="1.56355">
        <ele>227.2</ele>
        <time>1970-01-01T01:51:52.000Z</time>
      </trkpt>
      <trkpt lat="45.23572" lon="1.56362">
        <ele>226.6</ele>
        <time>1970-01-01T01:51:55.000Z</time>
      </trkpt>
      <trkpt lat="45.23573" lon="1.56365">
        <ele>225.6</ele>
        <time>1970-01-01T01:51:56.000Z</time>
      </trkpt>
      <trkpt lat="45.23574" lon="1.56367">
        <ele>225.6</ele>
        <time>1970-01-01T01:51:57.000Z</time>
      </trkpt>
      <trkpt lat="45.23577" lon="1.56376">
        <ele>224.6</ele>
        <time>1970-01-01T01:52:00.000Z</time>
      </trkpt>
      <trkpt lat="45.23578" lon="1.5638">
        <ele>223.8</ele>
        <time>1970-01-01T01:52:01.000Z</time>
      </trkpt>
      <trkpt lat="45.23579" lon="1.56386">
        <ele>223.6</ele>
        <time>1970-01-01T01:52:03.000Z</time>
      </trkpt>
      <trkpt lat="45.23581" lon="1.56395">
        <ele>222.6</ele>
        <time>1970-01-01T01:52:06.000Z</time>
      </trkpt>
      <trkpt lat="45.23582" lon="1.56403">
        <ele>221.6</ele>
        <time>1970-01-01T01:52:09.000Z</time>
      </trkpt>
      <trkpt lat="45.23584" lon="1.56405">
        <ele>221.6</ele>
        <time>1970-01-01T01:52:10.000Z</time>
      </trkpt>
      <trkpt lat="45.23586" lon="1.56407">
        <ele>221.4</ele>
        <time>1970-01-01T01:52:12.000Z</time>
      </trkpt>
      <trkpt lat="45.23587" lon="1.56408">
        <ele>221.6</ele>
        <time>1970-01-01T01:52:14.000Z</time>
      </trkpt>
      <trkpt lat="45.23591" lon="1.56408">
        <ele>222.2</ele>
        <time>1970-01-01T01:52:17.000Z</time>
      </trkpt>
      <trkpt lat="45.23594" lon="1.56406">
        <ele>223.4</ele>
        <time>1970-01-01T01:52:19.000Z</time>
      </trkpt>
      <trkpt lat="45.23595" lon="1.56404">
        <ele>223.4</ele>
        <time>1970-01-01T01:52:20.000Z</time>
      </trkpt>
      <trkpt lat="45.23599" lon="1.56399">
        <ele>224.4</ele>
        <time>1970-01-01T01:52:23.000Z</time>
      </trkpt>
      <trkpt lat="45.236" lon="1.56398">
        <ele>224.4</ele>
        <time>1970-01-01T01:52:24.000Z</time>
      </trkpt>
      <trkpt lat="45.23602" lon="1.56397">
        <ele>224.4</ele>
        <time>1970-01-01T01:52:25.000Z</time>
      </trkpt>
      <trkpt lat="45.23605" lon="1.56395">
        <ele>225.2</ele>
        <time>1970-01-01T01:52:27.000Z</time>
      </trkpt>
      <trkpt lat="45.23606" lon="1.56391">
        <ele>225.2</ele>
        <time>1970-01-01T01:52:29.000Z</time>
      </trkpt>
      <trkpt lat="45.23608" lon="1.56385">
        <ele>225.4</ele>
        <time>1970-01-01T01:52:31.000Z</time>
      </trkpt>
      <trkpt lat="45.2361" lon="1.56381">
        <ele>225.8</ele>
        <time>1970-01-01T01:52:33.000Z</time>
      </trkpt>
      <trkpt lat="45.23616" lon="1.5637">
        <ele>226</ele>
        <time>1970-01-01T01:52:39.000Z</time>
      </trkpt>
      <trkpt lat="45.2363" lon="1.56347">
        <ele>225.4</ele>
        <time>1970-01-01T01:52:47.000Z</time>
      </trkpt>
      <trkpt lat="45.23642" lon="1.56335">
        <ele>224.8</ele>
        <time>1970-01-01T01:52:51.000Z</time>
      </trkpt>
      <trkpt lat="45.2365" lon="1.56333">
        <ele>224.8</ele>
        <time>1970-01-01T01:52:55.000Z</time>
      </trkpt>
      <trkpt lat="45.23663" lon="1.56334">
        <ele>224.6</ele>
        <time>1970-01-01T01:53:01.000Z</time>
      </trkpt>
      <trkpt lat="45.23671" lon="1.56336">
        <ele>224.4</ele>
        <time>1970-01-01T01:53:05.000Z</time>
      </trkpt>
      <trkpt lat="45.23673" lon="1.56336">
        <ele>224.2</ele>
        <time>1970-01-01T01:53:07.000Z</time>
      </trkpt>
      <trkpt lat="45.23673" lon="1.56335">
        <ele>224.2</ele>
        <time>1970-01-01T01:53:08.000Z</time>
      </trkpt>
      <trkpt lat="45.23674" lon="1.56333">
        <ele>223.8</ele>
        <time>1970-01-01T01:53:13.000Z</time>
      </trkpt>
      <trkpt lat="45.23672" lon="1.5633">
        <ele>222.6</ele>
        <time>1970-01-01T01:53:15.000Z</time>
      </trkpt>
      <trkpt lat="45.23671" lon="1.56342">
        <ele>234.4</ele>
        <time>1970-01-01T00:45:15.000Z</time>
      </trkpt>
      <trkpt lat="45.23672" lon="1.56358">
        <ele>235.4</ele>
        <time>1970-01-01T00:45:20.000Z</time>
      </trkpt>
      <trkpt lat="45.23674" lon="1.56367">
        <ele>236.4</ele>
        <time>1970-01-01T00:45:24.000Z</time>
      </trkpt>
      <trkpt lat="45.23675" lon="1.56369">
        <ele>236.8</ele>
        <time>1970-01-01T00:45:25.000Z</time>
      </trkpt>
      <trkpt lat="45.23676" lon="1.56378">
        <ele>237.8</ele>
        <time>1970-01-01T00:45:29.000Z</time>
      </trkpt>
      <trkpt lat="45.23678" lon="1.56384">
        <ele>238.6</ele>
        <time>1970-01-01T00:45:31.000Z</time>
      </trkpt>
      <trkpt lat="45.23678" lon="1.56386">
        <ele>239</ele>
        <time>1970-01-01T00:45:32.000Z</time>
      </trkpt>
      <trkpt lat="45.23679" lon="1.56398">
        <ele>239.8</ele>
        <time>1970-01-01T00:45:37.000Z</time>
      </trkpt>
      <trkpt lat="45.23679" lon="1.564">
        <ele>240</ele>
        <time>1970-01-01T00:45:38.000Z</time>
      </trkpt>
      <trkpt lat="45.2368" lon="1.56402">
        <ele>240.2</ele>
        <time>1970-01-01T00:45:39.000Z</time>
      </trkpt>
      <trkpt lat="45.23682" lon="1.56407">
        <ele>240.8</ele>
        <time>1970-01-01T00:45:41.000Z</time>
      </trkpt>
      <trkpt lat="45.23683" lon="1.5641">
        <ele>241</ele>
        <time>1970-01-01T00:45:42.000Z</time>
      </trkpt>
      <trkpt lat="45.23684" lon="1.56416">
        <ele>241.6</ele>
        <time>1970-01-01T00:45:44.000Z</time>
      </trkpt>
      <trkpt lat="45.23683" lon="1.56424">
        <ele>242.4</ele>
        <time>1970-01-01T00:45:47.000Z</time>
      </trkpt>
      <trkpt lat="45.23684" lon="1.5643">
        <ele>242.8</ele>
        <time>1970-01-01T00:45:49.000Z</time>
      </trkpt>
      <trkpt lat="45.23685" lon="1.56432">
        <ele>243.2</ele>
        <time>1970-01-01T00:45:50.000Z</time>
      </trkpt>
      <trkpt lat="45.23686" lon="1.56434">
        <ele>243.6</ele>
        <time>1970-01-01T00:45:51.000Z</time>
      </trkpt>
      <trkpt lat="45.23687" lon="1.56438">
        <ele>243.8</ele>
        <time>1970-01-01T00:45:53.000Z</time>
      </trkpt>
      <trkpt lat="45.23687" lon="1.5644">
        <ele>244</ele>
        <time>1970-01-01T00:45:54.000Z</time>
      </trkpt>
      <trkpt lat="45.23688" lon="1.56443">
        <ele>244.2</ele>
        <time>1970-01-01T00:45:55.000Z</time>
      </trkpt>
      <trkpt lat="45.23689" lon="1.56446">
        <ele>244.6</ele>
        <time>1970-01-01T00:45:56.000Z</time>
      </trkpt>
      <trkpt lat="45.2369" lon="1.56448">
        <ele>244.6</ele>
        <time>1970-01-01T00:45:57.000Z</time>
      </trkpt>
      <trkpt lat="45.23691" lon="1.56452">
        <ele>245</ele>
        <time>1970-01-01T00:45:59.000Z</time>
      </trkpt>
      <trkpt lat="45.23692" lon="1.56456">
        <ele>245.8</ele>
        <time>1970-01-01T00:46:01.000Z</time>
      </trkpt>
      <trkpt lat="45.23694" lon="1.56463">
        <ele>246.2</ele>
        <time>1970-01-01T00:46:04.000Z</time>
      </trkpt>
      <trkpt lat="45.23695" lon="1.56472">
        <ele>247.6</ele>
        <time>1970-01-01T00:46:08.000Z</time>
      </trkpt>
      <trkpt lat="45.23695" lon="1.56477">
        <ele>248.2</ele>
        <time>1970-01-01T00:46:10.000Z</time>
      </trkpt>
      <trkpt lat="45.23696" lon="1.56479">
        <ele>248.4</ele>
        <time>1970-01-01T00:46:11.000Z</time>
      </trkpt>
      <trkpt lat="45.23698" lon="1.56485">
        <ele>249.2</ele>
        <time>1970-01-01T00:46:14.000Z</time>
      </trkpt>
      <trkpt lat="45.23699" lon="1.56489">
        <ele>249.4</ele>
        <time>1970-01-01T00:46:16.000Z</time>
      </trkpt>
      <trkpt lat="45.23699" lon="1.5649">
        <ele>249.8</ele>
        <time>1970-01-01T00:46:17.000Z</time>
      </trkpt>
      <trkpt lat="45.237" lon="1.56497">
        <ele>250.4</ele>
        <time>1970-01-01T00:46:20.000Z</time>
      </trkpt>
      <trkpt lat="45.23702" lon="1.56501">
        <ele>251</ele>
        <time>1970-01-01T00:46:22.000Z</time>
      </trkpt>
      <trkpt lat="45.23702" lon="1.56506">
        <ele>251.8</ele>
        <time>1970-01-01T00:46:24.000Z</time>
      </trkpt>
      <trkpt lat="45.23702" lon="1.56515">
        <ele>252.8</ele>
        <time>1970-01-01T00:46:29.000Z</time>
      </trkpt>
      <trkpt lat="45.23703" lon="1.56521">
        <ele>253.2</ele>
        <time>1970-01-01T00:46:31.000Z</time>
      </trkpt>
      <trkpt lat="45.23704" lon="1.56523">
        <ele>253.4</ele>
        <time>1970-01-01T00:46:32.000Z</time>
      </trkpt>
      <trkpt lat="45.23703" lon="1.56525">
        <ele>254</ele>
        <time>1970-01-01T00:46:34.000Z</time>
      </trkpt>
      <trkpt lat="45.23702" lon="1.56526">
        <ele>254.4</ele>
        <time>1970-01-01T00:46:35.000Z</time>
      </trkpt>
      <trkpt lat="45.237" lon="1.56525">
        <ele>255</ele>
        <time>1970-01-01T00:46:37.000Z</time>
      </trkpt>
      <trkpt lat="45.23699" lon="1.56524">
        <ele>255.4</ele>
        <time>1970-01-01T00:46:38.000Z</time>
      </trkpt>
      <trkpt lat="45.23698" lon="1.56523">
        <ele>256.2</ele>
        <time>1970-01-01T00:46:40.000Z</time>
      </trkpt>
      <trkpt lat="45.23695" lon="1.56519">
        <ele>257.2</ele>
        <time>1970-01-01T00:46:44.000Z</time>
      </trkpt>
      <trkpt lat="45.23693" lon="1.56517">
        <ele>257.6</ele>
        <time>1970-01-01T00:46:46.000Z</time>
      </trkpt>
      <trkpt lat="45.23691" lon="1.56516">
        <ele>257.8</ele>
        <time>1970-01-01T00:46:47.000Z</time>
      </trkpt>
      <trkpt lat="45.23688" lon="1.56515">
        <ele>258.4</ele>
        <time>1970-01-01T00:46:49.000Z</time>
      </trkpt>
      <trkpt lat="45.23682" lon="1.56514">
        <ele>259.4</ele>
        <time>1970-01-01T00:46:53.000Z</time>
      </trkpt>
      <trkpt lat="45.23675" lon="1.56509">
        <ele>260.6</ele>
        <time>1970-01-01T00:46:58.000Z</time>
      </trkpt>
      <trkpt lat="45.23671" lon="1.56505">
        <ele>261.2</ele>
        <time>1970-01-01T00:47:01.000Z</time>
      </trkpt>
      <trkpt lat="45.23669" lon="1.56505">
        <ele>261.6</ele>
        <time>1970-01-01T00:47:02.000Z</time>
      </trkpt>
      <trkpt lat="45.23667" lon="1.56504">
        <ele>261.8</ele>
        <time>1970-01-01T00:47:03.000Z</time>
      </trkpt>
      <trkpt lat="45.23664" lon="1.56503">
        <ele>262</ele>
        <time>1970-01-01T00:47:05.000Z</time>
      </trkpt>
      <trkpt lat="45.23664" lon="1.56501">
        <ele>262.8</ele>
        <time>1970-01-01T00:47:07.000Z</time>
      </trkpt>
      <trkpt lat="45.23665" lon="1.56499">
        <ele>263.2</ele>
        <time>1970-01-01T00:47:08.000Z</time>
      </trkpt>
      <trkpt lat="45.23665" lon="1.56498">
        <ele>263.8</ele>
        <time>1970-01-01T00:47:10.000Z</time>
      </trkpt>
      <trkpt lat="45.23664" lon="1.56498">
        <ele>263.8</ele>
        <time>1970-01-01T00:47:12.000Z</time>
      </trkpt>
      <trkpt lat="45.23663" lon="1.56499">
        <ele>264.4</ele>
        <time>1970-01-01T00:47:13.000Z</time>
      </trkpt>
      <trkpt lat="45.23661" lon="1.56499">
        <ele>265</ele>
        <time>1970-01-01T00:47:16.000Z</time>
      </trkpt>
      <trkpt lat="45.23659" lon="1.56499">
        <ele>265.4</ele>
        <time>1970-01-01T00:47:17.000Z</time>
      </trkpt>
      <trkpt lat="45.23656" lon="1.56501">
        <ele>266.4</ele>
        <time>1970-01-01T00:47:20.000Z</time>
      </trkpt>
      <trkpt lat="45.23656" lon="1.56501">
        <ele>267</ele>
        <time>1970-01-01T00:47:21.000Z</time>
      </trkpt>
      <trkpt lat="45.23654" lon="1.56502">
        <ele>267.4</ele>
        <time>1970-01-01T00:47:22.000Z</time>
      </trkpt>
      <trkpt lat="45.23653" lon="1.56502">
        <ele>267.8</ele>
        <time>1970-01-01T00:47:23.000Z</time>
      </trkpt>
      <trkpt lat="45.23651" lon="1.56507">
        <ele>268.6</ele>
        <time>1970-01-01T00:47:27.000Z</time>
      </trkpt>
      <trkpt lat="45.23652" lon="1.56507">
        <ele>268.8</ele>
        <time>1970-01-01T00:47:29.000Z</time>
      </trkpt>
      <trkpt lat="45.2365" lon="1.56509">
        <ele>269.6</ele>
        <time>1970-01-01T00:47:31.000Z</time>
      </trkpt>
      <trkpt lat="45.23649" lon="1.5651">
        <ele>270</ele>
        <time>1970-01-01T00:47:32.000Z</time>
      </trkpt>
      <trkpt lat="45.23648" lon="1.56511">
        <ele>270.6</ele>
        <time>1970-01-01T00:47:34.000Z</time>
      </trkpt>
      <trkpt lat="45.23647" lon="1.56512">
        <ele>271</ele>
        <time>1970-01-01T00:47:36.000Z</time>
      </trkpt>
      <trkpt lat="45.23646" lon="1.56513">
        <ele>271</ele>
        <time>1970-01-01T00:47:37.000Z</time>
      </trkpt>
      <trkpt lat="45.23643" lon="1.56516">
        <ele>271.4</ele>
        <time>1970-01-01T00:47:39.000Z</time>
      </trkpt>
      <trkpt lat="45.23642" lon="1.56518">
        <ele>272</ele>
        <time>1970-01-01T00:47:40.000Z</time>
      </trkpt>
      <trkpt lat="45.2364" lon="1.56523">
        <ele>273.2</ele>
        <time>1970-01-01T00:47:44.000Z</time>
      </trkpt>
      <trkpt lat="45.23639" lon="1.56524">
        <ele>273.4</ele>
        <time>1970-01-01T00:47:45.000Z</time>
      </trkpt>
      <trkpt lat="45.23638" lon="1.56525">
        <ele>273.6</ele>
        <time>1970-01-01T00:47:46.000Z</time>
      </trkpt>
      <trkpt lat="45.23636" lon="1.56528">
        <ele>274</ele>
        <time>1970-01-01T00:47:48.000Z</time>
      </trkpt>
      <trkpt lat="45.23636" lon="1.56529">
        <ele>274.2</ele>
        <time>1970-01-01T00:47:49.000Z</time>
      </trkpt>
      <trkpt lat="45.23636" lon="1.5653">
        <ele>274.4</ele>
        <time>1970-01-01T00:47:50.000Z</time>
      </trkpt>
      <trkpt lat="45.23635" lon="1.56531">
        <ele>274.6</ele>
        <time>1970-01-01T00:47:51.000Z</time>
      </trkpt>
      <trkpt lat="45.23632" lon="1.56536">
        <ele>275.4</ele>
        <time>1970-01-01T00:47:54.000Z</time>
      </trkpt>
      <trkpt lat="45.23629" lon="1.56543">
        <ele>276</ele>
        <time>1970-01-01T00:47:57.000Z</time>
      </trkpt>
      <trkpt lat="45.23626" lon="1.56549">
        <ele>276.6</ele>
        <time>1970-01-01T00:48:00.000Z</time>
      </trkpt>
      <trkpt lat="45.23625" lon="1.5655">
        <ele>276.6</ele>
        <time>1970-01-01T00:48:01.000Z</time>
      </trkpt>
      <trkpt lat="45.23621" lon="1.56556">
        <ele>277.4</ele>
        <time>1970-01-01T00:48:04.000Z</time>
      </trkpt>
      <trkpt lat="45.23619" lon="1.5656">
        <ele>277.6</ele>
        <time>1970-01-01T00:48:07.000Z</time>
      </trkpt>
      <trkpt lat="45.23614" lon="1.56568">
        <ele>277.8</ele>
        <time>1970-01-01T00:48:11.000Z</time>
      </trkpt>
      <trkpt lat="45.23607" lon="1.56581">
        <ele>278.8</ele>
        <time>1970-01-01T00:48:17.000Z</time>
      </trkpt>
      <trkpt lat="45.23599" lon="1.56589">
        <ele>279.8</ele>
        <time>1970-01-01T00:48:22.000Z</time>
      </trkpt>
      <trkpt lat="45.23598" lon="1.56591">
        <ele>280</ele>
        <time>1970-01-01T00:48:23.000Z</time>
      </trkpt>
      <trkpt lat="45.23594" lon="1.56595">
        <ele>281</ele>
        <time>1970-01-01T00:48:26.000Z</time>
      </trkpt>
      <trkpt lat="45.23591" lon="1.56597">
        <ele>281.4</ele>
        <time>1970-01-01T00:48:28.000Z</time>
      </trkpt>
      <trkpt lat="45.2359" lon="1.56599">
        <ele>281.6</ele>
        <time>1970-01-01T00:48:29.000Z</time>
      </trkpt>
      <trkpt lat="45.23589" lon="1.566">
        <ele>281.6</ele>
        <time>1970-01-01T00:48:30.000Z</time>
      </trkpt>
      <trkpt lat="45.23586" lon="1.56603">
        <ele>282</ele>
        <time>1970-01-01T00:48:32.000Z</time>
      </trkpt>
      <trkpt lat="45.23583" lon="1.56607">
        <ele>282.4</ele>
        <time>1970-01-01T00:48:35.000Z</time>
      </trkpt>
      <trkpt lat="45.23581" lon="1.5661">
        <ele>283</ele>
        <time>1970-01-01T00:48:37.000Z</time>
      </trkpt>
      <trkpt lat="45.2358" lon="1.56611">
        <ele>283.2</ele>
        <time>1970-01-01T00:48:38.000Z</time>
      </trkpt>
      <trkpt lat="45.23579" lon="1.56612">
        <ele>283.6</ele>
        <time>1970-01-01T00:48:39.000Z</time>
      </trkpt>
      <trkpt lat="45.23578" lon="1.56613">
        <ele>283.8</ele>
        <time>1970-01-01T00:48:40.000Z</time>
      </trkpt>
      <trkpt lat="45.23577" lon="1.56618">
        <ele>284.4</ele>
        <time>1970-01-01T00:48:43.000Z</time>
      </trkpt>
      <trkpt lat="45.23574" lon="1.56623">
        <ele>285.6</ele>
        <time>1970-01-01T00:48:46.000Z</time>
      </trkpt>
      <trkpt lat="45.2357" lon="1.56629">
        <ele>286.2</ele>
        <time>1970-01-01T00:48:50.000Z</time>
      </trkpt>
      <trkpt lat="45.23569" lon="1.56633">
        <ele>287</ele>
        <time>1970-01-01T00:48:52.000Z</time>
      </trkpt>
      <trkpt lat="45.23567" lon="1.56641">
        <ele>288</ele>
        <time>1970-01-01T00:48:56.000Z</time>
      </trkpt>
      <trkpt lat="45.23566" lon="1.56644">
        <ele>288.2</ele>
        <time>1970-01-01T00:48:57.000Z</time>
      </trkpt>
      <trkpt lat="45.23563" lon="1.56652">
        <ele>289</ele>
        <time>1970-01-01T00:49:01.000Z</time>
      </trkpt>
      <trkpt lat="45.23561" lon="1.56653">
        <ele>289.4</ele>
        <time>1970-01-01T00:49:02.000Z</time>
      </trkpt>
      <trkpt lat="45.23556" lon="1.56657">
        <ele>289.8</ele>
        <time>1970-01-01T00:49:05.000Z</time>
      </trkpt>
      <trkpt lat="45.23553" lon="1.5666">
        <ele>290.2</ele>
        <time>1970-01-01T00:49:08.000Z</time>
      </trkpt>
      <trkpt lat="45.23552" lon="1.56661">
        <ele>290.6</ele>
        <time>1970-01-01T00:49:09.000Z</time>
      </trkpt>
      <trkpt lat="45.23551" lon="1.56663">
        <ele>290.8</ele>
        <time>1970-01-01T00:49:10.000Z</time>
      </trkpt>
      <trkpt lat="45.23548" lon="1.56668">
        <ele>291.4</ele>
        <time>1970-01-01T00:49:12.000Z</time>
      </trkpt>
      <trkpt lat="45.23545" lon="1.56672">
        <ele>292</ele>
        <time>1970-01-01T00:49:14.000Z</time>
      </trkpt>
      <trkpt lat="45.23541" lon="1.56676">
        <ele>292.4</ele>
        <time>1970-01-01T00:49:17.000Z</time>
      </trkpt>
      <trkpt lat="45.2354" lon="1.56678">
        <ele>292.8</ele>
        <time>1970-01-01T00:49:18.000Z</time>
      </trkpt>
      <trkpt lat="45.23535" lon="1.56684">
        <ele>293.6</ele>
        <time>1970-01-01T00:49:22.000Z</time>
      </trkpt>
      <trkpt lat="45.23533" lon="1.56687">
        <ele>294</ele>
        <time>1970-01-01T00:49:24.000Z</time>
      </trkpt>
      <trkpt lat="45.23532" lon="1.56689">
        <ele>294.6</ele>
        <time>1970-01-01T00:49:25.000Z</time>
      </trkpt>
      <trkpt lat="45.23528" lon="1.56693">
        <ele>295.2</ele>
        <time>1970-01-01T00:49:27.000Z</time>
      </trkpt>
      <trkpt lat="45.23522" lon="1.56701">
        <ele>296.2</ele>
        <time>1970-01-01T00:49:31.000Z</time>
      </trkpt>
      <trkpt lat="45.2352" lon="1.56706">
        <ele>296.6</ele>
        <time>1970-01-01T00:49:33.000Z</time>
      </trkpt>
      <trkpt lat="45.23519" lon="1.5671">
        <ele>296.6</ele>
        <time>1970-01-01T00:49:34.000Z</time>
      </trkpt>
      <trkpt lat="45.23515" lon="1.56717">
        <ele>297.4</ele>
        <time>1970-01-01T00:49:38.000Z</time>
      </trkpt>
      <trkpt lat="45.23513" lon="1.56718">
        <ele>297.6</ele>
        <time>1970-01-01T00:49:39.000Z</time>
      </trkpt>
      <trkpt lat="45.23505" lon="1.56725">
        <ele>298.4</ele>
        <time>1970-01-01T00:49:45.000Z</time>
      </trkpt>
      <trkpt lat="45.23504" lon="1.56727">
        <ele>298.6</ele>
        <time>1970-01-01T00:49:46.000Z</time>
      </trkpt>
      <trkpt lat="45.23502" lon="1.56731">
        <ele>299.8</ele>
        <time>1970-01-01T00:49:49.000Z</time>
      </trkpt>
      <trkpt lat="45.23501" lon="1.56732">
        <ele>300.2</ele>
        <time>1970-01-01T00:49:50.000Z</time>
      </trkpt>
      <trkpt lat="45.23498" lon="1.56736">
        <ele>300.6</ele>
        <time>1970-01-01T00:49:53.000Z</time>
      </trkpt>
      <trkpt lat="45.23497" lon="1.56737">
        <ele>301</ele>
        <time>1970-01-01T00:49:54.000Z</time>
      </trkpt>
      <trkpt lat="45.23496" lon="1.56745">
        <ele>302</ele>
        <time>1970-01-01T00:49:59.000Z</time>
      </trkpt>
      <trkpt lat="45.23495" lon="1.56746">
        <ele>302.2</ele>
        <time>1970-01-01T00:50:00.000Z</time>
      </trkpt>
      <trkpt lat="45.23492" lon="1.5675">
        <ele>302.6</ele>
        <time>1970-01-01T00:50:03.000Z</time>
      </trkpt>
      <trkpt lat="45.2349" lon="1.56751">
        <ele>303</ele>
        <time>1970-01-01T00:50:04.000Z</time>
      </trkpt>
      <trkpt lat="45.23489" lon="1.56752">
        <ele>303.2</ele>
        <time>1970-01-01T00:50:05.000Z</time>
      </trkpt>
      <trkpt lat="45.23479" lon="1.56761">
        <ele>304.2</ele>
        <time>1970-01-01T00:50:10.000Z</time>
      </trkpt>
      <trkpt lat="45.23477" lon="1.56763">
        <ele>304.4</ele>
        <time>1970-01-01T00:50:11.000Z</time>
      </trkpt>
      <trkpt lat="45.23473" lon="1.56769">
        <ele>304.8</ele>
        <time>1970-01-01T00:50:14.000Z</time>
      </trkpt>
      <trkpt lat="45.2347" lon="1.56772">
        <ele>305</ele>
        <time>1970-01-01T00:50:16.000Z</time>
      </trkpt>
      <trkpt lat="45.23466" lon="1.56775">
        <ele>305.4</ele>
        <time>1970-01-01T00:50:18.000Z</time>
      </trkpt>
      <trkpt lat="45.23466" lon="1.56776">
        <ele>305.6</ele>
        <time>1970-01-01T00:50:19.000Z</time>
      </trkpt>
      <trkpt lat="45.23465" lon="1.5678">
        <ele>306</ele>
        <time>1970-01-01T00:50:21.000Z</time>
      </trkpt>
      <trkpt lat="45.23463" lon="1.56783">
        <ele>306.4</ele>
        <time>1970-01-01T00:50:23.000Z</time>
      </trkpt>
      <trkpt lat="45.23462" lon="1.56785">
        <ele>306.6</ele>
        <time>1970-01-01T00:50:24.000Z</time>
      </trkpt>
      <trkpt lat="45.23457" lon="1.5679">
        <ele>307</ele>
        <time>1970-01-01T00:50:27.000Z</time>
      </trkpt>
      <trkpt lat="45.23451" lon="1.56796">
        <ele>307.6</ele>
        <time>1970-01-01T00:50:30.000Z</time>
      </trkpt>
      <trkpt lat="45.23447" lon="1.56802">
        <ele>308.2</ele>
        <time>1970-01-01T00:50:33.000Z</time>
      </trkpt>
      <trkpt lat="45.23443" lon="1.56808">
        <ele>308.6</ele>
        <time>1970-01-01T00:50:36.000Z</time>
      </trkpt>
      <trkpt lat="45.23442" lon="1.5681">
        <ele>309</ele>
        <time>1970-01-01T00:50:37.000Z</time>
      </trkpt>
      <trkpt lat="45.23441" lon="1.56811">
        <ele>309.2</ele>
        <time>1970-01-01T00:50:38.000Z</time>
      </trkpt>
      <trkpt lat="45.23439" lon="1.56815">
        <ele>309.6</ele>
        <time>1970-01-01T00:50:40.000Z</time>
      </trkpt>
      <trkpt lat="45.23439" lon="1.56816">
        <ele>310</ele>
        <time>1970-01-01T00:50:41.000Z</time>
      </trkpt>
      <trkpt lat="45.23434" lon="1.56821">
        <ele>310.6</ele>
        <time>1970-01-01T00:50:44.000Z</time>
      </trkpt>
      <trkpt lat="45.23432" lon="1.56824">
        <ele>311.2</ele>
        <time>1970-01-01T00:50:46.000Z</time>
      </trkpt>
      <trkpt lat="45.23421" lon="1.56834">
        <ele>312.2</ele>
        <time>1970-01-01T00:50:50.000Z</time>
      </trkpt>
      <trkpt lat="45.23418" lon="1.56837">
        <ele>312.8</ele>
        <time>1970-01-01T00:50:52.000Z</time>
      </trkpt>
      <trkpt lat="45.23415" lon="1.5684">
        <ele>313.2</ele>
        <time>1970-01-01T00:50:54.000Z</time>
      </trkpt>
      <trkpt lat="45.23415" lon="1.56842">
        <ele>313.4</ele>
        <time>1970-01-01T00:50:55.000Z</time>
      </trkpt>
      <trkpt lat="45.23412" lon="1.56844">
        <ele>313.8</ele>
        <time>1970-01-01T00:50:58.000Z</time>
      </trkpt>
      <trkpt lat="45.2341" lon="1.56844">
        <ele>314.2</ele>
        <time>1970-01-01T00:50:59.000Z</time>
      </trkpt>
      <trkpt lat="45.23409" lon="1.56845">
        <ele>314.4</ele>
        <time>1970-01-01T00:51:00.000Z</time>
      </trkpt>
      <trkpt lat="45.23407" lon="1.56845">
        <ele>314.8</ele>
        <time>1970-01-01T00:51:02.000Z</time>
      </trkpt>
      <trkpt lat="45.23407" lon="1.56847">
        <ele>315.4</ele>
        <time>1970-01-01T00:51:06.000Z</time>
      </trkpt>
      <trkpt lat="45.23406" lon="1.56847">
        <ele>315.4</ele>
        <time>1970-01-01T00:51:07.000Z</time>
      </trkpt>
      <trkpt lat="45.23406" lon="1.56848">
        <ele>315.6</ele>
        <time>1970-01-01T00:51:08.000Z</time>
      </trkpt>
      <trkpt lat="45.23403" lon="1.56851">
        <ele>316.8</ele>
        <time>1970-01-01T00:51:12.000Z</time>
      </trkpt>
      <trkpt lat="45.23403" lon="1.56855">
        <ele>318</ele>
        <time>1970-01-01T00:51:16.000Z</time>
      </trkpt>
      <trkpt lat="45.23401" lon="1.56857">
        <ele>318.4</ele>
        <time>1970-01-01T00:51:18.000Z</time>
      </trkpt>
      <trkpt lat="45.234" lon="1.56858">
        <ele>318.6</ele>
        <time>1970-01-01T00:51:19.000Z</time>
      </trkpt>
      <trkpt lat="45.23399" lon="1.56859">
        <ele>319.2</ele>
        <time>1970-01-01T00:51:20.000Z</time>
      </trkpt>
      <trkpt lat="45.23399" lon="1.5686">
        <ele>319.4</ele>
        <time>1970-01-01T00:51:21.000Z</time>
      </trkpt>
      <trkpt lat="45.23396" lon="1.56863">
        <ele>320.2</ele>
        <time>1970-01-01T00:51:24.000Z</time>
      </trkpt>
      <trkpt lat="45.23395" lon="1.56864">
        <ele>320.6</ele>
        <time>1970-01-01T00:51:25.000Z</time>
      </trkpt>
      <trkpt lat="45.23394" lon="1.56866">
        <ele>321</ele>
        <time>1970-01-01T00:51:27.000Z</time>
      </trkpt>
      <trkpt lat="45.23394" lon="1.56867">
        <ele>321.2</ele>
        <time>1970-01-01T00:51:28.000Z</time>
      </trkpt>
      <trkpt lat="45.23393" lon="1.56869">
        <ele>321.6</ele>
        <time>1970-01-01T00:51:30.000Z</time>
      </trkpt>
      <trkpt lat="45.2339" lon="1.56872">
        <ele>322.4</ele>
        <time>1970-01-01T00:51:33.000Z</time>
      </trkpt>
      <trkpt lat="45.23386" lon="1.56877">
        <ele>323.6</ele>
        <time>1970-01-01T00:51:37.000Z</time>
      </trkpt>
      <trkpt lat="45.23384" lon="1.5688">
        <ele>323.8</ele>
        <time>1970-01-01T00:51:39.000Z</time>
      </trkpt>
      <trkpt lat="45.23379" lon="1.56885">
        <ele>324.6</ele>
        <time>1970-01-01T00:51:42.000Z</time>
      </trkpt>
      <trkpt lat="45.23373" lon="1.56892">
        <ele>325.6</ele>
        <time>1970-01-01T00:51:46.000Z</time>
      </trkpt>
      <trkpt lat="45.23371" lon="1.56894">
        <ele>325.8</ele>
        <time>1970-01-01T00:51:47.000Z</time>
      </trkpt>
      <trkpt lat="45.2337" lon="1.569">
        <ele>326.6</ele>
        <time>1970-01-01T00:51:50.000Z</time>
      </trkpt>
      <trkpt lat="45.23369" lon="1.56903">
        <ele>327</ele>
        <time>1970-01-01T00:51:51.000Z</time>
      </trkpt>
      <trkpt lat="45.23367" lon="1.56905">
        <ele>327.2</ele>
        <time>1970-01-01T00:51:52.000Z</time>
      </trkpt>
      <trkpt lat="45.23363" lon="1.56912">
        <ele>328.2</ele>
        <time>1970-01-01T00:51:56.000Z</time>
      </trkpt>
      <trkpt lat="45.23362" lon="1.56914">
        <ele>328.4</ele>
        <time>1970-01-01T00:51:57.000Z</time>
      </trkpt>
      <trkpt lat="45.23362" lon="1.56915">
        <ele>328.8</ele>
        <time>1970-01-01T00:51:58.000Z</time>
      </trkpt>
      <trkpt lat="45.23361" lon="1.56917">
        <ele>329.4</ele>
        <time>1970-01-01T00:51:59.000Z</time>
      </trkpt>
      <trkpt lat="45.23359" lon="1.56922">
        <ele>330</ele>
        <time>1970-01-01T00:52:01.000Z</time>
      </trkpt>
      <trkpt lat="45.23359" lon="1.56924">
        <ele>330.2</ele>
        <time>1970-01-01T00:52:02.000Z</time>
      </trkpt>
      <trkpt lat="45.23359" lon="1.56925">
        <ele>330.4</ele>
        <time>1970-01-01T00:52:03.000Z</time>
      </trkpt>
      <trkpt lat="45.23358" lon="1.56927">
        <ele>330.8</ele>
        <time>1970-01-01T00:52:04.000Z</time>
      </trkpt>
      <trkpt lat="45.23357" lon="1.56931">
        <ele>331.2</ele>
        <time>1970-01-01T00:52:06.000Z</time>
      </trkpt>
      <trkpt lat="45.23358" lon="1.56934">
        <ele>331.6</ele>
        <time>1970-01-01T00:52:08.000Z</time>
      </trkpt>
      <trkpt lat="45.23357" lon="1.56937">
        <ele>332</ele>
        <time>1970-01-01T00:52:10.000Z</time>
      </trkpt>
      <trkpt lat="45.23355" lon="1.56942">
        <ele>332.6</ele>
        <time>1970-01-01T00:52:13.000Z</time>
      </trkpt>
      <trkpt lat="45.23355" lon="1.56943">
        <ele>332.8</ele>
        <time>1970-01-01T00:52:14.000Z</time>
      </trkpt>
      <trkpt lat="45.23352" lon="1.56948">
        <ele>333.6</ele>
        <time>1970-01-01T00:52:18.000Z</time>
      </trkpt>
      <trkpt lat="45.23351" lon="1.56955">
        <ele>334.8</ele>
        <time>1970-01-01T00:52:22.000Z</time>
      </trkpt>
      <trkpt lat="45.23351" lon="1.56956">
        <ele>335</ele>
        <time>1970-01-01T00:52:23.000Z</time>
      </trkpt>
      <trkpt lat="45.23351" lon="1.5696">
        <ele>335.2</ele>
        <time>1970-01-01T00:52:25.000Z</time>
      </trkpt>
      <trkpt lat="45.2335" lon="1.56965">
        <ele>336</ele>
        <time>1970-01-01T00:52:28.000Z</time>
      </trkpt>
      <trkpt lat="45.23348" lon="1.56971">
        <ele>336.2</ele>
        <time>1970-01-01T00:52:30.000Z</time>
      </trkpt>
      <trkpt lat="45.23347" lon="1.56975">
        <ele>337</ele>
        <time>1970-01-01T00:52:32.000Z</time>
      </trkpt>
      <trkpt lat="45.23346" lon="1.56977">
        <ele>337.2</ele>
        <time>1970-01-01T00:52:33.000Z</time>
      </trkpt>
      <trkpt lat="45.23345" lon="1.56978">
        <ele>337.4</ele>
        <time>1970-01-01T00:52:34.000Z</time>
      </trkpt>
      <trkpt lat="45.23346" lon="1.5698">
        <ele>337.8</ele>
        <time>1970-01-01T00:52:36.000Z</time>
      </trkpt>
      <trkpt lat="45.23346" lon="1.56982">
        <ele>338.2</ele>
        <time>1970-01-01T00:52:37.000Z</time>
      </trkpt>
      <trkpt lat="45.23346" lon="1.56984">
        <ele>338.6</ele>
        <time>1970-01-01T00:52:39.000Z</time>
      </trkpt>
      <trkpt lat="45.23346" lon="1.56987">
        <ele>339.4</ele>
        <time>1970-01-01T00:52:41.000Z</time>
      </trkpt>
      <trkpt lat="45.23346" lon="1.56992">
        <ele>340</ele>
        <time>1970-01-01T00:52:44.000Z</time>
      </trkpt>
      <trkpt lat="45.23346" lon="1.56993">
        <ele>340.6</ele>
        <time>1970-01-01T00:52:45.000Z</time>
      </trkpt>
      <trkpt lat="45.23346" lon="1.56994">
        <ele>341.2</ele>
        <time>1970-01-01T00:52:47.000Z</time>
      </trkpt>
      <trkpt lat="45.23346" lon="1.56994">
        <ele>341.6</ele>
        <time>1970-01-01T00:52:48.000Z</time>
      </trkpt>
      <trkpt lat="45.23347" lon="1.56993">
        <ele>341.8</ele>
        <time>1970-01-01T00:52:49.000Z</time>
      </trkpt>
      <trkpt lat="45.2335" lon="1.56987">
        <ele>342.6</ele>
        <time>1970-01-01T00:52:52.000Z</time>
      </trkpt>
      <trkpt lat="45.23351" lon="1.56984">
        <ele>343.2</ele>
        <time>1970-01-01T00:52:55.000Z</time>
      </trkpt>
      <trkpt lat="45.23351" lon="1.56983">
        <ele>343.6</ele>
        <time>1970-01-01T00:52:57.000Z</time>
      </trkpt>
      <trkpt lat="45.23352" lon="1.56981">
        <ele>343.8</ele>
        <time>1970-01-01T00:52:59.000Z</time>
      </trkpt>
      <trkpt lat="45.23356" lon="1.56978">
        <ele>344.8</ele>
        <time>1970-01-01T00:53:03.000Z</time>
      </trkpt>
      <trkpt lat="45.23361" lon="1.56971">
        <ele>346</ele>
        <time>1970-01-01T00:53:07.000Z</time>
      </trkpt>
      <trkpt lat="45.23364" lon="1.56967">
        <ele>347</ele>
        <time>1970-01-01T00:53:12.000Z</time>
      </trkpt>
      <trkpt lat="45.23368" lon="1.56964">
        <ele>347.6</ele>
        <time>1970-01-01T00:53:15.000Z</time>
      </trkpt>
      <trkpt lat="45.23371" lon="1.56962">
        <ele>347.8</ele>
        <time>1970-01-01T00:53:17.000Z</time>
      </trkpt>
      <trkpt lat="45.23375" lon="1.56961">
        <ele>348.2</ele>
        <time>1970-01-01T00:53:20.000Z</time>
      </trkpt>
      <trkpt lat="45.23379" lon="1.56962">
        <ele>348.8</ele>
        <time>1970-01-01T00:53:22.000Z</time>
      </trkpt>
      <trkpt lat="45.2338" lon="1.56962">
        <ele>349.4</ele>
        <time>1970-01-01T00:53:23.000Z</time>
      </trkpt>
      <trkpt lat="45.23381" lon="1.56962">
        <ele>349.6</ele>
        <time>1970-01-01T00:53:24.000Z</time>
      </trkpt>
      <trkpt lat="45.23384" lon="1.56962">
        <ele>350.2</ele>
        <time>1970-01-01T00:53:27.000Z</time>
      </trkpt>
      <trkpt lat="45.23385" lon="1.56962">
        <ele>350.4</ele>
        <time>1970-01-01T00:53:28.000Z</time>
      </trkpt>
      <trkpt lat="45.23393" lon="1.56963">
        <ele>351.4</ele>
        <time>1970-01-01T00:53:33.000Z</time>
      </trkpt>
      <trkpt lat="45.23399" lon="1.56965">
        <ele>352.2</ele>
        <time>1970-01-01T00:53:37.000Z</time>
      </trkpt>
      <trkpt lat="45.23402" lon="1.56964">
        <ele>352.8</ele>
        <time>1970-01-01T00:53:39.000Z</time>
      </trkpt>
      <trkpt lat="45.23403" lon="1.56964">
        <ele>353.2</ele>
        <time>1970-01-01T00:53:40.000Z</time>
      </trkpt>
      <trkpt lat="45.23409" lon="1.56963">
        <ele>354</ele>
        <time>1970-01-01T00:53:45.000Z</time>
      </trkpt>
      <trkpt lat="45.23412" lon="1.56962">
        <ele>354.6</ele>
        <time>1970-01-01T00:53:47.000Z</time>
      </trkpt>
      <trkpt lat="45.23414" lon="1.56962">
        <ele>355</ele>
        <time>1970-01-01T00:53:49.000Z</time>
      </trkpt>
      <trkpt lat="45.23421" lon="1.56964">
        <ele>355.6</ele>
        <time>1970-01-01T00:53:54.000Z</time>
      </trkpt>
      <trkpt lat="45.23423" lon="1.56965">
        <ele>356</ele>
        <time>1970-01-01T00:53:55.000Z</time>
      </trkpt>
      <trkpt lat="45.23429" lon="1.56969">
        <ele>357</ele>
        <time>1970-01-01T00:53:59.000Z</time>
      </trkpt>
      <trkpt lat="45.23434" lon="1.56971">
        <ele>357.8</ele>
        <time>1970-01-01T00:54:02.000Z</time>
      </trkpt>
      <trkpt lat="45.23435" lon="1.56973">
        <ele>358.2</ele>
        <time>1970-01-01T00:54:03.000Z</time>
      </trkpt>
      <trkpt lat="45.23443" lon="1.5698">
        <ele>359.6</ele>
        <time>1970-01-01T00:54:08.000Z</time>
      </trkpt>
      <trkpt lat="45.23444" lon="1.56981">
        <ele>360</ele>
        <time>1970-01-01T00:54:09.000Z</time>
      </trkpt>
      <trkpt lat="45.23445" lon="1.56982">
        <ele>360.6</ele>
        <time>1970-01-01T00:54:10.000Z</time>
      </trkpt>
      <trkpt lat="45.23447" lon="1.56984">
        <ele>360.8</ele>
        <time>1970-01-01T00:54:11.000Z</time>
      </trkpt>
      <trkpt lat="45.23448" lon="1.56986">
        <ele>361</ele>
        <time>1970-01-01T00:54:12.000Z</time>
      </trkpt>
      <trkpt lat="45.23451" lon="1.56988">
        <ele>361.4</ele>
        <time>1970-01-01T00:54:14.000Z</time>
      </trkpt>
      <trkpt lat="45.23455" lon="1.56991">
        <ele>362</ele>
        <time>1970-01-01T00:54:16.000Z</time>
      </trkpt>
      <trkpt lat="45.23461" lon="1.56996">
        <ele>362.8</ele>
        <time>1970-01-01T00:54:20.000Z</time>
      </trkpt>
      <trkpt lat="45.23462" lon="1.56998">
        <ele>363</ele>
        <time>1970-01-01T00:54:21.000Z</time>
      </trkpt>
      <trkpt lat="45.23465" lon="1.57002">
        <ele>363.6</ele>
        <time>1970-01-01T00:54:24.000Z</time>
      </trkpt>
      <trkpt lat="45.23466" lon="1.57005">
        <ele>364</ele>
        <time>1970-01-01T00:54:26.000Z</time>
      </trkpt>
      <trkpt lat="45.23466" lon="1.57008">
        <ele>364.2</ele>
        <time>1970-01-01T00:54:27.000Z</time>
      </trkpt>
      <trkpt lat="45.23467" lon="1.57014">
        <ele>364.6</ele>
        <time>1970-01-01T00:54:29.000Z</time>
      </trkpt>
      <trkpt lat="45.23467" lon="1.57017">
        <ele>364.8</ele>
        <time>1970-01-01T00:54:30.000Z</time>
      </trkpt>
      <trkpt lat="45.23468" lon="1.57024">
        <ele>365.4</ele>
        <time>1970-01-01T00:54:32.000Z</time>
      </trkpt>
      <trkpt lat="45.23469" lon="1.57034">
        <ele>366</ele>
        <time>1970-01-01T00:54:35.000Z</time>
      </trkpt>
      <trkpt lat="45.23471" lon="1.57037">
        <ele>366</ele>
        <time>1970-01-01T00:54:36.000Z</time>
      </trkpt>
      <trkpt lat="45.23472" lon="1.5704">
        <ele>366.2</ele>
        <time>1970-01-01T00:54:37.000Z</time>
      </trkpt>
      <trkpt lat="45.23476" lon="1.57046">
        <ele>366.2</ele>
        <time>1970-01-01T00:54:40.000Z</time>
      </trkpt>
      <trkpt lat="45.23484" lon="1.57054">
        <ele>365.8</ele>
        <time>1970-01-01T00:54:45.000Z</time>
      </trkpt>
      <trkpt lat="45.23485" lon="1.57059">
        <ele>365.6</ele>
        <time>1970-01-01T00:54:47.000Z</time>
      </trkpt>
      <trkpt lat="45.23486" lon="1.57064">
        <ele>365.4</ele>
        <time>1970-01-01T00:54:49.000Z</time>
      </trkpt>
      <trkpt lat="45.23487" lon="1.57069">
        <ele>365.2</ele>
        <time>1970-01-01T00:54:51.000Z</time>
      </trkpt>
      <trkpt lat="45.23488" lon="1.57072">
        <ele>365.2</ele>
        <time>1970-01-01T00:54:52.000Z</time>
      </trkpt>
      <trkpt lat="45.2349" lon="1.57074">
        <ele>365.2</ele>
        <time>1970-01-01T00:54:53.000Z</time>
      </trkpt>
      <trkpt lat="45.23497" lon="1.57081">
        <ele>365.2</ele>
        <time>1970-01-01T00:54:57.000Z</time>
      </trkpt>
      <trkpt lat="45.23504" lon="1.57089">
        <ele>365.2</ele>
        <time>1970-01-01T00:55:02.000Z</time>
      </trkpt>
      <trkpt lat="45.23504" lon="1.5709">
        <ele>365.2</ele>
        <time>1970-01-01T00:55:03.000Z</time>
      </trkpt>
      <trkpt lat="45.23509" lon="1.57094">
        <ele>365</ele>
        <time>1970-01-01T00:55:06.000Z</time>
      </trkpt>
      <trkpt lat="45.23512" lon="1.57097">
        <ele>365</ele>
        <time>1970-01-01T00:55:08.000Z</time>
      </trkpt>
      <trkpt lat="45.23519" lon="1.57097">
        <ele>364.4</ele>
        <time>1970-01-01T00:55:11.000Z</time>
      </trkpt>
      <trkpt lat="45.23529" lon="1.57101">
        <ele>363.2</ele>
        <time>1970-01-01T00:55:17.000Z</time>
      </trkpt>
      <trkpt lat="45.2353" lon="1.57101">
        <ele>363</ele>
        <time>1970-01-01T00:55:18.000Z</time>
      </trkpt>
      <trkpt lat="45.23535" lon="1.57102">
        <ele>362.8</ele>
        <time>1970-01-01T00:55:20.000Z</time>
      </trkpt>
      <trkpt lat="45.23544" lon="1.57101">
        <ele>361.8</ele>
        <time>1970-01-01T00:55:23.000Z</time>
      </trkpt>
      <trkpt lat="45.23555" lon="1.57104">
        <ele>360.8</ele>
        <time>1970-01-01T00:55:28.000Z</time>
      </trkpt>
      <trkpt lat="45.23558" lon="1.57104">
        <ele>360.4</ele>
        <time>1970-01-01T00:55:30.000Z</time>
      </trkpt>
      <trkpt lat="45.23562" lon="1.57104">
        <ele>359.8</ele>
        <time>1970-01-01T00:55:32.000Z</time>
      </trkpt>
      <trkpt lat="45.23563" lon="1.57103">
        <ele>359.4</ele>
        <time>1970-01-01T00:55:33.000Z</time>
      </trkpt>
      <trkpt lat="45.23568" lon="1.57101">
        <ele>358.6</ele>
        <time>1970-01-01T00:55:35.000Z</time>
      </trkpt>
      <trkpt lat="45.23573" lon="1.57097">
        <ele>357.8</ele>
        <time>1970-01-01T00:55:37.000Z</time>
      </trkpt>
      <trkpt lat="45.23577" lon="1.57094">
        <ele>356.8</ele>
        <time>1970-01-01T00:55:39.000Z</time>
      </trkpt>
      <trkpt lat="45.23585" lon="1.57089">
        <ele>355.6</ele>
        <time>1970-01-01T00:55:42.000Z</time>
      </trkpt>
      <trkpt lat="45.23593" lon="1.57084">
        <ele>354.4</ele>
        <time>1970-01-01T00:55:45.000Z</time>
      </trkpt>
      <trkpt lat="45.23597" lon="1.57079">
        <ele>352.8</ele>
        <time>1970-01-01T00:55:48.000Z</time>
      </trkpt>
      <trkpt lat="45.23599" lon="1.57077">
        <ele>352.4</ele>
        <time>1970-01-01T00:55:49.000Z</time>
      </trkpt>
      <trkpt lat="45.23608" lon="1.5707">
        <ele>351.8</ele>
        <time>1970-01-01T00:55:52.000Z</time>
      </trkpt>
      <trkpt lat="45.23615" lon="1.57065">
        <ele>350.4</ele>
        <time>1970-01-01T00:55:54.000Z</time>
      </trkpt>
      <trkpt lat="45.23621" lon="1.5706">
        <ele>349.4</ele>
        <time>1970-01-01T00:55:56.000Z</time>
      </trkpt>
      <trkpt lat="45.23628" lon="1.57055">
        <ele>348.4</ele>
        <time>1970-01-01T00:55:59.000Z</time>
      </trkpt>
      <trkpt lat="45.23632" lon="1.57053">
        <ele>347.6</ele>
        <time>1970-01-01T00:56:01.000Z</time>
      </trkpt>
      <trkpt lat="45.23633" lon="1.57052">
        <ele>346.8</ele>
        <time>1970-01-01T00:56:02.000Z</time>
      </trkpt>
      <trkpt lat="45.23637" lon="1.57048">
        <ele>345.4</ele>
        <time>1970-01-01T00:56:04.000Z</time>
      </trkpt>
      <trkpt lat="45.23641" lon="1.57042">
        <ele>344</ele>
        <time>1970-01-01T00:56:06.000Z</time>
      </trkpt>
      <trkpt lat="45.23644" lon="1.57039">
        <ele>343.6</ele>
        <time>1970-01-01T00:56:07.000Z</time>
      </trkpt>
      <trkpt lat="45.23648" lon="1.57034">
        <ele>342.6</ele>
        <time>1970-01-01T00:56:09.000Z</time>
      </trkpt>
      <trkpt lat="45.23652" lon="1.57028">
        <ele>341.4</ele>
        <time>1970-01-01T00:56:11.000Z</time>
      </trkpt>
      <trkpt lat="45.23657" lon="1.57022">
        <ele>340.2</ele>
        <time>1970-01-01T00:56:13.000Z</time>
      </trkpt>
      <trkpt lat="45.23661" lon="1.57019">
        <ele>339.4</ele>
        <time>1970-01-01T00:56:14.000Z</time>
      </trkpt>
      <trkpt lat="45.23663" lon="1.57017">
        <ele>338.8</ele>
        <time>1970-01-01T00:56:15.000Z</time>
      </trkpt>
      <trkpt lat="45.23666" lon="1.57016">
        <ele>338.4</ele>
        <time>1970-01-01T00:56:16.000Z</time>
      </trkpt>
      <trkpt lat="45.23672" lon="1.57015">
        <ele>337.2</ele>
        <time>1970-01-01T00:56:18.000Z</time>
      </trkpt>
      <trkpt lat="45.23678" lon="1.57014">
        <ele>335.8</ele>
        <time>1970-01-01T00:56:20.000Z</time>
      </trkpt>
      <trkpt lat="45.23682" lon="1.57011">
        <ele>334.2</ele>
        <time>1970-01-01T00:56:22.000Z</time>
      </trkpt>
      <trkpt lat="45.2369" lon="1.5701">
        <ele>332.4</ele>
        <time>1970-01-01T00:56:25.000Z</time>
      </trkpt>
      <trkpt lat="45.23696" lon="1.57009">
        <ele>331.2</ele>
        <time>1970-01-01T00:56:27.000Z</time>
      </trkpt>
      <trkpt lat="45.23701" lon="1.57008">
        <ele>329.8</ele>
        <time>1970-01-01T00:56:29.000Z</time>
      </trkpt>
      <trkpt lat="45.23705" lon="1.57008">
        <ele>328.8</ele>
        <time>1970-01-01T00:56:31.000Z</time>
      </trkpt>
      <trkpt lat="45.23708" lon="1.57009">
        <ele>328.6</ele>
        <time>1970-01-01T00:56:32.000Z</time>
      </trkpt>
      <trkpt lat="45.23713" lon="1.57011">
        <ele>327</ele>
        <time>1970-01-01T00:56:34.000Z</time>
      </trkpt>
      <trkpt lat="45.23718" lon="1.57016">
        <ele>325.6</ele>
        <time>1970-01-01T00:56:36.000Z</time>
      </trkpt>
      <trkpt lat="45.2372" lon="1.57018">
        <ele>325</ele>
        <time>1970-01-01T00:56:37.000Z</time>
      </trkpt>
      <trkpt lat="45.23725" lon="1.57023">
        <ele>324.2</ele>
        <time>1970-01-01T00:56:39.000Z</time>
      </trkpt>
      <trkpt lat="45.23734" lon="1.57035">
        <ele>322.8</ele>
        <time>1970-01-01T00:56:43.000Z</time>
      </trkpt>
      <trkpt lat="45.23738" lon="1.57041">
        <ele>321.6</ele>
        <time>1970-01-01T00:56:45.000Z</time>
      </trkpt>
      <trkpt lat="45.23741" lon="1.57044">
        <ele>320.8</ele>
        <time>1970-01-01T00:56:46.000Z</time>
      </trkpt>
      <trkpt lat="45.23744" lon="1.57046">
        <ele>320.2</ele>
        <time>1970-01-01T00:56:47.000Z</time>
      </trkpt>
      <trkpt lat="45.23752" lon="1.5705">
        <ele>318.8</ele>
        <time>1970-01-01T00:56:49.000Z</time>
      </trkpt>
      <trkpt lat="45.2376" lon="1.57053">
        <ele>317.4</ele>
        <time>1970-01-01T00:56:51.000Z</time>
      </trkpt>
      <trkpt lat="45.23763" lon="1.57055">
        <ele>316.8</ele>
        <time>1970-01-01T00:56:52.000Z</time>
      </trkpt>
      <trkpt lat="45.23767" lon="1.57056">
        <ele>316.2</ele>
        <time>1970-01-01T00:56:53.000Z</time>
      </trkpt>
      <trkpt lat="45.23775" lon="1.57056">
        <ele>315</ele>
        <time>1970-01-01T00:56:55.000Z</time>
      </trkpt>
      <trkpt lat="45.23785" lon="1.57054">
        <ele>313.6</ele>
        <time>1970-01-01T00:56:58.000Z</time>
      </trkpt>
      <trkpt lat="45.23801" lon="1.57049">
        <ele>312.6</ele>
        <time>1970-01-01T00:57:03.000Z</time>
      </trkpt>
      <trkpt lat="45.23804" lon="1.57048">
        <ele>312.4</ele>
        <time>1970-01-01T00:57:04.000Z</time>
      </trkpt>
      <trkpt lat="45.23815" lon="1.57049">
        <ele>312.6</ele>
        <time>1970-01-01T00:57:09.000Z</time>
      </trkpt>
      <trkpt lat="45.23828" lon="1.5705">
        <ele>313.4</ele>
        <time>1970-01-01T00:57:15.000Z</time>
      </trkpt>
      <trkpt lat="45.23829" lon="1.5705">
        <ele>313.2</ele>
        <time>1970-01-01T00:57:16.000Z</time>
      </trkpt>
      <trkpt lat="45.23838" lon="1.57048">
        <ele>313</ele>
        <time>1970-01-01T00:57:21.000Z</time>
      </trkpt>
      <trkpt lat="45.23841" lon="1.57048">
        <ele>312.8</ele>
        <time>1970-01-01T00:57:22.000Z</time>
      </trkpt>
      <trkpt lat="45.23848" lon="1.57047">
        <ele>312.2</ele>
        <time>1970-01-01T00:57:25.000Z</time>
      </trkpt>
      <trkpt lat="45.23852" lon="1.57045">
        <ele>311.4</ele>
        <time>1970-01-01T00:57:27.000Z</time>
      </trkpt>
      <trkpt lat="45.23856" lon="1.57044">
        <ele>310.8</ele>
        <time>1970-01-01T00:57:29.000Z</time>
      </trkpt>
      <trkpt lat="45.23861" lon="1.57043">
        <ele>309.8</ele>
        <time>1970-01-01T00:57:31.000Z</time>
      </trkpt>
      <trkpt lat="45.23864" lon="1.57043">
        <ele>308.2</ele>
        <time>1970-01-01T00:57:33.000Z</time>
      </trkpt>
      <trkpt lat="45.2387" lon="1.57042">
        <ele>307.2</ele>
        <time>1970-01-01T00:57:35.000Z</time>
      </trkpt>
      <trkpt lat="45.23873" lon="1.57041">
        <ele>305.8</ele>
        <time>1970-01-01T00:57:37.000Z</time>
      </trkpt>
      <trkpt lat="45.23875" lon="1.5704">
        <ele>304.8</ele>
        <time>1970-01-01T00:57:38.000Z</time>
      </trkpt>
      <trkpt lat="45.23878" lon="1.57037">
        <ele>303.6</ele>
        <time>1970-01-01T00:57:40.000Z</time>
      </trkpt>
      <trkpt lat="45.23881" lon="1.57034">
        <ele>303</ele>
        <time>1970-01-01T00:57:42.000Z</time>
      </trkpt>
      <trkpt lat="45.23881" lon="1.57033">
        <ele>302.4</ele>
        <time>1970-01-01T00:57:43.000Z</time>
      </trkpt>
      <trkpt lat="45.23882" lon="1.57032">
        <ele>301.4</ele>
        <time>1970-01-01T00:57:45.000Z</time>
      </trkpt>
      <trkpt lat="45.23884" lon="1.5703">
        <ele>301</ele>
        <time>1970-01-01T00:57:46.000Z</time>
      </trkpt>
      <trkpt lat="45.23885" lon="1.57029">
        <ele>300.4</ele>
        <time>1970-01-01T00:57:47.000Z</time>
      </trkpt>
      <trkpt lat="45.23886" lon="1.57027">
        <ele>299.2</ele>
        <time>1970-01-01T00:57:49.000Z</time>
      </trkpt>
      <trkpt lat="45.23887" lon="1.57024">
        <ele>298.8</ele>
        <time>1970-01-01T00:57:50.000Z</time>
      </trkpt>
      <trkpt lat="45.2389" lon="1.5702">
        <ele>298</ele>
        <time>1970-01-01T00:57:51.000Z</time>
      </trkpt>
      <trkpt lat="45.23893" lon="1.57015">
        <ele>296.8</ele>
        <time>1970-01-01T00:57:53.000Z</time>
      </trkpt>
      <trkpt lat="45.23894" lon="1.57013">
        <ele>296.2</ele>
        <time>1970-01-01T00:57:54.000Z</time>
      </trkpt>
      <trkpt lat="45.23896" lon="1.57012">
        <ele>295.8</ele>
        <time>1970-01-01T00:57:55.000Z</time>
      </trkpt>
      <trkpt lat="45.23897" lon="1.57013">
        <ele>295.2</ele>
        <time>1970-01-01T00:57:56.000Z</time>
      </trkpt>
      <trkpt lat="45.23899" lon="1.57016">
        <ele>294.6</ele>
        <time>1970-01-01T00:57:58.000Z</time>
      </trkpt>
      <trkpt lat="45.239" lon="1.57017">
        <ele>294.4</ele>
        <time>1970-01-01T00:57:59.000Z</time>
      </trkpt>
      <trkpt lat="45.23899" lon="1.57019">
        <ele>294.2</ele>
        <time>1970-01-01T00:58:01.000Z</time>
      </trkpt>
      <trkpt lat="45.23899" lon="1.57021">
        <ele>294.2</ele>
        <time>1970-01-01T00:58:03.000Z</time>
      </trkpt>
      <trkpt lat="45.23899" lon="1.57025">
        <ele>295</ele>
        <time>1970-01-01T00:58:06.000Z</time>
      </trkpt>
      <trkpt lat="45.23898" lon="1.57026">
        <ele>295.2</ele>
        <time>1970-01-01T00:58:07.000Z</time>
      </trkpt>
      <trkpt lat="45.23897" lon="1.57031">
        <ele>295.6</ele>
        <time>1970-01-01T00:58:09.000Z</time>
      </trkpt>
      <trkpt lat="45.23896" lon="1.57034">
        <ele>295.8</ele>
        <time>1970-01-01T00:58:10.000Z</time>
      </trkpt>
      <trkpt lat="45.23894" lon="1.57039">
        <ele>296.2</ele>
        <time>1970-01-01T00:58:12.000Z</time>
      </trkpt>
      <trkpt lat="45.23894" lon="1.57042">
        <ele>296.4</ele>
        <time>1970-01-01T00:58:13.000Z</time>
      </trkpt>
      <trkpt lat="45.23894" lon="1.57045">
        <ele>296.4</ele>
        <time>1970-01-01T00:58:14.000Z</time>
      </trkpt>
      <trkpt lat="45.23893" lon="1.57048">
        <ele>296.6</ele>
        <time>1970-01-01T00:58:15.000Z</time>
      </trkpt>
      <trkpt lat="45.23895" lon="1.57056">
        <ele>297.2</ele>
        <time>1970-01-01T00:58:18.000Z</time>
      </trkpt>
      <trkpt lat="45.23894" lon="1.57058">
        <ele>297.4</ele>
        <time>1970-01-01T00:58:19.000Z</time>
      </trkpt>
      <trkpt lat="45.23892" lon="1.57065">
        <ele>298</ele>
        <time>1970-01-01T00:58:22.000Z</time>
      </trkpt>
      <trkpt lat="45.23895" lon="1.5707">
        <ele>298.2</ele>
        <time>1970-01-01T00:58:24.000Z</time>
      </trkpt>
      <trkpt lat="45.23895" lon="1.57078">
        <ele>298.6</ele>
        <time>1970-01-01T00:58:27.000Z</time>
      </trkpt>
      <trkpt lat="45.23895" lon="1.57079">
        <ele>298.6</ele>
        <time>1970-01-01T00:58:28.000Z</time>
      </trkpt>
      <trkpt lat="45.23895" lon="1.57082">
        <ele>299</ele>
        <time>1970-01-01T00:58:29.000Z</time>
      </trkpt>
      <trkpt lat="45.23893" lon="1.5709">
        <ele>299.6</ele>
        <time>1970-01-01T00:58:32.000Z</time>
      </trkpt>
      <trkpt lat="45.23891" lon="1.57102">
        <ele>300.8</ele>
        <time>1970-01-01T00:58:36.000Z</time>
      </trkpt>
      <trkpt lat="45.23892" lon="1.57104">
        <ele>300.8</ele>
        <time>1970-01-01T00:58:37.000Z</time>
      </trkpt>
      <trkpt lat="45.23889" lon="1.5712">
        <ele>301.4</ele>
        <time>1970-01-01T00:58:42.000Z</time>
      </trkpt>
      <trkpt lat="45.23889" lon="1.57123">
        <ele>301.8</ele>
        <time>1970-01-01T00:58:43.000Z</time>
      </trkpt>
      <trkpt lat="45.23889" lon="1.57126">
        <ele>302</ele>
        <time>1970-01-01T00:58:44.000Z</time>
      </trkpt>
      <trkpt lat="45.2389" lon="1.57132">
        <ele>302.2</ele>
        <time>1970-01-01T00:58:46.000Z</time>
      </trkpt>
      <trkpt lat="45.2389" lon="1.57135">
        <ele>302.4</ele>
        <time>1970-01-01T00:58:47.000Z</time>
      </trkpt>
      <trkpt lat="45.23889" lon="1.57139">
        <ele>302.6</ele>
        <time>1970-01-01T00:58:49.000Z</time>
      </trkpt>
      <trkpt lat="45.23888" lon="1.57141">
        <ele>302.8</ele>
        <time>1970-01-01T00:58:50.000Z</time>
      </trkpt>
      <trkpt lat="45.23888" lon="1.57143">
        <ele>303</ele>
        <time>1970-01-01T00:58:51.000Z</time>
      </trkpt>
      <trkpt lat="45.23885" lon="1.57159">
        <ele>303.8</ele>
        <time>1970-01-01T00:58:58.000Z</time>
      </trkpt>
      <trkpt lat="45.2388" lon="1.57169">
        <ele>304</ele>
        <time>1970-01-01T00:59:01.000Z</time>
      </trkpt>
      <trkpt lat="45.23879" lon="1.57177">
        <ele>304.8</ele>
        <time>1970-01-01T00:59:04.000Z</time>
      </trkpt>
      <trkpt lat="45.23878" lon="1.57179">
        <ele>305</ele>
        <time>1970-01-01T00:59:05.000Z</time>
      </trkpt>
      <trkpt lat="45.23874" lon="1.57187">
        <ele>306</ele>
        <time>1970-01-01T00:59:09.000Z</time>
      </trkpt>
      <trkpt lat="45.23873" lon="1.57189">
        <ele>306.2</ele>
        <time>1970-01-01T00:59:10.000Z</time>
      </trkpt>
      <trkpt lat="45.23873" lon="1.57191">
        <ele>306.6</ele>
        <time>1970-01-01T00:59:11.000Z</time>
      </trkpt>
      <trkpt lat="45.23872" lon="1.57198">
        <ele>307.4</ele>
        <time>1970-01-01T00:59:15.000Z</time>
      </trkpt>
      <trkpt lat="45.23872" lon="1.57198">
        <ele>307.8</ele>
        <time>1970-01-01T00:59:16.000Z</time>
      </trkpt>
      <trkpt lat="45.23869" lon="1.57202">
        <ele>308.2</ele>
        <time>1970-01-01T00:59:19.000Z</time>
      </trkpt>
      <trkpt lat="45.23867" lon="1.57205">
        <ele>308.6</ele>
        <time>1970-01-01T00:59:21.000Z</time>
      </trkpt>
      <trkpt lat="45.23865" lon="1.57209">
        <ele>309.2</ele>
        <time>1970-01-01T00:59:23.000Z</time>
      </trkpt>
      <trkpt lat="45.23862" lon="1.57212">
        <ele>309.8</ele>
        <time>1970-01-01T00:59:25.000Z</time>
      </trkpt>
      <trkpt lat="45.2386" lon="1.57214">
        <ele>310.2</ele>
        <time>1970-01-01T00:59:27.000Z</time>
      </trkpt>
      <trkpt lat="45.23858" lon="1.57217">
        <ele>310.8</ele>
        <time>1970-01-01T00:59:29.000Z</time>
      </trkpt>
      <trkpt lat="45.23857" lon="1.57219">
        <ele>310.8</ele>
        <time>1970-01-01T00:59:30.000Z</time>
      </trkpt>
      <trkpt lat="45.23855" lon="1.57221">
        <ele>311.4</ele>
        <time>1970-01-01T00:59:32.000Z</time>
      </trkpt>
      <trkpt lat="45.23854" lon="1.57222">
        <ele>311.4</ele>
        <time>1970-01-01T00:59:33.000Z</time>
      </trkpt>
      <trkpt lat="45.23847" lon="1.57226">
        <ele>312</ele>
        <time>1970-01-01T00:59:36.000Z</time>
      </trkpt>
      <trkpt lat="45.23844" lon="1.57229">
        <ele>312.4</ele>
        <time>1970-01-01T00:59:38.000Z</time>
      </trkpt>
      <trkpt lat="45.23834" lon="1.57241">
        <ele>313</ele>
        <time>1970-01-01T00:59:45.000Z</time>
      </trkpt>
      <trkpt lat="45.2382" lon="1.57253">
        <ele>313.2</ele>
        <time>1970-01-01T00:59:50.000Z</time>
      </trkpt>
      <trkpt lat="45.23807" lon="1.57262">
        <ele>313</ele>
        <time>1970-01-01T00:59:56.000Z</time>
      </trkpt>
      <trkpt lat="45.23805" lon="1.57263">
        <ele>313</ele>
        <time>1970-01-01T00:59:57.000Z</time>
      </trkpt>
      <trkpt lat="45.23801" lon="1.57266">
        <ele>313</ele>
        <time>1970-01-01T00:59:59.000Z</time>
      </trkpt>
      <trkpt lat="45.23783" lon="1.5728">
        <ele>312.6</ele>
        <time>1970-01-01T01:00:05.000Z</time>
      </trkpt>
      <trkpt lat="45.2377" lon="1.57289">
        <ele>312.4</ele>
        <time>1970-01-01T01:00:10.000Z</time>
      </trkpt>
      <trkpt lat="45.23763" lon="1.57297">
        <ele>312.4</ele>
        <time>1970-01-01T01:00:14.000Z</time>
      </trkpt>
      <trkpt lat="45.23751" lon="1.57311">
        <ele>312.8</ele>
        <time>1970-01-01T01:00:20.000Z</time>
      </trkpt>
      <trkpt lat="45.23748" lon="1.57313">
        <ele>313</ele>
        <time>1970-01-01T01:00:24.000Z</time>
      </trkpt>
      <trkpt lat="45.23747" lon="1.57315">
        <ele>313</ele>
        <time>1970-01-01T01:00:25.000Z</time>
      </trkpt>
      <trkpt lat="45.23745" lon="1.5732">
        <ele>313</ele>
        <time>1970-01-01T01:00:27.000Z</time>
      </trkpt>
      <trkpt lat="45.23743" lon="1.57326">
        <ele>313</ele>
        <time>1970-01-01T01:00:29.000Z</time>
      </trkpt>
      <trkpt lat="45.23738" lon="1.57331">
        <ele>313</ele>
        <time>1970-01-01T01:00:31.000Z</time>
      </trkpt>
      <trkpt lat="45.23735" lon="1.57336">
        <ele>313.2</ele>
        <time>1970-01-01T01:00:33.000Z</time>
      </trkpt>
      <trkpt lat="45.23731" lon="1.57343">
        <ele>314</ele>
        <time>1970-01-01T01:00:36.000Z</time>
      </trkpt>
      <trkpt lat="45.23731" lon="1.57344">
        <ele>314.4</ele>
        <time>1970-01-01T01:00:37.000Z</time>
      </trkpt>
      <trkpt lat="45.23731" lon="1.57347">
        <ele>315.2</ele>
        <time>1970-01-01T01:00:40.000Z</time>
      </trkpt>
      <trkpt lat="45.23729" lon="1.5735">
        <ele>315.6</ele>
        <time>1970-01-01T01:00:42.000Z</time>
      </trkpt>
      <trkpt lat="45.23726" lon="1.57352">
        <ele>316.4</ele>
        <time>1970-01-01T01:00:45.000Z</time>
      </trkpt>
      <trkpt lat="45.23725" lon="1.57353">
        <ele>316.8</ele>
        <time>1970-01-01T01:00:46.000Z</time>
      </trkpt>
      <trkpt lat="45.23725" lon="1.57354">
        <ele>317</ele>
        <time>1970-01-01T01:00:47.000Z</time>
      </trkpt>
      <trkpt lat="45.23724" lon="1.57355">
        <ele>317.2</ele>
        <time>1970-01-01T01:00:48.000Z</time>
      </trkpt>
      <trkpt lat="45.23723" lon="1.57357">
        <ele>317.6</ele>
        <time>1970-01-01T01:00:49.000Z</time>
      </trkpt>
      <trkpt lat="45.23721" lon="1.57359">
        <ele>318</ele>
        <time>1970-01-01T01:00:50.000Z</time>
      </trkpt>
      <trkpt lat="45.23716" lon="1.57365">
        <ele>318.6</ele>
        <time>1970-01-01T01:00:53.000Z</time>
      </trkpt>
      <trkpt lat="45.23715" lon="1.57368">
        <ele>319</ele>
        <time>1970-01-01T01:00:54.000Z</time>
      </trkpt>
      <trkpt lat="45.23713" lon="1.57373">
        <ele>319.4</ele>
        <time>1970-01-01T01:00:56.000Z</time>
      </trkpt>
      <trkpt lat="45.23712" lon="1.57376">
        <ele>319.8</ele>
        <time>1970-01-01T01:00:58.000Z</time>
      </trkpt>
      <trkpt lat="45.23713" lon="1.57378">
        <ele>320</ele>
        <time>1970-01-01T01:00:59.000Z</time>
      </trkpt>
      <trkpt lat="45.23713" lon="1.57379">
        <ele>320.2</ele>
        <time>1970-01-01T01:01:00.000Z</time>
      </trkpt>
      <trkpt lat="45.23712" lon="1.57381">
        <ele>320.4</ele>
        <time>1970-01-01T01:01:02.000Z</time>
      </trkpt>
      <trkpt lat="45.2371" lon="1.57382">
        <ele>320.6</ele>
        <time>1970-01-01T01:01:04.000Z</time>
      </trkpt>
      <trkpt lat="45.2371" lon="1.57383">
        <ele>320.8</ele>
        <time>1970-01-01T01:01:05.000Z</time>
      </trkpt>
      <trkpt lat="45.23708" lon="1.57385">
        <ele>321</ele>
        <time>1970-01-01T01:01:07.000Z</time>
      </trkpt>
      <trkpt lat="45.23706" lon="1.57388">
        <ele>322</ele>
        <time>1970-01-01T01:01:10.000Z</time>
      </trkpt>
      <trkpt lat="45.23705" lon="1.57389">
        <ele>322.2</ele>
        <time>1970-01-01T01:01:11.000Z</time>
      </trkpt>
      <trkpt lat="45.23702" lon="1.57389">
        <ele>322.4</ele>
        <time>1970-01-01T01:01:13.000Z</time>
      </trkpt>
      <trkpt lat="45.237" lon="1.57392">
        <ele>323</ele>
        <time>1970-01-01T01:01:15.000Z</time>
      </trkpt>
      <trkpt lat="45.23698" lon="1.57393">
        <ele>323.2</ele>
        <time>1970-01-01T01:01:16.000Z</time>
      </trkpt>
      <trkpt lat="45.23695" lon="1.574">
        <ele>324</ele>
        <time>1970-01-01T01:01:20.000Z</time>
      </trkpt>
      <trkpt lat="45.23695" lon="1.57402">
        <ele>324.4</ele>
        <time>1970-01-01T01:01:21.000Z</time>
      </trkpt>
      <trkpt lat="45.23692" lon="1.57407">
        <ele>325</ele>
        <time>1970-01-01T01:01:24.000Z</time>
      </trkpt>
      <trkpt lat="45.23691" lon="1.57407">
        <ele>325.4</ele>
        <time>1970-01-01T01:01:25.000Z</time>
      </trkpt>
      <trkpt lat="45.2369" lon="1.57408">
        <ele>325.8</ele>
        <time>1970-01-01T01:01:26.000Z</time>
      </trkpt>
      <trkpt lat="45.23686" lon="1.57413">
        <ele>326.8</ele>
        <time>1970-01-01T01:01:29.000Z</time>
      </trkpt>
      <trkpt lat="45.23683" lon="1.57417">
        <ele>327.4</ele>
        <time>1970-01-01T01:01:31.000Z</time>
      </trkpt>
      <trkpt lat="45.2368" lon="1.57421">
        <ele>328</ele>
        <time>1970-01-01T01:01:33.000Z</time>
      </trkpt>
      <trkpt lat="45.23678" lon="1.57425">
        <ele>328.6</ele>
        <time>1970-01-01T01:01:35.000Z</time>
      </trkpt>
      <trkpt lat="45.23674" lon="1.57428">
        <ele>328.8</ele>
        <time>1970-01-01T01:01:37.000Z</time>
      </trkpt>
      <trkpt lat="45.23673" lon="1.5743">
        <ele>329.2</ele>
        <time>1970-01-01T01:01:38.000Z</time>
      </trkpt>
      <trkpt lat="45.23668" lon="1.57437">
        <ele>330.4</ele>
        <time>1970-01-01T01:01:41.000Z</time>
      </trkpt>
      <trkpt lat="45.23667" lon="1.57439">
        <ele>330.8</ele>
        <time>1970-01-01T01:01:43.000Z</time>
      </trkpt>
      <trkpt lat="45.23664" lon="1.57442">
        <ele>331.6</ele>
        <time>1970-01-01T01:01:45.000Z</time>
      </trkpt>
      <trkpt lat="45.23662" lon="1.57446">
        <ele>332.2</ele>
        <time>1970-01-01T01:01:47.000Z</time>
      </trkpt>
      <trkpt lat="45.23661" lon="1.57448">
        <ele>332.8</ele>
        <time>1970-01-01T01:01:49.000Z</time>
      </trkpt>
      <trkpt lat="45.23655" lon="1.57454">
        <ele>333.4</ele>
        <time>1970-01-01T01:01:53.000Z</time>
      </trkpt>
      <trkpt lat="45.23654" lon="1.57455">
        <ele>333.8</ele>
        <time>1970-01-01T01:01:54.000Z</time>
      </trkpt>
      <trkpt lat="45.23649" lon="1.57459">
        <ele>334.4</ele>
        <time>1970-01-01T01:01:57.000Z</time>
      </trkpt>
      <trkpt lat="45.23648" lon="1.57461">
        <ele>335</ele>
        <time>1970-01-01T01:01:58.000Z</time>
      </trkpt>
      <trkpt lat="45.23643" lon="1.57467">
        <ele>336.2</ele>
        <time>1970-01-01T01:02:01.000Z</time>
      </trkpt>
      <trkpt lat="45.23644" lon="1.57468">
        <ele>336.4</ele>
        <time>1970-01-01T01:02:02.000Z</time>
      </trkpt>
      <trkpt lat="45.23644" lon="1.57471">
        <ele>336.6</ele>
        <time>1970-01-01T01:02:03.000Z</time>
      </trkpt>
      <trkpt lat="45.23644" lon="1.57473">
        <ele>337.2</ele>
        <time>1970-01-01T01:02:04.000Z</time>
      </trkpt>
      <trkpt lat="45.23644" lon="1.57475">
        <ele>337.4</ele>
        <time>1970-01-01T01:02:05.000Z</time>
      </trkpt>
      <trkpt lat="45.23641" lon="1.5748">
        <ele>338.4</ele>
        <time>1970-01-01T01:02:08.000Z</time>
      </trkpt>
      <trkpt lat="45.2364" lon="1.57482">
        <ele>338.6</ele>
        <time>1970-01-01T01:02:09.000Z</time>
      </trkpt>
      <trkpt lat="45.23641" lon="1.57484">
        <ele>338.8</ele>
        <time>1970-01-01T01:02:10.000Z</time>
      </trkpt>
      <trkpt lat="45.2364" lon="1.57491">
        <ele>339.6</ele>
        <time>1970-01-01T01:02:13.000Z</time>
      </trkpt>
      <trkpt lat="45.23638" lon="1.57493">
        <ele>339.8</ele>
        <time>1970-01-01T01:02:14.000Z</time>
      </trkpt>
      <trkpt lat="45.23638" lon="1.57495">
        <ele>340.2</ele>
        <time>1970-01-01T01:02:15.000Z</time>
      </trkpt>
      <trkpt lat="45.23637" lon="1.575">
        <ele>340.6</ele>
        <time>1970-01-01T01:02:17.000Z</time>
      </trkpt>
      <trkpt lat="45.23636" lon="1.57502">
        <ele>340.8</ele>
        <time>1970-01-01T01:02:18.000Z</time>
      </trkpt>
      <trkpt lat="45.23635" lon="1.57504">
        <ele>341</ele>
        <time>1970-01-01T01:02:19.000Z</time>
      </trkpt>
      <trkpt lat="45.23634" lon="1.57506">
        <ele>341.2</ele>
        <time>1970-01-01T01:02:20.000Z</time>
      </trkpt>
      <trkpt lat="45.23629" lon="1.57514">
        <ele>341.8</ele>
        <time>1970-01-01T01:02:24.000Z</time>
      </trkpt>
      <trkpt lat="45.23628" lon="1.57517">
        <ele>342.4</ele>
        <time>1970-01-01T01:02:26.000Z</time>
      </trkpt>
      <trkpt lat="45.23625" lon="1.57522">
        <ele>343</ele>
        <time>1970-01-01T01:02:29.000Z</time>
      </trkpt>
      <trkpt lat="45.23623" lon="1.57527">
        <ele>343.4</ele>
        <time>1970-01-01T01:02:31.000Z</time>
      </trkpt>
      <trkpt lat="45.2362" lon="1.57536">
        <ele>343.8</ele>
        <time>1970-01-01T01:02:35.000Z</time>
      </trkpt>
      <trkpt lat="45.2362" lon="1.57542">
        <ele>344</ele>
        <time>1970-01-01T01:02:37.000Z</time>
      </trkpt>
      <trkpt lat="45.23617" lon="1.57551">
        <ele>344.8</ele>
        <time>1970-01-01T01:02:40.000Z</time>
      </trkpt>
      <trkpt lat="45.23616" lon="1.57553">
        <ele>345.2</ele>
        <time>1970-01-01T01:02:41.000Z</time>
      </trkpt>
      <trkpt lat="45.23614" lon="1.57558">
        <ele>345.6</ele>
        <time>1970-01-01T01:02:43.000Z</time>
      </trkpt>
      <trkpt lat="45.23614" lon="1.57566">
        <ele>346</ele>
        <time>1970-01-01T01:02:45.000Z</time>
      </trkpt>
      <trkpt lat="45.23613" lon="1.57569">
        <ele>346.2</ele>
        <time>1970-01-01T01:02:46.000Z</time>
      </trkpt>
      <trkpt lat="45.23611" lon="1.57578">
        <ele>347.4</ele>
        <time>1970-01-01T01:02:50.000Z</time>
      </trkpt>
      <trkpt lat="45.23608" lon="1.57584">
        <ele>348</ele>
        <time>1970-01-01T01:02:53.000Z</time>
      </trkpt>
      <trkpt lat="45.23605" lon="1.5759">
        <ele>348.6</ele>
        <time>1970-01-01T01:02:55.000Z</time>
      </trkpt>
      <trkpt lat="45.23604" lon="1.57598">
        <ele>349.4</ele>
        <time>1970-01-01T01:02:59.000Z</time>
      </trkpt>
      <trkpt lat="45.23604" lon="1.57599">
        <ele>349.6</ele>
        <time>1970-01-01T01:03:00.000Z</time>
      </trkpt>
      <trkpt lat="45.23604" lon="1.57604">
        <ele>350.6</ele>
        <time>1970-01-01T01:03:03.000Z</time>
      </trkpt>
      <trkpt lat="45.23603" lon="1.57607">
        <ele>351.4</ele>
        <time>1970-01-01T01:03:05.000Z</time>
      </trkpt>
      <trkpt lat="45.23603" lon="1.57609">
        <ele>351.6</ele>
        <time>1970-01-01T01:03:06.000Z</time>
      </trkpt>
      <trkpt lat="45.23602" lon="1.5761">
        <ele>352</ele>
        <time>1970-01-01T01:03:07.000Z</time>
      </trkpt>
      <trkpt lat="45.23602" lon="1.57615">
        <ele>352.6</ele>
        <time>1970-01-01T01:03:09.000Z</time>
      </trkpt>
      <trkpt lat="45.23602" lon="1.57617">
        <ele>352.6</ele>
        <time>1970-01-01T01:03:10.000Z</time>
      </trkpt>
      <trkpt lat="45.23602" lon="1.5762">
        <ele>353.2</ele>
        <time>1970-01-01T01:03:11.000Z</time>
      </trkpt>
      <trkpt lat="45.23601" lon="1.57623">
        <ele>353.4</ele>
        <time>1970-01-01T01:03:12.000Z</time>
      </trkpt>
      <trkpt lat="45.236" lon="1.57632">
        <ele>354.4</ele>
        <time>1970-01-01T01:03:15.000Z</time>
      </trkpt>
      <trkpt lat="45.236" lon="1.57634">
        <ele>354.6</ele>
        <time>1970-01-01T01:03:16.000Z</time>
      </trkpt>
      <trkpt lat="45.23597" lon="1.57648">
        <ele>355.4</ele>
        <time>1970-01-01T01:03:21.000Z</time>
      </trkpt>
      <trkpt lat="45.23597" lon="1.57652">
        <ele>355.6</ele>
        <time>1970-01-01T01:03:22.000Z</time>
      </trkpt>
      <trkpt lat="45.23597" lon="1.57664">
        <ele>356.4</ele>
        <time>1970-01-01T01:03:27.000Z</time>
      </trkpt>
      <trkpt lat="45.23598" lon="1.57668">
        <ele>356.6</ele>
        <time>1970-01-01T01:03:29.000Z</time>
      </trkpt>
      <trkpt lat="45.23602" lon="1.57684">
        <ele>355.8</ele>
        <time>1970-01-01T01:03:36.000Z</time>
      </trkpt>
      <trkpt lat="45.23607" lon="1.5769">
        <ele>355.2</ele>
        <time>1970-01-01T01:03:39.000Z</time>
      </trkpt>
      <trkpt lat="45.23613" lon="1.577">
        <ele>353.8</ele>
        <time>1970-01-01T01:03:42.000Z</time>
      </trkpt>
      <trkpt lat="45.23618" lon="1.57706">
        <ele>353</ele>
        <time>1970-01-01T01:03:44.000Z</time>
      </trkpt>
      <trkpt lat="45.23621" lon="1.57709">
        <ele>352.8</ele>
        <time>1970-01-01T01:03:45.000Z</time>
      </trkpt>
      <trkpt lat="45.23627" lon="1.57715">
        <ele>352.6</ele>
        <time>1970-01-01T01:03:48.000Z</time>
      </trkpt>
      <trkpt lat="45.23632" lon="1.57721">
        <ele>352.8</ele>
        <time>1970-01-01T01:03:51.000Z</time>
      </trkpt>
      <trkpt lat="45.23633" lon="1.57724">
        <ele>353.2</ele>
        <time>1970-01-01T01:03:53.000Z</time>
      </trkpt>
      <trkpt lat="45.23636" lon="1.57727">
        <ele>354</ele>
        <time>1970-01-01T01:03:55.000Z</time>
      </trkpt>
      <trkpt lat="45.23638" lon="1.5773">
        <ele>354.2</ele>
        <time>1970-01-01T01:03:56.000Z</time>
      </trkpt>
      <trkpt lat="45.23643" lon="1.57731">
        <ele>355</ele>
        <time>1970-01-01T01:03:58.000Z</time>
      </trkpt>
      <trkpt lat="45.23644" lon="1.57732">
        <ele>355.4</ele>
        <time>1970-01-01T01:03:59.000Z</time>
      </trkpt>
      <trkpt lat="45.23646" lon="1.57733">
        <ele>356.2</ele>
        <time>1970-01-01T01:04:01.000Z</time>
      </trkpt>
      <trkpt lat="45.23649" lon="1.57734">
        <ele>357.2</ele>
        <time>1970-01-01T01:04:03.000Z</time>
      </trkpt>
      <trkpt lat="45.23651" lon="1.57735">
        <ele>357.6</ele>
        <time>1970-01-01T01:04:04.000Z</time>
      </trkpt>
      <trkpt lat="45.23654" lon="1.57737">
        <ele>358.6</ele>
        <time>1970-01-01T01:04:06.000Z</time>
      </trkpt>
      <trkpt lat="45.23655" lon="1.57738">
        <ele>359.2</ele>
        <time>1970-01-01T01:04:08.000Z</time>
      </trkpt>
      <trkpt lat="45.23656" lon="1.57741">
        <ele>359.8</ele>
        <time>1970-01-01T01:04:10.000Z</time>
      </trkpt>
      <trkpt lat="45.23659" lon="1.57747">
        <ele>360.8</ele>
        <time>1970-01-01T01:04:13.000Z</time>
      </trkpt>
      <trkpt lat="45.23661" lon="1.57747">
        <ele>361.2</ele>
        <time>1970-01-01T01:04:14.000Z</time>
      </trkpt>
      <trkpt lat="45.23663" lon="1.57749">
        <ele>361.4</ele>
        <time>1970-01-01T01:04:15.000Z</time>
      </trkpt>
      <trkpt lat="45.23667" lon="1.57753">
        <ele>361.8</ele>
        <time>1970-01-01T01:04:18.000Z</time>
      </trkpt>
      <trkpt lat="45.23668" lon="1.57754">
        <ele>362</ele>
        <time>1970-01-01T01:04:19.000Z</time>
      </trkpt>
      <trkpt lat="45.23673" lon="1.57754">
        <ele>361.6</ele>
        <time>1970-01-01T01:04:22.000Z</time>
      </trkpt>
      <trkpt lat="45.23675" lon="1.57752">
        <ele>361.4</ele>
        <time>1970-01-01T01:04:23.000Z</time>
      </trkpt>
      <trkpt lat="45.23681" lon="1.57749">
        <ele>361</ele>
        <time>1970-01-01T01:04:25.000Z</time>
      </trkpt>
      <trkpt lat="45.23687" lon="1.57746">
        <ele>360.4</ele>
        <time>1970-01-01T01:04:27.000Z</time>
      </trkpt>
      <trkpt lat="45.2369" lon="1.57744">
        <ele>360.2</ele>
        <time>1970-01-01T01:04:28.000Z</time>
      </trkpt>
      <trkpt lat="45.23696" lon="1.57742">
        <ele>359</ele>
        <time>1970-01-01T01:04:31.000Z</time>
      </trkpt>
      <trkpt lat="45.23702" lon="1.57738">
        <ele>358.6</ele>
        <time>1970-01-01T01:04:33.000Z</time>
      </trkpt>
      <trkpt lat="45.23707" lon="1.57734">
        <ele>358</ele>
        <time>1970-01-01T01:04:35.000Z</time>
      </trkpt>
      <trkpt lat="45.23718" lon="1.57729">
        <ele>356.8</ele>
        <time>1970-01-01T01:04:39.000Z</time>
      </trkpt>
      <trkpt lat="45.23727" lon="1.57728">
        <ele>355.8</ele>
        <time>1970-01-01T01:04:42.000Z</time>
      </trkpt>
      <trkpt lat="45.23734" lon="1.57726">
        <ele>355.2</ele>
        <time>1970-01-01T01:04:44.000Z</time>
      </trkpt>
      <trkpt lat="45.2374" lon="1.57723">
        <ele>354.8</ele>
        <time>1970-01-01T01:04:46.000Z</time>
      </trkpt>
      <trkpt lat="45.23752" lon="1.57713">
        <ele>353.8</ele>
        <time>1970-01-01T01:04:51.000Z</time>
      </trkpt>
      <trkpt lat="45.23755" lon="1.57711">
        <ele>353.6</ele>
        <time>1970-01-01T01:04:52.000Z</time>
      </trkpt>
      <trkpt lat="45.23761" lon="1.57702">
        <ele>353</ele>
        <time>1970-01-01T01:04:55.000Z</time>
      </trkpt>
      <trkpt lat="45.23763" lon="1.57699">
        <ele>352.6</ele>
        <time>1970-01-01T01:04:56.000Z</time>
      </trkpt>
      <trkpt lat="45.23767" lon="1.57688">
        <ele>351.2</ele>
        <time>1970-01-01T01:04:59.000Z</time>
      </trkpt>
      <trkpt lat="45.23776" lon="1.57675">
        <ele>350.2</ele>
        <time>1970-01-01T01:05:03.000Z</time>
      </trkpt>
      <trkpt lat="45.23779" lon="1.57672">
        <ele>350</ele>
        <time>1970-01-01T01:05:04.000Z</time>
      </trkpt>
      <trkpt lat="45.23784" lon="1.5766">
        <ele>349.4</ele>
        <time>1970-01-01T01:05:08.000Z</time>
      </trkpt>
      <trkpt lat="45.23785" lon="1.57656">
        <ele>349.4</ele>
        <time>1970-01-01T01:05:09.000Z</time>
      </trkpt>
      <trkpt lat="45.23787" lon="1.57652">
        <ele>349</ele>
        <time>1970-01-01T01:05:10.000Z</time>
      </trkpt>
      <trkpt lat="45.23794" lon="1.5764">
        <ele>348.4</ele>
        <time>1970-01-01T01:05:14.000Z</time>
      </trkpt>
      <trkpt lat="45.23798" lon="1.57634">
        <ele>347.8</ele>
        <time>1970-01-01T01:05:16.000Z</time>
      </trkpt>
      <trkpt lat="45.23807" lon="1.57622">
        <ele>346.4</ele>
        <time>1970-01-01T01:05:21.000Z</time>
      </trkpt>
      <trkpt lat="45.23815" lon="1.57612">
        <ele>345.2</ele>
        <time>1970-01-01T01:05:25.000Z</time>
      </trkpt>
      <trkpt lat="45.23818" lon="1.5761">
        <ele>344.6</ele>
        <time>1970-01-01T01:05:27.000Z</time>
      </trkpt>
      <trkpt lat="45.2382" lon="1.57609">
        <ele>344.4</ele>
        <time>1970-01-01T01:05:28.000Z</time>
      </trkpt>
      <trkpt lat="45.23821" lon="1.57609">
        <ele>343.8</ele>
        <time>1970-01-01T01:05:29.000Z</time>
      </trkpt>
      <trkpt lat="45.23826" lon="1.57604">
        <ele>342.4</ele>
        <time>1970-01-01T01:05:32.000Z</time>
      </trkpt>
      <trkpt lat="45.23828" lon="1.57603">
        <ele>342</ele>
        <time>1970-01-01T01:05:33.000Z</time>
      </trkpt>
      <trkpt lat="45.2383" lon="1.57602">
        <ele>341.2</ele>
        <time>1970-01-01T01:05:35.000Z</time>
      </trkpt>
      <trkpt lat="45.23833" lon="1.57599">
        <ele>339.8</ele>
        <time>1970-01-01T01:05:37.000Z</time>
      </trkpt>
      <trkpt lat="45.23835" lon="1.57597">
        <ele>339.2</ele>
        <time>1970-01-01T01:05:38.000Z</time>
      </trkpt>
      <trkpt lat="45.23839" lon="1.57594">
        <ele>338.2</ele>
        <time>1970-01-01T01:05:40.000Z</time>
      </trkpt>
      <trkpt lat="45.23846" lon="1.57589">
        <ele>337</ele>
        <time>1970-01-01T01:05:43.000Z</time>
      </trkpt>
      <trkpt lat="45.2385" lon="1.57587">
        <ele>335.6</ele>
        <time>1970-01-01T01:05:45.000Z</time>
      </trkpt>
      <trkpt lat="45.23861" lon="1.57577">
        <ele>334.4</ele>
        <time>1970-01-01T01:05:49.000Z</time>
      </trkpt>
      <trkpt lat="45.23866" lon="1.57573">
        <ele>333.2</ele>
        <time>1970-01-01T01:05:51.000Z</time>
      </trkpt>
      <trkpt lat="45.23869" lon="1.5757">
        <ele>332.8</ele>
        <time>1970-01-01T01:05:52.000Z</time>
      </trkpt>
      <trkpt lat="45.23876" lon="1.57565">
        <ele>331.8</ele>
        <time>1970-01-01T01:05:55.000Z</time>
      </trkpt>
      <trkpt lat="45.23884" lon="1.57557">
        <ele>330.8</ele>
        <time>1970-01-01T01:05:58.000Z</time>
      </trkpt>
      <trkpt lat="45.23887" lon="1.57555">
        <ele>330.4</ele>
        <time>1970-01-01T01:05:59.000Z</time>
      </trkpt>
      <trkpt lat="45.23893" lon="1.57551">
        <ele>329.6</ele>
        <time>1970-01-01T01:06:02.000Z</time>
      </trkpt>
      <trkpt lat="45.239" lon="1.57546">
        <ele>328.8</ele>
        <time>1970-01-01T01:06:04.000Z</time>
      </trkpt>
      <trkpt lat="45.23903" lon="1.57544">
        <ele>328.2</ele>
        <time>1970-01-01T01:06:05.000Z</time>
      </trkpt>
      <trkpt lat="45.23907" lon="1.57541">
        <ele>327</ele>
        <time>1970-01-01T01:06:07.000Z</time>
      </trkpt>
      <trkpt lat="45.23912" lon="1.57537">
        <ele>325.6</ele>
        <time>1970-01-01T01:06:09.000Z</time>
      </trkpt>
      <trkpt lat="45.23915" lon="1.57535">
        <ele>324.8</ele>
        <time>1970-01-01T01:06:10.000Z</time>
      </trkpt>
      <trkpt lat="45.23918" lon="1.57533">
        <ele>324.2</ele>
        <time>1970-01-01T01:06:11.000Z</time>
      </trkpt>
      <trkpt lat="45.23923" lon="1.57529">
        <ele>323</ele>
        <time>1970-01-01T01:06:13.000Z</time>
      </trkpt>
      <trkpt lat="45.23927" lon="1.57527">
        <ele>321.8</ele>
        <time>1970-01-01T01:06:15.000Z</time>
      </trkpt>
      <trkpt lat="45.23931" lon="1.57523">
        <ele>320</ele>
        <time>1970-01-01T01:06:18.000Z</time>
      </trkpt>
      <trkpt lat="45.23933" lon="1.57521">
        <ele>319.4</ele>
        <time>1970-01-01T01:06:19.000Z</time>
      </trkpt>
      <trkpt lat="45.23935" lon="1.5752">
        <ele>318.8</ele>
        <time>1970-01-01T01:06:20.000Z</time>
      </trkpt>
      <trkpt lat="45.23937" lon="1.57517">
        <ele>317.8</ele>
        <time>1970-01-01T01:06:22.000Z</time>
      </trkpt>
      <trkpt lat="45.2394" lon="1.57514">
        <ele>316.6</ele>
        <time>1970-01-01T01:06:24.000Z</time>
      </trkpt>
      <trkpt lat="45.23942" lon="1.57511">
        <ele>316.2</ele>
        <time>1970-01-01T01:06:25.000Z</time>
      </trkpt>
      <trkpt lat="45.23943" lon="1.57508">
        <ele>315.6</ele>
        <time>1970-01-01T01:06:26.000Z</time>
      </trkpt>
      <trkpt lat="45.23948" lon="1.57498">
        <ele>314.2</ele>
        <time>1970-01-01T01:06:29.000Z</time>
      </trkpt>
      <trkpt lat="45.23951" lon="1.57495">
        <ele>314</ele>
        <time>1970-01-01T01:06:30.000Z</time>
      </trkpt>
      <trkpt lat="45.23954" lon="1.57492">
        <ele>313</ele>
        <time>1970-01-01T01:06:31.000Z</time>
      </trkpt>
      <trkpt lat="45.2396" lon="1.57484">
        <ele>311.8</ele>
        <time>1970-01-01T01:06:33.000Z</time>
      </trkpt>
      <trkpt lat="45.23962" lon="1.57482">
        <ele>311.2</ele>
        <time>1970-01-01T01:06:34.000Z</time>
      </trkpt>
      <trkpt lat="45.23968" lon="1.57478">
        <ele>310.4</ele>
        <time>1970-01-01T01:06:36.000Z</time>
      </trkpt>
      <trkpt lat="45.23972" lon="1.57476">
        <ele>309.4</ele>
        <time>1970-01-01T01:06:38.000Z</time>
      </trkpt>
      <trkpt lat="45.23978" lon="1.57475">
        <ele>308.4</ele>
        <time>1970-01-01T01:06:40.000Z</time>
      </trkpt>
      <trkpt lat="45.23984" lon="1.57474">
        <ele>307.2</ele>
        <time>1970-01-01T01:06:42.000Z</time>
      </trkpt>
      <trkpt lat="45.23989" lon="1.57476">
        <ele>305.8</ele>
        <time>1970-01-01T01:06:44.000Z</time>
      </trkpt>
      <trkpt lat="45.23994" lon="1.57479">
        <ele>304.4</ele>
        <time>1970-01-01T01:06:46.000Z</time>
      </trkpt>
      <trkpt lat="45.23996" lon="1.5748">
        <ele>303.6</ele>
        <time>1970-01-01T01:06:47.000Z</time>
      </trkpt>
      <trkpt lat="45.23998" lon="1.57481">
        <ele>303</ele>
        <time>1970-01-01T01:06:48.000Z</time>
      </trkpt>
      <trkpt lat="45.24002" lon="1.57483">
        <ele>302</ele>
        <time>1970-01-01T01:06:50.000Z</time>
      </trkpt>
      <trkpt lat="45.24008" lon="1.57485">
        <ele>300.6</ele>
        <time>1970-01-01T01:06:52.000Z</time>
      </trkpt>
      <trkpt lat="45.24009" lon="1.57486">
        <ele>299.8</ele>
        <time>1970-01-01T01:06:53.000Z</time>
      </trkpt>
      <trkpt lat="45.2401" lon="1.57487">
        <ele>299.2</ele>
        <time>1970-01-01T01:06:54.000Z</time>
      </trkpt>
      <trkpt lat="45.24017" lon="1.57492">
        <ele>297.8</ele>
        <time>1970-01-01T01:06:57.000Z</time>
      </trkpt>
      <trkpt lat="45.24023" lon="1.57494">
        <ele>296.6</ele>
        <time>1970-01-01T01:06:59.000Z</time>
      </trkpt>
      <trkpt lat="45.24025" lon="1.57495">
        <ele>296</ele>
        <time>1970-01-01T01:07:00.000Z</time>
      </trkpt>
      <trkpt lat="45.24026" lon="1.57496">
        <ele>295.6</ele>
        <time>1970-01-01T01:07:01.000Z</time>
      </trkpt>
      <trkpt lat="45.2403" lon="1.57497">
        <ele>294</ele>
        <time>1970-01-01T01:07:03.000Z</time>
      </trkpt>
      <trkpt lat="45.24033" lon="1.575">
        <ele>292.8</ele>
        <time>1970-01-01T01:07:05.000Z</time>
      </trkpt>
      <trkpt lat="45.24042" lon="1.57504">
        <ele>291.6</ele>
        <time>1970-01-01T01:07:08.000Z</time>
      </trkpt>
      <trkpt lat="45.24049" lon="1.57505">
        <ele>290.4</ele>
        <time>1970-01-01T01:07:11.000Z</time>
      </trkpt>
      <trkpt lat="45.24055" lon="1.57505">
        <ele>289.6</ele>
        <time>1970-01-01T01:07:13.000Z</time>
      </trkpt>
      <trkpt lat="45.24057" lon="1.57506">
        <ele>289.4</ele>
        <time>1970-01-01T01:07:14.000Z</time>
      </trkpt>
      <trkpt lat="45.24068" lon="1.57512">
        <ele>287.8</ele>
        <time>1970-01-01T01:07:17.000Z</time>
      </trkpt>
      <trkpt lat="45.2407" lon="1.57514">
        <ele>287</ele>
        <time>1970-01-01T01:07:18.000Z</time>
      </trkpt>
      <trkpt lat="45.24074" lon="1.57517">
        <ele>286.6</ele>
        <time>1970-01-01T01:07:19.000Z</time>
      </trkpt>
      <trkpt lat="45.24082" lon="1.57523">
        <ele>285.4</ele>
        <time>1970-01-01T01:07:21.000Z</time>
      </trkpt>
      <trkpt lat="45.24093" lon="1.57531">
        <ele>284.4</ele>
        <time>1970-01-01T01:07:24.000Z</time>
      </trkpt>
      <trkpt lat="45.24096" lon="1.57533">
        <ele>284</ele>
        <time>1970-01-01T01:07:25.000Z</time>
      </trkpt>
      <trkpt lat="45.24101" lon="1.5754">
        <ele>283.2</ele>
        <time>1970-01-01T01:07:27.000Z</time>
      </trkpt>
      <trkpt lat="45.24106" lon="1.57555">
        <ele>282.2</ele>
        <time>1970-01-01T01:07:31.000Z</time>
      </trkpt>
      <trkpt lat="45.24109" lon="1.57563">
        <ele>280.8</ele>
        <time>1970-01-01T01:07:33.000Z</time>
      </trkpt>
      <trkpt lat="45.24112" lon="1.57571">
        <ele>279.6</ele>
        <time>1970-01-01T01:07:35.000Z</time>
      </trkpt>
      <trkpt lat="45.24115" lon="1.57579">
        <ele>278.4</ele>
        <time>1970-01-01T01:07:37.000Z</time>
      </trkpt>
      <trkpt lat="45.24118" lon="1.57585">
        <ele>277.6</ele>
        <time>1970-01-01T01:07:39.000Z</time>
      </trkpt>
      <trkpt lat="45.2412" lon="1.57586">
        <ele>277.4</ele>
        <time>1970-01-01T01:07:40.000Z</time>
      </trkpt>
      <trkpt lat="45.24123" lon="1.57586">
        <ele>277.2</ele>
        <time>1970-01-01T01:07:41.000Z</time>
      </trkpt>
      <trkpt lat="45.24128" lon="1.57586">
        <ele>276.2</ele>
        <time>1970-01-01T01:07:43.000Z</time>
      </trkpt>
      <trkpt lat="45.24136" lon="1.57589">
        <ele>274.8</ele>
        <time>1970-01-01T01:07:46.000Z</time>
      </trkpt>
      <trkpt lat="45.24142" lon="1.57591">
        <ele>273.8</ele>
        <time>1970-01-01T01:07:48.000Z</time>
      </trkpt>
      <trkpt lat="45.24148" lon="1.57592">
        <ele>272.4</ele>
        <time>1970-01-01T01:07:50.000Z</time>
      </trkpt>
      <trkpt lat="45.24151" lon="1.5759">
        <ele>272</ele>
        <time>1970-01-01T01:07:51.000Z</time>
      </trkpt>
      <trkpt lat="45.24159" lon="1.57588">
        <ele>271.4</ele>
        <time>1970-01-01T01:07:53.000Z</time>
      </trkpt>
      <trkpt lat="45.24165" lon="1.57586">
        <ele>269.6</ele>
        <time>1970-01-01T01:07:55.000Z</time>
      </trkpt>
      <trkpt lat="45.2417" lon="1.57584">
        <ele>268.6</ele>
        <time>1970-01-01T01:07:57.000Z</time>
      </trkpt>
      <trkpt lat="45.24172" lon="1.57583">
        <ele>268.2</ele>
        <time>1970-01-01T01:07:58.000Z</time>
      </trkpt>
      <trkpt lat="45.24175" lon="1.57581">
        <ele>267.4</ele>
        <time>1970-01-01T01:08:00.000Z</time>
      </trkpt>
      <trkpt lat="45.24181" lon="1.57575">
        <ele>266</ele>
        <time>1970-01-01T01:08:03.000Z</time>
      </trkpt>
      <trkpt lat="45.24185" lon="1.57568">
        <ele>264.8</ele>
        <time>1970-01-01T01:08:05.000Z</time>
      </trkpt>
      <trkpt lat="45.24189" lon="1.57554">
        <ele>263.6</ele>
        <time>1970-01-01T01:08:09.000Z</time>
      </trkpt>
      <trkpt lat="45.24188" lon="1.57547">
        <ele>262.6</ele>
        <time>1970-01-01T01:08:11.000Z</time>
      </trkpt>
      <trkpt lat="45.24188" lon="1.57544">
        <ele>262.2</ele>
        <time>1970-01-01T01:08:12.000Z</time>
      </trkpt>
      <trkpt lat="45.24188" lon="1.57536">
        <ele>261</ele>
        <time>1970-01-01T01:08:14.000Z</time>
      </trkpt>
      <trkpt lat="45.24186" lon="1.57529">
        <ele>260.2</ele>
        <time>1970-01-01T01:08:16.000Z</time>
      </trkpt>
      <trkpt lat="45.24185" lon="1.57525">
        <ele>259.4</ele>
        <time>1970-01-01T01:08:17.000Z</time>
      </trkpt>
      <trkpt lat="45.24183" lon="1.57517">
        <ele>258.4</ele>
        <time>1970-01-01T01:08:19.000Z</time>
      </trkpt>
      <trkpt lat="45.24182" lon="1.57507">
        <ele>257.2</ele>
        <time>1970-01-01T01:08:22.000Z</time>
      </trkpt>
      <trkpt lat="45.24181" lon="1.57504">
        <ele>256.6</ele>
        <time>1970-01-01T01:08:23.000Z</time>
      </trkpt>
      <trkpt lat="45.24184" lon="1.57496">
        <ele>259.6</ele>
        <time>1970-01-01T01:09:31.000Z</time>
      </trkpt>
      <trkpt lat="45.24183" lon="1.57495">
        <ele>259.6</ele>
        <time>1970-01-01T01:09:33.000Z</time>
      </trkpt>
      <trkpt lat="45.24179" lon="1.57477">
        <ele>259</ele>
        <time>1970-01-01T01:09:38.000Z</time>
      </trkpt>
      <trkpt lat="45.24177" lon="1.5747">
        <ele>258.4</ele>
        <time>1970-01-01T01:09:40.000Z</time>
      </trkpt>
      <trkpt lat="45.24173" lon="1.57461">
        <ele>257.8</ele>
        <time>1970-01-01T01:09:43.000Z</time>
      </trkpt>
      <trkpt lat="45.2417" lon="1.57457">
        <ele>257.6</ele>
        <time>1970-01-01T01:09:45.000Z</time>
      </trkpt>
      <trkpt lat="45.24168" lon="1.57454">
        <ele>257.4</ele>
        <time>1970-01-01T01:09:46.000Z</time>
      </trkpt>
      <trkpt lat="45.24167" lon="1.57452">
        <ele>257.2</ele>
        <time>1970-01-01T01:09:47.000Z</time>
      </trkpt>
      <trkpt lat="45.24158" lon="1.57442">
        <ele>256.8</ele>
        <time>1970-01-01T01:09:51.000Z</time>
      </trkpt>
      <trkpt lat="45.24155" lon="1.57439">
        <ele>256.2</ele>
        <time>1970-01-01T01:09:53.000Z</time>
      </trkpt>
      <trkpt lat="45.24155" lon="1.57437">
        <ele>256</ele>
        <time>1970-01-01T01:09:54.000Z</time>
      </trkpt>
      <trkpt lat="45.24157" lon="1.57432">
        <ele>255</ele>
        <time>1970-01-01T01:09:56.000Z</time>
      </trkpt>
      <trkpt lat="45.24159" lon="1.57431">
        <ele>254.4</ele>
        <time>1970-01-01T01:09:57.000Z</time>
      </trkpt>
      <trkpt lat="45.24165" lon="1.57431">
        <ele>253.4</ele>
        <time>1970-01-01T01:09:59.000Z</time>
      </trkpt>
      <trkpt lat="45.24172" lon="1.57432">
        <ele>252.2</ele>
        <time>1970-01-01T01:10:01.000Z</time>
      </trkpt>
      <trkpt lat="45.24179" lon="1.57433">
        <ele>250.8</ele>
        <time>1970-01-01T01:10:03.000Z</time>
      </trkpt>
      <trkpt lat="45.24185" lon="1.57436">
        <ele>249.8</ele>
        <time>1970-01-01T01:10:05.000Z</time>
      </trkpt>
      <trkpt lat="45.24192" lon="1.57437">
        <ele>248.6</ele>
        <time>1970-01-01T01:10:07.000Z</time>
      </trkpt>
      <trkpt lat="45.24194" lon="1.57438">
        <ele>247.8</ele>
        <time>1970-01-01T01:10:08.000Z</time>
      </trkpt>
      <trkpt lat="45.24196" lon="1.57437">
        <ele>247.4</ele>
        <time>1970-01-01T01:10:09.000Z</time>
      </trkpt>
      <trkpt lat="45.24195" lon="1.57435">
        <ele>247</ele>
        <time>1970-01-01T01:10:10.000Z</time>
      </trkpt>
      <trkpt lat="45.24193" lon="1.57434">
        <ele>246.4</ele>
        <time>1970-01-01T01:10:11.000Z</time>
      </trkpt>
      <trkpt lat="45.24191" lon="1.57432">
        <ele>245.4</ele>
        <time>1970-01-01T01:10:13.000Z</time>
      </trkpt>
      <trkpt lat="45.24188" lon="1.57426">
        <ele>244.2</ele>
        <time>1970-01-01T01:10:16.000Z</time>
      </trkpt>
      <trkpt lat="45.24178" lon="1.57416">
        <ele>243</ele>
        <time>1970-01-01T01:10:20.000Z</time>
      </trkpt>
      <trkpt lat="45.24166" lon="1.57406">
        <ele>241.6</ele>
        <time>1970-01-01T01:10:23.000Z</time>
      </trkpt>
      <trkpt lat="45.24165" lon="1.57395">
        <ele>240.4</ele>
        <time>1970-01-01T01:10:25.000Z</time>
      </trkpt>
      <trkpt lat="45.24166" lon="1.57385">
        <ele>239.6</ele>
        <time>1970-01-01T01:10:27.000Z</time>
      </trkpt>
      <trkpt lat="45.24166" lon="1.57379">
        <ele>239.2</ele>
        <time>1970-01-01T01:10:28.000Z</time>
      </trkpt>
      <trkpt lat="45.24168" lon="1.5737">
        <ele>237.8</ele>
        <time>1970-01-01T01:10:30.000Z</time>
      </trkpt>
      <trkpt lat="45.24164" lon="1.5736">
        <ele>236.6</ele>
        <time>1970-01-01T01:10:33.000Z</time>
      </trkpt>
      <trkpt lat="45.24164" lon="1.57351">
        <ele>236.4</ele>
        <time>1970-01-01T01:10:35.000Z</time>
      </trkpt>
      <trkpt lat="45.2417" lon="1.57325">
        <ele>236</ele>
        <time>1970-01-01T01:10:41.000Z</time>
      </trkpt>
      <trkpt lat="45.24172" lon="1.57315">
        <ele>235.6</ele>
        <time>1970-01-01T01:10:44.000Z</time>
      </trkpt>
      <trkpt lat="45.24176" lon="1.573">
        <ele>234.6</ele>
        <time>1970-01-01T01:10:49.000Z</time>
      </trkpt>
      <trkpt lat="45.24176" lon="1.57297">
        <ele>234.4</ele>
        <time>1970-01-01T01:10:50.000Z</time>
      </trkpt>
      <trkpt lat="45.24177" lon="1.57289">
        <ele>234.4</ele>
        <time>1970-01-01T01:10:55.000Z</time>
      </trkpt>
      <trkpt lat="45.24174" lon="1.57288">
        <ele>234.2</ele>
        <time>1970-01-01T01:10:59.000Z</time>
      </trkpt>
      <trkpt lat="45.24174" lon="1.57279">
        <ele>234.2</ele>
        <time>1970-01-01T01:11:02.000Z</time>
      </trkpt>
      <trkpt lat="45.24172" lon="1.57255">
        <ele>235.6</ele>
        <time>1970-01-01T01:11:09.000Z</time>
      </trkpt>
      <trkpt lat="45.24166" lon="1.57248">
        <ele>236.4</ele>
        <time>1970-01-01T01:11:13.000Z</time>
      </trkpt>
      <trkpt lat="45.24166" lon="1.57244">
        <ele>237</ele>
        <time>1970-01-01T01:11:14.000Z</time>
      </trkpt>
      <trkpt lat="45.24165" lon="1.57238">
        <ele>237.4</ele>
        <time>1970-01-01T01:11:16.000Z</time>
      </trkpt>
      <trkpt lat="45.24165" lon="1.57223">
        <ele>238.2</ele>
        <time>1970-01-01T01:11:20.000Z</time>
      </trkpt>
      <trkpt lat="45.24163" lon="1.57212">
        <ele>239.2</ele>
        <time>1970-01-01T01:11:24.000Z</time>
      </trkpt>
      <trkpt lat="45.24164" lon="1.57209">
        <ele>239.6</ele>
        <time>1970-01-01T01:11:25.000Z</time>
      </trkpt>
      <trkpt lat="45.24165" lon="1.57198">
        <ele>240.8</ele>
        <time>1970-01-01T01:11:29.000Z</time>
      </trkpt>
      <trkpt lat="45.24166" lon="1.57185">
        <ele>241.4</ele>
        <time>1970-01-01T01:11:33.000Z</time>
      </trkpt>
      <trkpt lat="45.24168" lon="1.57177">
        <ele>241.8</ele>
        <time>1970-01-01T01:11:36.000Z</time>
      </trkpt>
      <trkpt lat="45.24171" lon="1.57169">
        <ele>242.4</ele>
        <time>1970-01-01T01:11:39.000Z</time>
      </trkpt>
      <trkpt lat="45.24173" lon="1.57154">
        <ele>242.6</ele>
        <time>1970-01-01T01:11:44.000Z</time>
      </trkpt>
      <trkpt lat="45.24174" lon="1.57151">
        <ele>242.8</ele>
        <time>1970-01-01T01:11:46.000Z</time>
      </trkpt>
      <trkpt lat="45.24174" lon="1.57143">
        <ele>242.8</ele>
        <time>1970-01-01T01:11:51.000Z</time>
      </trkpt>
      <trkpt lat="45.24174" lon="1.57142">
        <ele>243</ele>
        <time>1970-01-01T01:11:52.000Z</time>
      </trkpt>
      <trkpt lat="45.24172" lon="1.57137">
        <ele>243.4</ele>
        <time>1970-01-01T01:11:54.000Z</time>
      </trkpt>
      <trkpt lat="45.24169" lon="1.57134">
        <ele>244</ele>
        <time>1970-01-01T01:11:57.000Z</time>
      </trkpt>
      <trkpt lat="45.24168" lon="1.57133">
        <ele>244.2</ele>
        <time>1970-01-01T01:11:58.000Z</time>
      </trkpt>
      <trkpt lat="45.24165" lon="1.57129">
        <ele>245.2</ele>
        <time>1970-01-01T01:12:02.000Z</time>
      </trkpt>
      <trkpt lat="45.24159" lon="1.57123">
        <ele>246.2</ele>
        <time>1970-01-01T01:12:07.000Z</time>
      </trkpt>
      <trkpt lat="45.24153" lon="1.57113">
        <ele>247.4</ele>
        <time>1970-01-01T01:12:12.000Z</time>
      </trkpt>
      <trkpt lat="45.24151" lon="1.5711">
        <ele>247.6</ele>
        <time>1970-01-01T01:12:14.000Z</time>
      </trkpt>
      <trkpt lat="45.2415" lon="1.57105">
        <ele>248</ele>
        <time>1970-01-01T01:12:16.000Z</time>
      </trkpt>
      <trkpt lat="45.24149" lon="1.57099">
        <ele>248.8</ele>
        <time>1970-01-01T01:12:19.000Z</time>
      </trkpt>
      <trkpt lat="45.24148" lon="1.57096">
        <ele>249</ele>
        <time>1970-01-01T01:12:20.000Z</time>
      </trkpt>
      <trkpt lat="45.24145" lon="1.57082">
        <ele>250</ele>
        <time>1970-01-01T01:12:25.000Z</time>
      </trkpt>
      <trkpt lat="45.24145" lon="1.57074">
        <ele>250.6</ele>
        <time>1970-01-01T01:12:28.000Z</time>
      </trkpt>
      <trkpt lat="45.24145" lon="1.57071">
        <ele>251</ele>
        <time>1970-01-01T01:12:29.000Z</time>
      </trkpt>
      <trkpt lat="45.24148" lon="1.57051">
        <ele>252.4</ele>
        <time>1970-01-01T01:12:35.000Z</time>
      </trkpt>
      <trkpt lat="45.24153" lon="1.57046">
        <ele>252.6</ele>
        <time>1970-01-01T01:12:37.000Z</time>
      </trkpt>
      <trkpt lat="45.24156" lon="1.57043">
        <ele>253.4</ele>
        <time>1970-01-01T01:12:39.000Z</time>
      </trkpt>
      <trkpt lat="45.24159" lon="1.57038">
        <ele>254.8</ele>
        <time>1970-01-01T01:12:42.000Z</time>
      </trkpt>
      <trkpt lat="45.24161" lon="1.57032">
        <ele>255.2</ele>
        <time>1970-01-01T01:12:44.000Z</time>
      </trkpt>
      <trkpt lat="45.24164" lon="1.57025">
        <ele>256</ele>
        <time>1970-01-01T01:12:47.000Z</time>
      </trkpt>
      <trkpt lat="45.24169" lon="1.57023">
        <ele>257</ele>
        <time>1970-01-01T01:12:50.000Z</time>
      </trkpt>
      <trkpt lat="45.2417" lon="1.57024">
        <ele>257.2</ele>
        <time>1970-01-01T01:12:51.000Z</time>
      </trkpt>
      <trkpt lat="45.24175" lon="1.5703">
        <ele>258.2</ele>
        <time>1970-01-01T01:12:55.000Z</time>
      </trkpt>
      <trkpt lat="45.24179" lon="1.57035">
        <ele>259.2</ele>
        <time>1970-01-01T01:12:58.000Z</time>
      </trkpt>
      <trkpt lat="45.2418" lon="1.57037">
        <ele>259.4</ele>
        <time>1970-01-01T01:12:59.000Z</time>
      </trkpt>
      <trkpt lat="45.24186" lon="1.57044">
        <ele>260.4</ele>
        <time>1970-01-01T01:13:03.000Z</time>
      </trkpt>
      <trkpt lat="45.24193" lon="1.57053">
        <ele>261.4</ele>
        <time>1970-01-01T01:13:08.000Z</time>
      </trkpt>
      <trkpt lat="45.24196" lon="1.57057">
        <ele>261.8</ele>
        <time>1970-01-01T01:13:10.000Z</time>
      </trkpt>
      <trkpt lat="45.242" lon="1.57061">
        <ele>262.8</ele>
        <time>1970-01-01T01:13:13.000Z</time>
      </trkpt>
      <trkpt lat="45.24206" lon="1.57067">
        <ele>264</ele>
        <time>1970-01-01T01:13:18.000Z</time>
      </trkpt>
      <trkpt lat="45.24208" lon="1.57067">
        <ele>264.2</ele>
        <time>1970-01-01T01:13:19.000Z</time>
      </trkpt>
      <trkpt lat="45.24212" lon="1.57068">
        <ele>265</ele>
        <time>1970-01-01T01:13:24.000Z</time>
      </trkpt>
      <trkpt lat="45.24216" lon="1.57068">
        <ele>265.6</ele>
        <time>1970-01-01T01:13:26.000Z</time>
      </trkpt>
      <trkpt lat="45.24218" lon="1.57068">
        <ele>266</ele>
        <time>1970-01-01T01:13:28.000Z</time>
      </trkpt>
      <trkpt lat="45.24222" lon="1.57064">
        <ele>267.2</ele>
        <time>1970-01-01T01:13:32.000Z</time>
      </trkpt>
      <trkpt lat="45.24223" lon="1.57063">
        <ele>267.4</ele>
        <time>1970-01-01T01:13:33.000Z</time>
      </trkpt>
      <trkpt lat="45.24227" lon="1.5706">
        <ele>268.6</ele>
        <time>1970-01-01T01:13:37.000Z</time>
      </trkpt>
      <trkpt lat="45.24229" lon="1.57058">
        <ele>269.2</ele>
        <time>1970-01-01T01:13:39.000Z</time>
      </trkpt>
      <trkpt lat="45.2423" lon="1.57057">
        <ele>269.6</ele>
        <time>1970-01-01T01:13:40.000Z</time>
      </trkpt>
      <trkpt lat="45.24231" lon="1.57054">
        <ele>270</ele>
        <time>1970-01-01T01:13:41.000Z</time>
      </trkpt>
      <trkpt lat="45.24235" lon="1.57048">
        <ele>270.6</ele>
        <time>1970-01-01T01:13:44.000Z</time>
      </trkpt>
      <trkpt lat="45.24237" lon="1.57045">
        <ele>271.2</ele>
        <time>1970-01-01T01:13:46.000Z</time>
      </trkpt>
      <trkpt lat="45.24243" lon="1.57034">
        <ele>272.4</ele>
        <time>1970-01-01T01:13:51.000Z</time>
      </trkpt>
      <trkpt lat="45.2425" lon="1.57026">
        <ele>273.4</ele>
        <time>1970-01-01T01:13:55.000Z</time>
      </trkpt>
      <trkpt lat="45.24252" lon="1.57021">
        <ele>273.8</ele>
        <time>1970-01-01T01:13:57.000Z</time>
      </trkpt>
      <trkpt lat="45.24254" lon="1.57015">
        <ele>274.8</ele>
        <time>1970-01-01T01:14:00.000Z</time>
      </trkpt>
      <trkpt lat="45.24262" lon="1.57004">
        <ele>276</ele>
        <time>1970-01-01T01:14:06.000Z</time>
      </trkpt>
      <trkpt lat="45.24268" lon="1.56995">
        <ele>277.2</ele>
        <time>1970-01-01T01:14:11.000Z</time>
      </trkpt>
      <trkpt lat="45.24271" lon="1.5699">
        <ele>277.6</ele>
        <time>1970-01-01T01:14:13.000Z</time>
      </trkpt>
      <trkpt lat="45.24277" lon="1.56981">
        <ele>278.6</ele>
        <time>1970-01-01T01:14:17.000Z</time>
      </trkpt>
      <trkpt lat="45.24279" lon="1.56978">
        <ele>279</ele>
        <time>1970-01-01T01:14:19.000Z</time>
      </trkpt>
      <trkpt lat="45.24279" lon="1.56976">
        <ele>279.4</ele>
        <time>1970-01-01T01:14:20.000Z</time>
      </trkpt>
      <trkpt lat="45.24279" lon="1.56974">
        <ele>279.8</ele>
        <time>1970-01-01T01:14:21.000Z</time>
      </trkpt>
      <trkpt lat="45.24279" lon="1.56967">
        <ele>281</ele>
        <time>1970-01-01T01:14:25.000Z</time>
      </trkpt>
      <trkpt lat="45.2428" lon="1.56964">
        <ele>281.2</ele>
        <time>1970-01-01T01:14:26.000Z</time>
      </trkpt>
      <trkpt lat="45.24284" lon="1.56952">
        <ele>282.2</ele>
        <time>1970-01-01T01:14:31.000Z</time>
      </trkpt>
      <trkpt lat="45.24286" lon="1.56943">
        <ele>282.6</ele>
        <time>1970-01-01T01:14:34.000Z</time>
      </trkpt>
      <trkpt lat="45.24289" lon="1.56933">
        <ele>283.2</ele>
        <time>1970-01-01T01:14:39.000Z</time>
      </trkpt>
      <trkpt lat="45.24291" lon="1.56928">
        <ele>283.2</ele>
        <time>1970-01-01T01:14:41.000Z</time>
      </trkpt>
      <trkpt lat="45.24298" lon="1.56907">
        <ele>284.2</ele>
        <time>1970-01-01T01:14:49.000Z</time>
      </trkpt>
      <trkpt lat="45.24304" lon="1.56893">
        <ele>285.4</ele>
        <time>1970-01-01T01:14:55.000Z</time>
      </trkpt>
      <trkpt lat="45.24306" lon="1.56889">
        <ele>285.8</ele>
        <time>1970-01-01T01:14:57.000Z</time>
      </trkpt>
      <trkpt lat="45.24307" lon="1.56885">
        <ele>286.4</ele>
        <time>1970-01-01T01:14:59.000Z</time>
      </trkpt>
      <trkpt lat="45.24308" lon="1.56876">
        <ele>287.4</ele>
        <time>1970-01-01T01:15:03.000Z</time>
      </trkpt>
      <trkpt lat="45.24307" lon="1.5687">
        <ele>288.2</ele>
        <time>1970-01-01T01:15:05.000Z</time>
      </trkpt>
      <trkpt lat="45.24307" lon="1.56867">
        <ele>288.2</ele>
        <time>1970-01-01T01:15:06.000Z</time>
      </trkpt>
      <trkpt lat="45.24305" lon="1.56861">
        <ele>288.6</ele>
        <time>1970-01-01T01:15:08.000Z</time>
      </trkpt>
      <trkpt lat="45.24303" lon="1.56857">
        <ele>289</ele>
        <time>1970-01-01T01:15:10.000Z</time>
      </trkpt>
      <trkpt lat="45.24302" lon="1.56856">
        <ele>289.2</ele>
        <time>1970-01-01T01:15:11.000Z</time>
      </trkpt>
      <trkpt lat="45.24299" lon="1.56853">
        <ele>289.6</ele>
        <time>1970-01-01T01:15:13.000Z</time>
      </trkpt>
      <trkpt lat="45.24294" lon="1.56848">
        <ele>291</ele>
        <time>1970-01-01T01:15:16.000Z</time>
      </trkpt>
      <trkpt lat="45.24289" lon="1.56841">
        <ele>292</ele>
        <time>1970-01-01T01:15:20.000Z</time>
      </trkpt>
      <trkpt lat="45.24288" lon="1.56835">
        <ele>293</ele>
        <time>1970-01-01T01:15:23.000Z</time>
      </trkpt>
      <trkpt lat="45.24288" lon="1.56831">
        <ele>293.6</ele>
        <time>1970-01-01T01:15:25.000Z</time>
      </trkpt>
      <trkpt lat="45.2429" lon="1.56827">
        <ele>294.2</ele>
        <time>1970-01-01T01:15:27.000Z</time>
      </trkpt>
      <trkpt lat="45.24292" lon="1.56826">
        <ele>294.6</ele>
        <time>1970-01-01T01:15:28.000Z</time>
      </trkpt>
      <trkpt lat="45.24297" lon="1.56823">
        <ele>295.4</ele>
        <time>1970-01-01T01:15:32.000Z</time>
      </trkpt>
      <trkpt lat="45.24298" lon="1.56821">
        <ele>295.6</ele>
        <time>1970-01-01T01:15:33.000Z</time>
      </trkpt>
      <trkpt lat="45.24299" lon="1.56818">
        <ele>296.2</ele>
        <time>1970-01-01T01:15:35.000Z</time>
      </trkpt>
      <trkpt lat="45.243" lon="1.56816">
        <ele>296.6</ele>
        <time>1970-01-01T01:15:36.000Z</time>
      </trkpt>
      <trkpt lat="45.24303" lon="1.56816">
        <ele>297.4</ele>
        <time>1970-01-01T01:15:39.000Z</time>
      </trkpt>
      <trkpt lat="45.24305" lon="1.56815">
        <ele>297.4</ele>
        <time>1970-01-01T01:15:40.000Z</time>
      </trkpt>
      <trkpt lat="45.24306" lon="1.56814">
        <ele>297.8</ele>
        <time>1970-01-01T01:15:41.000Z</time>
      </trkpt>
      <trkpt lat="45.2431" lon="1.56811">
        <ele>298.6</ele>
        <time>1970-01-01T01:15:45.000Z</time>
      </trkpt>
      <trkpt lat="45.24312" lon="1.56809">
        <ele>299</ele>
        <time>1970-01-01T01:15:46.000Z</time>
      </trkpt>
      <trkpt lat="45.2432" lon="1.56803">
        <ele>300.2</ele>
        <time>1970-01-01T01:15:51.000Z</time>
      </trkpt>
      <trkpt lat="45.24325" lon="1.56797">
        <ele>301.4</ele>
        <time>1970-01-01T01:15:54.000Z</time>
      </trkpt>
      <trkpt lat="45.24335" lon="1.56792">
        <ele>302.6</ele>
        <time>1970-01-01T01:15:59.000Z</time>
      </trkpt>
      <trkpt lat="45.24342" lon="1.56788">
        <ele>303.4</ele>
        <time>1970-01-01T01:16:03.000Z</time>
      </trkpt>
      <trkpt lat="45.24343" lon="1.56787">
        <ele>303.6</ele>
        <time>1970-01-01T01:16:04.000Z</time>
      </trkpt>
      <trkpt lat="45.24345" lon="1.56786">
        <ele>304.2</ele>
        <time>1970-01-01T01:16:05.000Z</time>
      </trkpt>
      <trkpt lat="45.24348" lon="1.56782">
        <ele>304.8</ele>
        <time>1970-01-01T01:16:08.000Z</time>
      </trkpt>
      <trkpt lat="45.24349" lon="1.56781">
        <ele>305.4</ele>
        <time>1970-01-01T01:16:10.000Z</time>
      </trkpt>
      <trkpt lat="45.2435" lon="1.56781">
        <ele>305.8</ele>
        <time>1970-01-01T01:16:11.000Z</time>
      </trkpt>
      <trkpt lat="45.24351" lon="1.56781">
        <ele>306.4</ele>
        <time>1970-01-01T01:16:12.000Z</time>
      </trkpt>
      <trkpt lat="45.24355" lon="1.56781">
        <ele>307</ele>
        <time>1970-01-01T01:16:14.000Z</time>
      </trkpt>
      <trkpt lat="45.24357" lon="1.56781">
        <ele>307.4</ele>
        <time>1970-01-01T01:16:15.000Z</time>
      </trkpt>
      <trkpt lat="45.2436" lon="1.56781">
        <ele>308.2</ele>
        <time>1970-01-01T01:16:17.000Z</time>
      </trkpt>
      <trkpt lat="45.24362" lon="1.56781">
        <ele>308.6</ele>
        <time>1970-01-01T01:16:19.000Z</time>
      </trkpt>
      <trkpt lat="45.24364" lon="1.56782">
        <ele>309</ele>
        <time>1970-01-01T01:16:20.000Z</time>
      </trkpt>
      <trkpt lat="45.24366" lon="1.56781">
        <ele>309.2</ele>
        <time>1970-01-01T01:16:21.000Z</time>
      </trkpt>
      <trkpt lat="45.24373" lon="1.5678">
        <ele>310.2</ele>
        <time>1970-01-01T01:16:25.000Z</time>
      </trkpt>
      <trkpt lat="45.24375" lon="1.56781">
        <ele>310.6</ele>
        <time>1970-01-01T01:16:26.000Z</time>
      </trkpt>
      <trkpt lat="45.2438" lon="1.56782">
        <ele>310.8</ele>
        <time>1970-01-01T01:16:28.000Z</time>
      </trkpt>
      <trkpt lat="45.24383" lon="1.56782">
        <ele>311.2</ele>
        <time>1970-01-01T01:16:30.000Z</time>
      </trkpt>
      <trkpt lat="45.24385" lon="1.56781">
        <ele>311.4</ele>
        <time>1970-01-01T01:16:31.000Z</time>
      </trkpt>
      <trkpt lat="45.24386" lon="1.56781">
        <ele>311.6</ele>
        <time>1970-01-01T01:16:32.000Z</time>
      </trkpt>
      <trkpt lat="45.24391" lon="1.56778">
        <ele>312</ele>
        <time>1970-01-01T01:16:36.000Z</time>
      </trkpt>
      <trkpt lat="45.24393" lon="1.56777">
        <ele>312.4</ele>
        <time>1970-01-01T01:16:37.000Z</time>
      </trkpt>
      <trkpt lat="45.24395" lon="1.56776">
        <ele>312.6</ele>
        <time>1970-01-01T01:16:38.000Z</time>
      </trkpt>
      <trkpt lat="45.2441" lon="1.56767">
        <ele>313.6</ele>
        <time>1970-01-01T01:16:45.000Z</time>
      </trkpt>
      <trkpt lat="45.24425" lon="1.56758">
        <ele>315</ele>
        <time>1970-01-01T01:16:51.000Z</time>
      </trkpt>
      <trkpt lat="45.24427" lon="1.56757">
        <ele>315</ele>
        <time>1970-01-01T01:16:52.000Z</time>
      </trkpt>
      <trkpt lat="45.24435" lon="1.5675">
        <ele>316</ele>
        <time>1970-01-01T01:16:56.000Z</time>
      </trkpt>
      <trkpt lat="45.24438" lon="1.56746">
        <ele>316.8</ele>
        <time>1970-01-01T01:16:58.000Z</time>
      </trkpt>
      <trkpt lat="45.24439" lon="1.56744">
        <ele>317.2</ele>
        <time>1970-01-01T01:16:59.000Z</time>
      </trkpt>
      <trkpt lat="45.24443" lon="1.56736">
        <ele>318.2</ele>
        <time>1970-01-01T01:17:03.000Z</time>
      </trkpt>
      <trkpt lat="45.24445" lon="1.56731">
        <ele>319</ele>
        <time>1970-01-01T01:17:05.000Z</time>
      </trkpt>
      <trkpt lat="45.24446" lon="1.56728">
        <ele>319.8</ele>
        <time>1970-01-01T01:17:07.000Z</time>
      </trkpt>
      <trkpt lat="45.24447" lon="1.5672">
        <ele>321</ele>
        <time>1970-01-01T01:17:10.000Z</time>
      </trkpt>
      <trkpt lat="45.24448" lon="1.56713">
        <ele>321.8</ele>
        <time>1970-01-01T01:17:13.000Z</time>
      </trkpt>
      <trkpt lat="45.24448" lon="1.5671">
        <ele>322.2</ele>
        <time>1970-01-01T01:17:14.000Z</time>
      </trkpt>
      <trkpt lat="45.24453" lon="1.56693">
        <ele>322.6</ele>
        <time>1970-01-01T01:17:20.000Z</time>
      </trkpt>
      <trkpt lat="45.24456" lon="1.56688">
        <ele>323.2</ele>
        <time>1970-01-01T01:17:22.000Z</time>
      </trkpt>
      <trkpt lat="45.24461" lon="1.5668">
        <ele>324</ele>
        <time>1970-01-01T01:17:26.000Z</time>
      </trkpt>
      <trkpt lat="45.24468" lon="1.56673">
        <ele>324.2</ele>
        <time>1970-01-01T01:17:30.000Z</time>
      </trkpt>
      <trkpt lat="45.24471" lon="1.56668">
        <ele>324.2</ele>
        <time>1970-01-01T01:17:32.000Z</time>
      </trkpt>
      <trkpt lat="45.24473" lon="1.56661">
        <ele>324.4</ele>
        <time>1970-01-01T01:17:34.000Z</time>
      </trkpt>
      <trkpt lat="45.24477" lon="1.56646">
        <ele>323.8</ele>
        <time>1970-01-01T01:17:38.000Z</time>
      </trkpt>
      <trkpt lat="45.24478" lon="1.56639">
        <ele>323.6</ele>
        <time>1970-01-01T01:17:40.000Z</time>
      </trkpt>
      <trkpt lat="45.2448" lon="1.56632">
        <ele>323.4</ele>
        <time>1970-01-01T01:17:42.000Z</time>
      </trkpt>
      <trkpt lat="45.24483" lon="1.56621">
        <ele>323.4</ele>
        <time>1970-01-01T01:17:45.000Z</time>
      </trkpt>
      <trkpt lat="45.24484" lon="1.56617">
        <ele>323.2</ele>
        <time>1970-01-01T01:17:46.000Z</time>
      </trkpt>
      <trkpt lat="45.24489" lon="1.56596">
        <ele>322.2</ele>
        <time>1970-01-01T01:17:52.000Z</time>
      </trkpt>
      <trkpt lat="45.24492" lon="1.56585">
        <ele>320.8</ele>
        <time>1970-01-01T01:17:55.000Z</time>
      </trkpt>
      <trkpt lat="45.24494" lon="1.56579">
        <ele>320.2</ele>
        <time>1970-01-01T01:17:57.000Z</time>
      </trkpt>
      <trkpt lat="45.24495" lon="1.56576">
        <ele>319.6</ele>
        <time>1970-01-01T01:17:58.000Z</time>
      </trkpt>
      <trkpt lat="45.24498" lon="1.56566">
        <ele>318.4</ele>
        <time>1970-01-01T01:18:01.000Z</time>
      </trkpt>
      <trkpt lat="45.24501" lon="1.56562">
        <ele>317.6</ele>
        <time>1970-01-01T01:18:03.000Z</time>
      </trkpt>
      <trkpt lat="45.24503" lon="1.56562">
        <ele>317.2</ele>
        <time>1970-01-01T01:18:04.000Z</time>
      </trkpt>
      <trkpt lat="45.24506" lon="1.56566">
        <ele>316.8</ele>
        <time>1970-01-01T01:18:06.000Z</time>
      </trkpt>
      <trkpt lat="45.24512" lon="1.56577">
        <ele>316.6</ele>
        <time>1970-01-01T01:18:10.000Z</time>
      </trkpt>
      <trkpt lat="45.24515" lon="1.56586">
        <ele>316.8</ele>
        <time>1970-01-01T01:18:13.000Z</time>
      </trkpt>
      <trkpt lat="45.24517" lon="1.56589">
        <ele>316.8</ele>
        <time>1970-01-01T01:18:14.000Z</time>
      </trkpt>
      <trkpt lat="45.24519" lon="1.56595">
        <ele>317</ele>
        <time>1970-01-01T01:18:16.000Z</time>
      </trkpt>
      <trkpt lat="45.24526" lon="1.56613">
        <ele>317.2</ele>
        <time>1970-01-01T01:18:22.000Z</time>
      </trkpt>
      <trkpt lat="45.24535" lon="1.56633">
        <ele>317.6</ele>
        <time>1970-01-01T01:18:29.000Z</time>
      </trkpt>
      <trkpt lat="45.24538" lon="1.56641">
        <ele>318</ele>
        <time>1970-01-01T01:18:32.000Z</time>
      </trkpt>
      <trkpt lat="45.2454" lon="1.56647">
        <ele>318.4</ele>
        <time>1970-01-01T01:18:34.000Z</time>
      </trkpt>
      <trkpt lat="45.24549" lon="1.5667">
        <ele>319</ele>
        <time>1970-01-01T01:18:42.000Z</time>
      </trkpt>
      <trkpt lat="45.24556" lon="1.56686">
        <ele>319.6</ele>
        <time>1970-01-01T01:18:47.000Z</time>
      </trkpt>
      <trkpt lat="45.24562" lon="1.567">
        <ele>320</ele>
        <time>1970-01-01T01:18:51.000Z</time>
      </trkpt>
      <trkpt lat="45.24573" lon="1.56724">
        <ele>320.6</ele>
        <time>1970-01-01T01:18:58.000Z</time>
      </trkpt>
      <trkpt lat="45.24578" lon="1.56735">
        <ele>320.8</ele>
        <time>1970-01-01T01:19:01.000Z</time>
      </trkpt>
      <trkpt lat="45.24587" lon="1.5675">
        <ele>321.8</ele>
        <time>1970-01-01T01:19:06.000Z</time>
      </trkpt>
      <trkpt lat="45.24595" lon="1.56762">
        <ele>322.2</ele>
        <time>1970-01-01T01:19:10.000Z</time>
      </trkpt>
      <trkpt lat="45.24597" lon="1.56765">
        <ele>322.4</ele>
        <time>1970-01-01T01:19:11.000Z</time>
      </trkpt>
      <trkpt lat="45.24601" lon="1.56771">
        <ele>322.8</ele>
        <time>1970-01-01T01:19:13.000Z</time>
      </trkpt>
      <trkpt lat="45.24608" lon="1.56784">
        <ele>323.6</ele>
        <time>1970-01-01T01:19:17.000Z</time>
      </trkpt>
      <trkpt lat="45.24609" lon="1.56787">
        <ele>323.8</ele>
        <time>1970-01-01T01:19:18.000Z</time>
      </trkpt>
      <trkpt lat="45.24623" lon="1.56805">
        <ele>324.6</ele>
        <time>1970-01-01T01:19:25.000Z</time>
      </trkpt>
      <trkpt lat="45.24625" lon="1.56808">
        <ele>324.6</ele>
        <time>1970-01-01T01:19:26.000Z</time>
      </trkpt>
      <trkpt lat="45.24629" lon="1.56814">
        <ele>325</ele>
        <time>1970-01-01T01:19:28.000Z</time>
      </trkpt>
      <trkpt lat="45.2464" lon="1.56831">
        <ele>326</ele>
        <time>1970-01-01T01:19:34.000Z</time>
      </trkpt>
      <trkpt lat="45.24655" lon="1.56847">
        <ele>326.8</ele>
        <time>1970-01-01T01:19:41.000Z</time>
      </trkpt>
      <trkpt lat="45.24661" lon="1.56853">
        <ele>327</ele>
        <time>1970-01-01T01:19:43.000Z</time>
      </trkpt>
      <trkpt lat="45.24678" lon="1.5687">
        <ele>326.8</ele>
        <time>1970-01-01T01:19:50.000Z</time>
      </trkpt>
      <trkpt lat="45.24695" lon="1.56887">
        <ele>326.6</ele>
        <time>1970-01-01T01:19:57.000Z</time>
      </trkpt>
      <trkpt lat="45.24697" lon="1.5689">
        <ele>326.6</ele>
        <time>1970-01-01T01:19:58.000Z</time>
      </trkpt>
      <trkpt lat="45.24713" lon="1.56904">
        <ele>326.4</ele>
        <time>1970-01-01T01:20:04.000Z</time>
      </trkpt>
      <trkpt lat="45.24728" lon="1.56919">
        <ele>326.8</ele>
        <time>1970-01-01T01:20:10.000Z</time>
      </trkpt>
      <trkpt lat="45.24735" lon="1.56925">
        <ele>327</ele>
        <time>1970-01-01T01:20:13.000Z</time>
      </trkpt>
      <trkpt lat="45.24749" lon="1.56943">
        <ele>327.4</ele>
        <time>1970-01-01T01:20:19.000Z</time>
      </trkpt>
      <trkpt lat="45.2475" lon="1.56947">
        <ele>327.4</ele>
        <time>1970-01-01T01:20:20.000Z</time>
      </trkpt>
      <trkpt lat="45.2476" lon="1.56968">
        <ele>327.6</ele>
        <time>1970-01-01T01:20:26.000Z</time>
      </trkpt>
      <trkpt lat="45.24772" lon="1.56989">
        <ele>328</ele>
        <time>1970-01-01T01:20:33.000Z</time>
      </trkpt>
      <trkpt lat="45.24774" lon="1.56992">
        <ele>328</ele>
        <time>1970-01-01T01:20:34.000Z</time>
      </trkpt>
      <trkpt lat="45.24782" lon="1.57009">
        <ele>328.8</ele>
        <time>1970-01-01T01:20:40.000Z</time>
      </trkpt>
      <trkpt lat="45.24786" lon="1.57019">
        <ele>329.2</ele>
        <time>1970-01-01T01:20:44.000Z</time>
      </trkpt>
      <trkpt lat="45.2479" lon="1.57027">
        <ele>330.6</ele>
        <time>1970-01-01T01:20:47.000Z</time>
      </trkpt>
      <trkpt lat="45.24793" lon="1.57033">
        <ele>331</ele>
        <time>1970-01-01T01:20:49.000Z</time>
      </trkpt>
      <trkpt lat="45.24797" lon="1.57042">
        <ele>331.8</ele>
        <time>1970-01-01T01:20:52.000Z</time>
      </trkpt>
      <trkpt lat="45.24808" lon="1.57055">
        <ele>332.6</ele>
        <time>1970-01-01T01:20:57.000Z</time>
      </trkpt>
      <trkpt lat="45.2481" lon="1.57056">
        <ele>332.8</ele>
        <time>1970-01-01T01:20:58.000Z</time>
      </trkpt>
      <trkpt lat="45.2482" lon="1.57061">
        <ele>334</ele>
        <time>1970-01-01T01:21:03.000Z</time>
      </trkpt>
      <trkpt lat="45.24827" lon="1.57064">
        <ele>334.4</ele>
        <time>1970-01-01T01:21:07.000Z</time>
      </trkpt>
      <trkpt lat="45.2483" lon="1.57065">
        <ele>334.6</ele>
        <time>1970-01-01T01:21:09.000Z</time>
      </trkpt>
      <trkpt lat="45.2484" lon="1.57066">
        <ele>335.2</ele>
        <time>1970-01-01T01:21:14.000Z</time>
      </trkpt>
      <trkpt lat="45.24845" lon="1.57068">
        <ele>336.2</ele>
        <time>1970-01-01T01:21:17.000Z</time>
      </trkpt>
      <trkpt lat="45.24846" lon="1.57067">
        <ele>336.4</ele>
        <time>1970-01-01T01:21:18.000Z</time>
      </trkpt>
      <trkpt lat="45.24856" lon="1.57063">
        <ele>337</ele>
        <time>1970-01-01T01:21:22.000Z</time>
      </trkpt>
      <trkpt lat="45.24861" lon="1.57059">
        <ele>337.4</ele>
        <time>1970-01-01T01:21:24.000Z</time>
      </trkpt>
      <trkpt lat="45.24863" lon="1.57054">
        <ele>338.6</ele>
        <time>1970-01-01T01:21:29.000Z</time>
      </trkpt>
      <trkpt lat="45.2486" lon="1.57048">
        <ele>339.8</ele>
        <time>1970-01-01T01:21:33.000Z</time>
      </trkpt>
      <trkpt lat="45.24858" lon="1.57043">
        <ele>340.2</ele>
        <time>1970-01-01T01:21:35.000Z</time>
      </trkpt>
      <trkpt lat="45.24858" lon="1.57041">
        <ele>340.8</ele>
        <time>1970-01-01T01:21:36.000Z</time>
      </trkpt>
      <trkpt lat="45.24857" lon="1.57039">
        <ele>341</ele>
        <time>1970-01-01T01:21:37.000Z</time>
      </trkpt>
      <trkpt lat="45.24857" lon="1.57026">
        <ele>342.2</ele>
        <time>1970-01-01T01:21:41.000Z</time>
      </trkpt>
      <trkpt lat="45.24862" lon="1.57014">
        <ele>343.4</ele>
        <time>1970-01-01T01:21:46.000Z</time>
      </trkpt>
      <trkpt lat="45.24867" lon="1.57008">
        <ele>344.6</ele>
        <time>1970-01-01T01:21:49.000Z</time>
      </trkpt>
      <trkpt lat="45.24876" lon="1.57">
        <ele>345.6</ele>
        <time>1970-01-01T01:21:55.000Z</time>
      </trkpt>
      <trkpt lat="45.2488" lon="1.57001">
        <ele>346.6</ele>
        <time>1970-01-01T01:21:58.000Z</time>
      </trkpt>
      <trkpt lat="45.24884" lon="1.57002">
        <ele>347.6</ele>
        <time>1970-01-01T01:22:01.000Z</time>
      </trkpt>
      <trkpt lat="45.24886" lon="1.57002">
        <ele>348.2</ele>
        <time>1970-01-01T01:22:03.000Z</time>
      </trkpt>
      <trkpt lat="45.24893" lon="1.57002">
        <ele>349</ele>
        <time>1970-01-01T01:22:07.000Z</time>
      </trkpt>
      <trkpt lat="45.24896" lon="1.56999">
        <ele>349.4</ele>
        <time>1970-01-01T01:22:09.000Z</time>
      </trkpt>
      <trkpt lat="45.24897" lon="1.56998">
        <ele>349.6</ele>
        <time>1970-01-01T01:22:11.000Z</time>
      </trkpt>
      <trkpt lat="45.249" lon="1.56994">
        <ele>350</ele>
        <time>1970-01-01T01:22:14.000Z</time>
      </trkpt>
      <trkpt lat="45.24901" lon="1.56993">
        <ele>350.2</ele>
        <time>1970-01-01T01:22:15.000Z</time>
      </trkpt>
      <trkpt lat="45.24904" lon="1.56993">
        <ele>350.4</ele>
        <time>1970-01-01T01:22:17.000Z</time>
      </trkpt>
      <trkpt lat="45.24915" lon="1.56983">
        <ele>351</ele>
        <time>1970-01-01T01:22:23.000Z</time>
      </trkpt>
      <trkpt lat="45.24917" lon="1.56983">
        <ele>351.2</ele>
        <time>1970-01-01T01:22:24.000Z</time>
      </trkpt>
      <trkpt lat="45.24933" lon="1.56981">
        <ele>350.2</ele>
        <time>1970-01-01T01:22:31.000Z</time>
      </trkpt>
      <trkpt lat="45.24936" lon="1.56981">
        <ele>349.8</ele>
        <time>1970-01-01T01:22:32.000Z</time>
      </trkpt>
      <trkpt lat="45.24946" lon="1.5698">
        <ele>348.8</ele>
        <time>1970-01-01T01:22:37.000Z</time>
      </trkpt>
      <trkpt lat="45.24955" lon="1.56977">
        <ele>347.8</ele>
        <time>1970-01-01T01:22:41.000Z</time>
      </trkpt>
      <trkpt lat="45.24964" lon="1.56971">
        <ele>346.8</ele>
        <time>1970-01-01T01:22:46.000Z</time>
      </trkpt>
      <trkpt lat="45.24966" lon="1.56969">
        <ele>346.8</ele>
        <time>1970-01-01T01:22:47.000Z</time>
      </trkpt>
      <trkpt lat="45.24976" lon="1.56965">
        <ele>345.6</ele>
        <time>1970-01-01T01:22:52.000Z</time>
      </trkpt>
      <trkpt lat="45.24981" lon="1.56971">
        <ele>344.6</ele>
        <time>1970-01-01T01:22:55.000Z</time>
      </trkpt>
      <trkpt lat="45.24987" lon="1.56979">
        <ele>343.8</ele>
        <time>1970-01-01T01:22:59.000Z</time>
      </trkpt>
      <trkpt lat="45.24988" lon="1.56981">
        <ele>343.6</ele>
        <time>1970-01-01T01:23:00.000Z</time>
      </trkpt>
      <trkpt lat="45.25001" lon="1.56993">
        <ele>343</ele>
        <time>1970-01-01T01:23:05.000Z</time>
      </trkpt>
      <trkpt lat="45.25003" lon="1.56996">
        <ele>343</ele>
        <time>1970-01-01T01:23:06.000Z</time>
      </trkpt>
      <trkpt lat="45.2501" lon="1.56997">
        <ele>342.6</ele>
        <time>1970-01-01T01:23:09.000Z</time>
      </trkpt>
      <trkpt lat="45.25012" lon="1.56994">
        <ele>342.4</ele>
        <time>1970-01-01T01:23:10.000Z</time>
      </trkpt>
      <trkpt lat="45.25016" lon="1.5699">
        <ele>341.4</ele>
        <time>1970-01-01T01:23:12.000Z</time>
      </trkpt>
      <trkpt lat="45.25023" lon="1.56985">
        <ele>340.4</ele>
        <time>1970-01-01T01:23:15.000Z</time>
      </trkpt>
      <trkpt lat="45.25025" lon="1.56982">
        <ele>340</ele>
        <time>1970-01-01T01:23:16.000Z</time>
      </trkpt>
      <trkpt lat="45.25028" lon="1.56977">
        <ele>339.6</ele>
        <time>1970-01-01T01:23:18.000Z</time>
      </trkpt>
      <trkpt lat="45.25028" lon="1.56974">
        <ele>339.2</ele>
        <time>1970-01-01T01:23:19.000Z</time>
      </trkpt>
      <trkpt lat="45.2503" lon="1.56963">
        <ele>338.4</ele>
        <time>1970-01-01T01:23:22.000Z</time>
      </trkpt>
      <trkpt lat="45.2503" lon="1.5696">
        <ele>337.8</ele>
        <time>1970-01-01T01:23:23.000Z</time>
      </trkpt>
      <trkpt lat="45.2503" lon="1.56949">
        <ele>336.4</ele>
        <time>1970-01-01T01:23:27.000Z</time>
      </trkpt>
      <trkpt lat="45.25029" lon="1.56946">
        <ele>335.8</ele>
        <time>1970-01-01T01:23:28.000Z</time>
      </trkpt>
      <trkpt lat="45.25029" lon="1.56942">
        <ele>335</ele>
        <time>1970-01-01T01:23:29.000Z</time>
      </trkpt>
      <trkpt lat="45.25031" lon="1.56933">
        <ele>333.8</ele>
        <time>1970-01-01T01:23:31.000Z</time>
      </trkpt>
      <trkpt lat="45.25033" lon="1.56925">
        <ele>332.4</ele>
        <time>1970-01-01T01:23:33.000Z</time>
      </trkpt>
      <trkpt lat="45.25035" lon="1.56916">
        <ele>331.4</ele>
        <time>1970-01-01T01:23:35.000Z</time>
      </trkpt>
      <trkpt lat="45.25037" lon="1.56908">
        <ele>330.8</ele>
        <time>1970-01-01T01:23:37.000Z</time>
      </trkpt>
      <trkpt lat="45.25041" lon="1.56906">
        <ele>330</ele>
        <time>1970-01-01T01:23:39.000Z</time>
      </trkpt>
      <trkpt lat="45.25048" lon="1.56911">
        <ele>328.8</ele>
        <time>1970-01-01T01:23:41.000Z</time>
      </trkpt>
      <trkpt lat="45.25053" lon="1.56914">
        <ele>328</ele>
        <time>1970-01-01T01:23:43.000Z</time>
      </trkpt>
      <trkpt lat="45.25057" lon="1.56916">
        <ele>327.4</ele>
        <time>1970-01-01T01:23:45.000Z</time>
      </trkpt>
      <trkpt lat="45.25068" lon="1.56923">
        <ele>326.6</ele>
        <time>1970-01-01T01:23:49.000Z</time>
      </trkpt>
      <trkpt lat="45.25071" lon="1.56924">
        <ele>326.4</ele>
        <time>1970-01-01T01:23:50.000Z</time>
      </trkpt>
      <trkpt lat="45.2508" lon="1.56927">
        <ele>324.6</ele>
        <time>1970-01-01T01:23:53.000Z</time>
      </trkpt>
      <trkpt lat="45.25082" lon="1.56927">
        <ele>324.2</ele>
        <time>1970-01-01T01:23:54.000Z</time>
      </trkpt>
      <trkpt lat="45.25084" lon="1.56926">
        <ele>323.4</ele>
        <time>1970-01-01T01:23:55.000Z</time>
      </trkpt>
      <trkpt lat="45.25089" lon="1.56923">
        <ele>322</ele>
        <time>1970-01-01T01:23:57.000Z</time>
      </trkpt>
      <trkpt lat="45.25095" lon="1.56919">
        <ele>321</ele>
        <time>1970-01-01T01:23:59.000Z</time>
      </trkpt>
      <trkpt lat="45.25098" lon="1.56917">
        <ele>320.6</ele>
        <time>1970-01-01T01:24:00.000Z</time>
      </trkpt>
      <trkpt lat="45.25105" lon="1.56909">
        <ele>319.4</ele>
        <time>1970-01-01T01:24:03.000Z</time>
      </trkpt>
      <trkpt lat="45.25111" lon="1.56903">
        <ele>318</ele>
        <time>1970-01-01T01:24:06.000Z</time>
      </trkpt>
      <trkpt lat="45.25112" lon="1.56901">
        <ele>317.6</ele>
        <time>1970-01-01T01:24:07.000Z</time>
      </trkpt>
      <trkpt lat="45.25115" lon="1.56895">
        <ele>316.8</ele>
        <time>1970-01-01T01:24:09.000Z</time>
      </trkpt>
      <trkpt lat="45.25122" lon="1.56885">
        <ele>315.4</ele>
        <time>1970-01-01T01:24:13.000Z</time>
      </trkpt>
      <trkpt lat="45.25125" lon="1.56881">
        <ele>314.8</ele>
        <time>1970-01-01T01:24:14.000Z</time>
      </trkpt>
      <trkpt lat="45.25126" lon="1.56877">
        <ele>314.2</ele>
        <time>1970-01-01T01:24:15.000Z</time>
      </trkpt>
      <trkpt lat="45.25129" lon="1.56866">
        <ele>312.8</ele>
        <time>1970-01-01T01:24:18.000Z</time>
      </trkpt>
      <trkpt lat="45.25131" lon="1.56861">
        <ele>312</ele>
        <time>1970-01-01T01:24:20.000Z</time>
      </trkpt>
      <trkpt lat="45.25132" lon="1.56858">
        <ele>311.4</ele>
        <time>1970-01-01T01:24:21.000Z</time>
      </trkpt>
      <trkpt lat="45.25133" lon="1.56855">
        <ele>311</ele>
        <time>1970-01-01T01:24:22.000Z</time>
      </trkpt>
      <trkpt lat="45.25136" lon="1.56853">
        <ele>310.4</ele>
        <time>1970-01-01T01:24:23.000Z</time>
      </trkpt>
      <trkpt lat="45.25137" lon="1.56848">
        <ele>309.8</ele>
        <time>1970-01-01T01:24:25.000Z</time>
      </trkpt>
      <trkpt lat="45.25137" lon="1.56845">
        <ele>309.2</ele>
        <time>1970-01-01T01:24:26.000Z</time>
      </trkpt>
      <trkpt lat="45.25137" lon="1.56842">
        <ele>308.8</ele>
        <time>1970-01-01T01:24:27.000Z</time>
      </trkpt>
      <trkpt lat="45.25133" lon="1.56836">
        <ele>307.8</ele>
        <time>1970-01-01T01:24:29.000Z</time>
      </trkpt>
      <trkpt lat="45.25127" lon="1.56829">
        <ele>306.4</ele>
        <time>1970-01-01T01:24:32.000Z</time>
      </trkpt>
      <trkpt lat="45.25121" lon="1.56821">
        <ele>305.6</ele>
        <time>1970-01-01T01:24:35.000Z</time>
      </trkpt>
      <trkpt lat="45.2512" lon="1.56819">
        <ele>305.4</ele>
        <time>1970-01-01T01:24:36.000Z</time>
      </trkpt>
      <trkpt lat="45.25118" lon="1.56812">
        <ele>304.2</ele>
        <time>1970-01-01T01:24:38.000Z</time>
      </trkpt>
      <trkpt lat="45.25115" lon="1.56807">
        <ele>303</ele>
        <time>1970-01-01T01:24:40.000Z</time>
      </trkpt>
      <trkpt lat="45.2511" lon="1.56803">
        <ele>302</ele>
        <time>1970-01-01T01:24:43.000Z</time>
      </trkpt>
      <trkpt lat="45.25108" lon="1.568">
        <ele>301.4</ele>
        <time>1970-01-01T01:24:44.000Z</time>
      </trkpt>
      <trkpt lat="45.25104" lon="1.56792">
        <ele>300.2</ele>
        <time>1970-01-01T01:24:46.000Z</time>
      </trkpt>
      <trkpt lat="45.25103" lon="1.56785">
        <ele>299.2</ele>
        <time>1970-01-01T01:24:48.000Z</time>
      </trkpt>
      <trkpt lat="45.25103" lon="1.56782">
        <ele>298.8</ele>
        <time>1970-01-01T01:24:49.000Z</time>
      </trkpt>
      <trkpt lat="45.25101" lon="1.56775">
        <ele>297.6</ele>
        <time>1970-01-01T01:24:51.000Z</time>
      </trkpt>
      <trkpt lat="45.251" lon="1.56767">
        <ele>296.4</ele>
        <time>1970-01-01T01:24:53.000Z</time>
      </trkpt>
      <trkpt lat="45.251" lon="1.5676">
        <ele>295.4</ele>
        <time>1970-01-01T01:24:55.000Z</time>
      </trkpt>
      <trkpt lat="45.25099" lon="1.56757">
        <ele>295</ele>
        <time>1970-01-01T01:24:56.000Z</time>
      </trkpt>
      <trkpt lat="45.25099" lon="1.56747">
        <ele>293.8</ele>
        <time>1970-01-01T01:24:59.000Z</time>
      </trkpt>
      <trkpt lat="45.25095" lon="1.56735">
        <ele>292.8</ele>
        <time>1970-01-01T01:25:02.000Z</time>
      </trkpt>
      <trkpt lat="45.25094" lon="1.56725">
        <ele>291.4</ele>
        <time>1970-01-01T01:25:05.000Z</time>
      </trkpt>
      <trkpt lat="45.25093" lon="1.56719">
        <ele>290.4</ele>
        <time>1970-01-01T01:25:07.000Z</time>
      </trkpt>
      <trkpt lat="45.2509" lon="1.56713">
        <ele>289</ele>
        <time>1970-01-01T01:25:09.000Z</time>
      </trkpt>
      <trkpt lat="45.25089" lon="1.5671">
        <ele>288.8</ele>
        <time>1970-01-01T01:25:10.000Z</time>
      </trkpt>
      <trkpt lat="45.25089" lon="1.56707">
        <ele>287.8</ele>
        <time>1970-01-01T01:25:11.000Z</time>
      </trkpt>
      <trkpt lat="45.25088" lon="1.56699">
        <ele>286.6</ele>
        <time>1970-01-01T01:25:13.000Z</time>
      </trkpt>
      <trkpt lat="45.25086" lon="1.56689">
        <ele>285.2</ele>
        <time>1970-01-01T01:25:16.000Z</time>
      </trkpt>
      <trkpt lat="45.25085" lon="1.56678">
        <ele>283.8</ele>
        <time>1970-01-01T01:25:18.000Z</time>
      </trkpt>
      <trkpt lat="45.25084" lon="1.56662">
        <ele>282.8</ele>
        <time>1970-01-01T01:25:21.000Z</time>
      </trkpt>
      <trkpt lat="45.25085" lon="1.56659">
        <ele>282</ele>
        <time>1970-01-01T01:25:22.000Z</time>
      </trkpt>
      <trkpt lat="45.25087" lon="1.56658">
        <ele>281.4</ele>
        <time>1970-01-01T01:25:23.000Z</time>
      </trkpt>
      <trkpt lat="45.25092" lon="1.56658">
        <ele>281</ele>
        <time>1970-01-01T01:25:25.000Z</time>
      </trkpt>
      <trkpt lat="45.251" lon="1.56661">
        <ele>280</ele>
        <time>1970-01-01T01:25:28.000Z</time>
      </trkpt>
      <trkpt lat="45.25102" lon="1.56662">
        <ele>279.6</ele>
        <time>1970-01-01T01:25:29.000Z</time>
      </trkpt>
      <trkpt lat="45.25111" lon="1.56666">
        <ele>278.4</ele>
        <time>1970-01-01T01:25:33.000Z</time>
      </trkpt>
      <trkpt lat="45.25114" lon="1.56667">
        <ele>278</ele>
        <time>1970-01-01T01:25:34.000Z</time>
      </trkpt>
      <trkpt lat="45.25117" lon="1.56667">
        <ele>277.6</ele>
        <time>1970-01-01T01:25:36.000Z</time>
      </trkpt>
      <trkpt lat="45.25121" lon="1.5667">
        <ele>277</ele>
        <time>1970-01-01T01:25:38.000Z</time>
      </trkpt>
      <trkpt lat="45.25123" lon="1.56672">
        <ele>276.6</ele>
        <time>1970-01-01T01:25:39.000Z</time>
      </trkpt>
      <trkpt lat="45.25128" lon="1.56677">
        <ele>276.2</ele>
        <time>1970-01-01T01:25:41.000Z</time>
      </trkpt>
      <trkpt lat="45.25131" lon="1.56679">
        <ele>275.6</ele>
        <time>1970-01-01T01:25:42.000Z</time>
      </trkpt>
      <trkpt lat="45.25137" lon="1.56682">
        <ele>274</ele>
        <time>1970-01-01T01:25:45.000Z</time>
      </trkpt>
      <trkpt lat="45.25139" lon="1.56682">
        <ele>273.4</ele>
        <time>1970-01-01T01:25:46.000Z</time>
      </trkpt>
      <trkpt lat="45.25141" lon="1.56682">
        <ele>272.6</ele>
        <time>1970-01-01T01:25:47.000Z</time>
      </trkpt>
      <trkpt lat="45.25145" lon="1.56682">
        <ele>271.6</ele>
        <time>1970-01-01T01:25:49.000Z</time>
      </trkpt>
      <trkpt lat="45.25152" lon="1.56681">
        <ele>269.8</ele>
        <time>1970-01-01T01:25:52.000Z</time>
      </trkpt>
      <trkpt lat="45.25155" lon="1.56681">
        <ele>269</ele>
        <time>1970-01-01T01:25:53.000Z</time>
      </trkpt>
      <trkpt lat="45.25158" lon="1.56681">
        <ele>268.4</ele>
        <time>1970-01-01T01:25:54.000Z</time>
      </trkpt>
      <trkpt lat="45.25161" lon="1.56681">
        <ele>267.8</ele>
        <time>1970-01-01T01:25:55.000Z</time>
      </trkpt>
      <trkpt lat="45.25164" lon="1.56681">
        <ele>267.2</ele>
        <time>1970-01-01T01:25:56.000Z</time>
      </trkpt>
      <trkpt lat="45.25167" lon="1.56682">
        <ele>266.4</ele>
        <time>1970-01-01T01:25:57.000Z</time>
      </trkpt>
      <trkpt lat="45.25169" lon="1.56682">
        <ele>265.8</ele>
        <time>1970-01-01T01:25:58.000Z</time>
      </trkpt>
      <trkpt lat="45.25175" lon="1.56684">
        <ele>264.6</ele>
        <time>1970-01-01T01:26:00.000Z</time>
      </trkpt>
      <trkpt lat="45.25181" lon="1.56682">
        <ele>263.2</ele>
        <time>1970-01-01T01:26:02.000Z</time>
      </trkpt>
      <trkpt lat="45.25184" lon="1.56683">
        <ele>262.8</ele>
        <time>1970-01-01T01:26:03.000Z</time>
      </trkpt>
      <trkpt lat="45.25187" lon="1.56682">
        <ele>262</ele>
        <time>1970-01-01T01:26:04.000Z</time>
      </trkpt>
      <trkpt lat="45.25193" lon="1.56682">
        <ele>260.8</ele>
        <time>1970-01-01T01:26:06.000Z</time>
      </trkpt>
      <trkpt lat="45.25202" lon="1.56681">
        <ele>259.2</ele>
        <time>1970-01-01T01:26:09.000Z</time>
      </trkpt>
      <trkpt lat="45.25205" lon="1.56681">
        <ele>258.8</ele>
        <time>1970-01-01T01:26:10.000Z</time>
      </trkpt>
      <trkpt lat="45.25208" lon="1.5668">
        <ele>258</ele>
        <time>1970-01-01T01:26:11.000Z</time>
      </trkpt>
      <trkpt lat="45.25218" lon="1.56678">
        <ele>256.8</ele>
        <time>1970-01-01T01:26:14.000Z</time>
      </trkpt>
      <trkpt lat="45.2522" lon="1.56678">
        <ele>256.4</ele>
        <time>1970-01-01T01:26:15.000Z</time>
      </trkpt>
      <trkpt lat="45.25225" lon="1.56679">
        <ele>255.2</ele>
        <time>1970-01-01T01:26:17.000Z</time>
      </trkpt>
      <trkpt lat="45.25234" lon="1.56683">
        <ele>253.6</ele>
        <time>1970-01-01T01:26:20.000Z</time>
      </trkpt>
      <trkpt lat="45.25237" lon="1.56684">
        <ele>253</ele>
        <time>1970-01-01T01:26:21.000Z</time>
      </trkpt>
      <trkpt lat="45.25241" lon="1.56684">
        <ele>252.6</ele>
        <time>1970-01-01T01:26:22.000Z</time>
      </trkpt>
      <trkpt lat="45.25251" lon="1.56685">
        <ele>251.2</ele>
        <time>1970-01-01T01:26:25.000Z</time>
      </trkpt>
      <trkpt lat="45.25253" lon="1.56685">
        <ele>250.8</ele>
        <time>1970-01-01T01:26:26.000Z</time>
      </trkpt>
      <trkpt lat="45.25255" lon="1.56684">
        <ele>250.6</ele>
        <time>1970-01-01T01:26:27.000Z</time>
      </trkpt>
      <trkpt lat="45.25261" lon="1.56682">
        <ele>250.2</ele>
        <time>1970-01-01T01:26:29.000Z</time>
      </trkpt>
      <trkpt lat="45.25264" lon="1.56681">
        <ele>250</ele>
        <time>1970-01-01T01:26:30.000Z</time>
      </trkpt>
      <trkpt lat="45.25274" lon="1.5668">
        <ele>248.8</ele>
        <time>1970-01-01T01:26:33.000Z</time>
      </trkpt>
      <trkpt lat="45.25283" lon="1.56679">
        <ele>247.6</ele>
        <time>1970-01-01T01:26:36.000Z</time>
      </trkpt>
      <trkpt lat="45.25293" lon="1.56681">
        <ele>247</ele>
        <time>1970-01-01T01:26:39.000Z</time>
      </trkpt>
      <trkpt lat="45.25296" lon="1.56679">
        <ele>246.6</ele>
        <time>1970-01-01T01:26:40.000Z</time>
      </trkpt>
      <trkpt lat="45.25303" lon="1.56676">
        <ele>246</ele>
        <time>1970-01-01T01:26:42.000Z</time>
      </trkpt>
      <trkpt lat="45.2532" lon="1.56674">
        <ele>245.6</ele>
        <time>1970-01-01T01:26:47.000Z</time>
      </trkpt>
      <trkpt lat="45.25323" lon="1.56674">
        <ele>245.4</ele>
        <time>1970-01-01T01:26:48.000Z</time>
      </trkpt>
      <trkpt lat="45.25333" lon="1.56676">
        <ele>244.2</ele>
        <time>1970-01-01T01:26:52.000Z</time>
      </trkpt>
      <trkpt lat="45.25335" lon="1.56675">
        <ele>244.2</ele>
        <time>1970-01-01T01:26:53.000Z</time>
      </trkpt>
      <trkpt lat="45.25337" lon="1.56675">
        <ele>243.6</ele>
        <time>1970-01-01T01:26:54.000Z</time>
      </trkpt>
      <trkpt lat="45.25338" lon="1.56673">
        <ele>243.2</ele>
        <time>1970-01-01T01:26:55.000Z</time>
      </trkpt>
      <trkpt lat="45.25338" lon="1.56669">
        <ele>241.4</ele>
        <time>1970-01-01T01:26:57.000Z</time>
      </trkpt>
      <trkpt lat="45.25333" lon="1.5666">
        <ele>240.2</ele>
        <time>1970-01-01T01:27:00.000Z</time>
      </trkpt>
      <trkpt lat="45.25333" lon="1.56653">
        <ele>240</ele>
        <time>1970-01-01T01:27:02.000Z</time>
      </trkpt>
      <trkpt lat="45.25334" lon="1.56641">
        <ele>239.6</ele>
        <time>1970-01-01T01:27:07.000Z</time>
      </trkpt>
      <trkpt lat="45.25328" lon="1.56635">
        <ele>239.8</ele>
        <time>1970-01-01T01:27:10.000Z</time>
      </trkpt>
      <trkpt lat="45.2532" lon="1.5663">
        <ele>240.6</ele>
        <time>1970-01-01T01:27:14.000Z</time>
      </trkpt>
      <trkpt lat="45.25307" lon="1.56621">
        <ele>240.6</ele>
        <time>1970-01-01T01:27:19.000Z</time>
      </trkpt>
      <trkpt lat="45.25291" lon="1.56614">
        <ele>240.8</ele>
        <time>1970-01-01T01:27:25.000Z</time>
      </trkpt>
      <trkpt lat="45.25275" lon="1.56603">
        <ele>241</ele>
        <time>1970-01-01T01:27:32.000Z</time>
      </trkpt>
      <trkpt lat="45.25265" lon="1.56596">
        <ele>241.6</ele>
        <time>1970-01-01T01:27:36.000Z</time>
      </trkpt>
      <trkpt lat="45.25252" lon="1.56592">
        <ele>242.8</ele>
        <time>1970-01-01T01:27:41.000Z</time>
      </trkpt>
      <trkpt lat="45.25242" lon="1.56582">
        <ele>244.2</ele>
        <time>1970-01-01T01:27:46.000Z</time>
      </trkpt>
      <trkpt lat="45.25237" lon="1.56574">
        <ele>245.4</ele>
        <time>1970-01-01T01:27:49.000Z</time>
      </trkpt>
      <trkpt lat="45.25235" lon="1.56572">
        <ele>246</ele>
        <time>1970-01-01T01:27:50.000Z</time>
      </trkpt>
      <trkpt lat="45.25232" lon="1.56569">
        <ele>246.8</ele>
        <time>1970-01-01T01:27:52.000Z</time>
      </trkpt>
      <trkpt lat="45.25227" lon="1.5656">
        <ele>248</ele>
        <time>1970-01-01T01:27:55.000Z</time>
      </trkpt>
      <trkpt lat="45.25227" lon="1.56558">
        <ele>248.2</ele>
        <time>1970-01-01T01:27:56.000Z</time>
      </trkpt>
      <trkpt lat="45.25225" lon="1.56551">
        <ele>248.8</ele>
        <time>1970-01-01T01:27:58.000Z</time>
      </trkpt>
      <trkpt lat="45.25225" lon="1.56547">
        <ele>249.2</ele>
        <time>1970-01-01T01:27:59.000Z</time>
      </trkpt>
      <trkpt lat="45.25225" lon="1.56531">
        <ele>250.4</ele>
        <time>1970-01-01T01:28:04.000Z</time>
      </trkpt>
      <trkpt lat="45.25224" lon="1.56527">
        <ele>250.6</ele>
        <time>1970-01-01T01:28:05.000Z</time>
      </trkpt>
      <trkpt lat="45.25224" lon="1.56518">
        <ele>250.8</ele>
        <time>1970-01-01T01:28:08.000Z</time>
      </trkpt>
      <trkpt lat="45.25223" lon="1.56516">
        <ele>250.8</ele>
        <time>1970-01-01T01:28:09.000Z</time>
      </trkpt>
      <trkpt lat="45.25221" lon="1.56499">
        <ele>250.2</ele>
        <time>1970-01-01T01:28:14.000Z</time>
      </trkpt>
      <trkpt lat="45.25222" lon="1.56491">
        <ele>250</ele>
        <time>1970-01-01T01:28:17.000Z</time>
      </trkpt>
      <trkpt lat="45.25219" lon="1.56482">
        <ele>250</ele>
        <time>1970-01-01T01:28:22.000Z</time>
      </trkpt>
      <trkpt lat="45.25217" lon="1.56478">
        <ele>250.6</ele>
        <time>1970-01-01T01:28:26.000Z</time>
      </trkpt>
      <trkpt lat="45.25215" lon="1.56471">
        <ele>251</ele>
        <time>1970-01-01T01:28:29.000Z</time>
      </trkpt>
      <trkpt lat="45.25215" lon="1.56463">
        <ele>251.6</ele>
        <time>1970-01-01T01:28:32.000Z</time>
      </trkpt>
      <trkpt lat="45.25212" lon="1.56449">
        <ele>252.8</ele>
        <time>1970-01-01T01:28:36.000Z</time>
      </trkpt>
      <trkpt lat="45.2521" lon="1.56442">
        <ele>253.4</ele>
        <time>1970-01-01T01:28:38.000Z</time>
      </trkpt>
      <trkpt lat="45.25208" lon="1.56436">
        <ele>254</ele>
        <time>1970-01-01T01:28:40.000Z</time>
      </trkpt>
      <trkpt lat="45.25202" lon="1.56426">
        <ele>255.2</ele>
        <time>1970-01-01T01:28:45.000Z</time>
      </trkpt>
      <trkpt lat="45.252" lon="1.56425">
        <ele>255.6</ele>
        <time>1970-01-01T01:28:47.000Z</time>
      </trkpt>
      <trkpt lat="45.25196" lon="1.56426">
        <ele>256.2</ele>
        <time>1970-01-01T01:28:50.000Z</time>
      </trkpt>
      <trkpt lat="45.25189" lon="1.56428">
        <ele>256.4</ele>
        <time>1970-01-01T01:28:55.000Z</time>
      </trkpt>
      <trkpt lat="45.2518" lon="1.56435">
        <ele>257.2</ele>
        <time>1970-01-01T01:29:02.000Z</time>
      </trkpt>
      <trkpt lat="45.25178" lon="1.56435">
        <ele>257.4</ele>
        <time>1970-01-01T01:29:03.000Z</time>
      </trkpt>
      <trkpt lat="45.25161" lon="1.56443">
        <ele>257.6</ele>
        <time>1970-01-01T01:29:11.000Z</time>
      </trkpt>
      <trkpt lat="45.25147" lon="1.5645">
        <ele>257.6</ele>
        <time>1970-01-01T01:29:19.000Z</time>
      </trkpt>
      <trkpt lat="45.25146" lon="1.56457">
        <ele>256</ele>
        <time>1970-01-01T01:29:24.000Z</time>
      </trkpt>
      <trkpt lat="45.25144" lon="1.56459">
        <ele>255</ele>
        <time>1970-01-01T01:29:25.000Z</time>
      </trkpt>
      <trkpt lat="45.25143" lon="1.56461">
        <ele>254.4</ele>
        <time>1970-01-01T01:29:26.000Z</time>
      </trkpt>
      <trkpt lat="45.25141" lon="1.56463">
        <ele>253.2</ele>
        <time>1970-01-01T01:29:28.000Z</time>
      </trkpt>
      <trkpt lat="45.25137" lon="1.56465">
        <ele>251.2</ele>
        <time>1970-01-01T01:29:30.000Z</time>
      </trkpt>
      <trkpt lat="45.25132" lon="1.56468">
        <ele>250</ele>
        <time>1970-01-01T01:29:32.000Z</time>
      </trkpt>
      <trkpt lat="45.25128" lon="1.56471">
        <ele>248.6</ele>
        <time>1970-01-01T01:29:34.000Z</time>
      </trkpt>
      <trkpt lat="45.25126" lon="1.56472">
        <ele>247.8</ele>
        <time>1970-01-01T01:29:35.000Z</time>
      </trkpt>
      <trkpt lat="45.25126" lon="1.56472">
        <ele>247.4</ele>
        <time>1970-01-01T01:29:36.000Z</time>
      </trkpt>
      <trkpt lat="45.25126" lon="1.56471">
        <ele>246.8</ele>
        <time>1970-01-01T01:29:37.000Z</time>
      </trkpt>
      <trkpt lat="45.25126" lon="1.56472">
        <ele>246.2</ele>
        <time>1970-01-01T01:29:38.000Z</time>
      </trkpt>
      <trkpt lat="45.25124" lon="1.56474">
        <ele>245</ele>
        <time>1970-01-01T01:29:40.000Z</time>
      </trkpt>
      <trkpt lat="45.25121" lon="1.56476">
        <ele>243.8</ele>
        <time>1970-01-01T01:29:42.000Z</time>
      </trkpt>
      <trkpt lat="45.25118" lon="1.56475">
        <ele>242.6</ele>
        <time>1970-01-01T01:29:45.000Z</time>
      </trkpt>
      <trkpt lat="45.25117" lon="1.56476">
        <ele>242.2</ele>
        <time>1970-01-01T01:29:46.000Z</time>
      </trkpt>
      <trkpt lat="45.25115" lon="1.56475">
        <ele>241.8</ele>
        <time>1970-01-01T01:29:48.000Z</time>
      </trkpt>
      <trkpt lat="45.25113" lon="1.56474">
        <ele>241.4</ele>
        <time>1970-01-01T01:29:49.000Z</time>
      </trkpt>
      <trkpt lat="45.25111" lon="1.56474">
        <ele>240.6</ele>
        <time>1970-01-01T01:29:52.000Z</time>
      </trkpt>
      <trkpt lat="45.2511" lon="1.56476">
        <ele>240</ele>
        <time>1970-01-01T01:29:54.000Z</time>
      </trkpt>
      <trkpt lat="45.25108" lon="1.56479">
        <ele>239.8</ele>
        <time>1970-01-01T01:29:55.000Z</time>
      </trkpt>
      <trkpt lat="45.25106" lon="1.56481">
        <ele>239</ele>
        <time>1970-01-01T01:29:57.000Z</time>
      </trkpt>
      <trkpt lat="45.25106" lon="1.56482">
        <ele>238.8</ele>
        <time>1970-01-01T01:29:58.000Z</time>
      </trkpt>
      <trkpt lat="45.25105" lon="1.56487">
        <ele>238</ele>
        <time>1970-01-01T01:30:00.000Z</time>
      </trkpt>
      <trkpt lat="45.25105" lon="1.56489">
        <ele>237</ele>
        <time>1970-01-01T01:30:01.000Z</time>
      </trkpt>
      <trkpt lat="45.25106" lon="1.56491">
        <ele>235.8</ele>
        <time>1970-01-01T01:30:03.000Z</time>
      </trkpt>
      <trkpt lat="45.25102" lon="1.56492">
        <ele>234.6</ele>
        <time>1970-01-01T01:30:05.000Z</time>
      </trkpt>
      <trkpt lat="45.25099" lon="1.56492">
        <ele>234.2</ele>
        <time>1970-01-01T01:30:06.000Z</time>
      </trkpt>
      <trkpt lat="45.25089" lon="1.56496">
        <ele>233.6</ele>
        <time>1970-01-01T01:30:10.000Z</time>
      </trkpt>
      <trkpt lat="45.25087" lon="1.56496">
        <ele>233.6</ele>
        <time>1970-01-01T01:30:11.000Z</time>
      </trkpt>
      <trkpt lat="45.25085" lon="1.56495">
        <ele>233.6</ele>
        <time>1970-01-01T01:30:13.000Z</time>
      </trkpt>
      <trkpt lat="45.25083" lon="1.56494">
        <ele>233.2</ele>
        <time>1970-01-01T01:30:15.000Z</time>
      </trkpt>
      <trkpt lat="45.2508" lon="1.56494">
        <ele>233.2</ele>
        <time>1970-01-01T01:30:16.000Z</time>
      </trkpt>
      <trkpt lat="45.25075" lon="1.56494">
        <ele>233</ele>
        <time>1970-01-01T01:30:19.000Z</time>
      </trkpt>
      <trkpt lat="45.25073" lon="1.56493">
        <ele>233.2</ele>
        <time>1970-01-01T01:30:20.000Z</time>
      </trkpt>
      <trkpt lat="45.25068" lon="1.56492">
        <ele>233.4</ele>
        <time>1970-01-01T01:30:23.000Z</time>
      </trkpt>
      <trkpt lat="45.25063" lon="1.56489">
        <ele>233.6</ele>
        <time>1970-01-01T01:30:26.000Z</time>
      </trkpt>
      <trkpt lat="45.25058" lon="1.56487">
        <ele>233.4</ele>
        <time>1970-01-01T01:30:29.000Z</time>
      </trkpt>
      <trkpt lat="45.25047" lon="1.56475">
        <ele>233.2</ele>
        <time>1970-01-01T01:30:35.000Z</time>
      </trkpt>
      <trkpt lat="45.25046" lon="1.56474">
        <ele>233.2</ele>
        <time>1970-01-01T01:30:36.000Z</time>
      </trkpt>
      <trkpt lat="45.25043" lon="1.5647">
        <ele>233.4</ele>
        <time>1970-01-01T01:30:39.000Z</time>
      </trkpt>
      <trkpt lat="45.25042" lon="1.5647">
        <ele>233.4</ele>
        <time>1970-01-01T01:30:40.000Z</time>
      </trkpt>
      <trkpt lat="45.25037" lon="1.56466">
        <ele>233.2</ele>
        <time>1970-01-01T01:30:43.000Z</time>
      </trkpt>
      <trkpt lat="45.25035" lon="1.56463">
        <ele>233.2</ele>
        <time>1970-01-01T01:30:44.000Z</time>
      </trkpt>
      <trkpt lat="45.25028" lon="1.56448">
        <ele>232.6</ele>
        <time>1970-01-01T01:30:49.000Z</time>
      </trkpt>
      <trkpt lat="45.25027" lon="1.56446">
        <ele>232.6</ele>
        <time>1970-01-01T01:30:50.000Z</time>
      </trkpt>
      <trkpt lat="45.25026" lon="1.56442">
        <ele>232.6</ele>
        <time>1970-01-01T01:30:52.000Z</time>
      </trkpt>
      <trkpt lat="45.25024" lon="1.56438">
        <ele>232.8</ele>
        <time>1970-01-01T01:30:55.000Z</time>
      </trkpt>
      <trkpt lat="45.25019" lon="1.56433">
        <ele>233</ele>
        <time>1970-01-01T01:31:01.000Z</time>
      </trkpt>
      <trkpt lat="45.25017" lon="1.56429">
        <ele>233.4</ele>
        <time>1970-01-01T01:31:05.000Z</time>
      </trkpt>
      <trkpt lat="45.25017" lon="1.56422">
        <ele>233.8</ele>
        <time>1970-01-01T01:31:08.000Z</time>
      </trkpt>
      <trkpt lat="45.25017" lon="1.5642">
        <ele>234</ele>
        <time>1970-01-01T01:31:09.000Z</time>
      </trkpt>
      <trkpt lat="45.25016" lon="1.56415">
        <ele>234.4</ele>
        <time>1970-01-01T01:31:11.000Z</time>
      </trkpt>
      <trkpt lat="45.25015" lon="1.56413">
        <ele>234.6</ele>
        <time>1970-01-01T01:31:12.000Z</time>
      </trkpt>
      <trkpt lat="45.25012" lon="1.56408">
        <ele>235.2</ele>
        <time>1970-01-01T01:31:14.000Z</time>
      </trkpt>
      <trkpt lat="45.25012" lon="1.56406">
        <ele>235.4</ele>
        <time>1970-01-01T01:31:15.000Z</time>
      </trkpt>
      <trkpt lat="45.25006" lon="1.56389">
        <ele>236</ele>
        <time>1970-01-01T01:31:20.000Z</time>
      </trkpt>
      <trkpt lat="45.25004" lon="1.56387">
        <ele>235.8</ele>
        <time>1970-01-01T01:31:21.000Z</time>
      </trkpt>
      <trkpt lat="45.24997" lon="1.56381">
        <ele>235.4</ele>
        <time>1970-01-01T01:31:25.000Z</time>
      </trkpt>
      <trkpt lat="45.24987" lon="1.56369">
        <ele>234.4</ele>
        <time>1970-01-01T01:31:31.000Z</time>
      </trkpt>
      <trkpt lat="45.24984" lon="1.56367">
        <ele>234.2</ele>
        <time>1970-01-01T01:31:32.000Z</time>
      </trkpt>
      <trkpt lat="45.24978" lon="1.56358">
        <ele>234</ele>
        <time>1970-01-01T01:31:35.000Z</time>
      </trkpt>
      <trkpt lat="45.24974" lon="1.56349">
        <ele>234</ele>
        <time>1970-01-01T01:31:37.000Z</time>
      </trkpt>
      <trkpt lat="45.24971" lon="1.56344">
        <ele>233.8</ele>
        <time>1970-01-01T01:31:39.000Z</time>
      </trkpt>
      <trkpt lat="45.24967" lon="1.56339">
        <ele>233.4</ele>
        <time>1970-01-01T01:31:42.000Z</time>
      </trkpt>
      <trkpt lat="45.24963" lon="1.56334">
        <ele>232.8</ele>
        <time>1970-01-01T01:31:46.000Z</time>
      </trkpt>
      <trkpt lat="45.24962" lon="1.56333">
        <ele>232.8</ele>
        <time>1970-01-01T01:31:47.000Z</time>
      </trkpt>
      <trkpt lat="45.2496" lon="1.5633">
        <ele>232.8</ele>
        <time>1970-01-01T01:31:50.000Z</time>
      </trkpt>
      <trkpt lat="45.24958" lon="1.56326">
        <ele>232.6</ele>
        <time>1970-01-01T01:31:52.000Z</time>
      </trkpt>
      <trkpt lat="45.24956" lon="1.56325">
        <ele>232.6</ele>
        <time>1970-01-01T01:31:53.000Z</time>
      </trkpt>
      <trkpt lat="45.24955" lon="1.56324">
        <ele>232.2</ele>
        <time>1970-01-01T01:31:54.000Z</time>
      </trkpt>
      <trkpt lat="45.24949" lon="1.56323">
        <ele>231.2</ele>
        <time>1970-01-01T01:31:57.000Z</time>
      </trkpt>
      <trkpt lat="45.24944" lon="1.56321">
        <ele>231</ele>
        <time>1970-01-01T01:31:59.000Z</time>
      </trkpt>
      <trkpt lat="45.24942" lon="1.56321">
        <ele>231</ele>
        <time>1970-01-01T01:32:00.000Z</time>
      </trkpt>
      <trkpt lat="45.24938" lon="1.56319">
        <ele>230.8</ele>
        <time>1970-01-01T01:32:02.000Z</time>
      </trkpt>
      <trkpt lat="45.24936" lon="1.56315">
        <ele>230.6</ele>
        <time>1970-01-01T01:32:03.000Z</time>
      </trkpt>
      <trkpt lat="45.24933" lon="1.56309">
        <ele>230.2</ele>
        <time>1970-01-01T01:32:05.000Z</time>
      </trkpt>
      <trkpt lat="45.2493" lon="1.56301">
        <ele>229.6</ele>
        <time>1970-01-01T01:32:08.000Z</time>
      </trkpt>
      <trkpt lat="45.24922" lon="1.56291">
        <ele>229</ele>
        <time>1970-01-01T01:32:12.000Z</time>
      </trkpt>
      <trkpt lat="45.24919" lon="1.56288">
        <ele>229</ele>
        <time>1970-01-01T01:32:14.000Z</time>
      </trkpt>
      <trkpt lat="45.24914" lon="1.56281">
        <ele>229.2</ele>
        <time>1970-01-01T01:32:18.000Z</time>
      </trkpt>
      <trkpt lat="45.24907" lon="1.56268">
        <ele>230</ele>
        <time>1970-01-01T01:32:23.000Z</time>
      </trkpt>
      <trkpt lat="45.24903" lon="1.5626">
        <ele>230</ele>
        <time>1970-01-01T01:32:25.000Z</time>
      </trkpt>
      <trkpt lat="45.24895" lon="1.56251">
        <ele>230.6</ele>
        <time>1970-01-01T01:32:30.000Z</time>
      </trkpt>
      <trkpt lat="45.24893" lon="1.56251">
        <ele>231.2</ele>
        <time>1970-01-01T01:32:31.000Z</time>
      </trkpt>
      <trkpt lat="45.24883" lon="1.56246">
        <ele>232</ele>
        <time>1970-01-01T01:32:36.000Z</time>
      </trkpt>
      <trkpt lat="45.24882" lon="1.56244">
        <ele>232.2</ele>
        <time>1970-01-01T01:32:37.000Z</time>
      </trkpt>
      <trkpt lat="45.24879" lon="1.56241">
        <ele>233.4</ele>
        <time>1970-01-01T01:32:39.000Z</time>
      </trkpt>
      <trkpt lat="45.24878" lon="1.5624">
        <ele>233.8</ele>
        <time>1970-01-01T01:32:40.000Z</time>
      </trkpt>
      <trkpt lat="45.24876" lon="1.56238">
        <ele>234</ele>
        <time>1970-01-01T01:32:42.000Z</time>
      </trkpt>
      <trkpt lat="45.24876" lon="1.56236">
        <ele>234.2</ele>
        <time>1970-01-01T01:32:44.000Z</time>
      </trkpt>
      <trkpt lat="45.24876" lon="1.56235">
        <ele>234.2</ele>
        <time>1970-01-01T01:32:46.000Z</time>
      </trkpt>
      <trkpt lat="45.24876" lon="1.56234">
        <ele>235.2</ele>
        <time>1970-01-01T01:32:47.000Z</time>
      </trkpt>
      <trkpt lat="45.24872" lon="1.56224">
        <ele>235.2</ele>
        <time>1970-01-01T01:32:52.000Z</time>
      </trkpt>
      <trkpt lat="45.24871" lon="1.56219">
        <ele>235.2</ele>
        <time>1970-01-01T01:32:54.000Z</time>
      </trkpt>
      <trkpt lat="45.24871" lon="1.56211">
        <ele>235.2</ele>
        <time>1970-01-01T01:32:57.000Z</time>
      </trkpt>
      <trkpt lat="45.24872" lon="1.56209">
        <ele>235.2</ele>
        <time>1970-01-01T01:32:58.000Z</time>
      </trkpt>
      <trkpt lat="45.24872" lon="1.56207">
        <ele>235</ele>
        <time>1970-01-01T01:33:00.000Z</time>
      </trkpt>
      <trkpt lat="45.2487" lon="1.56204">
        <ele>234.2</ele>
        <time>1970-01-01T01:33:03.000Z</time>
      </trkpt>
      <trkpt lat="45.2487" lon="1.56203">
        <ele>233.4</ele>
        <time>1970-01-01T01:33:04.000Z</time>
      </trkpt>
      <trkpt lat="45.24869" lon="1.56203">
        <ele>233</ele>
        <time>1970-01-01T01:33:05.000Z</time>
      </trkpt>
      <trkpt lat="45.24868" lon="1.56202">
        <ele>232.4</ele>
        <time>1970-01-01T01:33:07.000Z</time>
      </trkpt>
      <trkpt lat="45.24868" lon="1.56201">
        <ele>231.6</ele>
        <time>1970-01-01T01:33:08.000Z</time>
      </trkpt>
      <trkpt lat="45.24867" lon="1.562">
        <ele>230.8</ele>
        <time>1970-01-01T01:33:09.000Z</time>
      </trkpt>
      <trkpt lat="45.24867" lon="1.56199">
        <ele>230.4</ele>
        <time>1970-01-01T01:33:10.000Z</time>
      </trkpt>
      <trkpt lat="45.24866" lon="1.56199">
        <ele>229.6</ele>
        <time>1970-01-01T01:33:11.000Z</time>
      </trkpt>
      <trkpt lat="45.24864" lon="1.56195">
        <ele>228.8</ele>
        <time>1970-01-01T01:33:14.000Z</time>
      </trkpt>
      <trkpt lat="45.24864" lon="1.56194">
        <ele>227.8</ele>
        <time>1970-01-01T01:33:15.000Z</time>
      </trkpt>
      <trkpt lat="45.24865" lon="1.56192">
        <ele>226.6</ele>
        <time>1970-01-01T01:33:17.000Z</time>
      </trkpt>
      <trkpt lat="45.24863" lon="1.56191">
        <ele>224.8</ele>
        <time>1970-01-01T01:33:20.000Z</time>
      </trkpt>
      <trkpt lat="45.24862" lon="1.5619">
        <ele>224.4</ele>
        <time>1970-01-01T01:33:21.000Z</time>
      </trkpt>
      <trkpt lat="45.24861" lon="1.56188">
        <ele>223.6</ele>
        <time>1970-01-01T01:33:23.000Z</time>
      </trkpt>
      <trkpt lat="45.24861" lon="1.56184">
        <ele>221.8</ele>
        <time>1970-01-01T01:33:25.000Z</time>
      </trkpt>
      <trkpt lat="45.2486" lon="1.5618">
        <ele>221.2</ele>
        <time>1970-01-01T01:33:26.000Z</time>
      </trkpt>
      <trkpt lat="45.24859" lon="1.56173">
        <ele>220.6</ele>
        <time>1970-01-01T01:33:28.000Z</time>
      </trkpt>
      <trkpt lat="45.24858" lon="1.56166">
        <ele>220.2</ele>
        <time>1970-01-01T01:33:33.000Z</time>
      </trkpt>
      <trkpt lat="45.24857" lon="1.56154">
        <ele>219.6</ele>
        <time>1970-01-01T01:33:38.000Z</time>
      </trkpt>
      <trkpt lat="45.24858" lon="1.56152">
        <ele>219.4</ele>
        <time>1970-01-01T01:33:39.000Z</time>
      </trkpt>
      <trkpt lat="45.2486" lon="1.56139">
        <ele>218.8</ele>
        <time>1970-01-01T01:33:44.000Z</time>
      </trkpt>
      <trkpt lat="45.2486" lon="1.56133">
        <ele>218.8</ele>
        <time>1970-01-01T01:33:46.000Z</time>
      </trkpt>
      <trkpt lat="45.2486" lon="1.56127">
        <ele>218.8</ele>
        <time>1970-01-01T01:33:48.000Z</time>
      </trkpt>
      <trkpt lat="45.24861" lon="1.5612">
        <ele>219</ele>
        <time>1970-01-01T01:33:51.000Z</time>
      </trkpt>
      <trkpt lat="45.24864" lon="1.561">
        <ele>219.4</ele>
        <time>1970-01-01T01:33:57.000Z</time>
      </trkpt>
      <trkpt lat="45.24865" lon="1.56086">
        <ele>218.4</ele>
        <time>1970-01-01T01:34:01.000Z</time>
      </trkpt>
      <trkpt lat="45.24865" lon="1.56081">
        <ele>218.2</ele>
        <time>1970-01-01T01:34:02.000Z</time>
      </trkpt>
      <trkpt lat="45.24865" lon="1.56077">
        <ele>218</ele>
        <time>1970-01-01T01:34:03.000Z</time>
      </trkpt>
      <trkpt lat="45.24866" lon="1.56073">
        <ele>217.8</ele>
        <time>1970-01-01T01:34:04.000Z</time>
      </trkpt>
      <trkpt lat="45.24868" lon="1.56065">
        <ele>217.4</ele>
        <time>1970-01-01T01:34:06.000Z</time>
      </trkpt>
      <trkpt lat="45.24869" lon="1.56059">
        <ele>217</ele>
        <time>1970-01-01T01:34:08.000Z</time>
      </trkpt>
      <trkpt lat="45.24869" lon="1.56056">
        <ele>217</ele>
        <time>1970-01-01T01:34:11.000Z</time>
      </trkpt>
      <trkpt lat="45.24869" lon="1.56053">
        <ele>216.8</ele>
        <time>1970-01-01T01:34:14.000Z</time>
      </trkpt>
      <trkpt lat="45.24867" lon="1.56045">
        <ele>216.8</ele>
        <time>1970-01-01T01:34:19.000Z</time>
      </trkpt>
      <trkpt lat="45.24866" lon="1.56041">
        <ele>216.6</ele>
        <time>1970-01-01T01:34:21.000Z</time>
      </trkpt>
      <trkpt lat="45.24865" lon="1.56041">
        <ele>216.4</ele>
        <time>1970-01-01T01:34:23.000Z</time>
      </trkpt>
      <trkpt lat="45.24865" lon="1.5604">
        <ele>216.4</ele>
        <time>1970-01-01T01:34:24.000Z</time>
      </trkpt>
      <trkpt lat="45.24863" lon="1.56037">
        <ele>216.4</ele>
        <time>1970-01-01T01:34:26.000Z</time>
      </trkpt>
      <trkpt lat="45.24862" lon="1.56034">
        <ele>216.4</ele>
        <time>1970-01-01T01:34:27.000Z</time>
      </trkpt>
      <trkpt lat="45.24858" lon="1.56029">
        <ele>216.2</ele>
        <time>1970-01-01T01:34:30.000Z</time>
      </trkpt>
      <trkpt lat="45.24852" lon="1.5602">
        <ele>215.8</ele>
        <time>1970-01-01T01:34:35.000Z</time>
      </trkpt>
      <trkpt lat="45.24851" lon="1.56018">
        <ele>215.8</ele>
        <time>1970-01-01T01:34:36.000Z</time>
      </trkpt>
      <trkpt lat="45.24843" lon="1.56008">
        <ele>215.4</ele>
        <time>1970-01-01T01:34:41.000Z</time>
      </trkpt>
      <trkpt lat="45.24841" lon="1.56007">
        <ele>215.2</ele>
        <time>1970-01-01T01:34:42.000Z</time>
      </trkpt>
      <trkpt lat="45.24833" lon="1.55995">
        <ele>214.6</ele>
        <time>1970-01-01T01:34:47.000Z</time>
      </trkpt>
      <trkpt lat="45.24828" lon="1.55986">
        <ele>214.4</ele>
        <time>1970-01-01T01:34:51.000Z</time>
      </trkpt>
      <trkpt lat="45.24828" lon="1.55984">
        <ele>214.2</ele>
        <time>1970-01-01T01:34:52.000Z</time>
      </trkpt>
      <trkpt lat="45.24826" lon="1.55972">
        <ele>214.2</ele>
        <time>1970-01-01T01:34:55.000Z</time>
      </trkpt>
      <trkpt lat="45.24825" lon="1.55956">
        <ele>214</ele>
        <time>1970-01-01T01:34:58.000Z</time>
      </trkpt>
      <trkpt lat="45.24826" lon="1.55924">
        <ele>214</ele>
        <time>1970-01-01T01:35:04.000Z</time>
      </trkpt>
      <trkpt lat="45.2483" lon="1.55898">
        <ele>213.2</ele>
        <time>1970-01-01T01:35:11.000Z</time>
      </trkpt>
      <trkpt lat="45.24833" lon="1.55888">
        <ele>212.6</ele>
        <time>1970-01-01T01:35:16.000Z</time>
      </trkpt>
      <trkpt lat="45.24834" lon="1.55884">
        <ele>212.6</ele>
        <time>1970-01-01T01:35:18.000Z</time>
      </trkpt>
      <trkpt lat="45.24833" lon="1.55879">
        <ele>212.8</ele>
        <time>1970-01-01T01:35:21.000Z</time>
      </trkpt>
      <trkpt lat="45.24833" lon="1.55876">
        <ele>213</ele>
        <time>1970-01-01T01:35:22.000Z</time>
      </trkpt>
      <trkpt lat="45.24832" lon="1.55874">
        <ele>213</ele>
        <time>1970-01-01T01:35:23.000Z</time>
      </trkpt>
      <trkpt lat="45.24828" lon="1.55867">
        <ele>213.2</ele>
        <time>1970-01-01T01:35:28.000Z</time>
      </trkpt>
      <trkpt lat="45.24828" lon="1.55866">
        <ele>213</ele>
        <time>1970-01-01T01:35:29.000Z</time>
      </trkpt>
      <trkpt lat="45.24827" lon="1.55861">
        <ele>212.8</ele>
        <time>1970-01-01T01:35:32.000Z</time>
      </trkpt>
      <trkpt lat="45.24828" lon="1.55845">
        <ele>213</ele>
        <time>1970-01-01T01:35:39.000Z</time>
      </trkpt>
      <trkpt lat="45.24824" lon="1.55837">
        <ele>213</ele>
        <time>1970-01-01T01:35:45.000Z</time>
      </trkpt>
      <trkpt lat="45.24824" lon="1.55835">
        <ele>212.8</ele>
        <time>1970-01-01T01:35:46.000Z</time>
      </trkpt>
      <trkpt lat="45.24823" lon="1.55829">
        <ele>212.8</ele>
        <time>1970-01-01T01:35:49.000Z</time>
      </trkpt>
      <trkpt lat="45.24824" lon="1.55822">
        <ele>212.8</ele>
        <time>1970-01-01T01:35:51.000Z</time>
      </trkpt>
      <trkpt lat="45.24825" lon="1.55813">
        <ele>214.4</ele>
        <time>1970-01-01T01:35:56.000Z</time>
      </trkpt>
      <trkpt lat="45.24827" lon="1.5581">
        <ele>217.2</ele>
        <time>1970-01-01T01:35:59.000Z</time>
      </trkpt>
      <trkpt lat="45.24827" lon="1.5581">
        <ele>217.2</ele>
        <time>1970-01-01T01:36:00.000Z</time>
      </trkpt>
      <trkpt lat="45.24827" lon="1.55808">
        <ele>217.2</ele>
        <time>1970-01-01T01:36:05.000Z</time>
      </trkpt>
      <trkpt lat="45.24827" lon="1.55807">
        <ele>217.2</ele>
        <time>1970-01-01T01:36:06.000Z</time>
      </trkpt>
      <trkpt lat="45.2483" lon="1.55805">
        <ele>217.2</ele>
        <time>1970-01-01T01:36:10.000Z</time>
      </trkpt>
      <trkpt lat="45.24831" lon="1.55804">
        <ele>217.2</ele>
        <time>1970-01-01T01:36:11.000Z</time>
      </trkpt>
      <trkpt lat="45.24833" lon="1.558">
        <ele>217.2</ele>
        <time>1970-01-01T01:36:16.000Z</time>
      </trkpt>
      <trkpt lat="45.24834" lon="1.55795">
        <ele>217.2</ele>
        <time>1970-01-01T01:36:19.000Z</time>
      </trkpt>
      <trkpt lat="45.24837" lon="1.5579">
        <ele>217.2</ele>
        <time>1970-01-01T01:36:24.000Z</time>
      </trkpt>
      <trkpt lat="45.24838" lon="1.55788">
        <ele>217.2</ele>
        <time>1970-01-01T01:36:25.000Z</time>
      </trkpt>
      <trkpt lat="45.24839" lon="1.55785">
        <ele>217.2</ele>
        <time>1970-01-01T01:36:30.000Z</time>
      </trkpt>
      <trkpt lat="45.24842" lon="1.55782">
        <ele>217.2</ele>
        <time>1970-01-01T01:36:35.000Z</time>
      </trkpt>
      <trkpt lat="45.24844" lon="1.55778">
        <ele>217.2</ele>
        <time>1970-01-01T01:36:41.000Z</time>
      </trkpt>
      <trkpt lat="45.24846" lon="1.55772">
        <ele>217.2</ele>
        <time>1970-01-01T01:36:49.000Z</time>
      </trkpt>
      <trkpt lat="45.24848" lon="1.55763">
        <ele>217.2</ele>
        <time>1970-01-01T01:36:57.000Z</time>
      </trkpt>
      <trkpt lat="45.24849" lon="1.55759">
        <ele>232.2</ele>
        <time>1970-01-01T01:37:00.000Z</time>
      </trkpt>
      <trkpt lat="45.24851" lon="1.55754">
        <ele>232.2</ele>
        <time>1970-01-01T01:37:03.000Z</time>
      </trkpt>
      <trkpt lat="45.24851" lon="1.55747">
        <ele>232.6</ele>
        <time>1970-01-01T01:37:06.000Z</time>
      </trkpt>
      <trkpt lat="45.24852" lon="1.55743">
        <ele>233.4</ele>
        <time>1970-01-01T01:37:09.000Z</time>
      </trkpt>
      <trkpt lat="45.24851" lon="1.55742">
        <ele>233.8</ele>
        <time>1970-01-01T01:37:10.000Z</time>
      </trkpt>
      <trkpt lat="45.24851" lon="1.5574">
        <ele>234</ele>
        <time>1970-01-01T01:37:11.000Z</time>
      </trkpt>
      <trkpt lat="45.2485" lon="1.55737">
        <ele>234.4</ele>
        <time>1970-01-01T01:37:13.000Z</time>
      </trkpt>
      <trkpt lat="45.24851" lon="1.55736">
        <ele>234.8</ele>
        <time>1970-01-01T01:37:14.000Z</time>
      </trkpt>
      <trkpt lat="45.2485" lon="1.55731">
        <ele>235.4</ele>
        <time>1970-01-01T01:37:17.000Z</time>
      </trkpt>
      <trkpt lat="45.2485" lon="1.55728">
        <ele>235.8</ele>
        <time>1970-01-01T01:37:19.000Z</time>
      </trkpt>
      <trkpt lat="45.24851" lon="1.55728">
        <ele>236</ele>
        <time>1970-01-01T01:37:20.000Z</time>
      </trkpt>
      <trkpt lat="45.24851" lon="1.55724">
        <ele>236.8</ele>
        <time>1970-01-01T01:37:23.000Z</time>
      </trkpt>
      <trkpt lat="45.2485" lon="1.55719">
        <ele>237.8</ele>
        <time>1970-01-01T01:37:27.000Z</time>
      </trkpt>
      <trkpt lat="45.24849" lon="1.55714">
        <ele>238.6</ele>
        <time>1970-01-01T01:37:30.000Z</time>
      </trkpt>
      <trkpt lat="45.24849" lon="1.55713">
        <ele>239</ele>
        <time>1970-01-01T01:37:32.000Z</time>
      </trkpt>
      <trkpt lat="45.24852" lon="1.55714">
        <ele>239.8</ele>
        <time>1970-01-01T01:37:35.000Z</time>
      </trkpt>
      <trkpt lat="45.24853" lon="1.55716">
        <ele>240.2</ele>
        <time>1970-01-01T01:37:37.000Z</time>
      </trkpt>
      <trkpt lat="45.24854" lon="1.5572">
        <ele>240.4</ele>
        <time>1970-01-01T01:37:39.000Z</time>
      </trkpt>
      <trkpt lat="45.24855" lon="1.55722">
        <ele>240.6</ele>
        <time>1970-01-01T01:37:40.000Z</time>
      </trkpt>
      <trkpt lat="45.24856" lon="1.55725">
        <ele>240.6</ele>
        <time>1970-01-01T01:37:43.000Z</time>
      </trkpt>
      <trkpt lat="45.24858" lon="1.55727">
        <ele>240.6</ele>
        <time>1970-01-01T01:37:45.000Z</time>
      </trkpt>
      <trkpt lat="45.24859" lon="1.55729">
        <ele>240.6</ele>
        <time>1970-01-01T01:37:46.000Z</time>
      </trkpt>
      <trkpt lat="45.24867" lon="1.55743">
        <ele>240.4</ele>
        <time>1970-01-01T01:37:52.000Z</time>
      </trkpt>
      <trkpt lat="45.24877" lon="1.55761">
        <ele>240.4</ele>
        <time>1970-01-01T01:37:58.000Z</time>
      </trkpt>
      <trkpt lat="45.24883" lon="1.55775">
        <ele>240.2</ele>
        <time>1970-01-01T01:38:02.000Z</time>
      </trkpt>
      <trkpt lat="45.24883" lon="1.55774">
        <ele>240.6</ele>
        <time>1970-01-01T01:38:05.000Z</time>
      </trkpt>
      <trkpt lat="45.24882" lon="1.55772">
        <ele>241</ele>
        <time>1970-01-01T01:38:06.000Z</time>
      </trkpt>
      <trkpt lat="45.24881" lon="1.55771">
        <ele>241.4</ele>
        <time>1970-01-01T01:38:07.000Z</time>
      </trkpt>
      <trkpt lat="45.24884" lon="1.55767">
        <ele>243</ele>
        <time>1970-01-01T01:38:11.000Z</time>
      </trkpt>
      <trkpt lat="45.24885" lon="1.55762">
        <ele>244</ele>
        <time>1970-01-01T01:38:14.000Z</time>
      </trkpt>
      <trkpt lat="45.24885" lon="1.5576">
        <ele>244.2</ele>
        <time>1970-01-01T01:38:15.000Z</time>
      </trkpt>
      <trkpt lat="45.24884" lon="1.55757">
        <ele>245.4</ele>
        <time>1970-01-01T01:38:18.000Z</time>
      </trkpt>
      <trkpt lat="45.24883" lon="1.55754">
        <ele>246</ele>
        <time>1970-01-01T01:38:21.000Z</time>
      </trkpt>
      <trkpt lat="45.24882" lon="1.55752">
        <ele>246.8</ele>
        <time>1970-01-01T01:38:23.000Z</time>
      </trkpt>
      <trkpt lat="45.24882" lon="1.55751">
        <ele>247.2</ele>
        <time>1970-01-01T01:38:24.000Z</time>
      </trkpt>
      <trkpt lat="45.24882" lon="1.55746">
        <ele>247.6</ele>
        <time>1970-01-01T01:38:27.000Z</time>
      </trkpt>
      <trkpt lat="45.24882" lon="1.55745">
        <ele>248</ele>
        <time>1970-01-01T01:38:28.000Z</time>
      </trkpt>
      <trkpt lat="45.24885" lon="1.55734">
        <ele>249.2</ele>
        <time>1970-01-01T01:38:33.000Z</time>
      </trkpt>
      <trkpt lat="45.24881" lon="1.55731">
        <ele>250</ele>
        <time>1970-01-01T01:38:37.000Z</time>
      </trkpt>
      <trkpt lat="45.2488" lon="1.55731">
        <ele>250.2</ele>
        <time>1970-01-01T01:38:38.000Z</time>
      </trkpt>
      <trkpt lat="45.24879" lon="1.5573">
        <ele>250.4</ele>
        <time>1970-01-01T01:38:39.000Z</time>
      </trkpt>
      <trkpt lat="45.24877" lon="1.55719">
        <ele>251.4</ele>
        <time>1970-01-01T01:38:42.000Z</time>
      </trkpt>
      <trkpt lat="45.24875" lon="1.55712">
        <ele>252.4</ele>
        <time>1970-01-01T01:38:45.000Z</time>
      </trkpt>
      <trkpt lat="45.24874" lon="1.55707">
        <ele>253.2</ele>
        <time>1970-01-01T01:38:48.000Z</time>
      </trkpt>
      <trkpt lat="45.24875" lon="1.55705">
        <ele>253.4</ele>
        <time>1970-01-01T01:38:49.000Z</time>
      </trkpt>
      <trkpt lat="45.24875" lon="1.55703">
        <ele>253.6</ele>
        <time>1970-01-01T01:38:50.000Z</time>
      </trkpt>
      <trkpt lat="45.2488" lon="1.55699">
        <ele>254.6</ele>
        <time>1970-01-01T01:38:53.000Z</time>
      </trkpt>
      <trkpt lat="45.24883" lon="1.55699">
        <ele>255</ele>
        <time>1970-01-01T01:38:54.000Z</time>
      </trkpt>
      <trkpt lat="45.24892" lon="1.55707">
        <ele>256.2</ele>
        <time>1970-01-01T01:38:59.000Z</time>
      </trkpt>
      <trkpt lat="45.24894" lon="1.5571">
        <ele>256.8</ele>
        <time>1970-01-01T01:39:01.000Z</time>
      </trkpt>
      <trkpt lat="45.24897" lon="1.55712">
        <ele>257.4</ele>
        <time>1970-01-01T01:39:04.000Z</time>
      </trkpt>
      <trkpt lat="45.249" lon="1.55713">
        <ele>258.4</ele>
        <time>1970-01-01T01:39:07.000Z</time>
      </trkpt>
      <trkpt lat="45.24902" lon="1.55713">
        <ele>258.6</ele>
        <time>1970-01-01T01:39:08.000Z</time>
      </trkpt>
      <trkpt lat="45.24908" lon="1.55714">
        <ele>259.8</ele>
        <time>1970-01-01T01:39:12.000Z</time>
      </trkpt>
      <trkpt lat="45.24911" lon="1.55716">
        <ele>260.2</ele>
        <time>1970-01-01T01:39:14.000Z</time>
      </trkpt>
      <trkpt lat="45.24912" lon="1.55717">
        <ele>260.6</ele>
        <time>1970-01-01T01:39:15.000Z</time>
      </trkpt>
      <trkpt lat="45.24915" lon="1.55719">
        <ele>261</ele>
        <time>1970-01-01T01:39:17.000Z</time>
      </trkpt>
      <trkpt lat="45.2492" lon="1.55724">
        <ele>261.6</ele>
        <time>1970-01-01T01:39:20.000Z</time>
      </trkpt>
      <trkpt lat="45.24922" lon="1.55727">
        <ele>261.6</ele>
        <time>1970-01-01T01:39:21.000Z</time>
      </trkpt>
      <trkpt lat="45.24924" lon="1.55729">
        <ele>261.6</ele>
        <time>1970-01-01T01:39:22.000Z</time>
      </trkpt>
      <trkpt lat="45.24927" lon="1.55733">
        <ele>261.6</ele>
        <time>1970-01-01T01:39:24.000Z</time>
      </trkpt>
      <trkpt lat="45.24927" lon="1.55736">
        <ele>261.6</ele>
        <time>1970-01-01T01:39:25.000Z</time>
      </trkpt>
      <trkpt lat="45.24929" lon="1.55741">
        <ele>261.6</ele>
        <time>1970-01-01T01:39:27.000Z</time>
      </trkpt>
      <trkpt lat="45.24934" lon="1.55742">
        <ele>261.6</ele>
        <time>1970-01-01T01:39:29.000Z</time>
      </trkpt>
      <trkpt lat="45.24937" lon="1.55743">
        <ele>261.6</ele>
        <time>1970-01-01T01:39:30.000Z</time>
      </trkpt>
      <trkpt lat="45.24942" lon="1.55745">
        <ele>260.6</ele>
        <time>1970-01-01T01:39:35.000Z</time>
      </trkpt>
      <trkpt lat="45.24942" lon="1.55745">
        <ele>260.4</ele>
        <time>1970-01-01T01:39:36.000Z</time>
      </trkpt>
      <trkpt lat="45.24944" lon="1.55746">
        <ele>260.2</ele>
        <time>1970-01-01T01:39:37.000Z</time>
      </trkpt>
      <trkpt lat="45.24949" lon="1.55747">
        <ele>260.2</ele>
        <time>1970-01-01T01:39:40.000Z</time>
      </trkpt>
      <trkpt lat="45.24951" lon="1.55747">
        <ele>259.8</ele>
        <time>1970-01-01T01:39:41.000Z</time>
      </trkpt>
      <trkpt lat="45.24956" lon="1.55747">
        <ele>258.8</ele>
        <time>1970-01-01T01:39:44.000Z</time>
      </trkpt>
      <trkpt lat="45.24962" lon="1.55746">
        <ele>257.6</ele>
        <time>1970-01-01T01:39:47.000Z</time>
      </trkpt>
      <trkpt lat="45.24964" lon="1.55746">
        <ele>257</ele>
        <time>1970-01-01T01:39:48.000Z</time>
      </trkpt>
      <trkpt lat="45.24969" lon="1.55746">
        <ele>256.4</ele>
        <time>1970-01-01T01:39:50.000Z</time>
      </trkpt>
      <trkpt lat="45.24975" lon="1.55747">
        <ele>255.4</ele>
        <time>1970-01-01T01:39:52.000Z</time>
      </trkpt>
      <trkpt lat="45.24977" lon="1.55747">
        <ele>255</ele>
        <time>1970-01-01T01:39:53.000Z</time>
      </trkpt>
      <trkpt lat="45.24985" lon="1.55745">
        <ele>253.8</ele>
        <time>1970-01-01T01:39:56.000Z</time>
      </trkpt>
      <trkpt lat="45.24995" lon="1.55744">
        <ele>252.6</ele>
        <time>1970-01-01T01:39:59.000Z</time>
      </trkpt>
      <trkpt lat="45.25007" lon="1.55739">
        <ele>251.4</ele>
        <time>1970-01-01T01:40:02.000Z</time>
      </trkpt>
      <trkpt lat="45.25009" lon="1.55739">
        <ele>251</ele>
        <time>1970-01-01T01:40:03.000Z</time>
      </trkpt>
      <trkpt lat="45.2501" lon="1.55739">
        <ele>250.6</ele>
        <time>1970-01-01T01:40:04.000Z</time>
      </trkpt>
      <trkpt lat="45.25017" lon="1.5574">
        <ele>250.2</ele>
        <time>1970-01-01T01:40:07.000Z</time>
      </trkpt>
      <trkpt lat="45.2502" lon="1.5574">
        <ele>249.8</ele>
        <time>1970-01-01T01:40:08.000Z</time>
      </trkpt>
      <trkpt lat="45.25032" lon="1.55732">
        <ele>249.2</ele>
        <time>1970-01-01T01:40:13.000Z</time>
      </trkpt>
      <trkpt lat="45.25034" lon="1.5573">
        <ele>249</ele>
        <time>1970-01-01T01:40:14.000Z</time>
      </trkpt>
      <trkpt lat="45.25039" lon="1.55728">
        <ele>248.4</ele>
        <time>1970-01-01T01:40:17.000Z</time>
      </trkpt>
      <trkpt lat="45.25041" lon="1.55728">
        <ele>248.2</ele>
        <time>1970-01-01T01:40:19.000Z</time>
      </trkpt>
      <trkpt lat="45.25044" lon="1.55727">
        <ele>248.2</ele>
        <time>1970-01-01T01:40:22.000Z</time>
      </trkpt>
      <trkpt lat="45.25047" lon="1.55727">
        <ele>248.2</ele>
        <time>1970-01-01T01:40:24.000Z</time>
      </trkpt>
      <trkpt lat="45.25049" lon="1.55728">
        <ele>248.2</ele>
        <time>1970-01-01T01:40:25.000Z</time>
      </trkpt>
      <trkpt lat="45.25057" lon="1.5573">
        <ele>248.6</ele>
        <time>1970-01-01T01:40:29.000Z</time>
      </trkpt>
      <trkpt lat="45.25061" lon="1.55729">
        <ele>248.8</ele>
        <time>1970-01-01T01:40:31.000Z</time>
      </trkpt>
      <trkpt lat="45.25069" lon="1.55725">
        <ele>249.4</ele>
        <time>1970-01-01T01:40:34.000Z</time>
      </trkpt>
      <trkpt lat="45.25079" lon="1.55725">
        <ele>248.8</ele>
        <time>1970-01-01T01:40:39.000Z</time>
      </trkpt>
      <trkpt lat="45.25081" lon="1.55727">
        <ele>248.6</ele>
        <time>1970-01-01T01:40:40.000Z</time>
      </trkpt>
      <trkpt lat="45.25085" lon="1.55729">
        <ele>248.2</ele>
        <time>1970-01-01T01:40:42.000Z</time>
      </trkpt>
      <trkpt lat="45.25086" lon="1.5573">
        <ele>248.2</ele>
        <time>1970-01-01T01:40:43.000Z</time>
      </trkpt>
      <trkpt lat="45.25087" lon="1.55731">
        <ele>248.2</ele>
        <time>1970-01-01T01:40:44.000Z</time>
      </trkpt>
      <trkpt lat="45.2509" lon="1.55732">
        <ele>248.2</ele>
        <time>1970-01-01T01:40:45.000Z</time>
      </trkpt>
      <trkpt lat="45.25096" lon="1.55731">
        <ele>248.4</ele>
        <time>1970-01-01T01:40:48.000Z</time>
      </trkpt>
      <trkpt lat="45.25099" lon="1.5573">
        <ele>248.6</ele>
        <time>1970-01-01T01:40:50.000Z</time>
      </trkpt>
      <trkpt lat="45.25101" lon="1.5573">
        <ele>248.8</ele>
        <time>1970-01-01T01:40:51.000Z</time>
      </trkpt>
      <trkpt lat="45.25106" lon="1.55729">
        <ele>249</ele>
        <time>1970-01-01T01:40:53.000Z</time>
      </trkpt>
      <trkpt lat="45.25114" lon="1.55727">
        <ele>249.4</ele>
        <time>1970-01-01T01:40:56.000Z</time>
      </trkpt>
      <trkpt lat="45.25132" lon="1.55725">
        <ele>250.2</ele>
        <time>1970-01-01T01:41:02.000Z</time>
      </trkpt>
      <trkpt lat="45.25136" lon="1.55725">
        <ele>250.4</ele>
        <time>1970-01-01T01:41:04.000Z</time>
      </trkpt>
      <trkpt lat="45.25138" lon="1.55726">
        <ele>250.4</ele>
        <time>1970-01-01T01:41:05.000Z</time>
      </trkpt>
      <trkpt lat="45.25143" lon="1.55727">
        <ele>250.8</ele>
        <time>1970-01-01T01:41:07.000Z</time>
      </trkpt>
      <trkpt lat="45.25145" lon="1.55727">
        <ele>250.8</ele>
        <time>1970-01-01T01:41:08.000Z</time>
      </trkpt>
      <trkpt lat="45.2515" lon="1.55727">
        <ele>250.8</ele>
        <time>1970-01-01T01:41:11.000Z</time>
      </trkpt>
      <trkpt lat="45.25151" lon="1.55726">
        <ele>251</ele>
        <time>1970-01-01T01:41:12.000Z</time>
      </trkpt>
      <trkpt lat="45.25158" lon="1.55724">
        <ele>251.4</ele>
        <time>1970-01-01T01:41:16.000Z</time>
      </trkpt>
      <trkpt lat="45.2516" lon="1.55722">
        <ele>251.6</ele>
        <time>1970-01-01T01:41:17.000Z</time>
      </trkpt>
      <trkpt lat="45.25172" lon="1.55712">
        <ele>252.4</ele>
        <time>1970-01-01T01:41:21.000Z</time>
      </trkpt>
      <trkpt lat="45.25175" lon="1.55709">
        <ele>252.8</ele>
        <time>1970-01-01T01:41:22.000Z</time>
      </trkpt>
      <trkpt lat="45.25188" lon="1.55704">
        <ele>254</ele>
        <time>1970-01-01T01:41:27.000Z</time>
      </trkpt>
      <trkpt lat="45.25189" lon="1.55703">
        <ele>254.4</ele>
        <time>1970-01-01T01:41:28.000Z</time>
      </trkpt>
      <trkpt lat="45.25192" lon="1.55702">
        <ele>254.8</ele>
        <time>1970-01-01T01:41:30.000Z</time>
      </trkpt>
      <trkpt lat="45.25194" lon="1.55701">
        <ele>255</ele>
        <time>1970-01-01T01:41:31.000Z</time>
      </trkpt>
      <trkpt lat="45.25199" lon="1.55701">
        <ele>255.4</ele>
        <time>1970-01-01T01:41:33.000Z</time>
      </trkpt>
      <trkpt lat="45.25207" lon="1.55701">
        <ele>255.6</ele>
        <time>1970-01-01T01:41:36.000Z</time>
      </trkpt>
      <trkpt lat="45.25209" lon="1.55705">
        <ele>255.6</ele>
        <time>1970-01-01T01:41:38.000Z</time>
      </trkpt>
      <trkpt lat="45.25214" lon="1.55716">
        <ele>255.6</ele>
        <time>1970-01-01T01:41:42.000Z</time>
      </trkpt>
      <trkpt lat="45.25218" lon="1.55719">
        <ele>256</ele>
        <time>1970-01-01T01:41:45.000Z</time>
      </trkpt>
      <trkpt lat="45.25223" lon="1.55723">
        <ele>256.8</ele>
        <time>1970-01-01T01:41:48.000Z</time>
      </trkpt>
      <trkpt lat="45.25225" lon="1.55726">
        <ele>257.2</ele>
        <time>1970-01-01T01:41:50.000Z</time>
      </trkpt>
      <trkpt lat="45.25227" lon="1.55727">
        <ele>257.8</ele>
        <time>1970-01-01T01:41:51.000Z</time>
      </trkpt>
      <trkpt lat="45.2523" lon="1.55728">
        <ele>258.4</ele>
        <time>1970-01-01T01:41:53.000Z</time>
      </trkpt>
      <trkpt lat="45.25234" lon="1.5573">
        <ele>259</ele>
        <time>1970-01-01T01:41:55.000Z</time>
      </trkpt>
      <trkpt lat="45.25238" lon="1.55734">
        <ele>259.6</ele>
        <time>1970-01-01T01:41:57.000Z</time>
      </trkpt>
      <trkpt lat="45.25245" lon="1.55739">
        <ele>260.6</ele>
        <time>1970-01-01T01:42:01.000Z</time>
      </trkpt>
      <trkpt lat="45.25247" lon="1.55741">
        <ele>261</ele>
        <time>1970-01-01T01:42:02.000Z</time>
      </trkpt>
      <trkpt lat="45.25249" lon="1.55744">
        <ele>261.8</ele>
        <time>1970-01-01T01:42:05.000Z</time>
      </trkpt>
      <trkpt lat="45.25251" lon="1.55744">
        <ele>262</ele>
        <time>1970-01-01T01:42:06.000Z</time>
      </trkpt>
      <trkpt lat="45.25257" lon="1.55745">
        <ele>262.8</ele>
        <time>1970-01-01T01:42:09.000Z</time>
      </trkpt>
      <trkpt lat="45.25259" lon="1.55745">
        <ele>263.4</ele>
        <time>1970-01-01T01:42:11.000Z</time>
      </trkpt>
      <trkpt lat="45.25263" lon="1.55747">
        <ele>263.8</ele>
        <time>1970-01-01T01:42:14.000Z</time>
      </trkpt>
      <trkpt lat="45.25265" lon="1.55747">
        <ele>264.2</ele>
        <time>1970-01-01T01:42:15.000Z</time>
      </trkpt>
      <trkpt lat="45.25266" lon="1.55748">
        <ele>264.4</ele>
        <time>1970-01-01T01:42:16.000Z</time>
      </trkpt>
      <trkpt lat="45.25272" lon="1.55754">
        <ele>265</ele>
        <time>1970-01-01T01:42:19.000Z</time>
      </trkpt>
      <trkpt lat="45.25275" lon="1.55757">
        <ele>265.2</ele>
        <time>1970-01-01T01:42:21.000Z</time>
      </trkpt>
      <trkpt lat="45.25278" lon="1.55763">
        <ele>265.6</ele>
        <time>1970-01-01T01:42:24.000Z</time>
      </trkpt>
      <trkpt lat="45.25278" lon="1.55765">
        <ele>265.6</ele>
        <time>1970-01-01T01:42:25.000Z</time>
      </trkpt>
      <trkpt lat="45.25279" lon="1.55768">
        <ele>266</ele>
        <time>1970-01-01T01:42:27.000Z</time>
      </trkpt>
      <trkpt lat="45.25284" lon="1.55772">
        <ele>266.4</ele>
        <time>1970-01-01T01:42:30.000Z</time>
      </trkpt>
      <trkpt lat="45.25285" lon="1.55773">
        <ele>266.6</ele>
        <time>1970-01-01T01:42:31.000Z</time>
      </trkpt>
      <trkpt lat="45.25287" lon="1.55774">
        <ele>266.8</ele>
        <time>1970-01-01T01:42:33.000Z</time>
      </trkpt>
      <trkpt lat="45.2529" lon="1.55774">
        <ele>267</ele>
        <time>1970-01-01T01:42:35.000Z</time>
      </trkpt>
      <trkpt lat="45.25295" lon="1.55773">
        <ele>267.6</ele>
        <time>1970-01-01T01:42:38.000Z</time>
      </trkpt>
      <trkpt lat="45.25298" lon="1.55771">
        <ele>268.2</ele>
        <time>1970-01-01T01:42:40.000Z</time>
      </trkpt>
      <trkpt lat="45.25304" lon="1.55771">
        <ele>269.2</ele>
        <time>1970-01-01T01:42:44.000Z</time>
      </trkpt>
      <trkpt lat="45.25307" lon="1.5577">
        <ele>269.4</ele>
        <time>1970-01-01T01:42:45.000Z</time>
      </trkpt>
      <trkpt lat="45.25309" lon="1.55769">
        <ele>269.8</ele>
        <time>1970-01-01T01:42:46.000Z</time>
      </trkpt>
      <trkpt lat="45.25315" lon="1.55764">
        <ele>270.4</ele>
        <time>1970-01-01T01:42:49.000Z</time>
      </trkpt>
      <trkpt lat="45.25316" lon="1.55762">
        <ele>270.8</ele>
        <time>1970-01-01T01:42:50.000Z</time>
      </trkpt>
      <trkpt lat="45.25316" lon="1.55761">
        <ele>271.2</ele>
        <time>1970-01-01T01:42:51.000Z</time>
      </trkpt>
      <trkpt lat="45.25316" lon="1.5576">
        <ele>271.8</ele>
        <time>1970-01-01T01:42:53.000Z</time>
      </trkpt>
      <trkpt lat="45.25316" lon="1.55759">
        <ele>272.2</ele>
        <time>1970-01-01T01:42:54.000Z</time>
      </trkpt>
      <trkpt lat="45.25316" lon="1.55752">
        <ele>273.2</ele>
        <time>1970-01-01T01:42:59.000Z</time>
      </trkpt>
      <trkpt lat="45.25315" lon="1.55745">
        <ele>274.2</ele>
        <time>1970-01-01T01:43:03.000Z</time>
      </trkpt>
      <trkpt lat="45.25314" lon="1.55743">
        <ele>274.6</ele>
        <time>1970-01-01T01:43:05.000Z</time>
      </trkpt>
      <trkpt lat="45.25312" lon="1.55741">
        <ele>275.2</ele>
        <time>1970-01-01T01:43:07.000Z</time>
      </trkpt>
      <trkpt lat="45.25308" lon="1.55738">
        <ele>276.4</ele>
        <time>1970-01-01T01:43:12.000Z</time>
      </trkpt>
      <trkpt lat="45.25307" lon="1.55739">
        <ele>276.6</ele>
        <time>1970-01-01T01:43:13.000Z</time>
      </trkpt>
      <trkpt lat="45.25305" lon="1.55739">
        <ele>277</ele>
        <time>1970-01-01T01:43:14.000Z</time>
      </trkpt>
      <trkpt lat="45.25303" lon="1.55737">
        <ele>277.4</ele>
        <time>1970-01-01T01:43:16.000Z</time>
      </trkpt>
      <trkpt lat="45.253" lon="1.55736">
        <ele>278.4</ele>
        <time>1970-01-01T01:43:19.000Z</time>
      </trkpt>
      <trkpt lat="45.25297" lon="1.55736">
        <ele>279.6</ele>
        <time>1970-01-01T01:43:22.000Z</time>
      </trkpt>
      <trkpt lat="45.25295" lon="1.55734">
        <ele>280.4</ele>
        <time>1970-01-01T01:43:25.000Z</time>
      </trkpt>
      <trkpt lat="45.25294" lon="1.55733">
        <ele>280.8</ele>
        <time>1970-01-01T01:43:26.000Z</time>
      </trkpt>
      <trkpt lat="45.25291" lon="1.55727">
        <ele>281.8</ele>
        <time>1970-01-01T01:43:31.000Z</time>
      </trkpt>
      <trkpt lat="45.25289" lon="1.55723">
        <ele>282.4</ele>
        <time>1970-01-01T01:43:33.000Z</time>
      </trkpt>
      <trkpt lat="45.25289" lon="1.55716">
        <ele>283</ele>
        <time>1970-01-01T01:43:36.000Z</time>
      </trkpt>
      <trkpt lat="45.25289" lon="1.55709">
        <ele>283.6</ele>
        <time>1970-01-01T01:43:38.000Z</time>
      </trkpt>
      <trkpt lat="45.25289" lon="1.55706">
        <ele>283.8</ele>
        <time>1970-01-01T01:43:39.000Z</time>
      </trkpt>
      <trkpt lat="45.2529" lon="1.55703">
        <ele>284</ele>
        <time>1970-01-01T01:43:40.000Z</time>
      </trkpt>
      <trkpt lat="45.2529" lon="1.55701">
        <ele>284.2</ele>
        <time>1970-01-01T01:43:41.000Z</time>
      </trkpt>
      <trkpt lat="45.25294" lon="1.55696">
        <ele>284.4</ele>
        <time>1970-01-01T01:43:44.000Z</time>
      </trkpt>
      <trkpt lat="45.25297" lon="1.55696">
        <ele>284.4</ele>
        <time>1970-01-01T01:43:46.000Z</time>
      </trkpt>
      <trkpt lat="45.253" lon="1.55695">
        <ele>284.8</ele>
        <time>1970-01-01T01:43:48.000Z</time>
      </trkpt>
      <trkpt lat="45.25302" lon="1.55695">
        <ele>285</ele>
        <time>1970-01-01T01:43:49.000Z</time>
      </trkpt>
      <trkpt lat="45.25306" lon="1.55694">
        <ele>285.6</ele>
        <time>1970-01-01T01:43:51.000Z</time>
      </trkpt>
      <trkpt lat="45.25309" lon="1.55694">
        <ele>286.2</ele>
        <time>1970-01-01T01:43:53.000Z</time>
      </trkpt>
      <trkpt lat="45.2531" lon="1.55694">
        <ele>286.4</ele>
        <time>1970-01-01T01:43:54.000Z</time>
      </trkpt>
      <trkpt lat="45.25315" lon="1.55693">
        <ele>287.2</ele>
        <time>1970-01-01T01:43:57.000Z</time>
      </trkpt>
      <trkpt lat="45.2532" lon="1.55692">
        <ele>287.6</ele>
        <time>1970-01-01T01:43:59.000Z</time>
      </trkpt>
      <trkpt lat="45.25323" lon="1.55688">
        <ele>288.6</ele>
        <time>1970-01-01T01:44:01.000Z</time>
      </trkpt>
      <trkpt lat="45.25329" lon="1.55683">
        <ele>289.4</ele>
        <time>1970-01-01T01:44:05.000Z</time>
      </trkpt>
      <trkpt lat="45.2533" lon="1.55683">
        <ele>289.6</ele>
        <time>1970-01-01T01:44:06.000Z</time>
      </trkpt>
      <trkpt lat="45.25337" lon="1.5568">
        <ele>289.8</ele>
        <time>1970-01-01T01:44:09.000Z</time>
      </trkpt>
      <trkpt lat="45.2534" lon="1.5568">
        <ele>289.8</ele>
        <time>1970-01-01T01:44:10.000Z</time>
      </trkpt>
      <trkpt lat="45.25342" lon="1.5568">
        <ele>290</ele>
        <time>1970-01-01T01:44:11.000Z</time>
      </trkpt>
      <trkpt lat="45.25346" lon="1.55675">
        <ele>290.4</ele>
        <time>1970-01-01T01:44:14.000Z</time>
      </trkpt>
      <trkpt lat="45.25347" lon="1.55674">
        <ele>290.6</ele>
        <time>1970-01-01T01:44:15.000Z</time>
      </trkpt>
      <trkpt lat="45.25353" lon="1.5567">
        <ele>291.8</ele>
        <time>1970-01-01T01:44:19.000Z</time>
      </trkpt>
      <trkpt lat="45.25354" lon="1.55669">
        <ele>291.8</ele>
        <time>1970-01-01T01:44:20.000Z</time>
      </trkpt>
      <trkpt lat="45.25356" lon="1.55666">
        <ele>292</ele>
        <time>1970-01-01T01:44:22.000Z</time>
      </trkpt>
      <trkpt lat="45.25359" lon="1.55661">
        <ele>292.8</ele>
        <time>1970-01-01T01:44:25.000Z</time>
      </trkpt>
      <trkpt lat="45.25361" lon="1.55659">
        <ele>293</ele>
        <time>1970-01-01T01:44:26.000Z</time>
      </trkpt>
      <trkpt lat="45.25365" lon="1.55654">
        <ele>293.8</ele>
        <time>1970-01-01T01:44:31.000Z</time>
      </trkpt>
      <trkpt lat="45.25367" lon="1.5565">
        <ele>294.2</ele>
        <time>1970-01-01T01:44:34.000Z</time>
      </trkpt>
      <trkpt lat="45.25369" lon="1.55647">
        <ele>294.4</ele>
        <time>1970-01-01T01:44:36.000Z</time>
      </trkpt>
      <trkpt lat="45.25371" lon="1.55646">
        <ele>294.6</ele>
        <time>1970-01-01T01:44:38.000Z</time>
      </trkpt>
      <trkpt lat="45.25373" lon="1.55642">
        <ele>294.8</ele>
        <time>1970-01-01T01:44:41.000Z</time>
      </trkpt>
      <trkpt lat="45.25379" lon="1.55638">
        <ele>295.2</ele>
        <time>1970-01-01T01:44:46.000Z</time>
      </trkpt>
      <trkpt lat="45.25381" lon="1.55636">
        <ele>295.4</ele>
        <time>1970-01-01T01:44:48.000Z</time>
      </trkpt>
      <trkpt lat="45.25385" lon="1.55632">
        <ele>295.8</ele>
        <time>1970-01-01T01:44:51.000Z</time>
      </trkpt>
      <trkpt lat="45.25388" lon="1.55629">
        <ele>296.4</ele>
        <time>1970-01-01T01:44:55.000Z</time>
      </trkpt>
      <trkpt lat="45.2539" lon="1.55628">
        <ele>297</ele>
        <time>1970-01-01T01:44:57.000Z</time>
      </trkpt>
      <trkpt lat="45.25392" lon="1.55628">
        <ele>297.2</ele>
        <time>1970-01-01T01:45:00.000Z</time>
      </trkpt>
      <trkpt lat="45.25393" lon="1.55626">
        <ele>297.6</ele>
        <time>1970-01-01T01:45:02.000Z</time>
      </trkpt>
      <trkpt lat="45.25396" lon="1.55624">
        <ele>298</ele>
        <time>1970-01-01T01:45:05.000Z</time>
      </trkpt>
      <trkpt lat="45.25403" lon="1.55617">
        <ele>298.8</ele>
        <time>1970-01-01T01:45:11.000Z</time>
      </trkpt>
      <trkpt lat="45.25406" lon="1.55615">
        <ele>299.4</ele>
        <time>1970-01-01T01:45:14.000Z</time>
      </trkpt>
      <trkpt lat="45.25409" lon="1.55614">
        <ele>300.4</ele>
        <time>1970-01-01T01:45:17.000Z</time>
      </trkpt>
      <trkpt lat="45.25409" lon="1.55613">
        <ele>300.6</ele>
        <time>1970-01-01T01:45:18.000Z</time>
      </trkpt>
      <trkpt lat="45.25411" lon="1.55612">
        <ele>301.2</ele>
        <time>1970-01-01T01:45:20.000Z</time>
      </trkpt>
      <trkpt lat="45.25414" lon="1.55607">
        <ele>301.8</ele>
        <time>1970-01-01T01:45:23.000Z</time>
      </trkpt>
      <trkpt lat="45.25416" lon="1.55606">
        <ele>301.8</ele>
        <time>1970-01-01T01:45:24.000Z</time>
      </trkpt>
      <trkpt lat="45.25417" lon="1.55605">
        <ele>302</ele>
        <time>1970-01-01T01:45:25.000Z</time>
      </trkpt>
      <trkpt lat="45.25421" lon="1.55601">
        <ele>303</ele>
        <time>1970-01-01T01:45:29.000Z</time>
      </trkpt>
      <trkpt lat="45.25422" lon="1.55599">
        <ele>303.4</ele>
        <time>1970-01-01T01:45:30.000Z</time>
      </trkpt>
      <trkpt lat="45.25423" lon="1.55593">
        <ele>304.4</ele>
        <time>1970-01-01T01:45:34.000Z</time>
      </trkpt>
      <trkpt lat="45.25422" lon="1.5559">
        <ele>304.8</ele>
        <time>1970-01-01T01:45:36.000Z</time>
      </trkpt>
      <trkpt lat="45.25421" lon="1.5559">
        <ele>304.8</ele>
        <time>1970-01-01T01:45:37.000Z</time>
      </trkpt>
      <trkpt lat="45.25421" lon="1.5559">
        <ele>305.2</ele>
        <time>1970-01-01T01:45:38.000Z</time>
      </trkpt>
      <trkpt lat="45.2542" lon="1.55591">
        <ele>305.8</ele>
        <time>1970-01-01T01:45:39.000Z</time>
      </trkpt>
      <trkpt lat="45.25419" lon="1.55593">
        <ele>306.2</ele>
        <time>1970-01-01T01:45:40.000Z</time>
      </trkpt>
      <trkpt lat="45.25416" lon="1.55595">
        <ele>306.8</ele>
        <time>1970-01-01T01:45:43.000Z</time>
      </trkpt>
      <trkpt lat="45.25414" lon="1.55596">
        <ele>307</ele>
        <time>1970-01-01T01:45:44.000Z</time>
      </trkpt>
      <trkpt lat="45.25405" lon="1.55599">
        <ele>307.4</ele>
        <time>1970-01-01T01:45:49.000Z</time>
      </trkpt>
      <trkpt lat="45.25396" lon="1.55599">
        <ele>308</ele>
        <time>1970-01-01T01:45:54.000Z</time>
      </trkpt>
      <trkpt lat="45.25394" lon="1.55598">
        <ele>308</ele>
        <time>1970-01-01T01:45:55.000Z</time>
      </trkpt>
      <trkpt lat="45.25383" lon="1.55596">
        <ele>308.8</ele>
        <time>1970-01-01T01:46:02.000Z</time>
      </trkpt>
      <trkpt lat="45.25381" lon="1.55594">
        <ele>309</ele>
        <time>1970-01-01T01:46:04.000Z</time>
      </trkpt>
      <trkpt lat="45.25373" lon="1.55589">
        <ele>310</ele>
        <time>1970-01-01T01:46:09.000Z</time>
      </trkpt>
      <trkpt lat="45.25371" lon="1.55588">
        <ele>310.4</ele>
        <time>1970-01-01T01:46:10.000Z</time>
      </trkpt>
      <trkpt lat="45.25365" lon="1.55583">
        <ele>311.4</ele>
        <time>1970-01-01T01:46:15.000Z</time>
      </trkpt>
      <trkpt lat="45.25354" lon="1.55577">
        <ele>312.6</ele>
        <time>1970-01-01T01:46:21.000Z</time>
      </trkpt>
      <trkpt lat="45.2534" lon="1.55571">
        <ele>313.6</ele>
        <time>1970-01-01T01:46:28.000Z</time>
      </trkpt>
      <trkpt lat="45.25338" lon="1.5557">
        <ele>313.8</ele>
        <time>1970-01-01T01:46:29.000Z</time>
      </trkpt>
      <trkpt lat="45.2533" lon="1.55562">
        <ele>314.2</ele>
        <time>1970-01-01T01:46:33.000Z</time>
      </trkpt>
      <trkpt lat="45.25328" lon="1.55559">
        <ele>314.4</ele>
        <time>1970-01-01T01:46:35.000Z</time>
      </trkpt>
      <trkpt lat="45.25323" lon="1.55553">
        <ele>314.6</ele>
        <time>1970-01-01T01:46:38.000Z</time>
      </trkpt>
      <trkpt lat="45.25317" lon="1.55544">
        <ele>315.2</ele>
        <time>1970-01-01T01:46:42.000Z</time>
      </trkpt>
      <trkpt lat="45.25315" lon="1.55539">
        <ele>315.6</ele>
        <time>1970-01-01T01:46:44.000Z</time>
      </trkpt>
      <trkpt lat="45.25309" lon="1.55531">
        <ele>316.6</ele>
        <time>1970-01-01T01:46:49.000Z</time>
      </trkpt>
      <trkpt lat="45.25307" lon="1.5553">
        <ele>317</ele>
        <time>1970-01-01T01:46:50.000Z</time>
      </trkpt>
      <trkpt lat="45.25297" lon="1.55524">
        <ele>318.2</ele>
        <time>1970-01-01T01:46:56.000Z</time>
      </trkpt>
      <trkpt lat="45.25292" lon="1.55522">
        <ele>318.8</ele>
        <time>1970-01-01T01:46:59.000Z</time>
      </trkpt>
      <trkpt lat="45.25288" lon="1.55519">
        <ele>319.2</ele>
        <time>1970-01-01T01:47:02.000Z</time>
      </trkpt>
      <trkpt lat="45.25282" lon="1.55518">
        <ele>320.2</ele>
        <time>1970-01-01T01:47:05.000Z</time>
      </trkpt>
      <trkpt lat="45.2528" lon="1.55517">
        <ele>320.4</ele>
        <time>1970-01-01T01:47:06.000Z</time>
      </trkpt>
      <trkpt lat="45.25271" lon="1.55514">
        <ele>321.4</ele>
        <time>1970-01-01T01:47:11.000Z</time>
      </trkpt>
      <trkpt lat="45.25265" lon="1.55513">
        <ele>322</ele>
        <time>1970-01-01T01:47:14.000Z</time>
      </trkpt>
      <trkpt lat="45.25261" lon="1.55513">
        <ele>322.4</ele>
        <time>1970-01-01T01:47:16.000Z</time>
      </trkpt>
      <trkpt lat="45.25254" lon="1.55511">
        <ele>323.2</ele>
        <time>1970-01-01T01:47:20.000Z</time>
      </trkpt>
      <trkpt lat="45.25244" lon="1.55511">
        <ele>323.4</ele>
        <time>1970-01-01T01:47:26.000Z</time>
      </trkpt>
      <trkpt lat="45.25242" lon="1.5551">
        <ele>323.6</ele>
        <time>1970-01-01T01:47:27.000Z</time>
      </trkpt>
      <trkpt lat="45.25237" lon="1.55507">
        <ele>325</ele>
        <time>1970-01-01T01:47:31.000Z</time>
      </trkpt>
      <trkpt lat="45.25233" lon="1.555">
        <ele>325.8</ele>
        <time>1970-01-01T01:47:34.000Z</time>
      </trkpt>
      <trkpt lat="45.25231" lon="1.55496">
        <ele>326</ele>
        <time>1970-01-01T01:47:36.000Z</time>
      </trkpt>
      <trkpt lat="45.2523" lon="1.55495">
        <ele>326.2</ele>
        <time>1970-01-01T01:47:37.000Z</time>
      </trkpt>
      <trkpt lat="45.25225" lon="1.55491">
        <ele>326.4</ele>
        <time>1970-01-01T01:47:42.000Z</time>
      </trkpt>
      <trkpt lat="45.25214" lon="1.55486">
        <ele>327</ele>
        <time>1970-01-01T01:47:50.000Z</time>
      </trkpt>
      <trkpt lat="45.25207" lon="1.55478">
        <ele>326.8</ele>
        <time>1970-01-01T01:47:58.000Z</time>
      </trkpt>
      <trkpt lat="45.25202" lon="1.55474">
        <ele>326</ele>
        <time>1970-01-01T01:48:02.000Z</time>
      </trkpt>
      <trkpt lat="45.252" lon="1.55472">
        <ele>325.8</ele>
        <time>1970-01-01T01:48:04.000Z</time>
      </trkpt>
      <trkpt lat="45.25198" lon="1.5547">
        <ele>325.8</ele>
        <time>1970-01-01T01:48:06.000Z</time>
      </trkpt>
      <trkpt lat="45.25196" lon="1.55469">
        <ele>325.6</ele>
        <time>1970-01-01T01:48:08.000Z</time>
      </trkpt>
      <trkpt lat="45.25194" lon="1.55467">
        <ele>325</ele>
        <time>1970-01-01T01:48:10.000Z</time>
      </trkpt>
      <trkpt lat="45.2519" lon="1.55464">
        <ele>324.8</ele>
        <time>1970-01-01T01:48:13.000Z</time>
      </trkpt>
      <trkpt lat="45.25184" lon="1.55459">
        <ele>324.4</ele>
        <time>1970-01-01T01:48:16.000Z</time>
      </trkpt>
      <trkpt lat="45.25181" lon="1.55457">
        <ele>324.2</ele>
        <time>1970-01-01T01:48:17.000Z</time>
      </trkpt>
      <trkpt lat="45.25178" lon="1.55456">
        <ele>323.8</ele>
        <time>1970-01-01T01:48:18.000Z</time>
      </trkpt>
      <trkpt lat="45.25168" lon="1.55448">
        <ele>322.6</ele>
        <time>1970-01-01T01:48:22.000Z</time>
      </trkpt>
      <trkpt lat="45.25165" lon="1.55447">
        <ele>322.4</ele>
        <time>1970-01-01T01:48:23.000Z</time>
      </trkpt>
      <trkpt lat="45.2516" lon="1.55444">
        <ele>321.6</ele>
        <time>1970-01-01T01:48:25.000Z</time>
      </trkpt>
      <trkpt lat="45.25154" lon="1.55443">
        <ele>320.4</ele>
        <time>1970-01-01T01:48:27.000Z</time>
      </trkpt>
      <trkpt lat="45.25151" lon="1.55443">
        <ele>320</ele>
        <time>1970-01-01T01:48:28.000Z</time>
      </trkpt>
      <trkpt lat="45.25145" lon="1.55443">
        <ele>319.2</ele>
        <time>1970-01-01T01:48:30.000Z</time>
      </trkpt>
      <trkpt lat="45.25135" lon="1.55444">
        <ele>317.8</ele>
        <time>1970-01-01T01:48:33.000Z</time>
      </trkpt>
      <trkpt lat="45.25131" lon="1.55445">
        <ele>317.4</ele>
        <time>1970-01-01T01:48:34.000Z</time>
      </trkpt>
      <trkpt lat="45.25124" lon="1.55447">
        <ele>316.6</ele>
        <time>1970-01-01T01:48:36.000Z</time>
      </trkpt>
      <trkpt lat="45.25118" lon="1.55449">
        <ele>315.4</ele>
        <time>1970-01-01T01:48:38.000Z</time>
      </trkpt>
      <trkpt lat="45.25111" lon="1.55455">
        <ele>314.4</ele>
        <time>1970-01-01T01:48:41.000Z</time>
      </trkpt>
      <trkpt lat="45.25104" lon="1.55469">
        <ele>313</ele>
        <time>1970-01-01T01:48:45.000Z</time>
      </trkpt>
      <trkpt lat="45.25102" lon="1.55473">
        <ele>312.8</ele>
        <time>1970-01-01T01:48:46.000Z</time>
      </trkpt>
      <trkpt lat="45.25099" lon="1.5548">
        <ele>312</ele>
        <time>1970-01-01T01:48:48.000Z</time>
      </trkpt>
      <trkpt lat="45.25096" lon="1.55487">
        <ele>311</ele>
        <time>1970-01-01T01:48:50.000Z</time>
      </trkpt>
      <trkpt lat="45.25092" lon="1.55494">
        <ele>310</ele>
        <time>1970-01-01T01:48:52.000Z</time>
      </trkpt>
      <trkpt lat="45.25088" lon="1.55501">
        <ele>308.8</ele>
        <time>1970-01-01T01:48:54.000Z</time>
      </trkpt>
      <trkpt lat="45.25084" lon="1.55508">
        <ele>307.8</ele>
        <time>1970-01-01T01:48:56.000Z</time>
      </trkpt>
      <trkpt lat="45.25079" lon="1.55515">
        <ele>306.4</ele>
        <time>1970-01-01T01:48:58.000Z</time>
      </trkpt>
      <trkpt lat="45.25072" lon="1.55525">
        <ele>305.2</ele>
        <time>1970-01-01T01:49:01.000Z</time>
      </trkpt>
      <trkpt lat="45.25062" lon="1.55539">
        <ele>303.8</ele>
        <time>1970-01-01T01:49:05.000Z</time>
      </trkpt>
      <trkpt lat="45.25057" lon="1.55545">
        <ele>303.4</ele>
        <time>1970-01-01T01:49:07.000Z</time>
      </trkpt>
      <trkpt lat="45.25049" lon="1.55551">
        <ele>302.6</ele>
        <time>1970-01-01T01:49:10.000Z</time>
      </trkpt>
      <trkpt lat="45.25037" lon="1.55558">
        <ele>302</ele>
        <time>1970-01-01T01:49:14.000Z</time>
      </trkpt>
      <trkpt lat="45.25027" lon="1.55559">
        <ele>301.6</ele>
        <time>1970-01-01T01:49:17.000Z</time>
      </trkpt>
      <trkpt lat="45.25014" lon="1.55559">
        <ele>300.6</ele>
        <time>1970-01-01T01:49:21.000Z</time>
      </trkpt>
      <trkpt lat="45.24997" lon="1.55556">
        <ele>299.4</ele>
        <time>1970-01-01T01:49:26.000Z</time>
      </trkpt>
      <trkpt lat="45.24994" lon="1.55555">
        <ele>299</ele>
        <time>1970-01-01T01:49:27.000Z</time>
      </trkpt>
      <trkpt lat="45.24984" lon="1.55555">
        <ele>298.4</ele>
        <time>1970-01-01T01:49:30.000Z</time>
      </trkpt>
      <trkpt lat="45.24981" lon="1.55555">
        <ele>298.2</ele>
        <time>1970-01-01T01:49:31.000Z</time>
      </trkpt>
      <trkpt lat="45.24968" lon="1.55554">
        <ele>297</ele>
        <time>1970-01-01T01:49:35.000Z</time>
      </trkpt>
      <trkpt lat="45.24962" lon="1.55554">
        <ele>296.4</ele>
        <time>1970-01-01T01:49:37.000Z</time>
      </trkpt>
      <trkpt lat="45.24955" lon="1.55554">
        <ele>295.8</ele>
        <time>1970-01-01T01:49:39.000Z</time>
      </trkpt>
      <trkpt lat="45.24946" lon="1.5555">
        <ele>294.6</ele>
        <time>1970-01-01T01:49:42.000Z</time>
      </trkpt>
      <trkpt lat="45.24943" lon="1.55548">
        <ele>293.8</ele>
        <time>1970-01-01T01:49:43.000Z</time>
      </trkpt>
      <trkpt lat="45.2494" lon="1.55546">
        <ele>293.4</ele>
        <time>1970-01-01T01:49:44.000Z</time>
      </trkpt>
      <trkpt lat="45.2493" lon="1.55538">
        <ele>292.4</ele>
        <time>1970-01-01T01:49:48.000Z</time>
      </trkpt>
      <trkpt lat="45.24928" lon="1.55535">
        <ele>292.2</ele>
        <time>1970-01-01T01:49:49.000Z</time>
      </trkpt>
      <trkpt lat="45.24925" lon="1.55528">
        <ele>291.2</ele>
        <time>1970-01-01T01:49:51.000Z</time>
      </trkpt>
      <trkpt lat="45.24924" lon="1.5552">
        <ele>289.6</ele>
        <time>1970-01-01T01:49:53.000Z</time>
      </trkpt>
      <trkpt lat="45.24923" lon="1.55514">
        <ele>288.8</ele>
        <time>1970-01-01T01:49:55.000Z</time>
      </trkpt>
      <trkpt lat="45.24922" lon="1.5551">
        <ele>288.4</ele>
        <time>1970-01-01T01:49:56.000Z</time>
      </trkpt>
      <trkpt lat="45.2492" lon="1.55502">
        <ele>287.4</ele>
        <time>1970-01-01T01:49:58.000Z</time>
      </trkpt>
      <trkpt lat="45.24917" lon="1.5549">
        <ele>286.2</ele>
        <time>1970-01-01T01:50:01.000Z</time>
      </trkpt>
      <trkpt lat="45.24913" lon="1.55485">
        <ele>285.4</ele>
        <time>1970-01-01T01:50:03.000Z</time>
      </trkpt>
      <trkpt lat="45.2491" lon="1.55484">
        <ele>284.8</ele>
        <time>1970-01-01T01:50:04.000Z</time>
      </trkpt>
      <trkpt lat="45.24903" lon="1.55483">
        <ele>283.8</ele>
        <time>1970-01-01T01:50:07.000Z</time>
      </trkpt>
      <trkpt lat="45.24898" lon="1.55481">
        <ele>282.6</ele>
        <time>1970-01-01T01:50:09.000Z</time>
      </trkpt>
      <trkpt lat="45.24896" lon="1.5548">
        <ele>282</ele>
        <time>1970-01-01T01:50:10.000Z</time>
      </trkpt>
      <trkpt lat="45.24893" lon="1.5548">
        <ele>281.4</ele>
        <time>1970-01-01T01:50:11.000Z</time>
      </trkpt>
      <trkpt lat="45.24885" lon="1.55482">
        <ele>280.2</ele>
        <time>1970-01-01T01:50:14.000Z</time>
      </trkpt>
      <trkpt lat="45.24879" lon="1.55483">
        <ele>279.2</ele>
        <time>1970-01-01T01:50:16.000Z</time>
      </trkpt>
      <trkpt lat="45.24876" lon="1.55483">
        <ele>278.8</ele>
        <time>1970-01-01T01:50:17.000Z</time>
      </trkpt>
      <trkpt lat="45.24872" lon="1.55479">
        <ele>278.2</ele>
        <time>1970-01-01T01:50:19.000Z</time>
      </trkpt>
      <trkpt lat="45.2487" lon="1.55471">
        <ele>277</ele>
        <time>1970-01-01T01:50:21.000Z</time>
      </trkpt>
      <trkpt lat="45.24872" lon="1.55464">
        <ele>276.2</ele>
        <time>1970-01-01T01:50:23.000Z</time>
      </trkpt>
      <trkpt lat="45.24874" lon="1.55462">
        <ele>275.8</ele>
        <time>1970-01-01T01:50:24.000Z</time>
      </trkpt>
      <trkpt lat="45.24877" lon="1.5546">
        <ele>275.6</ele>
        <time>1970-01-01T01:50:25.000Z</time>
      </trkpt>
      <trkpt lat="45.24884" lon="1.55454">
        <ele>274</ele>
        <time>1970-01-01T01:50:28.000Z</time>
      </trkpt>
      <trkpt lat="45.24887" lon="1.55447">
        <ele>273</ele>
        <time>1970-01-01T01:50:30.000Z</time>
      </trkpt>
      <trkpt lat="45.24888" lon="1.55444">
        <ele>272.6</ele>
        <time>1970-01-01T01:50:31.000Z</time>
      </trkpt>
      <trkpt lat="45.24889" lon="1.55437">
        <ele>272</ele>
        <time>1970-01-01T01:50:33.000Z</time>
      </trkpt>
      <trkpt lat="45.24889" lon="1.55434">
        <ele>271.4</ele>
        <time>1970-01-01T01:50:34.000Z</time>
      </trkpt>
      <trkpt lat="45.2489" lon="1.55426">
        <ele>270.2</ele>
        <time>1970-01-01T01:50:36.000Z</time>
      </trkpt>
      <trkpt lat="45.2489" lon="1.55416">
        <ele>268.8</ele>
        <time>1970-01-01T01:50:39.000Z</time>
      </trkpt>
      <trkpt lat="45.24887" lon="1.5541">
        <ele>267.4</ele>
        <time>1970-01-01T01:50:41.000Z</time>
      </trkpt>
      <trkpt lat="45.24884" lon="1.55407">
        <ele>266</ele>
        <time>1970-01-01T01:50:44.000Z</time>
      </trkpt>
      <trkpt lat="45.2488" lon="1.55406">
        <ele>265</ele>
        <time>1970-01-01T01:50:46.000Z</time>
      </trkpt>
      <trkpt lat="45.24878" lon="1.55405">
        <ele>264.2</ele>
        <time>1970-01-01T01:50:47.000Z</time>
      </trkpt>
      <trkpt lat="45.24876" lon="1.55404">
        <ele>263.8</ele>
        <time>1970-01-01T01:50:48.000Z</time>
      </trkpt>
      <trkpt lat="45.24872" lon="1.55403">
        <ele>262.4</ele>
        <time>1970-01-01T01:50:50.000Z</time>
      </trkpt>
      <trkpt lat="45.24867" lon="1.55401">
        <ele>261.2</ele>
        <time>1970-01-01T01:50:52.000Z</time>
      </trkpt>
      <trkpt lat="45.24862" lon="1.55399">
        <ele>260</ele>
        <time>1970-01-01T01:50:54.000Z</time>
      </trkpt>
      <trkpt lat="45.2486" lon="1.55399">
        <ele>259.6</ele>
        <time>1970-01-01T01:50:55.000Z</time>
      </trkpt>
      <trkpt lat="45.24858" lon="1.55398">
        <ele>259</ele>
        <time>1970-01-01T01:50:56.000Z</time>
      </trkpt>
      <trkpt lat="45.24847" lon="1.55401">
        <ele>257.8</ele>
        <time>1970-01-01T01:50:59.000Z</time>
      </trkpt>
      <trkpt lat="45.24842" lon="1.55402">
        <ele>256.6</ele>
        <time>1970-01-01T01:51:01.000Z</time>
      </trkpt>
      <trkpt lat="45.24833" lon="1.55402">
        <ele>255.6</ele>
        <time>1970-01-01T01:51:04.000Z</time>
      </trkpt>
      <trkpt lat="45.24825" lon="1.55403">
        <ele>254.4</ele>
        <time>1970-01-01T01:51:07.000Z</time>
      </trkpt>
      <trkpt lat="45.24823" lon="1.55403">
        <ele>253.6</ele>
        <time>1970-01-01T01:51:08.000Z</time>
      </trkpt>
      <trkpt lat="45.24821" lon="1.55403">
        <ele>253</ele>
        <time>1970-01-01T01:51:09.000Z</time>
      </trkpt>
      <trkpt lat="45.24816" lon="1.55403">
        <ele>252</ele>
        <time>1970-01-01T01:51:11.000Z</time>
      </trkpt>
      <trkpt lat="45.24811" lon="1.55403">
        <ele>251</ele>
        <time>1970-01-01T01:51:13.000Z</time>
      </trkpt>
      <trkpt lat="45.24808" lon="1.55403">
        <ele>250.6</ele>
        <time>1970-01-01T01:51:14.000Z</time>
      </trkpt>
      <trkpt lat="45.24805" lon="1.55404">
        <ele>250.2</ele>
        <time>1970-01-01T01:51:15.000Z</time>
      </trkpt>
      <trkpt lat="45.24803" lon="1.55405">
        <ele>249.6</ele>
        <time>1970-01-01T01:51:16.000Z</time>
      </trkpt>
      <trkpt lat="45.24801" lon="1.55407">
        <ele>248.6</ele>
        <time>1970-01-01T01:51:17.000Z</time>
      </trkpt>
      <trkpt lat="45.24794" lon="1.55408">
        <ele>247.6</ele>
        <time>1970-01-01T01:51:20.000Z</time>
      </trkpt>
      <trkpt lat="45.24792" lon="1.55407">
        <ele>247.6</ele>
        <time>1970-01-01T01:51:21.000Z</time>
      </trkpt>
      <trkpt lat="45.24777" lon="1.55406">
        <ele>246.2</ele>
        <time>1970-01-01T01:51:26.000Z</time>
      </trkpt>
      <trkpt lat="45.24774" lon="1.55406">
        <ele>245.6</ele>
        <time>1970-01-01T01:51:27.000Z</time>
      </trkpt>
      <trkpt lat="45.24771" lon="1.55406">
        <ele>245</ele>
        <time>1970-01-01T01:51:28.000Z</time>
      </trkpt>
      <trkpt lat="45.24761" lon="1.55411">
        <ele>243.8</ele>
        <time>1970-01-01T01:51:31.000Z</time>
      </trkpt>
      <trkpt lat="45.24756" lon="1.55413">
        <ele>243.2</ele>
        <time>1970-01-01T01:51:33.000Z</time>
      </trkpt>
      <trkpt lat="45.24753" lon="1.55414">
        <ele>242.8</ele>
        <time>1970-01-01T01:51:34.000Z</time>
      </trkpt>
      <trkpt lat="45.24741" lon="1.55419">
        <ele>241.4</ele>
        <time>1970-01-01T01:51:38.000Z</time>
      </trkpt>
      <trkpt lat="45.2473" lon="1.55423">
        <ele>240.2</ele>
        <time>1970-01-01T01:51:41.000Z</time>
      </trkpt>
      <trkpt lat="45.24723" lon="1.55429">
        <ele>239</ele>
        <time>1970-01-01T01:51:44.000Z</time>
      </trkpt>
      <trkpt lat="45.24715" lon="1.55431">
        <ele>238.2</ele>
        <time>1970-01-01T01:51:47.000Z</time>
      </trkpt>
      <trkpt lat="45.24713" lon="1.55432">
        <ele>238</ele>
        <time>1970-01-01T01:51:48.000Z</time>
      </trkpt>
      <trkpt lat="45.247" lon="1.5544">
        <ele>236.6</ele>
        <time>1970-01-01T01:51:52.000Z</time>
      </trkpt>
      <trkpt lat="45.24695" lon="1.55443">
        <ele>236</ele>
        <time>1970-01-01T01:51:54.000Z</time>
      </trkpt>
      <trkpt lat="45.24688" lon="1.55448">
        <ele>235.4</ele>
        <time>1970-01-01T01:51:57.000Z</time>
      </trkpt>
      <trkpt lat="45.24679" lon="1.55456">
        <ele>234.4</ele>
        <time>1970-01-01T01:52:01.000Z</time>
      </trkpt>
      <trkpt lat="45.24676" lon="1.55459">
        <ele>234</ele>
        <time>1970-01-01T01:52:03.000Z</time>
      </trkpt>
      <trkpt lat="45.24675" lon="1.55461">
        <ele>233.4</ele>
        <time>1970-01-01T01:52:04.000Z</time>
      </trkpt>
      <trkpt lat="45.24669" lon="1.55471">
        <ele>232</ele>
        <time>1970-01-01T01:52:07.000Z</time>
      </trkpt>
      <trkpt lat="45.24665" lon="1.55479">
        <ele>231</ele>
        <time>1970-01-01T01:52:09.000Z</time>
      </trkpt>
      <trkpt lat="45.24663" lon="1.55481">
        <ele>230.8</ele>
        <time>1970-01-01T01:52:10.000Z</time>
      </trkpt>
      <trkpt lat="45.24652" lon="1.55487">
        <ele>229.2</ele>
        <time>1970-01-01T01:52:13.000Z</time>
      </trkpt>
      <trkpt lat="45.24646" lon="1.55491">
        <ele>227.8</ele>
        <time>1970-01-01T01:52:15.000Z</time>
      </trkpt>
      <trkpt lat="45.2464" lon="1.55495">
        <ele>226.4</ele>
        <time>1970-01-01T01:52:17.000Z</time>
      </trkpt>
      <trkpt lat="45.24637" lon="1.55496">
        <ele>225.2</ele>
        <time>1970-01-01T01:52:18.000Z</time>
      </trkpt>
      <trkpt lat="45.24632" lon="1.55499">
        <ele>223.6</ele>
        <time>1970-01-01T01:52:20.000Z</time>
      </trkpt>
      <trkpt lat="45.24627" lon="1.55501">
        <ele>222</ele>
        <time>1970-01-01T01:52:22.000Z</time>
      </trkpt>
      <trkpt lat="45.2462" lon="1.55503">
        <ele>220.4</ele>
        <time>1970-01-01T01:52:24.000Z</time>
      </trkpt>
      <trkpt lat="45.24617" lon="1.55504">
        <ele>219.6</ele>
        <time>1970-01-01T01:52:25.000Z</time>
      </trkpt>
      <trkpt lat="45.24614" lon="1.55505">
        <ele>219</ele>
        <time>1970-01-01T01:52:26.000Z</time>
      </trkpt>
      <trkpt lat="45.24607" lon="1.55508">
        <ele>217.6</ele>
        <time>1970-01-01T01:52:28.000Z</time>
      </trkpt>
      <trkpt lat="45.246" lon="1.55507">
        <ele>216.6</ele>
        <time>1970-01-01T01:52:30.000Z</time>
      </trkpt>
      <trkpt lat="45.24596" lon="1.55504">
        <ele>215.8</ele>
        <time>1970-01-01T01:52:31.000Z</time>
      </trkpt>
      <trkpt lat="45.24594" lon="1.55501">
        <ele>215.4</ele>
        <time>1970-01-01T01:52:32.000Z</time>
      </trkpt>
      <trkpt lat="45.2459" lon="1.55495">
        <ele>214.8</ele>
        <time>1970-01-01T01:52:34.000Z</time>
      </trkpt>
      <trkpt lat="45.24589" lon="1.55491">
        <ele>214.6</ele>
        <time>1970-01-01T01:52:35.000Z</time>
      </trkpt>
      <trkpt lat="45.24589" lon="1.55487">
        <ele>214.2</ele>
        <time>1970-01-01T01:52:36.000Z</time>
      </trkpt>
      <trkpt lat="45.24588" lon="1.5548">
        <ele>213.6</ele>
        <time>1970-01-01T01:52:38.000Z</time>
      </trkpt>
      <trkpt lat="45.24589" lon="1.55477">
        <ele>213.2</ele>
        <time>1970-01-01T01:52:39.000Z</time>
      </trkpt>
      <trkpt lat="45.24589" lon="1.55473">
        <ele>213</ele>
        <time>1970-01-01T01:52:40.000Z</time>
      </trkpt>
      <trkpt lat="45.24591" lon="1.5546">
        <ele>212</ele>
        <time>1970-01-01T01:52:43.000Z</time>
      </trkpt>
      <trkpt lat="45.24591" lon="1.55456">
        <ele>211.6</ele>
        <time>1970-01-01T01:52:44.000Z</time>
      </trkpt>
      <trkpt lat="45.24593" lon="1.55453">
        <ele>211.2</ele>
        <time>1970-01-01T01:52:45.000Z</time>
      </trkpt>
      <trkpt lat="45.24594" lon="1.5545">
        <ele>210.4</ele>
        <time>1970-01-01T01:52:46.000Z</time>
      </trkpt>
      <trkpt lat="45.24595" lon="1.55446">
        <ele>209.8</ele>
        <time>1970-01-01T01:52:47.000Z</time>
      </trkpt>
      <trkpt lat="45.24596" lon="1.55441">
        <ele>209</ele>
        <time>1970-01-01T01:52:48.000Z</time>
      </trkpt>
      <trkpt lat="45.24595" lon="1.55431">
        <ele>207.8</ele>
        <time>1970-01-01T01:52:51.000Z</time>
      </trkpt>
      <trkpt lat="45.24593" lon="1.55429">
        <ele>207.2</ele>
        <time>1970-01-01T01:52:52.000Z</time>
      </trkpt>
      <trkpt lat="45.24592" lon="1.55427">
        <ele>206.8</ele>
        <time>1970-01-01T01:52:53.000Z</time>
      </trkpt>
      <trkpt lat="45.24586" lon="1.55427">
        <ele>205.4</ele>
        <time>1970-01-01T01:52:56.000Z</time>
      </trkpt>
      <trkpt lat="45.24585" lon="1.55427">
        <ele>205</ele>
        <time>1970-01-01T01:52:57.000Z</time>
      </trkpt>
      <trkpt lat="45.24578" lon="1.55431">
        <ele>204.4</ele>
        <time>1970-01-01T01:53:00.000Z</time>
      </trkpt>
      <trkpt lat="45.24572" lon="1.55435">
        <ele>204</ele>
        <time>1970-01-01T01:53:03.000Z</time>
      </trkpt>
      <trkpt lat="45.24564" lon="1.55441">
        <ele>203.6</ele>
        <time>1970-01-01T01:53:09.000Z</time>
      </trkpt>
      <trkpt lat="45.24554" lon="1.55447">
        <ele>203.2</ele>
        <time>1970-01-01T01:53:13.000Z</time>
      </trkpt>
      <trkpt lat="45.24551" lon="1.55447">
        <ele>203.2</ele>
        <time>1970-01-01T01:53:14.000Z</time>
      </trkpt>
      <trkpt lat="45.24547" lon="1.55447">
        <ele>203</ele>
        <time>1970-01-01T01:53:15.000Z</time>
      </trkpt>
      <trkpt lat="45.24534" lon="1.55433">
        <ele>203</ele>
        <time>1970-01-01T01:53:21.000Z</time>
      </trkpt>
      <trkpt lat="45.24528" lon="1.55407">
        <ele>203</ele>
        <time>1970-01-01T01:53:28.000Z</time>
      </trkpt>
      <trkpt lat="45.24522" lon="1.55387">
        <ele>202.8</ele>
        <time>1970-01-01T01:53:34.000Z</time>
      </trkpt>
      <trkpt lat="45.24512" lon="1.5537">
        <ele>202.8</ele>
        <time>1970-01-01T01:53:40.000Z</time>
      </trkpt>
      <trkpt lat="45.24505" lon="1.55368">
        <ele>202.6</ele>
        <time>1970-01-01T01:53:43.000Z</time>
      </trkpt>
      <trkpt lat="45.24503" lon="1.55366">
        <ele>202.6</ele>
        <time>1970-01-01T01:53:44.000Z</time>
      </trkpt>
      <trkpt lat="45.24494" lon="1.55367">
        <ele>202.2</ele>
        <time>1970-01-01T01:53:48.000Z</time>
      </trkpt>
      <trkpt lat="45.24486" lon="1.55368">
        <ele>202</ele>
        <time>1970-01-01T01:53:51.000Z</time>
      </trkpt>
      <trkpt lat="45.24478" lon="1.55367">
        <ele>201.6</ele>
        <time>1970-01-01T01:53:54.000Z</time>
      </trkpt>
      <trkpt lat="45.2446" lon="1.55364">
        <ele>200.8</ele>
        <time>1970-01-01T01:53:59.000Z</time>
      </trkpt>
      <trkpt lat="45.24452" lon="1.55363">
        <ele>200.6</ele>
        <time>1970-01-01T01:54:01.000Z</time>
      </trkpt>
      <trkpt lat="45.24448" lon="1.5536">
        <ele>200.6</ele>
        <time>1970-01-01T01:54:02.000Z</time>
      </trkpt>
      <trkpt lat="45.24439" lon="1.55347">
        <ele>200.4</ele>
        <time>1970-01-01T01:54:06.000Z</time>
      </trkpt>
      <trkpt lat="45.24432" lon="1.55339">
        <ele>199.8</ele>
        <time>1970-01-01T01:54:09.000Z</time>
      </trkpt>
      <trkpt lat="45.2442" lon="1.55318">
        <ele>199.2</ele>
        <time>1970-01-01T01:54:15.000Z</time>
      </trkpt>
      <trkpt lat="45.24416" lon="1.55309">
        <ele>198.8</ele>
        <time>1970-01-01T01:54:18.000Z</time>
      </trkpt>
      <trkpt lat="45.24411" lon="1.55304">
        <ele>198.6</ele>
        <time>1970-01-01T01:54:20.000Z</time>
      </trkpt>
      <trkpt lat="45.24404" lon="1.55289">
        <ele>198.2</ele>
        <time>1970-01-01T01:54:25.000Z</time>
      </trkpt>
      <trkpt lat="45.24401" lon="1.55289">
        <ele>196.6</ele>
        <time>1970-01-01T02:07:41.000Z</time>
      </trkpt>
      <trkpt lat="45.24401" lon="1.55305">
        <ele>196.8</ele>
        <time>1970-01-01T02:07:36.000Z</time>
      </trkpt>
      <trkpt lat="45.244" lon="1.55308">
        <ele>196.8</ele>
        <time>1970-01-01T02:07:35.000Z</time>
      </trkpt>
      <trkpt lat="45.24399" lon="1.55312">
        <ele>197</ele>
        <time>1970-01-01T02:07:34.000Z</time>
      </trkpt>
      <trkpt lat="45.244" lon="1.55335">
        <ele>198</ele>
        <time>1970-01-01T02:07:29.000Z</time>
      </trkpt>
      <trkpt lat="45.24402" lon="1.55342">
        <ele>199.4</ele>
        <time>1970-01-01T02:07:27.000Z</time>
      </trkpt>
      <trkpt lat="45.24406" lon="1.55354">
        <ele>200.8</ele>
        <time>1970-01-01T02:07:23.000Z</time>
      </trkpt>
      <trkpt lat="45.2441" lon="1.55366">
        <ele>202.2</ele>
        <time>1970-01-01T02:07:19.000Z</time>
      </trkpt>
      <trkpt lat="45.24412" lon="1.55371">
        <ele>203.2</ele>
        <time>1970-01-01T02:07:17.000Z</time>
      </trkpt>
      <trkpt lat="45.24413" lon="1.55374">
        <ele>203.6</ele>
        <time>1970-01-01T02:07:16.000Z</time>
      </trkpt>
      <trkpt lat="45.24416" lon="1.55383">
        <ele>204.6</ele>
        <time>1970-01-01T02:07:12.000Z</time>
      </trkpt>
      <trkpt lat="45.24417" lon="1.55385">
        <ele>205.8</ele>
        <time>1970-01-01T02:07:11.000Z</time>
      </trkpt>
      <trkpt lat="45.24418" lon="1.55386">
        <ele>205.8</ele>
        <time>1970-01-01T02:07:10.000Z</time>
      </trkpt>
      <trkpt lat="45.24418" lon="1.55387">
        <ele>206.6</ele>
        <time>1970-01-01T02:07:09.000Z</time>
      </trkpt>
      <trkpt lat="45.24417" lon="1.55389">
        <ele>206.8</ele>
        <time>1970-01-01T02:07:08.000Z</time>
      </trkpt>
      <trkpt lat="45.24416" lon="1.55389">
        <ele>208</ele>
        <time>1970-01-01T02:07:07.000Z</time>
      </trkpt>
      <trkpt lat="45.24415" lon="1.55389">
        <ele>208.2</ele>
        <time>1970-01-01T02:07:06.000Z</time>
      </trkpt>
      <trkpt lat="45.24413" lon="1.55385">
        <ele>208.8</ele>
        <time>1970-01-01T02:07:04.000Z</time>
      </trkpt>
      <trkpt lat="45.24411" lon="1.5538">
        <ele>210</ele>
        <time>1970-01-01T02:07:02.000Z</time>
      </trkpt>
      <trkpt lat="45.24406" lon="1.5537">
        <ele>211.4</ele>
        <time>1970-01-01T02:06:59.000Z</time>
      </trkpt>
      <trkpt lat="45.24401" lon="1.55359">
        <ele>212.8</ele>
        <time>1970-01-01T02:06:56.000Z</time>
      </trkpt>
      <trkpt lat="45.24397" lon="1.55351">
        <ele>214.2</ele>
        <time>1970-01-01T02:06:53.000Z</time>
      </trkpt>
      <trkpt lat="45.24391" lon="1.55339">
        <ele>215.4</ele>
        <time>1970-01-01T02:06:48.000Z</time>
      </trkpt>
      <trkpt lat="45.24382" lon="1.55322">
        <ele>215.4</ele>
        <time>1970-01-01T02:06:42.000Z</time>
      </trkpt>
      <trkpt lat="45.2438" lon="1.55318">
        <ele>214.8</ele>
        <time>1970-01-01T02:06:41.000Z</time>
      </trkpt>
      <trkpt lat="45.24378" lon="1.5531">
        <ele>214</ele>
        <time>1970-01-01T02:06:38.000Z</time>
      </trkpt>
      <trkpt lat="45.24375" lon="1.55305">
        <ele>213.6</ele>
        <time>1970-01-01T02:06:36.000Z</time>
      </trkpt>
      <trkpt lat="45.2437" lon="1.55299">
        <ele>213.6</ele>
        <time>1970-01-01T02:06:34.000Z</time>
      </trkpt>
      <trkpt lat="45.24369" lon="1.55296">
        <ele>213.6</ele>
        <time>1970-01-01T02:06:33.000Z</time>
      </trkpt>
      <trkpt lat="45.24363" lon="1.55284">
        <ele>213.4</ele>
        <time>1970-01-01T02:06:30.000Z</time>
      </trkpt>
      <trkpt lat="45.24355" lon="1.55265">
        <ele>213.8</ele>
        <time>1970-01-01T02:06:25.000Z</time>
      </trkpt>
      <trkpt lat="45.24348" lon="1.55248">
        <ele>214.8</ele>
        <time>1970-01-01T02:06:21.000Z</time>
      </trkpt>
      <trkpt lat="45.24347" lon="1.5524">
        <ele>215.6</ele>
        <time>1970-01-01T02:06:19.000Z</time>
      </trkpt>
      <trkpt lat="45.24347" lon="1.55237">
        <ele>215.8</ele>
        <time>1970-01-01T02:06:18.000Z</time>
      </trkpt>
      <trkpt lat="45.24347" lon="1.55216">
        <ele>217.4</ele>
        <time>1970-01-01T02:06:12.000Z</time>
      </trkpt>
      <trkpt lat="45.24348" lon="1.5521">
        <ele>218.2</ele>
        <time>1970-01-01T02:06:10.000Z</time>
      </trkpt>
      <trkpt lat="45.24348" lon="1.55207">
        <ele>218.4</ele>
        <time>1970-01-01T02:06:09.000Z</time>
      </trkpt>
      <trkpt lat="45.24349" lon="1.552">
        <ele>219.2</ele>
        <time>1970-01-01T02:06:07.000Z</time>
      </trkpt>
      <trkpt lat="45.24353" lon="1.55191">
        <ele>219.8</ele>
        <time>1970-01-01T02:06:03.000Z</time>
      </trkpt>
      <trkpt lat="45.24354" lon="1.55187">
        <ele>220.8</ele>
        <time>1970-01-01T02:06:01.000Z</time>
      </trkpt>
      <trkpt lat="45.24355" lon="1.55185">
        <ele>221.2</ele>
        <time>1970-01-01T02:06:00.000Z</time>
      </trkpt>
      <trkpt lat="45.24356" lon="1.55179">
        <ele>222.2</ele>
        <time>1970-01-01T02:05:57.000Z</time>
      </trkpt>
      <trkpt lat="45.24356" lon="1.55176">
        <ele>223.2</ele>
        <time>1970-01-01T02:05:56.000Z</time>
      </trkpt>
      <trkpt lat="45.24356" lon="1.55174">
        <ele>223.4</ele>
        <time>1970-01-01T02:05:55.000Z</time>
      </trkpt>
      <trkpt lat="45.24356" lon="1.55171">
        <ele>223.4</ele>
        <time>1970-01-01T02:05:54.000Z</time>
      </trkpt>
      <trkpt lat="45.24355" lon="1.55168">
        <ele>224.4</ele>
        <time>1970-01-01T02:05:53.000Z</time>
      </trkpt>
      <trkpt lat="45.24352" lon="1.55165">
        <ele>224.6</ele>
        <time>1970-01-01T02:05:51.000Z</time>
      </trkpt>
      <trkpt lat="45.24348" lon="1.55166">
        <ele>225.8</ele>
        <time>1970-01-01T02:05:48.000Z</time>
      </trkpt>
      <trkpt lat="45.24341" lon="1.55171">
        <ele>227.2</ele>
        <time>1970-01-01T02:05:45.000Z</time>
      </trkpt>
      <trkpt lat="45.24334" lon="1.55177">
        <ele>229</ele>
        <time>1970-01-01T02:05:42.000Z</time>
      </trkpt>
      <trkpt lat="45.24327" lon="1.55183">
        <ele>230.8</ele>
        <time>1970-01-01T02:05:39.000Z</time>
      </trkpt>
      <trkpt lat="45.24321" lon="1.55187">
        <ele>232.2</ele>
        <time>1970-01-01T02:05:37.000Z</time>
      </trkpt>
      <trkpt lat="45.24315" lon="1.5519">
        <ele>233.4</ele>
        <time>1970-01-01T02:05:34.000Z</time>
      </trkpt>
      <trkpt lat="45.24308" lon="1.55194">
        <ele>234.8</ele>
        <time>1970-01-01T02:05:32.000Z</time>
      </trkpt>
      <trkpt lat="45.24305" lon="1.55196">
        <ele>235.6</ele>
        <time>1970-01-01T02:05:31.000Z</time>
      </trkpt>
      <trkpt lat="45.243" lon="1.55197">
        <ele>236.4</ele>
        <time>1970-01-01T02:05:29.000Z</time>
      </trkpt>
      <trkpt lat="45.24291" lon="1.552">
        <ele>237.8</ele>
        <time>1970-01-01T02:05:25.000Z</time>
      </trkpt>
      <trkpt lat="45.24284" lon="1.55204">
        <ele>239.6</ele>
        <time>1970-01-01T02:05:22.000Z</time>
      </trkpt>
      <trkpt lat="45.24279" lon="1.55207">
        <ele>240.6</ele>
        <time>1970-01-01T02:05:20.000Z</time>
      </trkpt>
      <trkpt lat="45.24278" lon="1.5521">
        <ele>240.6</ele>
        <time>1970-01-01T02:05:19.000Z</time>
      </trkpt>
      <trkpt lat="45.24279" lon="1.55217">
        <ele>241.8</ele>
        <time>1970-01-01T02:05:17.000Z</time>
      </trkpt>
      <trkpt lat="45.24285" lon="1.55226">
        <ele>244</ele>
        <time>1970-01-01T02:05:14.000Z</time>
      </trkpt>
      <trkpt lat="45.24287" lon="1.55228">
        <ele>244.2</ele>
        <time>1970-01-01T02:05:13.000Z</time>
      </trkpt>
      <trkpt lat="45.24292" lon="1.55235">
        <ele>245.2</ele>
        <time>1970-01-01T02:05:10.000Z</time>
      </trkpt>
      <trkpt lat="45.24296" lon="1.5524">
        <ele>246.2</ele>
        <time>1970-01-01T02:05:08.000Z</time>
      </trkpt>
      <trkpt lat="45.24298" lon="1.55245">
        <ele>247</ele>
        <time>1970-01-01T02:05:06.000Z</time>
      </trkpt>
      <trkpt lat="45.24298" lon="1.55248">
        <ele>247.6</ele>
        <time>1970-01-01T02:05:05.000Z</time>
      </trkpt>
      <trkpt lat="45.24298" lon="1.55251">
        <ele>248.2</ele>
        <time>1970-01-01T02:05:04.000Z</time>
      </trkpt>
      <trkpt lat="45.24298" lon="1.55259">
        <ele>249</ele>
        <time>1970-01-01T02:05:01.000Z</time>
      </trkpt>
      <trkpt lat="45.24298" lon="1.55262">
        <ele>250.4</ele>
        <time>1970-01-01T02:05:00.000Z</time>
      </trkpt>
      <trkpt lat="45.24297" lon="1.55264">
        <ele>250.4</ele>
        <time>1970-01-01T02:04:59.000Z</time>
      </trkpt>
      <trkpt lat="45.24296" lon="1.55267">
        <ele>250.6</ele>
        <time>1970-01-01T02:04:58.000Z</time>
      </trkpt>
      <trkpt lat="45.24294" lon="1.55279">
        <ele>251.4</ele>
        <time>1970-01-01T02:04:55.000Z</time>
      </trkpt>
      <trkpt lat="45.24293" lon="1.55284">
        <ele>251.6</ele>
        <time>1970-01-01T02:04:54.000Z</time>
      </trkpt>
      <trkpt lat="45.24291" lon="1.55293">
        <ele>252.6</ele>
        <time>1970-01-01T02:04:52.000Z</time>
      </trkpt>
      <trkpt lat="45.2429" lon="1.55304">
        <ele>253.6</ele>
        <time>1970-01-01T02:04:49.000Z</time>
      </trkpt>
      <trkpt lat="45.2429" lon="1.55311">
        <ele>254.6</ele>
        <time>1970-01-01T02:04:47.000Z</time>
      </trkpt>
      <trkpt lat="45.2429" lon="1.55315">
        <ele>255</ele>
        <time>1970-01-01T02:04:46.000Z</time>
      </trkpt>
      <trkpt lat="45.24289" lon="1.55324">
        <ele>256</ele>
        <time>1970-01-01T02:04:43.000Z</time>
      </trkpt>
      <trkpt lat="45.24288" lon="1.55333">
        <ele>257.6</ele>
        <time>1970-01-01T02:04:40.000Z</time>
      </trkpt>
      <trkpt lat="45.24287" lon="1.55336">
        <ele>257.8</ele>
        <time>1970-01-01T02:04:39.000Z</time>
      </trkpt>
      <trkpt lat="45.24287" lon="1.5534">
        <ele>258</ele>
        <time>1970-01-01T02:04:38.000Z</time>
      </trkpt>
      <trkpt lat="45.24287" lon="1.55343">
        <ele>258.6</ele>
        <time>1970-01-01T02:04:37.000Z</time>
      </trkpt>
      <trkpt lat="45.24286" lon="1.55347">
        <ele>259</ele>
        <time>1970-01-01T02:04:36.000Z</time>
      </trkpt>
      <trkpt lat="45.24286" lon="1.55358">
        <ele>260.4</ele>
        <time>1970-01-01T02:04:33.000Z</time>
      </trkpt>
      <trkpt lat="45.24285" lon="1.55367">
        <ele>261.8</ele>
        <time>1970-01-01T02:04:30.000Z</time>
      </trkpt>
      <trkpt lat="45.24285" lon="1.5537">
        <ele>262.8</ele>
        <time>1970-01-01T02:04:29.000Z</time>
      </trkpt>
      <trkpt lat="45.24285" lon="1.55376">
        <ele>263.4</ele>
        <time>1970-01-01T02:04:27.000Z</time>
      </trkpt>
      <trkpt lat="45.24286" lon="1.55386">
        <ele>264.8</ele>
        <time>1970-01-01T02:04:24.000Z</time>
      </trkpt>
      <trkpt lat="45.24288" lon="1.55391">
        <ele>265.8</ele>
        <time>1970-01-01T02:04:22.000Z</time>
      </trkpt>
      <trkpt lat="45.24289" lon="1.55393">
        <ele>266</ele>
        <time>1970-01-01T02:04:21.000Z</time>
      </trkpt>
      <trkpt lat="45.2429" lon="1.55397">
        <ele>267.4</ele>
        <time>1970-01-01T02:04:19.000Z</time>
      </trkpt>
      <trkpt lat="45.24289" lon="1.55398">
        <ele>267.6</ele>
        <time>1970-01-01T02:04:18.000Z</time>
      </trkpt>
      <trkpt lat="45.24288" lon="1.55399">
        <ele>268.4</ele>
        <time>1970-01-01T02:04:17.000Z</time>
      </trkpt>
      <trkpt lat="45.24283" lon="1.55399">
        <ele>268.8</ele>
        <time>1970-01-01T02:04:15.000Z</time>
      </trkpt>
      <trkpt lat="45.2428" lon="1.55396">
        <ele>269.4</ele>
        <time>1970-01-01T02:04:14.000Z</time>
      </trkpt>
      <trkpt lat="45.24279" lon="1.55394">
        <ele>270</ele>
        <time>1970-01-01T02:04:13.000Z</time>
      </trkpt>
      <trkpt lat="45.24278" lon="1.55392">
        <ele>270.4</ele>
        <time>1970-01-01T02:04:12.000Z</time>
      </trkpt>
      <trkpt lat="45.24274" lon="1.55388">
        <ele>271</ele>
        <time>1970-01-01T02:04:10.000Z</time>
      </trkpt>
      <trkpt lat="45.24272" lon="1.55386">
        <ele>272.4</ele>
        <time>1970-01-01T02:04:09.000Z</time>
      </trkpt>
      <trkpt lat="45.24269" lon="1.55384">
        <ele>272.6</ele>
        <time>1970-01-01T02:04:08.000Z</time>
      </trkpt>
      <trkpt lat="45.24264" lon="1.55377">
        <ele>273.6</ele>
        <time>1970-01-01T02:04:05.000Z</time>
      </trkpt>
      <trkpt lat="45.24262" lon="1.55375">
        <ele>273.6</ele>
        <time>1970-01-01T02:04:04.000Z</time>
      </trkpt>
      <trkpt lat="45.24252" lon="1.55368">
        <ele>275.2</ele>
        <time>1970-01-01T02:04:00.000Z</time>
      </trkpt>
      <trkpt lat="45.24249" lon="1.55367">
        <ele>275.8</ele>
        <time>1970-01-01T02:03:59.000Z</time>
      </trkpt>
      <trkpt lat="45.24241" lon="1.55368">
        <ele>276</ele>
        <time>1970-01-01T02:03:56.000Z</time>
      </trkpt>
      <trkpt lat="45.24232" lon="1.55373">
        <ele>276.8</ele>
        <time>1970-01-01T02:03:53.000Z</time>
      </trkpt>
      <trkpt lat="45.24229" lon="1.55376">
        <ele>276.8</ele>
        <time>1970-01-01T02:03:52.000Z</time>
      </trkpt>
      <trkpt lat="45.24218" lon="1.55395">
        <ele>277.8</ele>
        <time>1970-01-01T02:03:46.000Z</time>
      </trkpt>
      <trkpt lat="45.24216" lon="1.55399">
        <ele>277.8</ele>
        <time>1970-01-01T02:03:45.000Z</time>
      </trkpt>
      <trkpt lat="45.2421" lon="1.5541">
        <ele>279.2</ele>
        <time>1970-01-01T02:03:42.000Z</time>
      </trkpt>
      <trkpt lat="45.24204" lon="1.55423">
        <ele>280.4</ele>
        <time>1970-01-01T02:03:38.000Z</time>
      </trkpt>
      <trkpt lat="45.24202" lon="1.55425">
        <ele>280.8</ele>
        <time>1970-01-01T02:03:37.000Z</time>
      </trkpt>
      <trkpt lat="45.24193" lon="1.55447">
        <ele>281.4</ele>
        <time>1970-01-01T02:03:31.000Z</time>
      </trkpt>
      <trkpt lat="45.24191" lon="1.5545">
        <ele>281.4</ele>
        <time>1970-01-01T02:03:30.000Z</time>
      </trkpt>
      <trkpt lat="45.24184" lon="1.55457">
        <ele>282.6</ele>
        <time>1970-01-01T02:03:27.000Z</time>
      </trkpt>
      <trkpt lat="45.24176" lon="1.55466">
        <ele>283.6</ele>
        <time>1970-01-01T02:03:24.000Z</time>
      </trkpt>
      <trkpt lat="45.24174" lon="1.55469">
        <ele>283.8</ele>
        <time>1970-01-01T02:03:23.000Z</time>
      </trkpt>
      <trkpt lat="45.24165" lon="1.55488">
        <ele>285.2</ele>
        <time>1970-01-01T02:03:18.000Z</time>
      </trkpt>
      <trkpt lat="45.24161" lon="1.55497">
        <ele>286.4</ele>
        <time>1970-01-01T02:03:16.000Z</time>
      </trkpt>
      <trkpt lat="45.24159" lon="1.55501">
        <ele>286.6</ele>
        <time>1970-01-01T02:03:15.000Z</time>
      </trkpt>
      <trkpt lat="45.24154" lon="1.55506">
        <ele>290.4</ele>
        <time>1970-01-01T00:35:31.000Z</time>
      </trkpt>
      <trkpt lat="45.24154" lon="1.55495">
        <ele>291.2</ele>
        <time>1970-01-01T00:35:35.000Z</time>
      </trkpt>
      <trkpt lat="45.24154" lon="1.55491">
        <ele>292.2</ele>
        <time>1970-01-01T00:35:38.000Z</time>
      </trkpt>
      <trkpt lat="45.24135" lon="1.55476">
        <ele>292</ele>
        <time>1970-01-01T00:35:48.000Z</time>
      </trkpt>
      <trkpt lat="45.2412" lon="1.55467">
        <ele>291.4</ele>
        <time>1970-01-01T00:35:51.000Z</time>
      </trkpt>
      <trkpt lat="45.24114" lon="1.55463">
        <ele>291</ele>
        <time>1970-01-01T00:35:52.000Z</time>
      </trkpt>
      <trkpt lat="45.24104" lon="1.55457">
        <ele>288.6</ele>
        <time>1970-01-01T00:35:54.000Z</time>
      </trkpt>
      <trkpt lat="45.24097" lon="1.55455">
        <ele>287</ele>
        <time>1970-01-01T00:35:55.000Z</time>
      </trkpt>
      <trkpt lat="45.2409" lon="1.55452">
        <ele>285.8</ele>
        <time>1970-01-01T00:35:56.000Z</time>
      </trkpt>
      <trkpt lat="45.24074" lon="1.5545">
        <ele>284.2</ele>
        <time>1970-01-01T00:35:58.000Z</time>
      </trkpt>
      <trkpt lat="45.24058" lon="1.55451">
        <ele>282.6</ele>
        <time>1970-01-01T00:36:00.000Z</time>
      </trkpt>
      <trkpt lat="45.24043" lon="1.55451">
        <ele>280.6</ele>
        <time>1970-01-01T00:36:02.000Z</time>
      </trkpt>
      <trkpt lat="45.24037" lon="1.55452">
        <ele>279.4</ele>
        <time>1970-01-01T00:36:03.000Z</time>
      </trkpt>
      <trkpt lat="45.24031" lon="1.55453">
        <ele>278.4</ele>
        <time>1970-01-01T00:36:04.000Z</time>
      </trkpt>
      <trkpt lat="45.24021" lon="1.55456">
        <ele>277</ele>
        <time>1970-01-01T00:36:06.000Z</time>
      </trkpt>
      <trkpt lat="45.24012" lon="1.55459">
        <ele>276.2</ele>
        <time>1970-01-01T00:36:08.000Z</time>
      </trkpt>
      <trkpt lat="45.24006" lon="1.55461">
        <ele>275.8</ele>
        <time>1970-01-01T00:36:09.000Z</time>
      </trkpt>
      <trkpt lat="45.23995" lon="1.55462">
        <ele>275.4</ele>
        <time>1970-01-01T00:36:11.000Z</time>
      </trkpt>
      <trkpt lat="45.23951" lon="1.55487">
        <ele>277</ele>
        <time>1970-01-01T00:36:23.000Z</time>
      </trkpt>
      <trkpt lat="45.23944" lon="1.55491">
        <ele>278.2</ele>
        <time>1970-01-01T00:36:25.000Z</time>
      </trkpt>
      <trkpt lat="45.23933" lon="1.55498">
        <ele>279.2</ele>
        <time>1970-01-01T00:36:29.000Z</time>
      </trkpt>
      <trkpt lat="45.23923" lon="1.55493">
        <ele>280.4</ele>
        <time>1970-01-01T00:36:32.000Z</time>
      </trkpt>
      <trkpt lat="45.23908" lon="1.55491">
        <ele>281.8</ele>
        <time>1970-01-01T00:36:37.000Z</time>
      </trkpt>
      <trkpt lat="45.23892" lon="1.55489">
        <ele>282.8</ele>
        <time>1970-01-01T00:36:43.000Z</time>
      </trkpt>
      <trkpt lat="45.2388" lon="1.55493">
        <ele>284</ele>
        <time>1970-01-01T00:36:48.000Z</time>
      </trkpt>
      <trkpt lat="45.23856" lon="1.55493">
        <ele>285</ele>
        <time>1970-01-01T00:36:59.000Z</time>
      </trkpt>
      <trkpt lat="45.23852" lon="1.55492">
        <ele>285</ele>
        <time>1970-01-01T00:37:00.000Z</time>
      </trkpt>
      <trkpt lat="45.23848" lon="1.5549">
        <ele>285</ele>
        <time>1970-01-01T00:37:01.000Z</time>
      </trkpt>
      <trkpt lat="45.23814" lon="1.55459">
        <ele>284</ele>
        <time>1970-01-01T00:37:11.000Z</time>
      </trkpt>
      <trkpt lat="45.23809" lon="1.55451">
        <ele>283.6</ele>
        <time>1970-01-01T00:37:12.000Z</time>
      </trkpt>
      <trkpt lat="45.23804" lon="1.55444">
        <ele>282.6</ele>
        <time>1970-01-01T00:37:13.000Z</time>
      </trkpt>
      <trkpt lat="45.23799" lon="1.55438">
        <ele>281.2</ele>
        <time>1970-01-01T00:37:14.000Z</time>
      </trkpt>
      <trkpt lat="45.23795" lon="1.55433">
        <ele>279.6</ele>
        <time>1970-01-01T00:37:15.000Z</time>
      </trkpt>
      <trkpt lat="45.23793" lon="1.55428">
        <ele>278.4</ele>
        <time>1970-01-01T00:37:16.000Z</time>
      </trkpt>
      <trkpt lat="45.23787" lon="1.55417">
        <ele>277.2</ele>
        <time>1970-01-01T00:37:18.000Z</time>
      </trkpt>
      <trkpt lat="45.23783" lon="1.55412">
        <ele>276.4</ele>
        <time>1970-01-01T00:37:19.000Z</time>
      </trkpt>
      <trkpt lat="45.23778" lon="1.55405">
        <ele>275.8</ele>
        <time>1970-01-01T00:37:20.000Z</time>
      </trkpt>
      <trkpt lat="45.23774" lon="1.55397">
        <ele>275</ele>
        <time>1970-01-01T00:37:21.000Z</time>
      </trkpt>
      <trkpt lat="45.2377" lon="1.55389">
        <ele>274.4</ele>
        <time>1970-01-01T00:37:22.000Z</time>
      </trkpt>
      <trkpt lat="45.23759" lon="1.55371">
        <ele>273.6</ele>
        <time>1970-01-01T00:37:24.000Z</time>
      </trkpt>
      <trkpt lat="45.23753" lon="1.5536">
        <ele>273</ele>
        <time>1970-01-01T00:37:25.000Z</time>
      </trkpt>
      <trkpt lat="45.23743" lon="1.55338">
        <ele>270.8</ele>
        <time>1970-01-01T00:37:27.000Z</time>
      </trkpt>
      <trkpt lat="45.23738" lon="1.55323">
        <ele>270</ele>
        <time>1970-01-01T00:37:28.000Z</time>
      </trkpt>
      <trkpt lat="45.23736" lon="1.55312">
        <ele>269</ele>
        <time>1970-01-01T00:37:29.000Z</time>
      </trkpt>
      <trkpt lat="45.23734" lon="1.553">
        <ele>268</ele>
        <time>1970-01-01T00:37:30.000Z</time>
      </trkpt>
      <trkpt lat="45.23731" lon="1.55289">
        <ele>266.6</ele>
        <time>1970-01-01T00:37:31.000Z</time>
      </trkpt>
      <trkpt lat="45.23723" lon="1.55273">
        <ele>264.8</ele>
        <time>1970-01-01T00:37:33.000Z</time>
      </trkpt>
      <trkpt lat="45.23718" lon="1.55264">
        <ele>263.2</ele>
        <time>1970-01-01T00:37:35.000Z</time>
      </trkpt>
      <trkpt lat="45.23714" lon="1.55251">
        <ele>262.8</ele>
        <time>1970-01-01T00:37:36.000Z</time>
      </trkpt>
      <trkpt lat="45.23712" lon="1.55236">
        <ele>263.4</ele>
        <time>1970-01-01T00:37:38.000Z</time>
      </trkpt>
      <trkpt lat="45.23709" lon="1.55198">
        <ele>263.6</ele>
        <time>1970-01-01T00:37:42.000Z</time>
      </trkpt>
      <trkpt lat="45.23704" lon="1.55184">
        <ele>263.6</ele>
        <time>1970-01-01T00:37:44.000Z</time>
      </trkpt>
      <trkpt lat="45.23695" lon="1.55162">
        <ele>262</ele>
        <time>1970-01-01T00:37:47.000Z</time>
      </trkpt>
      <trkpt lat="45.23689" lon="1.55146">
        <ele>261</ele>
        <time>1970-01-01T00:37:49.000Z</time>
      </trkpt>
      <trkpt lat="45.23688" lon="1.55138">
        <ele>260.6</ele>
        <time>1970-01-01T00:37:50.000Z</time>
      </trkpt>
      <trkpt lat="45.23683" lon="1.55111">
        <ele>259.2</ele>
        <time>1970-01-01T00:37:53.000Z</time>
      </trkpt>
      <trkpt lat="45.23677" lon="1.5509">
        <ele>257.8</ele>
        <time>1970-01-01T00:37:55.000Z</time>
      </trkpt>
      <trkpt lat="45.23674" lon="1.55077">
        <ele>256.8</ele>
        <time>1970-01-01T00:37:56.000Z</time>
      </trkpt>
      <trkpt lat="45.23673" lon="1.55068">
        <ele>254.8</ele>
        <time>1970-01-01T00:37:57.000Z</time>
      </trkpt>
      <trkpt lat="45.23671" lon="1.55058">
        <ele>252.4</ele>
        <time>1970-01-01T00:37:58.000Z</time>
      </trkpt>
      <trkpt lat="45.23671" lon="1.55049">
        <ele>250.4</ele>
        <time>1970-01-01T00:37:59.000Z</time>
      </trkpt>
      <trkpt lat="45.23671" lon="1.55042">
        <ele>249.2</ele>
        <time>1970-01-01T00:38:00.000Z</time>
      </trkpt>
      <trkpt lat="45.23671" lon="1.5503">
        <ele>247.6</ele>
        <time>1970-01-01T00:38:02.000Z</time>
      </trkpt>
      <trkpt lat="45.2367" lon="1.55018">
        <ele>246.6</ele>
        <time>1970-01-01T00:38:04.000Z</time>
      </trkpt>
      <trkpt lat="45.23668" lon="1.55003">
        <ele>245</ele>
        <time>1970-01-01T00:38:07.000Z</time>
      </trkpt>
      <trkpt lat="45.23667" lon="1.54993">
        <ele>243.6</ele>
        <time>1970-01-01T00:38:09.000Z</time>
      </trkpt>
      <trkpt lat="45.23665" lon="1.54979">
        <ele>241.6</ele>
        <time>1970-01-01T00:38:11.000Z</time>
      </trkpt>
      <trkpt lat="45.23665" lon="1.54974">
        <ele>240.4</ele>
        <time>1970-01-01T00:38:12.000Z</time>
      </trkpt>
      <trkpt lat="45.23664" lon="1.54971">
        <ele>239</ele>
        <time>1970-01-01T00:38:13.000Z</time>
      </trkpt>
      <trkpt lat="45.23663" lon="1.54968">
        <ele>237.8</ele>
        <time>1970-01-01T00:38:14.000Z</time>
      </trkpt>
      <trkpt lat="45.23662" lon="1.54964">
        <ele>236.6</ele>
        <time>1970-01-01T00:38:16.000Z</time>
      </trkpt>
      <trkpt lat="45.23661" lon="1.54952">
        <ele>235.4</ele>
        <time>1970-01-01T00:38:19.000Z</time>
      </trkpt>
      <trkpt lat="45.23663" lon="1.5494">
        <ele>234.4</ele>
        <time>1970-01-01T00:38:21.000Z</time>
      </trkpt>
      <trkpt lat="45.23664" lon="1.54932">
        <ele>233.8</ele>
        <time>1970-01-01T00:38:22.000Z</time>
      </trkpt>
      <trkpt lat="45.23664" lon="1.54922">
        <ele>233.4</ele>
        <time>1970-01-01T00:38:23.000Z</time>
      </trkpt>
      <trkpt lat="45.23664" lon="1.54911">
        <ele>232.6</ele>
        <time>1970-01-01T00:38:24.000Z</time>
      </trkpt>
      <trkpt lat="45.23663" lon="1.549">
        <ele>231.4</ele>
        <time>1970-01-01T00:38:25.000Z</time>
      </trkpt>
      <trkpt lat="45.23662" lon="1.54888">
        <ele>230.2</ele>
        <time>1970-01-01T00:38:26.000Z</time>
      </trkpt>
      <trkpt lat="45.23662" lon="1.54876">
        <ele>229</ele>
        <time>1970-01-01T00:38:27.000Z</time>
      </trkpt>
      <trkpt lat="45.23662" lon="1.54865">
        <ele>227.8</ele>
        <time>1970-01-01T00:38:28.000Z</time>
      </trkpt>
      <trkpt lat="45.23663" lon="1.54855">
        <ele>226.8</ele>
        <time>1970-01-01T00:38:29.000Z</time>
      </trkpt>
      <trkpt lat="45.23662" lon="1.54847">
        <ele>226.2</ele>
        <time>1970-01-01T00:38:30.000Z</time>
      </trkpt>
      <trkpt lat="45.23661" lon="1.54829">
        <ele>225.2</ele>
        <time>1970-01-01T00:38:32.000Z</time>
      </trkpt>
      <trkpt lat="45.2366" lon="1.5482">
        <ele>225</ele>
        <time>1970-01-01T00:38:33.000Z</time>
      </trkpt>
      <trkpt lat="45.23658" lon="1.54786">
        <ele>223.8</ele>
        <time>1970-01-01T00:38:37.000Z</time>
      </trkpt>
      <trkpt lat="45.23654" lon="1.54762">
        <ele>223.8</ele>
        <time>1970-01-01T00:38:39.000Z</time>
      </trkpt>
      <trkpt lat="45.2365" lon="1.54736">
        <ele>225</ele>
        <time>1970-01-01T00:38:44.000Z</time>
      </trkpt>
      <trkpt lat="45.23645" lon="1.54719">
        <ele>226</ele>
        <time>1970-01-01T00:38:49.000Z</time>
      </trkpt>
      <trkpt lat="45.23641" lon="1.5471">
        <ele>226</ele>
        <time>1970-01-01T00:38:51.000Z</time>
      </trkpt>
      <trkpt lat="45.23625" lon="1.54689">
        <ele>224</ele>
        <time>1970-01-01T00:38:54.000Z</time>
      </trkpt>
      <trkpt lat="45.2362" lon="1.54681">
        <ele>223</ele>
        <time>1970-01-01T00:38:55.000Z</time>
      </trkpt>
      <trkpt lat="45.23614" lon="1.54673">
        <ele>222.2</ele>
        <time>1970-01-01T00:38:56.000Z</time>
      </trkpt>
      <trkpt lat="45.23608" lon="1.54665">
        <ele>221.8</ele>
        <time>1970-01-01T00:38:57.000Z</time>
      </trkpt>
      <trkpt lat="45.23583" lon="1.54635">
        <ele>220.2</ele>
        <time>1970-01-01T00:39:01.000Z</time>
      </trkpt>
      <trkpt lat="45.23576" lon="1.54632">
        <ele>219.2</ele>
        <time>1970-01-01T00:39:02.000Z</time>
      </trkpt>
      <trkpt lat="45.23568" lon="1.54631">
        <ele>218.4</ele>
        <time>1970-01-01T00:39:03.000Z</time>
      </trkpt>
      <trkpt lat="45.23561" lon="1.54631">
        <ele>217.2</ele>
        <time>1970-01-01T00:39:04.000Z</time>
      </trkpt>
      <trkpt lat="45.23554" lon="1.54634">
        <ele>215.6</ele>
        <time>1970-01-01T00:39:05.000Z</time>
      </trkpt>
      <trkpt lat="45.2355" lon="1.5464">
        <ele>214.4</ele>
        <time>1970-01-01T00:39:06.000Z</time>
      </trkpt>
      <trkpt lat="45.23537" lon="1.5465">
        <ele>212.4</ele>
        <time>1970-01-01T00:39:08.000Z</time>
      </trkpt>
      <trkpt lat="45.23533" lon="1.54653">
        <ele>211.2</ele>
        <time>1970-01-01T00:39:09.000Z</time>
      </trkpt>
      <trkpt lat="45.2353" lon="1.54654">
        <ele>209.6</ele>
        <time>1970-01-01T00:39:10.000Z</time>
      </trkpt>
      <trkpt lat="45.23529" lon="1.54654">
        <ele>208</ele>
        <time>1970-01-01T00:39:11.000Z</time>
      </trkpt>
      <trkpt lat="45.23528" lon="1.54653">
        <ele>206.6</ele>
        <time>1970-01-01T00:39:12.000Z</time>
      </trkpt>
      <trkpt lat="45.23529" lon="1.54648">
        <ele>205.4</ele>
        <time>1970-01-01T00:39:13.000Z</time>
      </trkpt>
      <trkpt lat="45.2353" lon="1.54642">
        <ele>204.2</ele>
        <time>1970-01-01T00:39:14.000Z</time>
      </trkpt>
      <trkpt lat="45.2353" lon="1.54635">
        <ele>203.4</ele>
        <time>1970-01-01T00:39:15.000Z</time>
      </trkpt>
      <trkpt lat="45.23528" lon="1.54628">
        <ele>202.8</ele>
        <time>1970-01-01T00:39:16.000Z</time>
      </trkpt>
      <trkpt lat="45.23521" lon="1.54613">
        <ele>201.2</ele>
        <time>1970-01-01T00:39:18.000Z</time>
      </trkpt>
      <trkpt lat="45.23519" lon="1.54605">
        <ele>200</ele>
        <time>1970-01-01T00:39:19.000Z</time>
      </trkpt>
      <trkpt lat="45.23518" lon="1.54597">
        <ele>198.8</ele>
        <time>1970-01-01T00:39:20.000Z</time>
      </trkpt>
      <trkpt lat="45.23517" lon="1.5459">
        <ele>197.2</ele>
        <time>1970-01-01T00:39:21.000Z</time>
      </trkpt>
      <trkpt lat="45.23517" lon="1.54584">
        <ele>195.4</ele>
        <time>1970-01-01T00:39:22.000Z</time>
      </trkpt>
      <trkpt lat="45.23514" lon="1.54582">
        <ele>193.4</ele>
        <time>1970-01-01T00:39:23.000Z</time>
      </trkpt>
      <trkpt lat="45.2351" lon="1.54583">
        <ele>192.4</ele>
        <time>1970-01-01T00:39:24.000Z</time>
      </trkpt>
      <trkpt lat="45.23506" lon="1.54588">
        <ele>191</ele>
        <time>1970-01-01T00:39:25.000Z</time>
      </trkpt>
      <trkpt lat="45.23503" lon="1.54593">
        <ele>190</ele>
        <time>1970-01-01T00:39:26.000Z</time>
      </trkpt>
      <trkpt lat="45.23493" lon="1.54604">
        <ele>188.4</ele>
        <time>1970-01-01T00:39:29.000Z</time>
      </trkpt>
      <trkpt lat="45.23487" lon="1.54608">
        <ele>186.8</ele>
        <time>1970-01-01T00:39:31.000Z</time>
      </trkpt>
      <trkpt lat="45.23483" lon="1.5461">
        <ele>185.6</ele>
        <time>1970-01-01T00:39:32.000Z</time>
      </trkpt>
      <trkpt lat="45.23478" lon="1.54611">
        <ele>184.6</ele>
        <time>1970-01-01T00:39:33.000Z</time>
      </trkpt>
      <trkpt lat="45.23471" lon="1.54612">
        <ele>183.6</ele>
        <time>1970-01-01T00:39:34.000Z</time>
      </trkpt>
      <trkpt lat="45.23466" lon="1.54612">
        <ele>182.4</ele>
        <time>1970-01-01T00:39:35.000Z</time>
      </trkpt>
      <trkpt lat="45.2346" lon="1.54612">
        <ele>181</ele>
        <time>1970-01-01T00:39:36.000Z</time>
      </trkpt>
      <trkpt lat="45.23455" lon="1.54613">
        <ele>179.6</ele>
        <time>1970-01-01T00:39:37.000Z</time>
      </trkpt>
      <trkpt lat="45.23449" lon="1.54614">
        <ele>178.2</ele>
        <time>1970-01-01T00:39:38.000Z</time>
      </trkpt>
      <trkpt lat="45.23444" lon="1.54617">
        <ele>177.2</ele>
        <time>1970-01-01T00:39:39.000Z</time>
      </trkpt>
      <trkpt lat="45.23439" lon="1.54621">
        <ele>175.6</ele>
        <time>1970-01-01T00:39:40.000Z</time>
      </trkpt>
      <trkpt lat="45.23437" lon="1.54625">
        <ele>174</ele>
        <time>1970-01-01T00:39:41.000Z</time>
      </trkpt>
      <trkpt lat="45.23434" lon="1.54628">
        <ele>172.8</ele>
        <time>1970-01-01T00:39:42.000Z</time>
      </trkpt>
      <trkpt lat="45.23433" lon="1.5463">
        <ele>171.6</ele>
        <time>1970-01-01T00:39:43.000Z</time>
      </trkpt>
      <trkpt lat="45.2343" lon="1.54634">
        <ele>170</ele>
        <time>1970-01-01T00:39:45.000Z</time>
      </trkpt>
      <trkpt lat="45.23429" lon="1.54644">
        <ele>169.4</ele>
        <time>1970-01-01T00:39:52.000Z</time>
      </trkpt>
      <trkpt lat="45.23428" lon="1.54643">
        <ele>170</ele>
        <time>1970-01-01T00:39:59.000Z</time>
      </trkpt>
      <trkpt lat="45.23427" lon="1.54646">
        <ele>150.4</ele>
        <time>1970-01-01T00:22:08.000Z</time>
      </trkpt>
      <trkpt lat="45.23427" lon="1.54651">
        <ele>150</ele>
        <time>1970-01-01T00:22:09.000Z</time>
      </trkpt>
      <trkpt lat="45.23427" lon="1.54654">
        <ele>150</ele>
        <time>1970-01-01T00:22:10.000Z</time>
      </trkpt>
      <trkpt lat="45.23427" lon="1.54658">
        <ele>149.8</ele>
        <time>1970-01-01T00:22:11.000Z</time>
      </trkpt>
      <trkpt lat="45.23427" lon="1.5467">
        <ele>149.2</ele>
        <time>1970-01-01T00:22:15.000Z</time>
      </trkpt>
      <trkpt lat="45.23428" lon="1.5469">
        <ele>149.4</ele>
        <time>1970-01-01T00:22:21.000Z</time>
      </trkpt>
      <trkpt lat="45.23427" lon="1.54698">
        <ele>149.4</ele>
        <time>1970-01-01T00:22:23.000Z</time>
      </trkpt>
      <trkpt lat="45.23428" lon="1.54703">
        <ele>149.4</ele>
        <time>1970-01-01T00:22:25.000Z</time>
      </trkpt>
      <trkpt lat="45.23428" lon="1.54706">
        <ele>149.4</ele>
        <time>1970-01-01T00:22:26.000Z</time>
      </trkpt>
      <trkpt lat="45.23426" lon="1.54711">
        <ele>150.8</ele>
        <time>1970-01-01T00:22:28.000Z</time>
      </trkpt>
      <trkpt lat="45.23424" lon="1.54713">
        <ele>150.4</ele>
        <time>1970-01-01T00:22:29.000Z</time>
      </trkpt>
      <trkpt lat="45.23422" lon="1.54716">
        <ele>150.4</ele>
        <time>1970-01-01T00:22:30.000Z</time>
      </trkpt>
      <trkpt lat="45.23411" lon="1.54722">
        <ele>150</ele>
        <time>1970-01-01T00:22:35.000Z</time>
      </trkpt>
      <trkpt lat="45.23409" lon="1.54722">
        <ele>150</ele>
        <time>1970-01-01T00:22:36.000Z</time>
      </trkpt>
      <trkpt lat="45.23392" lon="1.54723">
        <ele>151</ele>
        <time>1970-01-01T00:22:44.000Z</time>
      </trkpt>
      <trkpt lat="45.23387" lon="1.54723">
        <ele>151.8</ele>
        <time>1970-01-01T00:22:46.000Z</time>
      </trkpt>
      <trkpt lat="45.23385" lon="1.54723">
        <ele>152</ele>
        <time>1970-01-01T00:22:47.000Z</time>
      </trkpt>
      <trkpt lat="45.23384" lon="1.54723">
        <ele>152.8</ele>
        <time>1970-01-01T00:22:48.000Z</time>
      </trkpt>
      <trkpt lat="45.23382" lon="1.54722">
        <ele>153.4</ele>
        <time>1970-01-01T00:22:49.000Z</time>
      </trkpt>
      <trkpt lat="45.23381" lon="1.54721">
        <ele>153.4</ele>
        <time>1970-01-01T00:22:50.000Z</time>
      </trkpt>
      <trkpt lat="45.23378" lon="1.54718">
        <ele>154.2</ele>
        <time>1970-01-01T00:22:52.000Z</time>
      </trkpt>
      <trkpt lat="45.23377" lon="1.54715">
        <ele>154.4</ele>
        <time>1970-01-01T00:22:53.000Z</time>
      </trkpt>
      <trkpt lat="45.23373" lon="1.54711">
        <ele>155.2</ele>
        <time>1970-01-01T00:22:56.000Z</time>
      </trkpt>
      <trkpt lat="45.23372" lon="1.54709">
        <ele>155.6</ele>
        <time>1970-01-01T00:22:57.000Z</time>
      </trkpt>
      <trkpt lat="45.23368" lon="1.54705">
        <ele>156.6</ele>
        <time>1970-01-01T00:23:00.000Z</time>
      </trkpt>
      <trkpt lat="45.23364" lon="1.54696">
        <ele>157.8</ele>
        <time>1970-01-01T00:23:06.000Z</time>
      </trkpt>
      <trkpt lat="45.23363" lon="1.54691">
        <ele>158.8</ele>
        <time>1970-01-01T00:23:09.000Z</time>
      </trkpt>
      <trkpt lat="45.23362" lon="1.54689">
        <ele>159.2</ele>
        <time>1970-01-01T00:23:10.000Z</time>
      </trkpt>
      <trkpt lat="45.2336" lon="1.54683">
        <ele>159.6</ele>
        <time>1970-01-01T00:23:12.000Z</time>
      </trkpt>
      <trkpt lat="45.23359" lon="1.54682">
        <ele>160.2</ele>
        <time>1970-01-01T00:23:13.000Z</time>
      </trkpt>
      <trkpt lat="45.23359" lon="1.5468">
        <ele>160.2</ele>
        <time>1970-01-01T00:23:14.000Z</time>
      </trkpt>
      <trkpt lat="45.23358" lon="1.54677">
        <ele>163.6</ele>
        <time>1970-01-01T00:23:16.000Z</time>
      </trkpt>
      <trkpt lat="45.23357" lon="1.54674">
        <ele>163.6</ele>
        <time>1970-01-01T00:23:17.000Z</time>
      </trkpt>
      <trkpt lat="45.23355" lon="1.5467">
        <ele>163.6</ele>
        <time>1970-01-01T00:23:19.000Z</time>
      </trkpt>
      <trkpt lat="45.23355" lon="1.54667">
        <ele>164.2</ele>
        <time>1970-01-01T00:23:21.000Z</time>
      </trkpt>
      <trkpt lat="45.23354" lon="1.54663">
        <ele>165</ele>
        <time>1970-01-01T00:23:23.000Z</time>
      </trkpt>
      <trkpt lat="45.2335" lon="1.54655">
        <ele>166</ele>
        <time>1970-01-01T00:23:27.000Z</time>
      </trkpt>
      <trkpt lat="45.2335" lon="1.54653">
        <ele>166.2</ele>
        <time>1970-01-01T00:23:28.000Z</time>
      </trkpt>
      <trkpt lat="45.23349" lon="1.54648">
        <ele>166.8</ele>
        <time>1970-01-01T00:23:30.000Z</time>
      </trkpt>
      <trkpt lat="45.23348" lon="1.54645">
        <ele>167.6</ele>
        <time>1970-01-01T00:23:31.000Z</time>
      </trkpt>
      <trkpt lat="45.23346" lon="1.5464">
        <ele>167.8</ele>
        <time>1970-01-01T00:23:33.000Z</time>
      </trkpt>
      <trkpt lat="45.23346" lon="1.54635">
        <ele>168.8</ele>
        <time>1970-01-01T00:23:35.000Z</time>
      </trkpt>
      <trkpt lat="45.23345" lon="1.54634">
        <ele>169</ele>
        <time>1970-01-01T00:23:36.000Z</time>
      </trkpt>
      <trkpt lat="45.23344" lon="1.54629">
        <ele>170</ele>
        <time>1970-01-01T00:23:38.000Z</time>
      </trkpt>
      <trkpt lat="45.23344" lon="1.54628">
        <ele>170.4</ele>
        <time>1970-01-01T00:23:39.000Z</time>
      </trkpt>
      <trkpt lat="45.23343" lon="1.54626">
        <ele>173.8</ele>
        <time>1970-01-01T00:23:40.000Z</time>
      </trkpt>
      <trkpt lat="45.2334" lon="1.54619">
        <ele>173.8</ele>
        <time>1970-01-01T00:23:44.000Z</time>
      </trkpt>
      <trkpt lat="45.2334" lon="1.54617">
        <ele>173.8</ele>
        <time>1970-01-01T00:23:45.000Z</time>
      </trkpt>
      <trkpt lat="45.2334" lon="1.54613">
        <ele>174.6</ele>
        <time>1970-01-01T00:23:48.000Z</time>
      </trkpt>
      <trkpt lat="45.23339" lon="1.5461">
        <ele>175.2</ele>
        <time>1970-01-01T00:23:49.000Z</time>
      </trkpt>
      <trkpt lat="45.23338" lon="1.54608">
        <ele>175.4</ele>
        <time>1970-01-01T00:23:50.000Z</time>
      </trkpt>
      <trkpt lat="45.23338" lon="1.54606">
        <ele>175.6</ele>
        <time>1970-01-01T00:23:51.000Z</time>
      </trkpt>
      <trkpt lat="45.23336" lon="1.54601">
        <ele>176.4</ele>
        <time>1970-01-01T00:23:54.000Z</time>
      </trkpt>
      <trkpt lat="45.23335" lon="1.54598">
        <ele>177.2</ele>
        <time>1970-01-01T00:23:56.000Z</time>
      </trkpt>
      <trkpt lat="45.23333" lon="1.54596">
        <ele>177.8</ele>
        <time>1970-01-01T00:23:58.000Z</time>
      </trkpt>
      <trkpt lat="45.23335" lon="1.54596">
        <ele>178.4</ele>
        <time>1970-01-01T00:24:01.000Z</time>
      </trkpt>
      <trkpt lat="45.23336" lon="1.54597">
        <ele>179</ele>
        <time>1970-01-01T00:24:02.000Z</time>
      </trkpt>
      <trkpt lat="45.23335" lon="1.54598">
        <ele>179.6</ele>
        <time>1970-01-01T00:24:03.000Z</time>
      </trkpt>
      <trkpt lat="45.23335" lon="1.546">
        <ele>180</ele>
        <time>1970-01-01T00:24:05.000Z</time>
      </trkpt>
      <trkpt lat="45.23335" lon="1.54601">
        <ele>180.2</ele>
        <time>1970-01-01T00:24:06.000Z</time>
      </trkpt>
      <trkpt lat="45.23334" lon="1.54606">
        <ele>180.6</ele>
        <time>1970-01-01T00:24:08.000Z</time>
      </trkpt>
      <trkpt lat="45.23333" lon="1.54608">
        <ele>180.6</ele>
        <time>1970-01-01T00:24:09.000Z</time>
      </trkpt>
      <trkpt lat="45.23333" lon="1.5461">
        <ele>180.6</ele>
        <time>1970-01-01T00:24:11.000Z</time>
      </trkpt>
      <trkpt lat="45.23333" lon="1.54618">
        <ele>180.6</ele>
        <time>1970-01-01T00:24:16.000Z</time>
      </trkpt>
      <trkpt lat="45.23333" lon="1.54621">
        <ele>180.6</ele>
        <time>1970-01-01T00:24:18.000Z</time>
      </trkpt>
      <trkpt lat="45.23333" lon="1.54636">
        <ele>180.8</ele>
        <time>1970-01-01T00:24:25.000Z</time>
      </trkpt>
      <trkpt lat="45.23333" lon="1.54639">
        <ele>180.8</ele>
        <time>1970-01-01T00:24:26.000Z</time>
      </trkpt>
      <trkpt lat="45.23327" lon="1.54654">
        <ele>181</ele>
        <time>1970-01-01T00:24:31.000Z</time>
      </trkpt>
      <trkpt lat="45.23321" lon="1.5466">
        <ele>181.2</ele>
        <time>1970-01-01T00:24:35.000Z</time>
      </trkpt>
      <trkpt lat="45.23317" lon="1.54661">
        <ele>181.4</ele>
        <time>1970-01-01T00:24:37.000Z</time>
      </trkpt>
      <trkpt lat="45.23307" lon="1.54667">
        <ele>181.6</ele>
        <time>1970-01-01T00:24:40.000Z</time>
      </trkpt>
      <trkpt lat="45.23304" lon="1.54668">
        <ele>182</ele>
        <time>1970-01-01T00:24:41.000Z</time>
      </trkpt>
      <trkpt lat="45.23299" lon="1.5467">
        <ele>182.2</ele>
        <time>1970-01-01T00:24:43.000Z</time>
      </trkpt>
      <trkpt lat="45.23297" lon="1.54671">
        <ele>182.8</ele>
        <time>1970-01-01T00:24:44.000Z</time>
      </trkpt>
      <trkpt lat="45.23295" lon="1.54672">
        <ele>183</ele>
        <time>1970-01-01T00:24:45.000Z</time>
      </trkpt>
      <trkpt lat="45.23291" lon="1.54672">
        <ele>183.6</ele>
        <time>1970-01-01T00:24:48.000Z</time>
      </trkpt>
      <trkpt lat="45.23288" lon="1.54672">
        <ele>184.4</ele>
        <time>1970-01-01T00:24:50.000Z</time>
      </trkpt>
      <trkpt lat="45.23286" lon="1.54671">
        <ele>184.6</ele>
        <time>1970-01-01T00:24:51.000Z</time>
      </trkpt>
      <trkpt lat="45.23285" lon="1.54671">
        <ele>184.6</ele>
        <time>1970-01-01T00:24:52.000Z</time>
      </trkpt>
      <trkpt lat="45.2328" lon="1.54669">
        <ele>185.8</ele>
        <time>1970-01-01T00:24:56.000Z</time>
      </trkpt>
      <trkpt lat="45.23277" lon="1.54668">
        <ele>186</ele>
        <time>1970-01-01T00:24:58.000Z</time>
      </trkpt>
      <trkpt lat="45.23273" lon="1.54666">
        <ele>186.8</ele>
        <time>1970-01-01T00:25:01.000Z</time>
      </trkpt>
      <trkpt lat="45.2327" lon="1.54666">
        <ele>187</ele>
        <time>1970-01-01T00:25:03.000Z</time>
      </trkpt>
      <trkpt lat="45.23269" lon="1.54667">
        <ele>187.4</ele>
        <time>1970-01-01T00:25:04.000Z</time>
      </trkpt>
      <trkpt lat="45.23267" lon="1.54667">
        <ele>188</ele>
        <time>1970-01-01T00:25:06.000Z</time>
      </trkpt>
      <trkpt lat="45.23262" lon="1.54671">
        <ele>188.4</ele>
        <time>1970-01-01T00:25:08.000Z</time>
      </trkpt>
      <trkpt lat="45.23261" lon="1.54671">
        <ele>188.6</ele>
        <time>1970-01-01T00:25:09.000Z</time>
      </trkpt>
      <trkpt lat="45.2326" lon="1.54672">
        <ele>189.2</ele>
        <time>1970-01-01T00:25:10.000Z</time>
      </trkpt>
      <trkpt lat="45.23256" lon="1.54672">
        <ele>189.8</ele>
        <time>1970-01-01T00:25:13.000Z</time>
      </trkpt>
      <trkpt lat="45.23255" lon="1.54672">
        <ele>190.6</ele>
        <time>1970-01-01T00:25:14.000Z</time>
      </trkpt>
      <trkpt lat="45.23253" lon="1.54671">
        <ele>190.8</ele>
        <time>1970-01-01T00:25:15.000Z</time>
      </trkpt>
      <trkpt lat="45.23252" lon="1.54671">
        <ele>191</ele>
        <time>1970-01-01T00:25:16.000Z</time>
      </trkpt>
      <trkpt lat="45.23249" lon="1.5467">
        <ele>191.6</ele>
        <time>1970-01-01T00:25:18.000Z</time>
      </trkpt>
      <trkpt lat="45.23244" lon="1.5467">
        <ele>192.8</ele>
        <time>1970-01-01T00:25:22.000Z</time>
      </trkpt>
      <trkpt lat="45.23242" lon="1.54671">
        <ele>193.2</ele>
        <time>1970-01-01T00:25:23.000Z</time>
      </trkpt>
      <trkpt lat="45.23237" lon="1.54671">
        <ele>194</ele>
        <time>1970-01-01T00:25:26.000Z</time>
      </trkpt>
      <trkpt lat="45.23231" lon="1.54669">
        <ele>195</ele>
        <time>1970-01-01T00:25:30.000Z</time>
      </trkpt>
      <trkpt lat="45.2323" lon="1.54669">
        <ele>195.6</ele>
        <time>1970-01-01T00:25:31.000Z</time>
      </trkpt>
      <trkpt lat="45.23225" lon="1.54669">
        <ele>196.2</ele>
        <time>1970-01-01T00:25:34.000Z</time>
      </trkpt>
      <trkpt lat="45.23223" lon="1.54669">
        <ele>196.8</ele>
        <time>1970-01-01T00:25:35.000Z</time>
      </trkpt>
      <trkpt lat="45.23221" lon="1.54669">
        <ele>197.2</ele>
        <time>1970-01-01T00:25:37.000Z</time>
      </trkpt>
      <trkpt lat="45.23219" lon="1.54671">
        <ele>197.8</ele>
        <time>1970-01-01T00:25:39.000Z</time>
      </trkpt>
      <trkpt lat="45.23217" lon="1.54673">
        <ele>199</ele>
        <time>1970-01-01T00:25:42.000Z</time>
      </trkpt>
      <trkpt lat="45.23215" lon="1.54676">
        <ele>199.2</ele>
        <time>1970-01-01T00:25:44.000Z</time>
      </trkpt>
      <trkpt lat="45.23211" lon="1.5468">
        <ele>200.2</ele>
        <time>1970-01-01T00:25:48.000Z</time>
      </trkpt>
      <trkpt lat="45.2321" lon="1.54681">
        <ele>201.2</ele>
        <time>1970-01-01T00:25:51.000Z</time>
      </trkpt>
      <trkpt lat="45.23209" lon="1.54684">
        <ele>202.2</ele>
        <time>1970-01-01T00:25:54.000Z</time>
      </trkpt>
      <trkpt lat="45.23208" lon="1.54685">
        <ele>202.4</ele>
        <time>1970-01-01T00:25:55.000Z</time>
      </trkpt>
      <trkpt lat="45.23207" lon="1.54687">
        <ele>202.8</ele>
        <time>1970-01-01T00:25:57.000Z</time>
      </trkpt>
      <trkpt lat="45.23205" lon="1.54688">
        <ele>203.2</ele>
        <time>1970-01-01T00:25:58.000Z</time>
      </trkpt>
      <trkpt lat="45.23201" lon="1.54692">
        <ele>203.8</ele>
        <time>1970-01-01T00:26:00.000Z</time>
      </trkpt>
      <trkpt lat="45.23199" lon="1.54694">
        <ele>204</ele>
        <time>1970-01-01T00:26:01.000Z</time>
      </trkpt>
      <trkpt lat="45.23199" lon="1.54696">
        <ele>204</ele>
        <time>1970-01-01T00:26:02.000Z</time>
      </trkpt>
      <trkpt lat="45.23195" lon="1.54698">
        <ele>204.6</ele>
        <time>1970-01-01T00:26:05.000Z</time>
      </trkpt>
      <trkpt lat="45.23194" lon="1.54698">
        <ele>205.2</ele>
        <time>1970-01-01T00:26:06.000Z</time>
      </trkpt>
      <trkpt lat="45.23193" lon="1.54699">
        <ele>205.2</ele>
        <time>1970-01-01T00:26:07.000Z</time>
      </trkpt>
      <trkpt lat="45.23189" lon="1.54703">
        <ele>206.2</ele>
        <time>1970-01-01T00:26:09.000Z</time>
      </trkpt>
      <trkpt lat="45.23181" lon="1.54712">
        <ele>206.6</ele>
        <time>1970-01-01T00:26:13.000Z</time>
      </trkpt>
      <trkpt lat="45.23177" lon="1.54716">
        <ele>207.2</ele>
        <time>1970-01-01T00:26:16.000Z</time>
      </trkpt>
      <trkpt lat="45.23175" lon="1.54719">
        <ele>208</ele>
        <time>1970-01-01T00:26:19.000Z</time>
      </trkpt>
      <trkpt lat="45.23172" lon="1.54721">
        <ele>208.4</ele>
        <time>1970-01-01T00:26:21.000Z</time>
      </trkpt>
      <trkpt lat="45.23166" lon="1.54731">
        <ele>210</ele>
        <time>1970-01-01T00:26:26.000Z</time>
      </trkpt>
      <trkpt lat="45.23165" lon="1.54733">
        <ele>210</ele>
        <time>1970-01-01T00:26:27.000Z</time>
      </trkpt>
      <trkpt lat="45.23165" lon="1.54738">
        <ele>211.2</ele>
        <time>1970-01-01T00:26:31.000Z</time>
      </trkpt>
      <trkpt lat="45.23165" lon="1.54739">
        <ele>211.4</ele>
        <time>1970-01-01T00:26:32.000Z</time>
      </trkpt>
      <trkpt lat="45.23158" lon="1.54749">
        <ele>212.4</ele>
        <time>1970-01-01T00:26:37.000Z</time>
      </trkpt>
      <trkpt lat="45.23156" lon="1.54751">
        <ele>212.6</ele>
        <time>1970-01-01T00:26:38.000Z</time>
      </trkpt>
      <trkpt lat="45.23152" lon="1.54755">
        <ele>213.6</ele>
        <time>1970-01-01T00:26:41.000Z</time>
      </trkpt>
      <trkpt lat="45.23148" lon="1.54757">
        <ele>214.4</ele>
        <time>1970-01-01T00:26:44.000Z</time>
      </trkpt>
      <trkpt lat="45.23146" lon="1.54757">
        <ele>214.8</ele>
        <time>1970-01-01T00:26:45.000Z</time>
      </trkpt>
      <trkpt lat="45.2314" lon="1.5476">
        <ele>216</ele>
        <time>1970-01-01T00:26:49.000Z</time>
      </trkpt>
      <trkpt lat="45.23139" lon="1.54761">
        <ele>216.8</ele>
        <time>1970-01-01T00:26:50.000Z</time>
      </trkpt>
      <trkpt lat="45.23139" lon="1.54765">
        <ele>217</ele>
        <time>1970-01-01T00:26:52.000Z</time>
      </trkpt>
      <trkpt lat="45.23139" lon="1.54767">
        <ele>217.8</ele>
        <time>1970-01-01T00:26:53.000Z</time>
      </trkpt>
      <trkpt lat="45.23139" lon="1.54768">
        <ele>217.8</ele>
        <time>1970-01-01T00:26:54.000Z</time>
      </trkpt>
      <trkpt lat="45.23138" lon="1.54771">
        <ele>218</ele>
        <time>1970-01-01T00:26:56.000Z</time>
      </trkpt>
      <trkpt lat="45.23138" lon="1.54772">
        <ele>218.4</ele>
        <time>1970-01-01T00:26:57.000Z</time>
      </trkpt>
      <trkpt lat="45.23139" lon="1.54775">
        <ele>218.8</ele>
        <time>1970-01-01T00:26:59.000Z</time>
      </trkpt>
      <trkpt lat="45.23138" lon="1.54779">
        <ele>219</ele>
        <time>1970-01-01T00:27:01.000Z</time>
      </trkpt>
      <trkpt lat="45.23137" lon="1.54781">
        <ele>219.2</ele>
        <time>1970-01-01T00:27:02.000Z</time>
      </trkpt>
      <trkpt lat="45.23135" lon="1.54788">
        <ele>219.8</ele>
        <time>1970-01-01T00:27:05.000Z</time>
      </trkpt>
      <trkpt lat="45.23133" lon="1.548">
        <ele>220.4</ele>
        <time>1970-01-01T00:27:08.000Z</time>
      </trkpt>
      <trkpt lat="45.23128" lon="1.54815">
        <ele>221</ele>
        <time>1970-01-01T00:27:13.000Z</time>
      </trkpt>
      <trkpt lat="45.23125" lon="1.54827">
        <ele>222</ele>
        <time>1970-01-01T00:27:17.000Z</time>
      </trkpt>
      <trkpt lat="45.23125" lon="1.54831">
        <ele>222.6</ele>
        <time>1970-01-01T00:27:19.000Z</time>
      </trkpt>
      <trkpt lat="45.23122" lon="1.54838">
        <ele>223.2</ele>
        <time>1970-01-01T00:27:22.000Z</time>
      </trkpt>
      <trkpt lat="45.23121" lon="1.54846">
        <ele>224.2</ele>
        <time>1970-01-01T00:27:26.000Z</time>
      </trkpt>
      <trkpt lat="45.23121" lon="1.54848">
        <ele>224.4</ele>
        <time>1970-01-01T00:27:27.000Z</time>
      </trkpt>
      <trkpt lat="45.23118" lon="1.54854">
        <ele>225.4</ele>
        <time>1970-01-01T00:27:31.000Z</time>
      </trkpt>
      <trkpt lat="45.23115" lon="1.54858">
        <ele>226.6</ele>
        <time>1970-01-01T00:27:34.000Z</time>
      </trkpt>
      <trkpt lat="45.23113" lon="1.54861">
        <ele>226.8</ele>
        <time>1970-01-01T00:27:36.000Z</time>
      </trkpt>
      <trkpt lat="45.23112" lon="1.54864">
        <ele>228.2</ele>
        <time>1970-01-01T00:27:38.000Z</time>
      </trkpt>
      <trkpt lat="45.23109" lon="1.54868">
        <ele>228.6</ele>
        <time>1970-01-01T00:27:41.000Z</time>
      </trkpt>
      <trkpt lat="45.23107" lon="1.54869">
        <ele>229</ele>
        <time>1970-01-01T00:27:42.000Z</time>
      </trkpt>
      <trkpt lat="45.23106" lon="1.54869">
        <ele>229.6</ele>
        <time>1970-01-01T00:27:43.000Z</time>
      </trkpt>
      <trkpt lat="45.23105" lon="1.54872">
        <ele>230.2</ele>
        <time>1970-01-01T00:27:45.000Z</time>
      </trkpt>
      <trkpt lat="45.23103" lon="1.54876">
        <ele>231</ele>
        <time>1970-01-01T00:27:48.000Z</time>
      </trkpt>
      <trkpt lat="45.23099" lon="1.5488">
        <ele>231.8</ele>
        <time>1970-01-01T00:27:52.000Z</time>
      </trkpt>
      <trkpt lat="45.23098" lon="1.54881">
        <ele>232.2</ele>
        <time>1970-01-01T00:27:53.000Z</time>
      </trkpt>
      <trkpt lat="45.23093" lon="1.54888">
        <ele>232.4</ele>
        <time>1970-01-01T00:27:56.000Z</time>
      </trkpt>
      <trkpt lat="45.23092" lon="1.5489">
        <ele>232.8</ele>
        <time>1970-01-01T00:27:57.000Z</time>
      </trkpt>
      <trkpt lat="45.2309" lon="1.54891">
        <ele>233.2</ele>
        <time>1970-01-01T00:27:59.000Z</time>
      </trkpt>
      <trkpt lat="45.23089" lon="1.54893">
        <ele>233.4</ele>
        <time>1970-01-01T00:28:00.000Z</time>
      </trkpt>
      <trkpt lat="45.23089" lon="1.54894">
        <ele>233.6</ele>
        <time>1970-01-01T00:28:01.000Z</time>
      </trkpt>
      <trkpt lat="45.23089" lon="1.54894">
        <ele>233.6</ele>
        <time>1970-01-01T00:28:02.000Z</time>
      </trkpt>
      <trkpt lat="45.23087" lon="1.54896">
        <ele>234.4</ele>
        <time>1970-01-01T00:28:06.000Z</time>
      </trkpt>
      <trkpt lat="45.23086" lon="1.54897">
        <ele>235</ele>
        <time>1970-01-01T00:28:08.000Z</time>
      </trkpt>
      <trkpt lat="45.23085" lon="1.54897">
        <ele>235.4</ele>
        <time>1970-01-01T00:28:09.000Z</time>
      </trkpt>
      <trkpt lat="45.23084" lon="1.54898">
        <ele>235.6</ele>
        <time>1970-01-01T00:28:10.000Z</time>
      </trkpt>
      <trkpt lat="45.23082" lon="1.54899">
        <ele>235.8</ele>
        <time>1970-01-01T00:28:12.000Z</time>
      </trkpt>
      <trkpt lat="45.2308" lon="1.549">
        <ele>236.6</ele>
        <time>1970-01-01T00:28:14.000Z</time>
      </trkpt>
      <trkpt lat="45.23078" lon="1.549">
        <ele>236.8</ele>
        <time>1970-01-01T00:28:16.000Z</time>
      </trkpt>
      <trkpt lat="45.23074" lon="1.54902">
        <ele>237.6</ele>
        <time>1970-01-01T00:28:19.000Z</time>
      </trkpt>
      <trkpt lat="45.2307" lon="1.54904">
        <ele>237.8</ele>
        <time>1970-01-01T00:28:21.000Z</time>
      </trkpt>
      <trkpt lat="45.23069" lon="1.54904">
        <ele>238.2</ele>
        <time>1970-01-01T00:28:23.000Z</time>
      </trkpt>
      <trkpt lat="45.23069" lon="1.54904">
        <ele>238.6</ele>
        <time>1970-01-01T00:28:25.000Z</time>
      </trkpt>
      <trkpt lat="45.23069" lon="1.54904">
        <ele>238.6</ele>
        <time>1970-01-01T00:28:26.000Z</time>
      </trkpt>
      <trkpt lat="45.23069" lon="1.54904">
        <ele>238.8</ele>
        <time>1970-01-01T00:28:27.000Z</time>
      </trkpt>
      <trkpt lat="45.23069" lon="1.54905">
        <ele>238.8</ele>
        <time>1970-01-01T00:28:29.000Z</time>
      </trkpt>
      <trkpt lat="45.23069" lon="1.54905">
        <ele>238.8</ele>
        <time>1970-01-01T00:28:31.000Z</time>
      </trkpt>
      <trkpt lat="45.23069" lon="1.54909">
        <ele>239.8</ele>
        <time>1970-01-01T00:28:36.000Z</time>
      </trkpt>
      <trkpt lat="45.2307" lon="1.54914">
        <ele>241</ele>
        <time>1970-01-01T00:28:42.000Z</time>
      </trkpt>
      <trkpt lat="45.2307" lon="1.54915">
        <ele>241.2</ele>
        <time>1970-01-01T00:28:43.000Z</time>
      </trkpt>
      <trkpt lat="45.23071" lon="1.5492">
        <ele>242</ele>
        <time>1970-01-01T00:28:47.000Z</time>
      </trkpt>
      <trkpt lat="45.23072" lon="1.54922">
        <ele>242.2</ele>
        <time>1970-01-01T00:28:49.000Z</time>
      </trkpt>
      <trkpt lat="45.23073" lon="1.54923">
        <ele>242.6</ele>
        <time>1970-01-01T00:28:50.000Z</time>
      </trkpt>
      <trkpt lat="45.23074" lon="1.54928">
        <ele>243.2</ele>
        <time>1970-01-01T00:28:53.000Z</time>
      </trkpt>
      <trkpt lat="45.23074" lon="1.54929">
        <ele>243.2</ele>
        <time>1970-01-01T00:28:54.000Z</time>
      </trkpt>
      <trkpt lat="45.23074" lon="1.54933">
        <ele>243.8</ele>
        <time>1970-01-01T00:28:58.000Z</time>
      </trkpt>
      <trkpt lat="45.23074" lon="1.54936">
        <ele>244.2</ele>
        <time>1970-01-01T00:29:01.000Z</time>
      </trkpt>
      <trkpt lat="45.23074" lon="1.54938">
        <ele>244.4</ele>
        <time>1970-01-01T00:29:02.000Z</time>
      </trkpt>
      <trkpt lat="45.23073" lon="1.5494">
        <ele>244.6</ele>
        <time>1970-01-01T00:29:03.000Z</time>
      </trkpt>
      <trkpt lat="45.23073" lon="1.54942">
        <ele>244.6</ele>
        <time>1970-01-01T00:29:04.000Z</time>
      </trkpt>
      <trkpt lat="45.23072" lon="1.54945">
        <ele>245.2</ele>
        <time>1970-01-01T00:29:06.000Z</time>
      </trkpt>
      <trkpt lat="45.23071" lon="1.54946">
        <ele>245.4</ele>
        <time>1970-01-01T00:29:08.000Z</time>
      </trkpt>
      <trkpt lat="45.2307" lon="1.54947">
        <ele>245.6</ele>
        <time>1970-01-01T00:29:09.000Z</time>
      </trkpt>
      <trkpt lat="45.2307" lon="1.54949">
        <ele>245.8</ele>
        <time>1970-01-01T00:29:11.000Z</time>
      </trkpt>
      <trkpt lat="45.2307" lon="1.54951">
        <ele>246.4</ele>
        <time>1970-01-01T00:29:13.000Z</time>
      </trkpt>
      <trkpt lat="45.23071" lon="1.54953">
        <ele>246.6</ele>
        <time>1970-01-01T00:29:14.000Z</time>
      </trkpt>
      <trkpt lat="45.23072" lon="1.54955">
        <ele>247</ele>
        <time>1970-01-01T00:29:16.000Z</time>
      </trkpt>
      <trkpt lat="45.23072" lon="1.54956">
        <ele>247.2</ele>
        <time>1970-01-01T00:29:17.000Z</time>
      </trkpt>
      <trkpt lat="45.2307" lon="1.5496">
        <ele>247.4</ele>
        <time>1970-01-01T00:29:19.000Z</time>
      </trkpt>
      <trkpt lat="45.23069" lon="1.54965">
        <ele>247.6</ele>
        <time>1970-01-01T00:29:21.000Z</time>
      </trkpt>
      <trkpt lat="45.23067" lon="1.54967">
        <ele>247.8</ele>
        <time>1970-01-01T00:29:22.000Z</time>
      </trkpt>
      <trkpt lat="45.23066" lon="1.54975">
        <ele>248.4</ele>
        <time>1970-01-01T00:29:25.000Z</time>
      </trkpt>
      <trkpt lat="45.23065" lon="1.54979">
        <ele>248.8</ele>
        <time>1970-01-01T00:29:27.000Z</time>
      </trkpt>
      <trkpt lat="45.23063" lon="1.54987">
        <ele>250.4</ele>
        <time>1970-01-01T00:29:31.000Z</time>
      </trkpt>
      <trkpt lat="45.23061" lon="1.54991">
        <ele>250.6</ele>
        <time>1970-01-01T00:29:33.000Z</time>
      </trkpt>
      <trkpt lat="45.23061" lon="1.54994">
        <ele>251</ele>
        <time>1970-01-01T00:29:34.000Z</time>
      </trkpt>
      <trkpt lat="45.2306" lon="1.54997">
        <ele>251.4</ele>
        <time>1970-01-01T00:29:35.000Z</time>
      </trkpt>
      <trkpt lat="45.23059" lon="1.54999">
        <ele>251.6</ele>
        <time>1970-01-01T00:29:36.000Z</time>
      </trkpt>
      <trkpt lat="45.23058" lon="1.55008">
        <ele>252</ele>
        <time>1970-01-01T00:29:39.000Z</time>
      </trkpt>
      <trkpt lat="45.23058" lon="1.5501">
        <ele>252.2</ele>
        <time>1970-01-01T00:29:40.000Z</time>
      </trkpt>
      <trkpt lat="45.23058" lon="1.55015">
        <ele>252.4</ele>
        <time>1970-01-01T00:29:42.000Z</time>
      </trkpt>
      <trkpt lat="45.23058" lon="1.55018">
        <ele>252.6</ele>
        <time>1970-01-01T00:29:43.000Z</time>
      </trkpt>
      <trkpt lat="45.23057" lon="1.55026">
        <ele>253</ele>
        <time>1970-01-01T00:29:46.000Z</time>
      </trkpt>
      <trkpt lat="45.23058" lon="1.55027">
        <ele>253</ele>
        <time>1970-01-01T00:29:47.000Z</time>
      </trkpt>
      <trkpt lat="45.23059" lon="1.55029">
        <ele>253.6</ele>
        <time>1970-01-01T00:29:48.000Z</time>
      </trkpt>
      <trkpt lat="45.23059" lon="1.55031">
        <ele>253.8</ele>
        <time>1970-01-01T00:29:49.000Z</time>
      </trkpt>
      <trkpt lat="45.23059" lon="1.55034">
        <ele>254</ele>
        <time>1970-01-01T00:29:51.000Z</time>
      </trkpt>
      <trkpt lat="45.23058" lon="1.55036">
        <ele>254.2</ele>
        <time>1970-01-01T00:29:52.000Z</time>
      </trkpt>
      <trkpt lat="45.23058" lon="1.55038">
        <ele>254.2</ele>
        <time>1970-01-01T00:29:53.000Z</time>
      </trkpt>
      <trkpt lat="45.23055" lon="1.55053">
        <ele>254.4</ele>
        <time>1970-01-01T00:29:59.000Z</time>
      </trkpt>
      <trkpt lat="45.23054" lon="1.55061">
        <ele>254.8</ele>
        <time>1970-01-01T00:30:02.000Z</time>
      </trkpt>
      <trkpt lat="45.23052" lon="1.55065">
        <ele>254.8</ele>
        <time>1970-01-01T00:30:04.000Z</time>
      </trkpt>
      <trkpt lat="45.23051" lon="1.55068">
        <ele>254.8</ele>
        <time>1970-01-01T00:30:05.000Z</time>
      </trkpt>
      <trkpt lat="45.23047" lon="1.55072">
        <ele>255.4</ele>
        <time>1970-01-01T00:30:08.000Z</time>
      </trkpt>
      <trkpt lat="45.23045" lon="1.5507">
        <ele>255.4</ele>
        <time>1970-01-01T00:30:10.000Z</time>
      </trkpt>
      <trkpt lat="45.23044" lon="1.55069">
        <ele>255.8</ele>
        <time>1970-01-01T00:30:11.000Z</time>
      </trkpt>
      <trkpt lat="45.23044" lon="1.55067">
        <ele>256.6</ele>
        <time>1970-01-01T00:30:12.000Z</time>
      </trkpt>
      <trkpt lat="45.23044" lon="1.55065">
        <ele>257</ele>
        <time>1970-01-01T00:30:13.000Z</time>
      </trkpt>
      <trkpt lat="45.23042" lon="1.55064">
        <ele>257</ele>
        <time>1970-01-01T00:30:14.000Z</time>
      </trkpt>
      <trkpt lat="45.23042" lon="1.55061">
        <ele>258</ele>
        <time>1970-01-01T00:30:16.000Z</time>
      </trkpt>
      <trkpt lat="45.2304" lon="1.55059">
        <ele>258.2</ele>
        <time>1970-01-01T00:30:18.000Z</time>
      </trkpt>
      <trkpt lat="45.23036" lon="1.55055">
        <ele>258.6</ele>
        <time>1970-01-01T00:30:21.000Z</time>
      </trkpt>
      <trkpt lat="45.23035" lon="1.55053">
        <ele>258.8</ele>
        <time>1970-01-01T00:30:22.000Z</time>
      </trkpt>
      <trkpt lat="45.23035" lon="1.55051">
        <ele>259.2</ele>
        <time>1970-01-01T00:30:23.000Z</time>
      </trkpt>
      <trkpt lat="45.23036" lon="1.55046">
        <ele>259.6</ele>
        <time>1970-01-01T00:30:25.000Z</time>
      </trkpt>
      <trkpt lat="45.23035" lon="1.55044">
        <ele>260.2</ele>
        <time>1970-01-01T00:30:26.000Z</time>
      </trkpt>
      <trkpt lat="45.23034" lon="1.55043">
        <ele>260.8</ele>
        <time>1970-01-01T00:30:27.000Z</time>
      </trkpt>
      <trkpt lat="45.23034" lon="1.55042">
        <ele>261.4</ele>
        <time>1970-01-01T00:30:29.000Z</time>
      </trkpt>
      <trkpt lat="45.23029" lon="1.5503">
        <ele>262.4</ele>
        <time>1970-01-01T00:30:35.000Z</time>
      </trkpt>
      <trkpt lat="45.2303" lon="1.55021">
        <ele>262.6</ele>
        <time>1970-01-01T00:30:38.000Z</time>
      </trkpt>
      <trkpt lat="45.23031" lon="1.55019">
        <ele>262.6</ele>
        <time>1970-01-01T00:30:39.000Z</time>
      </trkpt>
      <trkpt lat="45.23031" lon="1.55012">
        <ele>262.8</ele>
        <time>1970-01-01T00:30:41.000Z</time>
      </trkpt>
      <trkpt lat="45.23031" lon="1.55007">
        <ele>263.2</ele>
        <time>1970-01-01T00:30:43.000Z</time>
      </trkpt>
      <trkpt lat="45.23027" lon="1.55001">
        <ele>263.4</ele>
        <time>1970-01-01T00:30:47.000Z</time>
      </trkpt>
      <trkpt lat="45.23026" lon="1.55">
        <ele>264</ele>
        <time>1970-01-01T00:30:48.000Z</time>
      </trkpt>
      <trkpt lat="45.23022" lon="1.54988">
        <ele>264.8</ele>
        <time>1970-01-01T00:30:52.000Z</time>
      </trkpt>
      <trkpt lat="45.2302" lon="1.54987">
        <ele>265.2</ele>
        <time>1970-01-01T00:30:53.000Z</time>
      </trkpt>
      <trkpt lat="45.23019" lon="1.54986">
        <ele>265.2</ele>
        <time>1970-01-01T00:30:54.000Z</time>
      </trkpt>
      <trkpt lat="45.23015" lon="1.5498">
        <ele>266.4</ele>
        <time>1970-01-01T00:30:58.000Z</time>
      </trkpt>
      <trkpt lat="45.2301" lon="1.54977">
        <ele>266.8</ele>
        <time>1970-01-01T00:31:01.000Z</time>
      </trkpt>
      <trkpt lat="45.23006" lon="1.54973">
        <ele>267.2</ele>
        <time>1970-01-01T00:31:04.000Z</time>
      </trkpt>
      <trkpt lat="45.23004" lon="1.54971">
        <ele>267.4</ele>
        <time>1970-01-01T00:31:05.000Z</time>
      </trkpt>
      <trkpt lat="45.23002" lon="1.54969">
        <ele>267.4</ele>
        <time>1970-01-01T00:31:06.000Z</time>
      </trkpt>
      <trkpt lat="45.22997" lon="1.54966">
        <ele>268.4</ele>
        <time>1970-01-01T00:31:10.000Z</time>
      </trkpt>
      <trkpt lat="45.22995" lon="1.54965">
        <ele>268.6</ele>
        <time>1970-01-01T00:31:12.000Z</time>
      </trkpt>
      <trkpt lat="45.22991" lon="1.54965">
        <ele>269.6</ele>
        <time>1970-01-01T00:31:14.000Z</time>
      </trkpt>
      <trkpt lat="45.22989" lon="1.54965">
        <ele>270</ele>
        <time>1970-01-01T00:31:15.000Z</time>
      </trkpt>
      <trkpt lat="45.22985" lon="1.54963">
        <ele>270.2</ele>
        <time>1970-01-01T00:31:17.000Z</time>
      </trkpt>
      <trkpt lat="45.22983" lon="1.54962">
        <ele>270.4</ele>
        <time>1970-01-01T00:31:18.000Z</time>
      </trkpt>
      <trkpt lat="45.22979" lon="1.54961">
        <ele>270.6</ele>
        <time>1970-01-01T00:31:20.000Z</time>
      </trkpt>
      <trkpt lat="45.22973" lon="1.5496">
        <ele>271.6</ele>
        <time>1970-01-01T00:31:23.000Z</time>
      </trkpt>
      <trkpt lat="45.22972" lon="1.54959">
        <ele>272.2</ele>
        <time>1970-01-01T00:31:24.000Z</time>
      </trkpt>
      <trkpt lat="45.22969" lon="1.54958">
        <ele>272.6</ele>
        <time>1970-01-01T00:31:26.000Z</time>
      </trkpt>
      <trkpt lat="45.22965" lon="1.54957">
        <ele>273.4</ele>
        <time>1970-01-01T00:31:28.000Z</time>
      </trkpt>
      <trkpt lat="45.22963" lon="1.54956">
        <ele>273.6</ele>
        <time>1970-01-01T00:31:29.000Z</time>
      </trkpt>
      <trkpt lat="45.22958" lon="1.54956">
        <ele>274.6</ele>
        <time>1970-01-01T00:31:32.000Z</time>
      </trkpt>
      <trkpt lat="45.22953" lon="1.54954">
        <ele>275.4</ele>
        <time>1970-01-01T00:31:34.000Z</time>
      </trkpt>
      <trkpt lat="45.22949" lon="1.54953">
        <ele>276.2</ele>
        <time>1970-01-01T00:31:37.000Z</time>
      </trkpt>
      <trkpt lat="45.22941" lon="1.54953">
        <ele>277.4</ele>
        <time>1970-01-01T00:31:41.000Z</time>
      </trkpt>
      <trkpt lat="45.22933" lon="1.54952">
        <ele>278.4</ele>
        <time>1970-01-01T00:31:45.000Z</time>
      </trkpt>
      <trkpt lat="45.22925" lon="1.5495">
        <ele>279.8</ele>
        <time>1970-01-01T00:31:49.000Z</time>
      </trkpt>
      <trkpt lat="45.22923" lon="1.54951">
        <ele>279.8</ele>
        <time>1970-01-01T00:31:50.000Z</time>
      </trkpt>
      <trkpt lat="45.22918" lon="1.54951">
        <ele>280.8</ele>
        <time>1970-01-01T00:31:52.000Z</time>
      </trkpt>
      <trkpt lat="45.22911" lon="1.54951">
        <ele>282</ele>
        <time>1970-01-01T00:31:56.000Z</time>
      </trkpt>
      <trkpt lat="45.22907" lon="1.54951">
        <ele>282.8</ele>
        <time>1970-01-01T00:31:58.000Z</time>
      </trkpt>
      <trkpt lat="45.22903" lon="1.54951">
        <ele>283</ele>
        <time>1970-01-01T00:32:00.000Z</time>
      </trkpt>
      <trkpt lat="45.22897" lon="1.54953">
        <ele>284.4</ele>
        <time>1970-01-01T00:32:03.000Z</time>
      </trkpt>
      <trkpt lat="45.22895" lon="1.54953">
        <ele>285.2</ele>
        <time>1970-01-01T00:32:05.000Z</time>
      </trkpt>
      <trkpt lat="45.22891" lon="1.54951">
        <ele>285.6</ele>
        <time>1970-01-01T00:32:07.000Z</time>
      </trkpt>
      <trkpt lat="45.22885" lon="1.54946">
        <ele>286.8</ele>
        <time>1970-01-01T00:32:11.000Z</time>
      </trkpt>
      <trkpt lat="45.22882" lon="1.54943">
        <ele>287.6</ele>
        <time>1970-01-01T00:32:13.000Z</time>
      </trkpt>
      <trkpt lat="45.22877" lon="1.5494">
        <ele>288.4</ele>
        <time>1970-01-01T00:32:16.000Z</time>
      </trkpt>
      <trkpt lat="45.22869" lon="1.54935">
        <ele>289</ele>
        <time>1970-01-01T00:32:20.000Z</time>
      </trkpt>
      <trkpt lat="45.22858" lon="1.54929">
        <ele>289.4</ele>
        <time>1970-01-01T00:32:25.000Z</time>
      </trkpt>
      <trkpt lat="45.22846" lon="1.54923">
        <ele>290.4</ele>
        <time>1970-01-01T00:32:31.000Z</time>
      </trkpt>
      <trkpt lat="45.22844" lon="1.54923">
        <ele>290.6</ele>
        <time>1970-01-01T00:32:32.000Z</time>
      </trkpt>
      <trkpt lat="45.22842" lon="1.5493">
        <ele>291</ele>
        <time>1970-01-01T00:32:36.000Z</time>
      </trkpt>
      <trkpt lat="45.22837" lon="1.54945">
        <ele>291.6</ele>
        <time>1970-01-01T00:32:41.000Z</time>
      </trkpt>
      <trkpt lat="45.22831" lon="1.5495">
        <ele>292</ele>
        <time>1970-01-01T00:32:44.000Z</time>
      </trkpt>
      <trkpt lat="45.22822" lon="1.54953">
        <ele>292.2</ele>
        <time>1970-01-01T00:32:48.000Z</time>
      </trkpt>
      <trkpt lat="45.22819" lon="1.54954">
        <ele>292.2</ele>
        <time>1970-01-01T00:32:49.000Z</time>
      </trkpt>
      <trkpt lat="45.22807" lon="1.54956">
        <ele>292.6</ele>
        <time>1970-01-01T00:32:54.000Z</time>
      </trkpt>
      <trkpt lat="45.22804" lon="1.54957">
        <ele>292.8</ele>
        <time>1970-01-01T00:32:55.000Z</time>
      </trkpt>
      <trkpt lat="45.22798" lon="1.5496">
        <ele>293.2</ele>
        <time>1970-01-01T00:32:57.000Z</time>
      </trkpt>
      <trkpt lat="45.22792" lon="1.5496">
        <ele>293.2</ele>
        <time>1970-01-01T00:32:59.000Z</time>
      </trkpt>
      <trkpt lat="45.22775" lon="1.54963">
        <ele>293.6</ele>
        <time>1970-01-01T00:33:05.000Z</time>
      </trkpt>
      <trkpt lat="45.22772" lon="1.54963">
        <ele>293.6</ele>
        <time>1970-01-01T00:33:06.000Z</time>
      </trkpt>
      <trkpt lat="45.22759" lon="1.54963">
        <ele>293.8</ele>
        <time>1970-01-01T00:33:11.000Z</time>
      </trkpt>
      <trkpt lat="45.22754" lon="1.54963">
        <ele>294.2</ele>
        <time>1970-01-01T00:33:13.000Z</time>
      </trkpt>
      <trkpt lat="45.22743" lon="1.54962">
        <ele>294.8</ele>
        <time>1970-01-01T00:33:17.000Z</time>
      </trkpt>
      <trkpt lat="45.22735" lon="1.54964">
        <ele>295.4</ele>
        <time>1970-01-01T00:33:20.000Z</time>
      </trkpt>
      <trkpt lat="45.22726" lon="1.54967">
        <ele>296.2</ele>
        <time>1970-01-01T00:33:23.000Z</time>
      </trkpt>
      <trkpt lat="45.22721" lon="1.54966">
        <ele>296.6</ele>
        <time>1970-01-01T00:33:25.000Z</time>
      </trkpt>
      <trkpt lat="45.22715" lon="1.54969">
        <ele>296.6</ele>
        <time>1970-01-01T00:33:28.000Z</time>
      </trkpt>
      <trkpt lat="45.22703" lon="1.54976">
        <ele>297</ele>
        <time>1970-01-01T00:33:34.000Z</time>
      </trkpt>
      <trkpt lat="45.22689" lon="1.5498">
        <ele>296.4</ele>
        <time>1970-01-01T00:33:40.000Z</time>
      </trkpt>
      <trkpt lat="45.22679" lon="1.54989">
        <ele>297.6</ele>
        <time>1970-01-01T00:33:45.000Z</time>
      </trkpt>
      <trkpt lat="45.22677" lon="1.54992">
        <ele>297.8</ele>
        <time>1970-01-01T00:33:46.000Z</time>
      </trkpt>
      <trkpt lat="45.22673" lon="1.54998">
        <ele>298.4</ele>
        <time>1970-01-01T00:33:48.000Z</time>
      </trkpt>
      <trkpt lat="45.22668" lon="1.55001">
        <ele>298.6</ele>
        <time>1970-01-01T00:33:50.000Z</time>
      </trkpt>
      <trkpt lat="45.22666" lon="1.55004">
        <ele>299</ele>
        <time>1970-01-01T00:33:51.000Z</time>
      </trkpt>
      <trkpt lat="45.22655" lon="1.55013">
        <ele>300.4</ele>
        <time>1970-01-01T00:33:56.000Z</time>
      </trkpt>
      <trkpt lat="45.22651" lon="1.55018">
        <ele>300.6</ele>
        <time>1970-01-01T00:33:58.000Z</time>
      </trkpt>
      <trkpt lat="45.22641" lon="1.55025">
        <ele>301.4</ele>
        <time>1970-01-01T00:34:03.000Z</time>
      </trkpt>
      <trkpt lat="45.22639" lon="1.55027">
        <ele>301.6</ele>
        <time>1970-01-01T00:34:04.000Z</time>
      </trkpt>
      <trkpt lat="45.22621" lon="1.55036">
        <ele>302.4</ele>
        <time>1970-01-01T00:34:12.000Z</time>
      </trkpt>
      <trkpt lat="45.22619" lon="1.55037">
        <ele>302.6</ele>
        <time>1970-01-01T00:34:13.000Z</time>
      </trkpt>
      <trkpt lat="45.22606" lon="1.55044">
        <ele>303.6</ele>
        <time>1970-01-01T00:34:18.000Z</time>
      </trkpt>
      <trkpt lat="45.22601" lon="1.55048">
        <ele>303.8</ele>
        <time>1970-01-01T00:34:20.000Z</time>
      </trkpt>
      <trkpt lat="45.22597" lon="1.55049">
        <ele>304.4</ele>
        <time>1970-01-01T00:34:22.000Z</time>
      </trkpt>
      <trkpt lat="45.22593" lon="1.5505">
        <ele>304.8</ele>
        <time>1970-01-01T00:34:24.000Z</time>
      </trkpt>
      <trkpt lat="45.22579" lon="1.55053">
        <ele>305.6</ele>
        <time>1970-01-01T00:34:30.000Z</time>
      </trkpt>
      <trkpt lat="45.22576" lon="1.55053">
        <ele>306</ele>
        <time>1970-01-01T00:34:32.000Z</time>
      </trkpt>
      <trkpt lat="45.22563" lon="1.55056">
        <ele>306.8</ele>
        <time>1970-01-01T00:34:38.000Z</time>
      </trkpt>
      <trkpt lat="45.22552" lon="1.55059">
        <ele>307.4</ele>
        <time>1970-01-01T00:34:42.000Z</time>
      </trkpt>
      <trkpt lat="45.2254" lon="1.55059">
        <ele>307.8</ele>
        <time>1970-01-01T00:34:47.000Z</time>
      </trkpt>
      <trkpt lat="45.22538" lon="1.55059">
        <ele>308</ele>
        <time>1970-01-01T00:34:48.000Z</time>
      </trkpt>
      <trkpt lat="45.22534" lon="1.5506">
        <ele>308.2</ele>
        <time>1970-01-01T00:34:50.000Z</time>
      </trkpt>
      <trkpt lat="45.22533" lon="1.5506">
        <ele>308.4</ele>
        <time>1970-01-01T00:34:51.000Z</time>
      </trkpt>
      <trkpt lat="45.22517" lon="1.55065">
        <ele>309.4</ele>
        <time>1970-01-01T00:34:58.000Z</time>
      </trkpt>
      <trkpt lat="45.22498" lon="1.55073">
        <ele>310</ele>
        <time>1970-01-01T00:35:05.000Z</time>
      </trkpt>
      <trkpt lat="45.22496" lon="1.55074">
        <ele>310</ele>
        <time>1970-01-01T00:35:06.000Z</time>
      </trkpt>
      <trkpt lat="45.22491" lon="1.55077">
        <ele>310.8</ele>
        <time>1970-01-01T00:35:08.000Z</time>
      </trkpt>
      <trkpt lat="45.22483" lon="1.55084">
        <ele>311.8</ele>
        <time>1970-01-01T00:35:12.000Z</time>
      </trkpt>
      <trkpt lat="45.22481" lon="1.55086">
        <ele>311.8</ele>
        <time>1970-01-01T00:35:13.000Z</time>
      </trkpt>
    </trkseg>
  </trk>
</gpx>